<?xml version="1.0" encoding="UTF-8" standalone="no" ?>
<gpx xmlns="http://www.topografix.com/GPX/1/1" xmlns:xsi="http://www.w3.org/2001/XMLSchema-instance" xsi:schemaLocation="http://www.topografix.com/GPX/1/1 http://www.topografix.com/GPX/1/1/gpx.xsd" version="1.1" creator="VisuGPX - https://www.visugpx.com">
  <metadata>
    <name>Rando du Hibou 2013</name>
    <desc><![CDATA[Randonnée organisée par le comité des fêtes de St Aupre. Bien sympa.]]></desc>
  </metadata>
  <trk>
    <name><![CDATA[2013-06-23-RandoHibou]]></name>
    <trkseg>
      <trkpt lat="45.39885" lon="5.67108">
        <ele>464.4</ele>
        <time>2013-06-23T05:28:22Z</time>
      </trkpt>
      <trkpt lat="45.39879" lon="5.67104">
        <ele>464.3</ele>
        <time>2013-06-23T05:28:42Z</time>
      </trkpt>
      <trkpt lat="45.39873" lon="5.67101">
        <ele>464.2</ele>
        <time>2013-06-23T05:28:43Z</time>
      </trkpt>
      <trkpt lat="45.39867" lon="5.67109">
        <ele>464.8</ele>
        <time>2013-06-23T05:29:07Z</time>
      </trkpt>
      <trkpt lat="45.39868" lon="5.67122">
        <ele>464.9</ele>
        <time>2013-06-23T05:29:12Z</time>
      </trkpt>
      <trkpt lat="45.39866" lon="5.67133">
        <ele>464.7</ele>
        <time>2013-06-23T05:29:17Z</time>
      </trkpt>
      <trkpt lat="45.39858" lon="5.67135">
        <ele>464.5</ele>
        <time>2013-06-23T05:29:20Z</time>
      </trkpt>
      <trkpt lat="45.3985" lon="5.67131">
        <ele>464.3</ele>
        <time>2013-06-23T05:29:23Z</time>
      </trkpt>
      <trkpt lat="45.39844" lon="5.67131">
        <ele>464.8</ele>
        <time>2013-06-23T05:29:25Z</time>
      </trkpt>
      <trkpt lat="45.39838" lon="5.67134">
        <ele>465.1</ele>
        <time>2013-06-23T05:29:27Z</time>
      </trkpt>
      <trkpt lat="45.3983" lon="5.67139">
        <ele>465.2</ele>
        <time>2013-06-23T05:29:30Z</time>
      </trkpt>
      <trkpt lat="45.39822" lon="5.67144">
        <ele>465</ele>
        <time>2013-06-23T05:29:32Z</time>
      </trkpt>
      <trkpt lat="45.39817" lon="5.67149">
        <ele>465.3</ele>
        <time>2013-06-23T05:29:34Z</time>
      </trkpt>
      <trkpt lat="45.39811" lon="5.67154">
        <ele>465.4</ele>
        <time>2013-06-23T05:29:36Z</time>
      </trkpt>
      <trkpt lat="45.39806" lon="5.67159">
        <ele>465.3</ele>
        <time>2013-06-23T05:29:38Z</time>
      </trkpt>
      <trkpt lat="45.39801" lon="5.67166">
        <ele>464.5</ele>
        <time>2013-06-23T05:29:40Z</time>
      </trkpt>
      <trkpt lat="45.39797" lon="5.67173">
        <ele>464.1</ele>
        <time>2013-06-23T05:29:42Z</time>
      </trkpt>
      <trkpt lat="45.39791" lon="5.67182">
        <ele>463.9</ele>
        <time>2013-06-23T05:29:45Z</time>
      </trkpt>
      <trkpt lat="45.39789" lon="5.67185">
        <ele>464</ele>
        <time>2013-06-23T05:29:46Z</time>
      </trkpt>
      <trkpt lat="45.39782" lon="5.67193">
        <ele>464.6</ele>
        <time>2013-06-23T05:29:49Z</time>
      </trkpt>
      <trkpt lat="45.39777" lon="5.67198">
        <ele>465.2</ele>
        <time>2013-06-23T05:29:51Z</time>
      </trkpt>
      <trkpt lat="45.39769" lon="5.67204">
        <ele>464.9</ele>
        <time>2013-06-23T05:29:54Z</time>
      </trkpt>
      <trkpt lat="45.39761" lon="5.67208">
        <ele>466.7</ele>
        <time>2013-06-23T05:29:57Z</time>
      </trkpt>
      <trkpt lat="45.39754" lon="5.6721">
        <ele>467</ele>
        <time>2013-06-23T05:30:00Z</time>
      </trkpt>
      <trkpt lat="45.39746" lon="5.6721">
        <ele>468.6</ele>
        <time>2013-06-23T05:30:03Z</time>
      </trkpt>
      <trkpt lat="45.39739" lon="5.67209">
        <ele>469.5</ele>
        <time>2013-06-23T05:30:06Z</time>
      </trkpt>
      <trkpt lat="45.39732" lon="5.67208">
        <ele>469.3</ele>
        <time>2013-06-23T05:30:09Z</time>
      </trkpt>
      <trkpt lat="45.39724" lon="5.67209">
        <ele>469.8</ele>
        <time>2013-06-23T05:30:12Z</time>
      </trkpt>
      <trkpt lat="45.39716" lon="5.67212">
        <ele>470.9</ele>
        <time>2013-06-23T05:30:16Z</time>
      </trkpt>
      <trkpt lat="45.39709" lon="5.67214">
        <ele>471.5</ele>
        <time>2013-06-23T05:30:20Z</time>
      </trkpt>
      <trkpt lat="45.39701" lon="5.67217">
        <ele>472.8</ele>
        <time>2013-06-23T05:30:25Z</time>
      </trkpt>
      <trkpt lat="45.39693" lon="5.67219">
        <ele>474.7</ele>
        <time>2013-06-23T05:30:30Z</time>
      </trkpt>
      <trkpt lat="45.39685" lon="5.67221">
        <ele>476.1</ele>
        <time>2013-06-23T05:30:35Z</time>
      </trkpt>
      <trkpt lat="45.39678" lon="5.67224">
        <ele>479.4</ele>
        <time>2013-06-23T05:30:52Z</time>
      </trkpt>
      <trkpt lat="45.39675" lon="5.67225">
        <ele>479.9</ele>
        <time>2013-06-23T05:30:53Z</time>
      </trkpt>
      <trkpt lat="45.39663" lon="5.67226">
        <ele>481.2</ele>
        <time>2013-06-23T05:30:58Z</time>
      </trkpt>
      <trkpt lat="45.39655" lon="5.67226">
        <ele>482.4</ele>
        <time>2013-06-23T05:31:02Z</time>
      </trkpt>
      <trkpt lat="45.39648" lon="5.67227">
        <ele>484.9</ele>
        <time>2013-06-23T05:31:12Z</time>
      </trkpt>
      <trkpt lat="45.39641" lon="5.67227">
        <ele>488.8</ele>
        <time>2013-06-23T05:31:33Z</time>
      </trkpt>
      <trkpt lat="45.39634" lon="5.67225">
        <ele>489.3</ele>
        <time>2013-06-23T05:31:35Z</time>
      </trkpt>
      <trkpt lat="45.39627" lon="5.67224">
        <ele>491.3</ele>
        <time>2013-06-23T05:31:45Z</time>
      </trkpt>
      <trkpt lat="45.3962" lon="5.67221">
        <ele>491.7</ele>
        <time>2013-06-23T05:31:47Z</time>
      </trkpt>
      <trkpt lat="45.39613" lon="5.67219">
        <ele>492.1</ele>
        <time>2013-06-23T05:31:49Z</time>
      </trkpt>
      <trkpt lat="45.39607" lon="5.67217">
        <ele>493.8</ele>
        <time>2013-06-23T05:32:01Z</time>
      </trkpt>
      <trkpt lat="45.39603" lon="5.67216">
        <ele>493.9</ele>
        <time>2013-06-23T05:32:02Z</time>
      </trkpt>
      <trkpt lat="45.3953" lon="5.67189">
        <ele>499</ele>
        <time>2013-06-23T05:32:36Z</time>
      </trkpt>
      <trkpt lat="45.39523" lon="5.67185">
        <ele>504.1</ele>
        <time>2013-06-23T05:33:05Z</time>
      </trkpt>
      <trkpt lat="45.3952" lon="5.67184">
        <ele>503.8</ele>
        <time>2013-06-23T05:33:06Z</time>
      </trkpt>
      <trkpt lat="45.3951" lon="5.67179">
        <ele>506.1</ele>
        <time>2013-06-23T05:33:15Z</time>
      </trkpt>
      <trkpt lat="45.39504" lon="5.67176">
        <ele>507.8</ele>
        <time>2013-06-23T05:33:23Z</time>
      </trkpt>
      <trkpt lat="45.39497" lon="5.67173">
        <ele>507.9</ele>
        <time>2013-06-23T05:33:25Z</time>
      </trkpt>
      <trkpt lat="45.3949" lon="5.67169">
        <ele>510.5</ele>
        <time>2013-06-23T05:33:33Z</time>
      </trkpt>
      <trkpt lat="45.39482" lon="5.67166">
        <ele>511.2</ele>
        <time>2013-06-23T05:33:35Z</time>
      </trkpt>
      <trkpt lat="45.39476" lon="5.67164">
        <ele>513</ele>
        <time>2013-06-23T05:33:43Z</time>
      </trkpt>
      <trkpt lat="45.39469" lon="5.6716">
        <ele>513.5</ele>
        <time>2013-06-23T05:33:45Z</time>
      </trkpt>
      <trkpt lat="45.39462" lon="5.67157">
        <ele>514.7</ele>
        <time>2013-06-23T05:33:54Z</time>
      </trkpt>
      <trkpt lat="45.39455" lon="5.67153">
        <ele>515.9</ele>
        <time>2013-06-23T05:33:56Z</time>
      </trkpt>
      <trkpt lat="45.39449" lon="5.6716">
        <ele>524.2</ele>
        <time>2013-06-23T05:34:51Z</time>
      </trkpt>
      <trkpt lat="45.39449" lon="5.67165">
        <ele>524.6</ele>
        <time>2013-06-23T05:34:52Z</time>
      </trkpt>
      <trkpt lat="45.39452" lon="5.67179">
        <ele>527.4</ele>
        <time>2013-06-23T05:35:06Z</time>
      </trkpt>
      <trkpt lat="45.39454" lon="5.67187">
        <ele>528.8</ele>
        <time>2013-06-23T05:35:15Z</time>
      </trkpt>
      <trkpt lat="45.39458" lon="5.67197">
        <ele>528.9</ele>
        <time>2013-06-23T05:35:17Z</time>
      </trkpt>
      <trkpt lat="45.39461" lon="5.67205">
        <ele>529.9</ele>
        <time>2013-06-23T05:35:25Z</time>
      </trkpt>
      <trkpt lat="45.39465" lon="5.67215">
        <ele>530.2</ele>
        <time>2013-06-23T05:35:27Z</time>
      </trkpt>
      <trkpt lat="45.39468" lon="5.67223">
        <ele>533</ele>
        <time>2013-06-23T05:35:36Z</time>
      </trkpt>
      <trkpt lat="45.39472" lon="5.67231">
        <ele>533.4</ele>
        <time>2013-06-23T05:35:38Z</time>
      </trkpt>
      <trkpt lat="45.39476" lon="5.67239">
        <ele>534.4</ele>
        <time>2013-06-23T05:35:46Z</time>
      </trkpt>
      <trkpt lat="45.3948" lon="5.67247">
        <ele>534.6</ele>
        <time>2013-06-23T05:35:48Z</time>
      </trkpt>
      <trkpt lat="45.39483" lon="5.67255">
        <ele>536.2</ele>
        <time>2013-06-23T05:35:55Z</time>
      </trkpt>
      <trkpt lat="45.39485" lon="5.67259">
        <ele>536.9</ele>
        <time>2013-06-23T05:35:56Z</time>
      </trkpt>
      <trkpt lat="45.3949" lon="5.67271">
        <ele>538</ele>
        <time>2013-06-23T05:36:05Z</time>
      </trkpt>
      <trkpt lat="45.39494" lon="5.67278">
        <ele>538.8</ele>
        <time>2013-06-23T05:36:07Z</time>
      </trkpt>
      <trkpt lat="45.39498" lon="5.67285">
        <ele>539.7</ele>
        <time>2013-06-23T05:36:16Z</time>
      </trkpt>
      <trkpt lat="45.39504" lon="5.67292">
        <ele>540.2</ele>
        <time>2013-06-23T05:36:18Z</time>
      </trkpt>
      <trkpt lat="45.39508" lon="5.67299">
        <ele>541.5</ele>
        <time>2013-06-23T05:36:26Z</time>
      </trkpt>
      <trkpt lat="45.39514" lon="5.67307">
        <ele>542.4</ele>
        <time>2013-06-23T05:36:28Z</time>
      </trkpt>
      <trkpt lat="45.39519" lon="5.67313">
        <ele>543.6</ele>
        <time>2013-06-23T05:36:35Z</time>
      </trkpt>
      <trkpt lat="45.39524" lon="5.67322">
        <ele>544</ele>
        <time>2013-06-23T05:36:37Z</time>
      </trkpt>
      <trkpt lat="45.39529" lon="5.6733">
        <ele>545.9</ele>
        <time>2013-06-23T05:36:45Z</time>
      </trkpt>
      <trkpt lat="45.39533" lon="5.67339">
        <ele>546</ele>
        <time>2013-06-23T05:36:47Z</time>
      </trkpt>
      <trkpt lat="45.39536" lon="5.67346">
        <ele>547.2</ele>
        <time>2013-06-23T05:36:56Z</time>
      </trkpt>
      <trkpt lat="45.39538" lon="5.67351">
        <ele>547.1</ele>
        <time>2013-06-23T05:36:57Z</time>
      </trkpt>
      <trkpt lat="45.39542" lon="5.67364">
        <ele>551.4</ele>
        <time>2013-06-23T05:37:07Z</time>
      </trkpt>
      <trkpt lat="45.39547" lon="5.67372">
        <ele>551.9</ele>
        <time>2013-06-23T05:37:09Z</time>
      </trkpt>
      <trkpt lat="45.39551" lon="5.67379">
        <ele>553.4</ele>
        <time>2013-06-23T05:37:19Z</time>
      </trkpt>
      <trkpt lat="45.39557" lon="5.67386">
        <ele>553.7</ele>
        <time>2013-06-23T05:37:21Z</time>
      </trkpt>
      <trkpt lat="45.39562" lon="5.67393">
        <ele>553.9</ele>
        <time>2013-06-23T05:37:23Z</time>
      </trkpt>
      <trkpt lat="45.39567" lon="5.674">
        <ele>557.4</ele>
        <time>2013-06-23T05:37:34Z</time>
      </trkpt>
      <trkpt lat="45.39572" lon="5.67407">
        <ele>556.8</ele>
        <time>2013-06-23T05:37:36Z</time>
      </trkpt>
      <trkpt lat="45.39576" lon="5.67415">
        <ele>559.9</ele>
        <time>2013-06-23T05:37:43Z</time>
      </trkpt>
      <trkpt lat="45.3958" lon="5.67423">
        <ele>559.8</ele>
        <time>2013-06-23T05:37:45Z</time>
      </trkpt>
      <trkpt lat="45.39583" lon="5.6743">
        <ele>559.9</ele>
        <time>2013-06-23T05:37:47Z</time>
      </trkpt>
      <trkpt lat="45.3959" lon="5.67438">
        <ele>560.8</ele>
        <time>2013-06-23T05:37:50Z</time>
      </trkpt>
      <trkpt lat="45.39594" lon="5.67447">
        <ele>562.5</ele>
        <time>2013-06-23T05:37:53Z</time>
      </trkpt>
      <trkpt lat="45.39588" lon="5.67456">
        <ele>566.3</ele>
        <time>2013-06-23T05:40:36Z</time>
      </trkpt>
      <trkpt lat="45.39587" lon="5.67456">
        <ele>566.6</ele>
        <time>2013-06-23T05:40:37Z</time>
      </trkpt>
      <trkpt lat="45.39572" lon="5.67452">
        <ele>568.5</ele>
        <time>2013-06-23T05:40:49Z</time>
      </trkpt>
      <trkpt lat="45.39564" lon="5.6745">
        <ele>569.1</ele>
        <time>2013-06-23T05:40:54Z</time>
      </trkpt>
      <trkpt lat="45.39555" lon="5.67447">
        <ele>569.8</ele>
        <time>2013-06-23T05:40:59Z</time>
      </trkpt>
      <trkpt lat="45.39548" lon="5.67442">
        <ele>572.5</ele>
        <time>2013-06-23T05:41:09Z</time>
      </trkpt>
      <trkpt lat="45.39541" lon="5.67448">
        <ele>573.2</ele>
        <time>2013-06-23T05:41:13Z</time>
      </trkpt>
      <trkpt lat="45.39534" lon="5.67455">
        <ele>572.6</ele>
        <time>2013-06-23T05:41:16Z</time>
      </trkpt>
      <trkpt lat="45.39528" lon="5.67463">
        <ele>572.5</ele>
        <time>2013-06-23T05:41:18Z</time>
      </trkpt>
      <trkpt lat="45.3952" lon="5.67468">
        <ele>572.4</ele>
        <time>2013-06-23T05:41:20Z</time>
      </trkpt>
      <trkpt lat="45.39516" lon="5.67473">
        <ele>572.3</ele>
        <time>2013-06-23T05:41:21Z</time>
      </trkpt>
      <trkpt lat="45.39511" lon="5.67482">
        <ele>572.2</ele>
        <time>2013-06-23T05:41:23Z</time>
      </trkpt>
      <trkpt lat="45.39507" lon="5.67488">
        <ele>571.9</ele>
        <time>2013-06-23T05:41:25Z</time>
      </trkpt>
      <trkpt lat="45.39504" lon="5.67496">
        <ele>571.7</ele>
        <time>2013-06-23T05:41:27Z</time>
      </trkpt>
      <trkpt lat="45.39499" lon="5.67506">
        <ele>572</ele>
        <time>2013-06-23T05:41:30Z</time>
      </trkpt>
      <trkpt lat="45.39497" lon="5.67513">
        <ele>572.6</ele>
        <time>2013-06-23T05:41:32Z</time>
      </trkpt>
      <trkpt lat="45.39496" lon="5.67522">
        <ele>572.4</ele>
        <time>2013-06-23T05:41:34Z</time>
      </trkpt>
      <trkpt lat="45.39496" lon="5.67535">
        <ele>572.1</ele>
        <time>2013-06-23T05:41:37Z</time>
      </trkpt>
      <trkpt lat="45.39497" lon="5.67539">
        <ele>572</ele>
        <time>2013-06-23T05:41:38Z</time>
      </trkpt>
      <trkpt lat="45.39502" lon="5.67553">
        <ele>573</ele>
        <time>2013-06-23T05:41:41Z</time>
      </trkpt>
      <trkpt lat="45.39507" lon="5.67559">
        <ele>573</ele>
        <time>2013-06-23T05:41:43Z</time>
      </trkpt>
      <trkpt lat="45.39512" lon="5.67565">
        <ele>572.6</ele>
        <time>2013-06-23T05:41:45Z</time>
      </trkpt>
      <trkpt lat="45.39518" lon="5.67571">
        <ele>572.4</ele>
        <time>2013-06-23T05:41:47Z</time>
      </trkpt>
      <trkpt lat="45.39523" lon="5.6758">
        <ele>572.5</ele>
        <time>2013-06-23T05:41:49Z</time>
      </trkpt>
      <trkpt lat="45.39526" lon="5.67585">
        <ele>572.6</ele>
        <time>2013-06-23T05:41:50Z</time>
      </trkpt>
      <trkpt lat="45.39531" lon="5.67595">
        <ele>573</ele>
        <time>2013-06-23T05:41:52Z</time>
      </trkpt>
      <trkpt lat="45.39535" lon="5.67603">
        <ele>573.3</ele>
        <time>2013-06-23T05:41:54Z</time>
      </trkpt>
      <trkpt lat="45.39539" lon="5.67611">
        <ele>572.7</ele>
        <time>2013-06-23T05:41:56Z</time>
      </trkpt>
      <trkpt lat="45.39542" lon="5.67622">
        <ele>571.5</ele>
        <time>2013-06-23T05:41:59Z</time>
      </trkpt>
      <trkpt lat="45.39544" lon="5.67634">
        <ele>571.5</ele>
        <time>2013-06-23T05:42:03Z</time>
      </trkpt>
      <trkpt lat="45.39549" lon="5.67644">
        <ele>573.6</ele>
        <time>2013-06-23T05:42:08Z</time>
      </trkpt>
      <trkpt lat="45.39554" lon="5.67654">
        <ele>575.4</ele>
        <time>2013-06-23T05:42:17Z</time>
      </trkpt>
      <trkpt lat="45.39556" lon="5.67664">
        <ele>579.5</ele>
        <time>2013-06-23T05:42:34Z</time>
      </trkpt>
      <trkpt lat="45.39557" lon="5.67673">
        <ele>580.5</ele>
        <time>2013-06-23T05:42:36Z</time>
      </trkpt>
      <trkpt lat="45.39559" lon="5.67685">
        <ele>580.2</ele>
        <time>2013-06-23T05:42:39Z</time>
      </trkpt>
      <trkpt lat="45.39559" lon="5.67689">
        <ele>580.7</ele>
        <time>2013-06-23T05:42:40Z</time>
      </trkpt>
      <trkpt lat="45.39563" lon="5.67706">
        <ele>585.5</ele>
        <time>2013-06-23T05:43:03Z</time>
      </trkpt>
      <trkpt lat="45.39565" lon="5.67715">
        <ele>586.7</ele>
        <time>2013-06-23T05:43:05Z</time>
      </trkpt>
      <trkpt lat="45.39566" lon="5.67724">
        <ele>587.5</ele>
        <time>2013-06-23T05:43:13Z</time>
      </trkpt>
      <trkpt lat="45.39567" lon="5.67734">
        <ele>587.9</ele>
        <time>2013-06-23T05:43:15Z</time>
      </trkpt>
      <trkpt lat="45.3956" lon="5.67733">
        <ele>603.8</ele>
        <time>2013-06-23T05:44:42Z</time>
      </trkpt>
      <trkpt lat="45.39558" lon="5.6773">
        <ele>604</ele>
        <time>2013-06-23T05:44:43Z</time>
      </trkpt>
      <trkpt lat="45.39551" lon="5.67721">
        <ele>606.8</ele>
        <time>2013-06-23T05:44:59Z</time>
      </trkpt>
      <trkpt lat="45.39546" lon="5.67716">
        <ele>606.8</ele>
        <time>2013-06-23T05:45:01Z</time>
      </trkpt>
      <trkpt lat="45.39538" lon="5.67722">
        <ele>614.2</ele>
        <time>2013-06-23T05:45:53Z</time>
      </trkpt>
      <trkpt lat="45.39537" lon="5.67726">
        <ele>614.3</ele>
        <time>2013-06-23T05:45:54Z</time>
      </trkpt>
      <trkpt lat="45.39533" lon="5.6774">
        <ele>615.1</ele>
        <time>2013-06-23T05:45:57Z</time>
      </trkpt>
      <trkpt lat="45.39531" lon="5.67751">
        <ele>615</ele>
        <time>2013-06-23T05:46:00Z</time>
      </trkpt>
      <trkpt lat="45.3953" lon="5.67762">
        <ele>614</ele>
        <time>2013-06-23T05:46:03Z</time>
      </trkpt>
      <trkpt lat="45.3953" lon="5.67775">
        <ele>614.5</ele>
        <time>2013-06-23T05:46:07Z</time>
      </trkpt>
      <trkpt lat="45.3953" lon="5.67785">
        <ele>614.7</ele>
        <time>2013-06-23T05:46:10Z</time>
      </trkpt>
      <trkpt lat="45.39531" lon="5.67796">
        <ele>614.6</ele>
        <time>2013-06-23T05:46:13Z</time>
      </trkpt>
      <trkpt lat="45.39532" lon="5.67807">
        <ele>615.7</ele>
        <time>2013-06-23T05:46:17Z</time>
      </trkpt>
      <trkpt lat="45.39534" lon="5.67817">
        <ele>615.2</ele>
        <time>2013-06-23T05:46:21Z</time>
      </trkpt>
      <trkpt lat="45.39535" lon="5.67829">
        <ele>614.9</ele>
        <time>2013-06-23T05:46:26Z</time>
      </trkpt>
      <trkpt lat="45.39538" lon="5.6784">
        <ele>615.2</ele>
        <time>2013-06-23T05:46:31Z</time>
      </trkpt>
      <trkpt lat="45.39537" lon="5.67851">
        <ele>615.5</ele>
        <time>2013-06-23T05:46:36Z</time>
      </trkpt>
      <trkpt lat="45.39534" lon="5.67862">
        <ele>615.9</ele>
        <time>2013-06-23T05:46:46Z</time>
      </trkpt>
      <trkpt lat="45.39532" lon="5.67872">
        <ele>615.9</ele>
        <time>2013-06-23T05:46:50Z</time>
      </trkpt>
      <trkpt lat="45.3953" lon="5.67881">
        <ele>615.9</ele>
        <time>2013-06-23T05:46:54Z</time>
      </trkpt>
      <trkpt lat="45.3953" lon="5.67885">
        <ele>615.9</ele>
        <time>2013-06-23T05:46:55Z</time>
      </trkpt>
      <trkpt lat="45.3953" lon="5.67903">
        <ele>615.4</ele>
        <time>2013-06-23T05:47:00Z</time>
      </trkpt>
      <trkpt lat="45.3953" lon="5.67914">
        <ele>616.2</ele>
        <time>2013-06-23T05:47:03Z</time>
      </trkpt>
      <trkpt lat="45.3953" lon="5.67925">
        <ele>615.5</ele>
        <time>2013-06-23T05:47:06Z</time>
      </trkpt>
      <trkpt lat="45.3953" lon="5.67935">
        <ele>614.9</ele>
        <time>2013-06-23T05:47:09Z</time>
      </trkpt>
      <trkpt lat="45.39532" lon="5.67945">
        <ele>615.2</ele>
        <time>2013-06-23T05:47:12Z</time>
      </trkpt>
      <trkpt lat="45.39534" lon="5.67954">
        <ele>615.7</ele>
        <time>2013-06-23T05:47:14Z</time>
      </trkpt>
      <trkpt lat="45.39535" lon="5.67962">
        <ele>616.1</ele>
        <time>2013-06-23T05:47:16Z</time>
      </trkpt>
      <trkpt lat="45.39537" lon="5.67971">
        <ele>616.2</ele>
        <time>2013-06-23T05:47:18Z</time>
      </trkpt>
      <trkpt lat="45.39539" lon="5.67981">
        <ele>616.1</ele>
        <time>2013-06-23T05:47:20Z</time>
      </trkpt>
      <trkpt lat="45.39541" lon="5.67989">
        <ele>615.4</ele>
        <time>2013-06-23T05:47:22Z</time>
      </trkpt>
      <trkpt lat="45.39544" lon="5.67998">
        <ele>615.1</ele>
        <time>2013-06-23T05:47:24Z</time>
      </trkpt>
      <trkpt lat="45.39548" lon="5.68006">
        <ele>613.9</ele>
        <time>2013-06-23T05:47:26Z</time>
      </trkpt>
      <trkpt lat="45.39553" lon="5.68015">
        <ele>613.8</ele>
        <time>2013-06-23T05:47:28Z</time>
      </trkpt>
      <trkpt lat="45.39556" lon="5.68028">
        <ele>614.1</ele>
        <time>2013-06-23T05:47:30Z</time>
      </trkpt>
      <trkpt lat="45.39556" lon="5.68035">
        <ele>613.7</ele>
        <time>2013-06-23T05:47:31Z</time>
      </trkpt>
      <trkpt lat="45.39557" lon="5.68042">
        <ele>613.4</ele>
        <time>2013-06-23T05:47:32Z</time>
      </trkpt>
      <trkpt lat="45.39558" lon="5.68049">
        <ele>613.2</ele>
        <time>2013-06-23T05:47:33Z</time>
      </trkpt>
      <trkpt lat="45.3956" lon="5.68061">
        <ele>612.4</ele>
        <time>2013-06-23T05:47:35Z</time>
      </trkpt>
      <trkpt lat="45.39563" lon="5.68071">
        <ele>611.8</ele>
        <time>2013-06-23T05:47:38Z</time>
      </trkpt>
      <trkpt lat="45.39564" lon="5.68083">
        <ele>611.9</ele>
        <time>2013-06-23T05:47:42Z</time>
      </trkpt>
      <trkpt lat="45.39564" lon="5.68093">
        <ele>612</ele>
        <time>2013-06-23T05:47:47Z</time>
      </trkpt>
      <trkpt lat="45.39564" lon="5.68104">
        <ele>612.3</ele>
        <time>2013-06-23T05:47:51Z</time>
      </trkpt>
      <trkpt lat="45.39556" lon="5.68107">
        <ele>612.3</ele>
        <time>2013-06-23T05:47:56Z</time>
      </trkpt>
      <trkpt lat="45.39554" lon="5.68105">
        <ele>612.4</ele>
        <time>2013-06-23T05:47:57Z</time>
      </trkpt>
      <trkpt lat="45.39542" lon="5.68095">
        <ele>612.2</ele>
        <time>2013-06-23T05:48:04Z</time>
      </trkpt>
      <trkpt lat="45.39534" lon="5.68089">
        <ele>612.9</ele>
        <time>2013-06-23T05:48:09Z</time>
      </trkpt>
      <trkpt lat="45.39527" lon="5.68086">
        <ele>612.6</ele>
        <time>2013-06-23T05:48:13Z</time>
      </trkpt>
      <trkpt lat="45.3952" lon="5.68082">
        <ele>612.8</ele>
        <time>2013-06-23T05:48:17Z</time>
      </trkpt>
      <trkpt lat="45.39512" lon="5.68077">
        <ele>612.9</ele>
        <time>2013-06-23T05:48:22Z</time>
      </trkpt>
      <trkpt lat="45.39504" lon="5.68075">
        <ele>613.5</ele>
        <time>2013-06-23T05:48:27Z</time>
      </trkpt>
      <trkpt lat="45.39497" lon="5.68067">
        <ele>614.4</ele>
        <time>2013-06-23T05:48:32Z</time>
      </trkpt>
      <trkpt lat="45.39491" lon="5.68061">
        <ele>614.4</ele>
        <time>2013-06-23T05:48:36Z</time>
      </trkpt>
      <trkpt lat="45.39484" lon="5.68055">
        <ele>615.5</ele>
        <time>2013-06-23T05:48:40Z</time>
      </trkpt>
      <trkpt lat="45.39477" lon="5.68051">
        <ele>615.3</ele>
        <time>2013-06-23T05:48:44Z</time>
      </trkpt>
      <trkpt lat="45.3947" lon="5.68045">
        <ele>616.2</ele>
        <time>2013-06-23T05:48:48Z</time>
      </trkpt>
      <trkpt lat="45.39463" lon="5.68041">
        <ele>616.9</ele>
        <time>2013-06-23T05:48:56Z</time>
      </trkpt>
      <trkpt lat="45.39456" lon="5.68035">
        <ele>617.6</ele>
        <time>2013-06-23T05:48:59Z</time>
      </trkpt>
      <trkpt lat="45.39454" lon="5.68033">
        <ele>617.8</ele>
        <time>2013-06-23T05:49:00Z</time>
      </trkpt>
      <trkpt lat="45.39444" lon="5.68025">
        <ele>617.1</ele>
        <time>2013-06-23T05:49:05Z</time>
      </trkpt>
      <trkpt lat="45.39437" lon="5.68019">
        <ele>618</ele>
        <time>2013-06-23T05:49:09Z</time>
      </trkpt>
      <trkpt lat="45.39429" lon="5.68014">
        <ele>618.7</ele>
        <time>2013-06-23T05:49:13Z</time>
      </trkpt>
      <trkpt lat="45.39422" lon="5.68009">
        <ele>619.1</ele>
        <time>2013-06-23T05:49:16Z</time>
      </trkpt>
      <trkpt lat="45.39414" lon="5.68005">
        <ele>619.4</ele>
        <time>2013-06-23T05:49:20Z</time>
      </trkpt>
      <trkpt lat="45.39407" lon="5.67999">
        <ele>619.6</ele>
        <time>2013-06-23T05:49:24Z</time>
      </trkpt>
      <trkpt lat="45.394" lon="5.67993">
        <ele>620.1</ele>
        <time>2013-06-23T05:49:28Z</time>
      </trkpt>
      <trkpt lat="45.39392" lon="5.67987">
        <ele>620.1</ele>
        <time>2013-06-23T05:49:32Z</time>
      </trkpt>
      <trkpt lat="45.39385" lon="5.67983">
        <ele>620.2</ele>
        <time>2013-06-23T05:49:36Z</time>
      </trkpt>
      <trkpt lat="45.39378" lon="5.67979">
        <ele>620.5</ele>
        <time>2013-06-23T05:49:40Z</time>
      </trkpt>
      <trkpt lat="45.39371" lon="5.67976">
        <ele>620.2</ele>
        <time>2013-06-23T05:49:44Z</time>
      </trkpt>
      <trkpt lat="45.39363" lon="5.67972">
        <ele>622.5</ele>
        <time>2013-06-23T05:49:49Z</time>
      </trkpt>
      <trkpt lat="45.39355" lon="5.67969">
        <ele>624.6</ele>
        <time>2013-06-23T05:50:01Z</time>
      </trkpt>
      <trkpt lat="45.39353" lon="5.67969">
        <ele>624.8</ele>
        <time>2013-06-23T05:50:02Z</time>
      </trkpt>
      <trkpt lat="45.39344" lon="5.67961">
        <ele>628.6</ele>
        <time>2013-06-23T05:50:21Z</time>
      </trkpt>
      <trkpt lat="45.39338" lon="5.67956">
        <ele>628.5</ele>
        <time>2013-06-23T05:50:23Z</time>
      </trkpt>
      <trkpt lat="45.39332" lon="5.67951">
        <ele>628.1</ele>
        <time>2013-06-23T05:50:25Z</time>
      </trkpt>
      <trkpt lat="45.39327" lon="5.67946">
        <ele>627.3</ele>
        <time>2013-06-23T05:50:35Z</time>
      </trkpt>
      <trkpt lat="45.3932" lon="5.67939">
        <ele>628.3</ele>
        <time>2013-06-23T05:50:37Z</time>
      </trkpt>
      <trkpt lat="45.39314" lon="5.67932">
        <ele>628.4</ele>
        <time>2013-06-23T05:50:39Z</time>
      </trkpt>
      <trkpt lat="45.39309" lon="5.67927">
        <ele>628.1</ele>
        <time>2013-06-23T05:50:41Z</time>
      </trkpt>
      <trkpt lat="45.39304" lon="5.67921">
        <ele>630.5</ele>
        <time>2013-06-23T05:50:53Z</time>
      </trkpt>
      <trkpt lat="45.39299" lon="5.67912">
        <ele>630.6</ele>
        <time>2013-06-23T05:50:55Z</time>
      </trkpt>
      <trkpt lat="45.39294" lon="5.67905">
        <ele>630.8</ele>
        <time>2013-06-23T05:50:57Z</time>
      </trkpt>
      <trkpt lat="45.39291" lon="5.67898">
        <ele>632.9</ele>
        <time>2013-06-23T05:51:12Z</time>
      </trkpt>
      <trkpt lat="45.39288" lon="5.67894">
        <ele>633.3</ele>
        <time>2013-06-23T05:51:13Z</time>
      </trkpt>
      <trkpt lat="45.3928" lon="5.67885">
        <ele>633.6</ele>
        <time>2013-06-23T05:51:19Z</time>
      </trkpt>
      <trkpt lat="45.39273" lon="5.67879">
        <ele>633.9</ele>
        <time>2013-06-23T05:51:21Z</time>
      </trkpt>
      <trkpt lat="45.39266" lon="5.67874">
        <ele>634</ele>
        <time>2013-06-23T05:51:23Z</time>
      </trkpt>
      <trkpt lat="45.3926" lon="5.6787">
        <ele>634.7</ele>
        <time>2013-06-23T05:51:25Z</time>
      </trkpt>
      <trkpt lat="45.39255" lon="5.67866">
        <ele>634.6</ele>
        <time>2013-06-23T05:51:27Z</time>
      </trkpt>
      <trkpt lat="45.39248" lon="5.67859">
        <ele>633.7</ele>
        <time>2013-06-23T05:51:30Z</time>
      </trkpt>
      <trkpt lat="45.39242" lon="5.67854">
        <ele>633.3</ele>
        <time>2013-06-23T05:51:33Z</time>
      </trkpt>
      <trkpt lat="45.39234" lon="5.67847">
        <ele>634.3</ele>
        <time>2013-06-23T05:51:37Z</time>
      </trkpt>
      <trkpt lat="45.39227" lon="5.67841">
        <ele>634.4</ele>
        <time>2013-06-23T05:51:41Z</time>
      </trkpt>
      <trkpt lat="45.39219" lon="5.67843">
        <ele>635.7</ele>
        <time>2013-06-23T05:51:58Z</time>
      </trkpt>
      <trkpt lat="45.39212" lon="5.67845">
        <ele>635.8</ele>
        <time>2013-06-23T05:52:02Z</time>
      </trkpt>
      <trkpt lat="45.39203" lon="5.67843">
        <ele>634.9</ele>
        <time>2013-06-23T05:52:07Z</time>
      </trkpt>
      <trkpt lat="45.39197" lon="5.67839">
        <ele>640.4</ele>
        <time>2013-06-23T05:52:33Z</time>
      </trkpt>
      <trkpt lat="45.39193" lon="5.67836">
        <ele>640.5</ele>
        <time>2013-06-23T05:52:34Z</time>
      </trkpt>
      <trkpt lat="45.39183" lon="5.67828">
        <ele>643.6</ele>
        <time>2013-06-23T05:52:54Z</time>
      </trkpt>
      <trkpt lat="45.39178" lon="5.6782">
        <ele>643.8</ele>
        <time>2013-06-23T05:52:56Z</time>
      </trkpt>
      <trkpt lat="45.39174" lon="5.67811">
        <ele>643.7</ele>
        <time>2013-06-23T05:53:03Z</time>
      </trkpt>
      <trkpt lat="45.3917" lon="5.67802">
        <ele>644.2</ele>
        <time>2013-06-23T05:53:05Z</time>
      </trkpt>
      <trkpt lat="45.39167" lon="5.67791">
        <ele>644.1</ele>
        <time>2013-06-23T05:53:07Z</time>
      </trkpt>
      <trkpt lat="45.39166" lon="5.67781">
        <ele>644.2</ele>
        <time>2013-06-23T05:53:09Z</time>
      </trkpt>
      <trkpt lat="45.39164" lon="5.67771">
        <ele>644.5</ele>
        <time>2013-06-23T05:53:11Z</time>
      </trkpt>
      <trkpt lat="45.39163" lon="5.67759">
        <ele>643.9</ele>
        <time>2013-06-23T05:53:13Z</time>
      </trkpt>
      <trkpt lat="45.39162" lon="5.67748">
        <ele>643.5</ele>
        <time>2013-06-23T05:53:15Z</time>
      </trkpt>
      <trkpt lat="45.39161" lon="5.67737">
        <ele>643.9</ele>
        <time>2013-06-23T05:53:17Z</time>
      </trkpt>
      <trkpt lat="45.39161" lon="5.67726">
        <ele>643.9</ele>
        <time>2013-06-23T05:53:19Z</time>
      </trkpt>
      <trkpt lat="45.39161" lon="5.67713">
        <ele>643.8</ele>
        <time>2013-06-23T05:53:21Z</time>
      </trkpt>
      <trkpt lat="45.39161" lon="5.67705">
        <ele>643.2</ele>
        <time>2013-06-23T05:53:22Z</time>
      </trkpt>
      <trkpt lat="45.39162" lon="5.67698">
        <ele>642.7</ele>
        <time>2013-06-23T05:53:23Z</time>
      </trkpt>
      <trkpt lat="45.39162" lon="5.67691">
        <ele>642.4</ele>
        <time>2013-06-23T05:53:24Z</time>
      </trkpt>
      <trkpt lat="45.39162" lon="5.67684">
        <ele>642.1</ele>
        <time>2013-06-23T05:53:25Z</time>
      </trkpt>
      <trkpt lat="45.39161" lon="5.67676">
        <ele>641.9</ele>
        <time>2013-06-23T05:53:26Z</time>
      </trkpt>
      <trkpt lat="45.39157" lon="5.67664">
        <ele>641.3</ele>
        <time>2013-06-23T05:53:28Z</time>
      </trkpt>
      <trkpt lat="45.39154" lon="5.67655">
        <ele>640.7</ele>
        <time>2013-06-23T05:53:30Z</time>
      </trkpt>
      <trkpt lat="45.39151" lon="5.67645">
        <ele>639.8</ele>
        <time>2013-06-23T05:53:33Z</time>
      </trkpt>
      <trkpt lat="45.3915" lon="5.67633">
        <ele>639.5</ele>
        <time>2013-06-23T05:53:37Z</time>
      </trkpt>
      <trkpt lat="45.39149" lon="5.67629">
        <ele>640</ele>
        <time>2013-06-23T05:53:38Z</time>
      </trkpt>
      <trkpt lat="45.39146" lon="5.6761">
        <ele>641.1</ele>
        <time>2013-06-23T05:53:47Z</time>
      </trkpt>
      <trkpt lat="45.39143" lon="5.67601">
        <ele>641.1</ele>
        <time>2013-06-23T05:53:50Z</time>
      </trkpt>
      <trkpt lat="45.3914" lon="5.6759">
        <ele>642.1</ele>
        <time>2013-06-23T05:53:54Z</time>
      </trkpt>
      <trkpt lat="45.39139" lon="5.6758">
        <ele>642.5</ele>
        <time>2013-06-23T05:53:57Z</time>
      </trkpt>
      <trkpt lat="45.39135" lon="5.67568">
        <ele>643.3</ele>
        <time>2013-06-23T05:54:01Z</time>
      </trkpt>
      <trkpt lat="45.3913" lon="5.67561">
        <ele>644.6</ele>
        <time>2013-06-23T05:54:05Z</time>
      </trkpt>
      <trkpt lat="45.39123" lon="5.67555">
        <ele>647.3</ele>
        <time>2013-06-23T05:54:16Z</time>
      </trkpt>
      <trkpt lat="45.39116" lon="5.67551">
        <ele>646.4</ele>
        <time>2013-06-23T05:54:19Z</time>
      </trkpt>
      <trkpt lat="45.39108" lon="5.67546">
        <ele>647.1</ele>
        <time>2013-06-23T05:54:24Z</time>
      </trkpt>
      <trkpt lat="45.39101" lon="5.67542">
        <ele>648.7</ele>
        <time>2013-06-23T05:54:28Z</time>
      </trkpt>
      <trkpt lat="45.39093" lon="5.6754">
        <ele>647.8</ele>
        <time>2013-06-23T05:54:32Z</time>
      </trkpt>
      <trkpt lat="45.39086" lon="5.67539">
        <ele>647.6</ele>
        <time>2013-06-23T05:54:36Z</time>
      </trkpt>
      <trkpt lat="45.39078" lon="5.67539">
        <ele>647.5</ele>
        <time>2013-06-23T05:54:41Z</time>
      </trkpt>
      <trkpt lat="45.39076" lon="5.67539">
        <ele>647.9</ele>
        <time>2013-06-23T05:54:42Z</time>
      </trkpt>
      <trkpt lat="45.39065" lon="5.67552">
        <ele>651.2</ele>
        <time>2013-06-23T05:55:05Z</time>
      </trkpt>
      <trkpt lat="45.39058" lon="5.67553">
        <ele>651.9</ele>
        <time>2013-06-23T05:55:08Z</time>
      </trkpt>
      <trkpt lat="45.39049" lon="5.67554">
        <ele>652</ele>
        <time>2013-06-23T05:55:12Z</time>
      </trkpt>
      <trkpt lat="45.39042" lon="5.67554">
        <ele>653.7</ele>
        <time>2013-06-23T05:55:29Z</time>
      </trkpt>
      <trkpt lat="45.39035" lon="5.67548">
        <ele>653.5</ele>
        <time>2013-06-23T05:55:32Z</time>
      </trkpt>
      <trkpt lat="45.39031" lon="5.67541">
        <ele>655.5</ele>
        <time>2013-06-23T05:55:49Z</time>
      </trkpt>
      <trkpt lat="45.39029" lon="5.67538">
        <ele>655.8</ele>
        <time>2013-06-23T05:55:50Z</time>
      </trkpt>
      <trkpt lat="45.39025" lon="5.67527">
        <ele>657.9</ele>
        <time>2013-06-23T05:56:06Z</time>
      </trkpt>
      <trkpt lat="45.39023" lon="5.67518">
        <ele>658.7</ele>
        <time>2013-06-23T05:56:08Z</time>
      </trkpt>
      <trkpt lat="45.39021" lon="5.67509">
        <ele>661.6</ele>
        <time>2013-06-23T05:56:18Z</time>
      </trkpt>
      <trkpt lat="45.3902" lon="5.67499">
        <ele>661.6</ele>
        <time>2013-06-23T05:56:20Z</time>
      </trkpt>
      <trkpt lat="45.39021" lon="5.67489">
        <ele>661.8</ele>
        <time>2013-06-23T05:56:28Z</time>
      </trkpt>
      <trkpt lat="45.39023" lon="5.67478">
        <ele>661.6</ele>
        <time>2013-06-23T05:56:30Z</time>
      </trkpt>
      <trkpt lat="45.39025" lon="5.67469">
        <ele>661.2</ele>
        <time>2013-06-23T05:56:32Z</time>
      </trkpt>
      <trkpt lat="45.39029" lon="5.6746">
        <ele>660.7</ele>
        <time>2013-06-23T05:56:34Z</time>
      </trkpt>
      <trkpt lat="45.39033" lon="5.67449">
        <ele>660</ele>
        <time>2013-06-23T05:56:37Z</time>
      </trkpt>
      <trkpt lat="45.39036" lon="5.67439">
        <ele>656.6</ele>
        <time>2013-06-23T05:56:56Z</time>
      </trkpt>
      <trkpt lat="45.39038" lon="5.67437">
        <ele>656.8</ele>
        <time>2013-06-23T05:56:57Z</time>
      </trkpt>
      <trkpt lat="45.39045" lon="5.67421">
        <ele>657.7</ele>
        <time>2013-06-23T05:57:14Z</time>
      </trkpt>
      <trkpt lat="45.39047" lon="5.67413">
        <ele>657.3</ele>
        <time>2013-06-23T05:57:20Z</time>
      </trkpt>
      <trkpt lat="45.39049" lon="5.67401">
        <ele>657.5</ele>
        <time>2013-06-23T05:57:22Z</time>
      </trkpt>
      <trkpt lat="45.3905" lon="5.6739">
        <ele>657.7</ele>
        <time>2013-06-23T05:57:24Z</time>
      </trkpt>
      <trkpt lat="45.39052" lon="5.6738">
        <ele>657.1</ele>
        <time>2013-06-23T05:57:26Z</time>
      </trkpt>
      <trkpt lat="45.39052" lon="5.67371">
        <ele>657.2</ele>
        <time>2013-06-23T05:57:28Z</time>
      </trkpt>
      <trkpt lat="45.39052" lon="5.67359">
        <ele>657.6</ele>
        <time>2013-06-23T05:57:31Z</time>
      </trkpt>
      <trkpt lat="45.39052" lon="5.67348">
        <ele>657.2</ele>
        <time>2013-06-23T05:57:34Z</time>
      </trkpt>
      <trkpt lat="45.39051" lon="5.67339">
        <ele>657.2</ele>
        <time>2013-06-23T05:57:40Z</time>
      </trkpt>
      <trkpt lat="45.3905" lon="5.67328">
        <ele>657.4</ele>
        <time>2013-06-23T05:57:43Z</time>
      </trkpt>
      <trkpt lat="45.39048" lon="5.67318">
        <ele>657.9</ele>
        <time>2013-06-23T05:57:46Z</time>
      </trkpt>
      <trkpt lat="45.39043" lon="5.67308">
        <ele>659.2</ele>
        <time>2013-06-23T05:57:50Z</time>
      </trkpt>
      <trkpt lat="45.39038" lon="5.673">
        <ele>659.1</ele>
        <time>2013-06-23T05:57:54Z</time>
      </trkpt>
      <trkpt lat="45.39031" lon="5.67295">
        <ele>658.4</ele>
        <time>2013-06-23T05:57:59Z</time>
      </trkpt>
      <trkpt lat="45.39029" lon="5.67294">
        <ele>658.8</ele>
        <time>2013-06-23T05:58:00Z</time>
      </trkpt>
      <trkpt lat="45.39014" lon="5.67294">
        <ele>659.7</ele>
        <time>2013-06-23T05:58:09Z</time>
      </trkpt>
      <trkpt lat="45.39006" lon="5.67293">
        <ele>660.5</ele>
        <time>2013-06-23T05:58:14Z</time>
      </trkpt>
      <trkpt lat="45.38998" lon="5.67293">
        <ele>662.5</ele>
        <time>2013-06-23T05:58:20Z</time>
      </trkpt>
      <trkpt lat="45.38989" lon="5.67293">
        <ele>662.3</ele>
        <time>2013-06-23T05:58:23Z</time>
      </trkpt>
      <trkpt lat="45.3898" lon="5.67293">
        <ele>661.8</ele>
        <time>2013-06-23T05:58:25Z</time>
      </trkpt>
      <trkpt lat="45.38974" lon="5.67296">
        <ele>661.4</ele>
        <time>2013-06-23T05:58:27Z</time>
      </trkpt>
      <trkpt lat="45.38966" lon="5.67296">
        <ele>659.3</ele>
        <time>2013-06-23T05:58:31Z</time>
      </trkpt>
      <trkpt lat="45.38959" lon="5.67289">
        <ele>658.8</ele>
        <time>2013-06-23T05:58:34Z</time>
      </trkpt>
      <trkpt lat="45.38954" lon="5.67279">
        <ele>658.1</ele>
        <time>2013-06-23T05:58:37Z</time>
      </trkpt>
      <trkpt lat="45.38949" lon="5.67272">
        <ele>657.1</ele>
        <time>2013-06-23T05:58:40Z</time>
      </trkpt>
      <trkpt lat="45.38943" lon="5.67267">
        <ele>655.5</ele>
        <time>2013-06-23T05:58:42Z</time>
      </trkpt>
      <trkpt lat="45.38937" lon="5.6726">
        <ele>654.3</ele>
        <time>2013-06-23T05:58:44Z</time>
      </trkpt>
      <trkpt lat="45.38933" lon="5.67255">
        <ele>653.8</ele>
        <time>2013-06-23T05:58:45Z</time>
      </trkpt>
      <trkpt lat="45.38927" lon="5.67248">
        <ele>653.2</ele>
        <time>2013-06-23T05:58:47Z</time>
      </trkpt>
      <trkpt lat="45.38925" lon="5.6724">
        <ele>651.6</ele>
        <time>2013-06-23T05:58:49Z</time>
      </trkpt>
      <trkpt lat="45.38922" lon="5.67231">
        <ele>650.5</ele>
        <time>2013-06-23T05:58:51Z</time>
      </trkpt>
      <trkpt lat="45.3892" lon="5.67225">
        <ele>650</ele>
        <time>2013-06-23T05:58:52Z</time>
      </trkpt>
      <trkpt lat="45.38917" lon="5.67219">
        <ele>649.6</ele>
        <time>2013-06-23T05:58:53Z</time>
      </trkpt>
      <trkpt lat="45.38914" lon="5.67213">
        <ele>648.9</ele>
        <time>2013-06-23T05:58:54Z</time>
      </trkpt>
      <trkpt lat="45.3891" lon="5.67208">
        <ele>648.4</ele>
        <time>2013-06-23T05:58:55Z</time>
      </trkpt>
      <trkpt lat="45.38903" lon="5.67201">
        <ele>647.1</ele>
        <time>2013-06-23T05:58:57Z</time>
      </trkpt>
      <trkpt lat="45.389" lon="5.67196">
        <ele>646.4</ele>
        <time>2013-06-23T05:58:58Z</time>
      </trkpt>
      <trkpt lat="45.38896" lon="5.6719">
        <ele>645.9</ele>
        <time>2013-06-23T05:58:59Z</time>
      </trkpt>
      <trkpt lat="45.38892" lon="5.67184">
        <ele>644.9</ele>
        <time>2013-06-23T05:59:00Z</time>
      </trkpt>
      <trkpt lat="45.38889" lon="5.67178">
        <ele>644.2</ele>
        <time>2013-06-23T05:59:01Z</time>
      </trkpt>
      <trkpt lat="45.38887" lon="5.67171">
        <ele>643.7</ele>
        <time>2013-06-23T05:59:02Z</time>
      </trkpt>
      <trkpt lat="45.38884" lon="5.67164">
        <ele>643.3</ele>
        <time>2013-06-23T05:59:03Z</time>
      </trkpt>
      <trkpt lat="45.38881" lon="5.67158">
        <ele>643.3</ele>
        <time>2013-06-23T05:59:04Z</time>
      </trkpt>
      <trkpt lat="45.38878" lon="5.67153">
        <ele>643.2</ele>
        <time>2013-06-23T05:59:05Z</time>
      </trkpt>
      <trkpt lat="45.38871" lon="5.67146">
        <ele>642.7</ele>
        <time>2013-06-23T05:59:07Z</time>
      </trkpt>
      <trkpt lat="45.38863" lon="5.67144">
        <ele>642</ele>
        <time>2013-06-23T05:59:09Z</time>
      </trkpt>
      <trkpt lat="45.38855" lon="5.67144">
        <ele>642.3</ele>
        <time>2013-06-23T05:59:11Z</time>
      </trkpt>
      <trkpt lat="45.38847" lon="5.67143">
        <ele>641.8</ele>
        <time>2013-06-23T05:59:13Z</time>
      </trkpt>
      <trkpt lat="45.38841" lon="5.6714">
        <ele>641.1</ele>
        <time>2013-06-23T05:59:15Z</time>
      </trkpt>
      <trkpt lat="45.38835" lon="5.67137">
        <ele>641.9</ele>
        <time>2013-06-23T05:59:17Z</time>
      </trkpt>
      <trkpt lat="45.38829" lon="5.67135">
        <ele>642.4</ele>
        <time>2013-06-23T05:59:19Z</time>
      </trkpt>
      <trkpt lat="45.38823" lon="5.67134">
        <ele>641.6</ele>
        <time>2013-06-23T05:59:21Z</time>
      </trkpt>
      <trkpt lat="45.38817" lon="5.67134">
        <ele>641.4</ele>
        <time>2013-06-23T05:59:23Z</time>
      </trkpt>
      <trkpt lat="45.38809" lon="5.67133">
        <ele>641.5</ele>
        <time>2013-06-23T05:59:25Z</time>
      </trkpt>
      <trkpt lat="45.38803" lon="5.67134">
        <ele>641.5</ele>
        <time>2013-06-23T05:59:26Z</time>
      </trkpt>
      <trkpt lat="45.38798" lon="5.67135">
        <ele>641.4</ele>
        <time>2013-06-23T05:59:27Z</time>
      </trkpt>
      <trkpt lat="45.38793" lon="5.67136">
        <ele>641.4</ele>
        <time>2013-06-23T05:59:28Z</time>
      </trkpt>
      <trkpt lat="45.38788" lon="5.67136">
        <ele>641</ele>
        <time>2013-06-23T05:59:29Z</time>
      </trkpt>
      <trkpt lat="45.38779" lon="5.67136">
        <ele>640.6</ele>
        <time>2013-06-23T05:59:31Z</time>
      </trkpt>
      <trkpt lat="45.38771" lon="5.67138">
        <ele>640.5</ele>
        <time>2013-06-23T05:59:34Z</time>
      </trkpt>
      <trkpt lat="45.38764" lon="5.67145">
        <ele>640.8</ele>
        <time>2013-06-23T05:59:38Z</time>
      </trkpt>
      <trkpt lat="45.38759" lon="5.67153">
        <ele>641.7</ele>
        <time>2013-06-23T05:59:42Z</time>
      </trkpt>
      <trkpt lat="45.38756" lon="5.67163">
        <ele>641.4</ele>
        <time>2013-06-23T05:59:47Z</time>
      </trkpt>
      <trkpt lat="45.38749" lon="5.67169">
        <ele>644.6</ele>
        <time>2013-06-23T05:59:58Z</time>
      </trkpt>
      <trkpt lat="45.38741" lon="5.67171">
        <ele>644.8</ele>
        <time>2013-06-23T06:00:02Z</time>
      </trkpt>
      <trkpt lat="45.38739" lon="5.67172">
        <ele>644.7</ele>
        <time>2013-06-23T06:00:03Z</time>
      </trkpt>
      <trkpt lat="45.38725" lon="5.67173">
        <ele>645.7</ele>
        <time>2013-06-23T06:00:10Z</time>
      </trkpt>
      <trkpt lat="45.38717" lon="5.67174">
        <ele>647.5</ele>
        <time>2013-06-23T06:00:15Z</time>
      </trkpt>
      <trkpt lat="45.38708" lon="5.67173">
        <ele>651.6</ele>
        <time>2013-06-23T06:00:36Z</time>
      </trkpt>
      <trkpt lat="45.38701" lon="5.6717">
        <ele>652.7</ele>
        <time>2013-06-23T06:00:39Z</time>
      </trkpt>
      <trkpt lat="45.38694" lon="5.67165">
        <ele>653.8</ele>
        <time>2013-06-23T06:00:42Z</time>
      </trkpt>
      <trkpt lat="45.38687" lon="5.67159">
        <ele>654.5</ele>
        <time>2013-06-23T06:00:46Z</time>
      </trkpt>
      <trkpt lat="45.38679" lon="5.67155">
        <ele>654.6</ele>
        <time>2013-06-23T06:00:50Z</time>
      </trkpt>
      <trkpt lat="45.38671" lon="5.6715">
        <ele>655.1</ele>
        <time>2013-06-23T06:00:54Z</time>
      </trkpt>
      <trkpt lat="45.38664" lon="5.67144">
        <ele>655.1</ele>
        <time>2013-06-23T06:00:58Z</time>
      </trkpt>
      <trkpt lat="45.38657" lon="5.67137">
        <ele>655.7</ele>
        <time>2013-06-23T06:01:02Z</time>
      </trkpt>
      <trkpt lat="45.38649" lon="5.67131">
        <ele>655.7</ele>
        <time>2013-06-23T06:01:06Z</time>
      </trkpt>
      <trkpt lat="45.38647" lon="5.67129">
        <ele>655.8</ele>
        <time>2013-06-23T06:01:07Z</time>
      </trkpt>
      <trkpt lat="45.38633" lon="5.67125">
        <ele>656.4</ele>
        <time>2013-06-23T06:01:14Z</time>
      </trkpt>
      <trkpt lat="45.38625" lon="5.67124">
        <ele>657.5</ele>
        <time>2013-06-23T06:01:19Z</time>
      </trkpt>
      <trkpt lat="45.38617" lon="5.67123">
        <ele>658.3</ele>
        <time>2013-06-23T06:01:23Z</time>
      </trkpt>
      <trkpt lat="45.38611" lon="5.67121">
        <ele>656.9</ele>
        <time>2013-06-23T06:01:26Z</time>
      </trkpt>
      <trkpt lat="45.38602" lon="5.67118">
        <ele>657.5</ele>
        <time>2013-06-23T06:01:29Z</time>
      </trkpt>
      <trkpt lat="45.38594" lon="5.67115">
        <ele>657.1</ele>
        <time>2013-06-23T06:01:32Z</time>
      </trkpt>
      <trkpt lat="45.38588" lon="5.67112">
        <ele>656.8</ele>
        <time>2013-06-23T06:01:34Z</time>
      </trkpt>
      <trkpt lat="45.38581" lon="5.67111">
        <ele>656.6</ele>
        <time>2013-06-23T06:01:36Z</time>
      </trkpt>
      <trkpt lat="45.38573" lon="5.6711">
        <ele>655.9</ele>
        <time>2013-06-23T06:01:38Z</time>
      </trkpt>
      <trkpt lat="45.38568" lon="5.6711">
        <ele>655.6</ele>
        <time>2013-06-23T06:01:39Z</time>
      </trkpt>
      <trkpt lat="45.38559" lon="5.67111">
        <ele>654.7</ele>
        <time>2013-06-23T06:01:41Z</time>
      </trkpt>
      <trkpt lat="45.3855" lon="5.67113">
        <ele>654.6</ele>
        <time>2013-06-23T06:01:43Z</time>
      </trkpt>
      <trkpt lat="45.38543" lon="5.67117">
        <ele>654.7</ele>
        <time>2013-06-23T06:01:45Z</time>
      </trkpt>
      <trkpt lat="45.38535" lon="5.67121">
        <ele>654</ele>
        <time>2013-06-23T06:01:49Z</time>
      </trkpt>
      <trkpt lat="45.3853" lon="5.67114">
        <ele>653.2</ele>
        <time>2013-06-23T06:01:52Z</time>
      </trkpt>
      <trkpt lat="45.38526" lon="5.67104">
        <ele>653.2</ele>
        <time>2013-06-23T06:01:55Z</time>
      </trkpt>
      <trkpt lat="45.38522" lon="5.67096">
        <ele>653.5</ele>
        <time>2013-06-23T06:01:58Z</time>
      </trkpt>
      <trkpt lat="45.38516" lon="5.67091">
        <ele>652.8</ele>
        <time>2013-06-23T06:02:00Z</time>
      </trkpt>
      <trkpt lat="45.3851" lon="5.67086">
        <ele>652.9</ele>
        <time>2013-06-23T06:02:02Z</time>
      </trkpt>
      <trkpt lat="45.38504" lon="5.67082">
        <ele>653.2</ele>
        <time>2013-06-23T06:02:04Z</time>
      </trkpt>
      <trkpt lat="45.38497" lon="5.67079">
        <ele>652.9</ele>
        <time>2013-06-23T06:02:06Z</time>
      </trkpt>
      <trkpt lat="45.38489" lon="5.67076">
        <ele>652.5</ele>
        <time>2013-06-23T06:02:08Z</time>
      </trkpt>
      <trkpt lat="45.38486" lon="5.67074">
        <ele>652.3</ele>
        <time>2013-06-23T06:02:09Z</time>
      </trkpt>
      <trkpt lat="45.38474" lon="5.6707">
        <ele>651.6</ele>
        <time>2013-06-23T06:02:12Z</time>
      </trkpt>
      <trkpt lat="45.38467" lon="5.67066">
        <ele>650.9</ele>
        <time>2013-06-23T06:02:14Z</time>
      </trkpt>
      <trkpt lat="45.38462" lon="5.6706">
        <ele>651</ele>
        <time>2013-06-23T06:02:16Z</time>
      </trkpt>
      <trkpt lat="45.38456" lon="5.67055">
        <ele>650.8</ele>
        <time>2013-06-23T06:02:18Z</time>
      </trkpt>
      <trkpt lat="45.38451" lon="5.67049">
        <ele>650.3</ele>
        <time>2013-06-23T06:02:21Z</time>
      </trkpt>
      <trkpt lat="45.38445" lon="5.67041">
        <ele>649.9</ele>
        <time>2013-06-23T06:02:24Z</time>
      </trkpt>
      <trkpt lat="45.38441" lon="5.67034">
        <ele>650.6</ele>
        <time>2013-06-23T06:02:26Z</time>
      </trkpt>
      <trkpt lat="45.38438" lon="5.67026">
        <ele>651</ele>
        <time>2013-06-23T06:02:28Z</time>
      </trkpt>
      <trkpt lat="45.38435" lon="5.67018">
        <ele>651.4</ele>
        <time>2013-06-23T06:02:30Z</time>
      </trkpt>
      <trkpt lat="45.38431" lon="5.67011">
        <ele>651.5</ele>
        <time>2013-06-23T06:02:32Z</time>
      </trkpt>
      <trkpt lat="45.38424" lon="5.67003">
        <ele>652.3</ele>
        <time>2013-06-23T06:02:35Z</time>
      </trkpt>
      <trkpt lat="45.38417" lon="5.66996">
        <ele>652.4</ele>
        <time>2013-06-23T06:02:38Z</time>
      </trkpt>
      <trkpt lat="45.38411" lon="5.66988">
        <ele>652.3</ele>
        <time>2013-06-23T06:02:41Z</time>
      </trkpt>
      <trkpt lat="45.38405" lon="5.6698">
        <ele>652.8</ele>
        <time>2013-06-23T06:02:44Z</time>
      </trkpt>
      <trkpt lat="45.38399" lon="5.66971">
        <ele>653.4</ele>
        <time>2013-06-23T06:02:47Z</time>
      </trkpt>
      <trkpt lat="45.38393" lon="5.66964">
        <ele>653.8</ele>
        <time>2013-06-23T06:02:50Z</time>
      </trkpt>
      <trkpt lat="45.38387" lon="5.66956">
        <ele>653.9</ele>
        <time>2013-06-23T06:02:55Z</time>
      </trkpt>
      <trkpt lat="45.38381" lon="5.6695">
        <ele>654.1</ele>
        <time>2013-06-23T06:02:58Z</time>
      </trkpt>
      <trkpt lat="45.38375" lon="5.66943">
        <ele>654.9</ele>
        <time>2013-06-23T06:03:01Z</time>
      </trkpt>
      <trkpt lat="45.38369" lon="5.66936">
        <ele>655.3</ele>
        <time>2013-06-23T06:03:04Z</time>
      </trkpt>
      <trkpt lat="45.38364" lon="5.66928">
        <ele>655.6</ele>
        <time>2013-06-23T06:03:07Z</time>
      </trkpt>
      <trkpt lat="45.38358" lon="5.66921">
        <ele>656.2</ele>
        <time>2013-06-23T06:03:10Z</time>
      </trkpt>
      <trkpt lat="45.38356" lon="5.66919">
        <ele>656.4</ele>
        <time>2013-06-23T06:03:11Z</time>
      </trkpt>
      <trkpt lat="45.38344" lon="5.66909">
        <ele>657</ele>
        <time>2013-06-23T06:03:16Z</time>
      </trkpt>
      <trkpt lat="45.38338" lon="5.66906">
        <ele>656.5</ele>
        <time>2013-06-23T06:03:18Z</time>
      </trkpt>
      <trkpt lat="45.38331" lon="5.669">
        <ele>657.4</ele>
        <time>2013-06-23T06:03:21Z</time>
      </trkpt>
      <trkpt lat="45.38325" lon="5.66894">
        <ele>657.3</ele>
        <time>2013-06-23T06:03:24Z</time>
      </trkpt>
      <trkpt lat="45.38319" lon="5.66886">
        <ele>656.9</ele>
        <time>2013-06-23T06:03:27Z</time>
      </trkpt>
      <trkpt lat="45.38314" lon="5.66881">
        <ele>656.4</ele>
        <time>2013-06-23T06:03:29Z</time>
      </trkpt>
      <trkpt lat="45.38308" lon="5.66875">
        <ele>655.8</ele>
        <time>2013-06-23T06:03:31Z</time>
      </trkpt>
      <trkpt lat="45.38302" lon="5.6687">
        <ele>655.8</ele>
        <time>2013-06-23T06:03:33Z</time>
      </trkpt>
      <trkpt lat="45.38296" lon="5.66865">
        <ele>656</ele>
        <time>2013-06-23T06:03:35Z</time>
      </trkpt>
      <trkpt lat="45.3829" lon="5.6686">
        <ele>656.3</ele>
        <time>2013-06-23T06:03:37Z</time>
      </trkpt>
      <trkpt lat="45.38284" lon="5.66856">
        <ele>657.2</ele>
        <time>2013-06-23T06:03:39Z</time>
      </trkpt>
      <trkpt lat="45.38278" lon="5.66853">
        <ele>657.4</ele>
        <time>2013-06-23T06:03:41Z</time>
      </trkpt>
      <trkpt lat="45.38272" lon="5.6685">
        <ele>657.4</ele>
        <time>2013-06-23T06:03:43Z</time>
      </trkpt>
      <trkpt lat="45.38264" lon="5.66847">
        <ele>657.3</ele>
        <time>2013-06-23T06:03:46Z</time>
      </trkpt>
      <trkpt lat="45.38257" lon="5.66843">
        <ele>657.1</ele>
        <time>2013-06-23T06:03:49Z</time>
      </trkpt>
      <trkpt lat="45.38258" lon="5.66831">
        <ele>659.6</ele>
        <time>2013-06-23T06:03:57Z</time>
      </trkpt>
      <trkpt lat="45.38263" lon="5.66822">
        <ele>659.5</ele>
        <time>2013-06-23T06:04:00Z</time>
      </trkpt>
      <trkpt lat="45.38269" lon="5.66816">
        <ele>659.2</ele>
        <time>2013-06-23T06:04:02Z</time>
      </trkpt>
      <trkpt lat="45.38275" lon="5.66811">
        <ele>658.4</ele>
        <time>2013-06-23T06:04:04Z</time>
      </trkpt>
      <trkpt lat="45.38281" lon="5.66805">
        <ele>656.6</ele>
        <time>2013-06-23T06:04:08Z</time>
      </trkpt>
      <trkpt lat="45.38288" lon="5.66796">
        <ele>653.3</ele>
        <time>2013-06-23T06:04:13Z</time>
      </trkpt>
      <trkpt lat="45.3829" lon="5.66794">
        <ele>652.6</ele>
        <time>2013-06-23T06:04:14Z</time>
      </trkpt>
      <trkpt lat="45.38303" lon="5.66785">
        <ele>648.7</ele>
        <time>2013-06-23T06:04:21Z</time>
      </trkpt>
      <trkpt lat="45.38311" lon="5.66787">
        <ele>646.5</ele>
        <time>2013-06-23T06:04:25Z</time>
      </trkpt>
      <trkpt lat="45.38319" lon="5.66784">
        <ele>646</ele>
        <time>2013-06-23T06:04:29Z</time>
      </trkpt>
      <trkpt lat="45.38326" lon="5.66781">
        <ele>645.9</ele>
        <time>2013-06-23T06:04:33Z</time>
      </trkpt>
      <trkpt lat="45.38333" lon="5.66777">
        <ele>647.2</ele>
        <time>2013-06-23T06:04:37Z</time>
      </trkpt>
      <trkpt lat="45.38342" lon="5.66774">
        <ele>648.2</ele>
        <time>2013-06-23T06:04:41Z</time>
      </trkpt>
      <trkpt lat="45.38349" lon="5.66772">
        <ele>648.6</ele>
        <time>2013-06-23T06:04:44Z</time>
      </trkpt>
      <trkpt lat="45.38358" lon="5.66771">
        <ele>649</ele>
        <time>2013-06-23T06:04:48Z</time>
      </trkpt>
      <trkpt lat="45.38365" lon="5.66774">
        <ele>650</ele>
        <time>2013-06-23T06:04:52Z</time>
      </trkpt>
      <trkpt lat="45.38373" lon="5.6678">
        <ele>650</ele>
        <time>2013-06-23T06:04:59Z</time>
      </trkpt>
      <trkpt lat="45.38379" lon="5.66785">
        <ele>651</ele>
        <time>2013-06-23T06:05:02Z</time>
      </trkpt>
      <trkpt lat="45.38386" lon="5.6679">
        <ele>650.6</ele>
        <time>2013-06-23T06:05:05Z</time>
      </trkpt>
      <trkpt lat="45.38394" lon="5.66795">
        <ele>650.2</ele>
        <time>2013-06-23T06:05:08Z</time>
      </trkpt>
      <trkpt lat="45.38401" lon="5.66802">
        <ele>651.3</ele>
        <time>2013-06-23T06:05:13Z</time>
      </trkpt>
      <trkpt lat="45.38405" lon="5.66808">
        <ele>652.5</ele>
        <time>2013-06-23T06:05:24Z</time>
      </trkpt>
      <trkpt lat="45.38408" lon="5.66812">
        <ele>652.5</ele>
        <time>2013-06-23T06:05:25Z</time>
      </trkpt>
      <trkpt lat="45.38413" lon="5.66822">
        <ele>653.4</ele>
        <time>2013-06-23T06:05:28Z</time>
      </trkpt>
      <trkpt lat="45.3842" lon="5.66829">
        <ele>653.7</ele>
        <time>2013-06-23T06:05:32Z</time>
      </trkpt>
      <trkpt lat="45.38426" lon="5.66834">
        <ele>651.6</ele>
        <time>2013-06-23T06:05:39Z</time>
      </trkpt>
      <trkpt lat="45.3843" lon="5.66841">
        <ele>651.3</ele>
        <time>2013-06-23T06:05:41Z</time>
      </trkpt>
      <trkpt lat="45.38434" lon="5.66848">
        <ele>651.5</ele>
        <time>2013-06-23T06:05:43Z</time>
      </trkpt>
      <trkpt lat="45.38439" lon="5.66852">
        <ele>651.9</ele>
        <time>2013-06-23T06:05:45Z</time>
      </trkpt>
      <trkpt lat="45.38447" lon="5.66859">
        <ele>652.3</ele>
        <time>2013-06-23T06:05:48Z</time>
      </trkpt>
      <trkpt lat="45.38449" lon="5.66866">
        <ele>652</ele>
        <time>2013-06-23T06:05:50Z</time>
      </trkpt>
      <trkpt lat="45.38452" lon="5.66871">
        <ele>651.8</ele>
        <time>2013-06-23T06:05:51Z</time>
      </trkpt>
      <trkpt lat="45.38457" lon="5.66881">
        <ele>650.4</ele>
        <time>2013-06-23T06:05:53Z</time>
      </trkpt>
      <trkpt lat="45.38461" lon="5.6689">
        <ele>649.1</ele>
        <time>2013-06-23T06:05:56Z</time>
      </trkpt>
      <trkpt lat="45.38468" lon="5.66897">
        <ele>647.3</ele>
        <time>2013-06-23T06:05:59Z</time>
      </trkpt>
      <trkpt lat="45.38474" lon="5.66904">
        <ele>644.1</ele>
        <time>2013-06-23T06:06:02Z</time>
      </trkpt>
      <trkpt lat="45.38481" lon="5.66908">
        <ele>641.3</ele>
        <time>2013-06-23T06:06:05Z</time>
      </trkpt>
      <trkpt lat="45.3849" lon="5.66907">
        <ele>639.9</ele>
        <time>2013-06-23T06:06:07Z</time>
      </trkpt>
      <trkpt lat="45.38496" lon="5.66911">
        <ele>639.1</ele>
        <time>2013-06-23T06:06:09Z</time>
      </trkpt>
      <trkpt lat="45.38502" lon="5.66918">
        <ele>637.5</ele>
        <time>2013-06-23T06:06:12Z</time>
      </trkpt>
      <trkpt lat="45.38509" lon="5.66923">
        <ele>637.4</ele>
        <time>2013-06-23T06:06:15Z</time>
      </trkpt>
      <trkpt lat="45.38516" lon="5.66927">
        <ele>638.1</ele>
        <time>2013-06-23T06:06:18Z</time>
      </trkpt>
      <trkpt lat="45.38524" lon="5.66928">
        <ele>638.1</ele>
        <time>2013-06-23T06:06:21Z</time>
      </trkpt>
      <trkpt lat="45.3853" lon="5.66927">
        <ele>638.4</ele>
        <time>2013-06-23T06:06:23Z</time>
      </trkpt>
      <trkpt lat="45.38536" lon="5.66925">
        <ele>638.3</ele>
        <time>2013-06-23T06:06:25Z</time>
      </trkpt>
      <trkpt lat="45.38539" lon="5.66923">
        <ele>638.3</ele>
        <time>2013-06-23T06:06:26Z</time>
      </trkpt>
      <trkpt lat="45.38548" lon="5.66919">
        <ele>637.5</ele>
        <time>2013-06-23T06:06:29Z</time>
      </trkpt>
      <trkpt lat="45.38554" lon="5.66915">
        <ele>637.5</ele>
        <time>2013-06-23T06:06:31Z</time>
      </trkpt>
      <trkpt lat="45.3856" lon="5.6691">
        <ele>637.7</ele>
        <time>2013-06-23T06:06:33Z</time>
      </trkpt>
      <trkpt lat="45.38568" lon="5.66906">
        <ele>637.6</ele>
        <time>2013-06-23T06:06:35Z</time>
      </trkpt>
      <trkpt lat="45.38573" lon="5.66905">
        <ele>637.6</ele>
        <time>2013-06-23T06:06:36Z</time>
      </trkpt>
      <trkpt lat="45.38577" lon="5.66904">
        <ele>637.5</ele>
        <time>2013-06-23T06:06:37Z</time>
      </trkpt>
      <trkpt lat="45.38585" lon="5.66903">
        <ele>637.3</ele>
        <time>2013-06-23T06:06:39Z</time>
      </trkpt>
      <trkpt lat="45.38593" lon="5.66901">
        <ele>637.4</ele>
        <time>2013-06-23T06:06:41Z</time>
      </trkpt>
      <trkpt lat="45.38601" lon="5.669">
        <ele>636.2</ele>
        <time>2013-06-23T06:06:44Z</time>
      </trkpt>
      <trkpt lat="45.38607" lon="5.66899">
        <ele>635.8</ele>
        <time>2013-06-23T06:06:46Z</time>
      </trkpt>
      <trkpt lat="45.38615" lon="5.66898">
        <ele>635.7</ele>
        <time>2013-06-23T06:06:48Z</time>
      </trkpt>
      <trkpt lat="45.38623" lon="5.66897">
        <ele>635.9</ele>
        <time>2013-06-23T06:06:50Z</time>
      </trkpt>
      <trkpt lat="45.38628" lon="5.66896">
        <ele>636.1</ele>
        <time>2013-06-23T06:06:51Z</time>
      </trkpt>
      <trkpt lat="45.38632" lon="5.66895">
        <ele>636.2</ele>
        <time>2013-06-23T06:06:52Z</time>
      </trkpt>
      <trkpt lat="45.38637" lon="5.66896">
        <ele>635.8</ele>
        <time>2013-06-23T06:06:53Z</time>
      </trkpt>
      <trkpt lat="45.38646" lon="5.66897">
        <ele>635.3</ele>
        <time>2013-06-23T06:06:55Z</time>
      </trkpt>
      <trkpt lat="45.38653" lon="5.66899">
        <ele>635.5</ele>
        <time>2013-06-23T06:06:57Z</time>
      </trkpt>
      <trkpt lat="45.38661" lon="5.66899">
        <ele>635.7</ele>
        <time>2013-06-23T06:06:59Z</time>
      </trkpt>
      <trkpt lat="45.38669" lon="5.66899">
        <ele>635.8</ele>
        <time>2013-06-23T06:07:01Z</time>
      </trkpt>
      <trkpt lat="45.38677" lon="5.669">
        <ele>635.5</ele>
        <time>2013-06-23T06:07:03Z</time>
      </trkpt>
      <trkpt lat="45.38685" lon="5.66901">
        <ele>635.3</ele>
        <time>2013-06-23T06:07:05Z</time>
      </trkpt>
      <trkpt lat="45.38693" lon="5.66903">
        <ele>634.9</ele>
        <time>2013-06-23T06:07:08Z</time>
      </trkpt>
      <trkpt lat="45.38701" lon="5.66907">
        <ele>635.4</ele>
        <time>2013-06-23T06:07:11Z</time>
      </trkpt>
      <trkpt lat="45.38709" lon="5.66909">
        <ele>635.9</ele>
        <time>2013-06-23T06:07:13Z</time>
      </trkpt>
      <trkpt lat="45.38714" lon="5.6691">
        <ele>636.1</ele>
        <time>2013-06-23T06:07:14Z</time>
      </trkpt>
      <trkpt lat="45.38719" lon="5.66911">
        <ele>635.5</ele>
        <time>2013-06-23T06:07:15Z</time>
      </trkpt>
      <trkpt lat="45.38727" lon="5.66913">
        <ele>634.6</ele>
        <time>2013-06-23T06:07:17Z</time>
      </trkpt>
      <trkpt lat="45.38734" lon="5.66916">
        <ele>633.9</ele>
        <time>2013-06-23T06:07:19Z</time>
      </trkpt>
      <trkpt lat="45.38742" lon="5.66918">
        <ele>633.5</ele>
        <time>2013-06-23T06:07:21Z</time>
      </trkpt>
      <trkpt lat="45.38749" lon="5.66922">
        <ele>633.6</ele>
        <time>2013-06-23T06:07:23Z</time>
      </trkpt>
      <trkpt lat="45.38756" lon="5.66925">
        <ele>633.3</ele>
        <time>2013-06-23T06:07:25Z</time>
      </trkpt>
      <trkpt lat="45.3876" lon="5.66925">
        <ele>633</ele>
        <time>2013-06-23T06:07:26Z</time>
      </trkpt>
      <trkpt lat="45.38765" lon="5.66927">
        <ele>632.8</ele>
        <time>2013-06-23T06:07:27Z</time>
      </trkpt>
      <trkpt lat="45.38773" lon="5.66929">
        <ele>631.9</ele>
        <time>2013-06-23T06:07:29Z</time>
      </trkpt>
      <trkpt lat="45.3878" lon="5.6693">
        <ele>631.7</ele>
        <time>2013-06-23T06:07:30Z</time>
      </trkpt>
      <trkpt lat="45.38785" lon="5.66932">
        <ele>630.1</ele>
        <time>2013-06-23T06:07:31Z</time>
      </trkpt>
      <trkpt lat="45.38791" lon="5.66935">
        <ele>629</ele>
        <time>2013-06-23T06:07:32Z</time>
      </trkpt>
      <trkpt lat="45.38797" lon="5.66938">
        <ele>628.1</ele>
        <time>2013-06-23T06:07:33Z</time>
      </trkpt>
      <trkpt lat="45.38803" lon="5.66939">
        <ele>626.9</ele>
        <time>2013-06-23T06:07:34Z</time>
      </trkpt>
      <trkpt lat="45.3881" lon="5.66941">
        <ele>626.1</ele>
        <time>2013-06-23T06:07:35Z</time>
      </trkpt>
      <trkpt lat="45.38816" lon="5.66942">
        <ele>625.5</ele>
        <time>2013-06-23T06:07:36Z</time>
      </trkpt>
      <trkpt lat="45.38822" lon="5.66942">
        <ele>624.3</ele>
        <time>2013-06-23T06:07:37Z</time>
      </trkpt>
      <trkpt lat="45.38828" lon="5.66943">
        <ele>623.5</ele>
        <time>2013-06-23T06:07:38Z</time>
      </trkpt>
      <trkpt lat="45.38833" lon="5.66943">
        <ele>622.9</ele>
        <time>2013-06-23T06:07:39Z</time>
      </trkpt>
      <trkpt lat="45.38839" lon="5.66945">
        <ele>622.4</ele>
        <time>2013-06-23T06:07:40Z</time>
      </trkpt>
      <trkpt lat="45.38844" lon="5.66947">
        <ele>622.2</ele>
        <time>2013-06-23T06:07:41Z</time>
      </trkpt>
      <trkpt lat="45.38849" lon="5.66949">
        <ele>622</ele>
        <time>2013-06-23T06:07:42Z</time>
      </trkpt>
      <trkpt lat="45.38855" lon="5.6695">
        <ele>621.9</ele>
        <time>2013-06-23T06:07:43Z</time>
      </trkpt>
      <trkpt lat="45.3886" lon="5.66951">
        <ele>622</ele>
        <time>2013-06-23T06:07:44Z</time>
      </trkpt>
      <trkpt lat="45.38864" lon="5.66952">
        <ele>622</ele>
        <time>2013-06-23T06:07:45Z</time>
      </trkpt>
      <trkpt lat="45.38872" lon="5.66952">
        <ele>621.5</ele>
        <time>2013-06-23T06:07:47Z</time>
      </trkpt>
      <trkpt lat="45.3888" lon="5.66949">
        <ele>620.9</ele>
        <time>2013-06-23T06:07:50Z</time>
      </trkpt>
      <trkpt lat="45.38887" lon="5.66946">
        <ele>620</ele>
        <time>2013-06-23T06:07:53Z</time>
      </trkpt>
      <trkpt lat="45.38895" lon="5.66941">
        <ele>618.4</ele>
        <time>2013-06-23T06:07:56Z</time>
      </trkpt>
      <trkpt lat="45.38903" lon="5.66935">
        <ele>617</ele>
        <time>2013-06-23T06:07:59Z</time>
      </trkpt>
      <trkpt lat="45.3891" lon="5.66929">
        <ele>614.3</ele>
        <time>2013-06-23T06:08:02Z</time>
      </trkpt>
      <trkpt lat="45.38912" lon="5.66917">
        <ele>612.2</ele>
        <time>2013-06-23T06:08:05Z</time>
      </trkpt>
      <trkpt lat="45.3891" lon="5.66904">
        <ele>609.7</ele>
        <time>2013-06-23T06:08:07Z</time>
      </trkpt>
      <trkpt lat="45.38908" lon="5.66896">
        <ele>607.3</ele>
        <time>2013-06-23T06:08:09Z</time>
      </trkpt>
      <trkpt lat="45.38904" lon="5.66885">
        <ele>605.1</ele>
        <time>2013-06-23T06:08:11Z</time>
      </trkpt>
      <trkpt lat="45.38898" lon="5.66879">
        <ele>602.9</ele>
        <time>2013-06-23T06:08:13Z</time>
      </trkpt>
      <trkpt lat="45.38892" lon="5.66871">
        <ele>599.6</ele>
        <time>2013-06-23T06:08:17Z</time>
      </trkpt>
      <trkpt lat="45.38887" lon="5.66864">
        <ele>597.1</ele>
        <time>2013-06-23T06:08:21Z</time>
      </trkpt>
      <trkpt lat="45.38883" lon="5.66856">
        <ele>595</ele>
        <time>2013-06-23T06:08:24Z</time>
      </trkpt>
      <trkpt lat="45.38879" lon="5.66848">
        <ele>592.2</ele>
        <time>2013-06-23T06:08:26Z</time>
      </trkpt>
      <trkpt lat="45.38877" lon="5.66843">
        <ele>591.3</ele>
        <time>2013-06-23T06:08:27Z</time>
      </trkpt>
      <trkpt lat="45.38874" lon="5.66837">
        <ele>590.7</ele>
        <time>2013-06-23T06:08:28Z</time>
      </trkpt>
      <trkpt lat="45.38871" lon="5.6683">
        <ele>589.4</ele>
        <time>2013-06-23T06:08:29Z</time>
      </trkpt>
      <trkpt lat="45.38867" lon="5.66824">
        <ele>588.5</ele>
        <time>2013-06-23T06:08:30Z</time>
      </trkpt>
      <trkpt lat="45.38864" lon="5.66819">
        <ele>587.8</ele>
        <time>2013-06-23T06:08:31Z</time>
      </trkpt>
      <trkpt lat="45.38859" lon="5.66814">
        <ele>586.3</ele>
        <time>2013-06-23T06:08:32Z</time>
      </trkpt>
      <trkpt lat="45.38854" lon="5.6681">
        <ele>585.2</ele>
        <time>2013-06-23T06:08:33Z</time>
      </trkpt>
      <trkpt lat="45.38849" lon="5.66806">
        <ele>584.4</ele>
        <time>2013-06-23T06:08:34Z</time>
      </trkpt>
      <trkpt lat="45.38844" lon="5.66802">
        <ele>583.1</ele>
        <time>2013-06-23T06:08:35Z</time>
      </trkpt>
      <trkpt lat="45.38838" lon="5.66797">
        <ele>582.1</ele>
        <time>2013-06-23T06:08:36Z</time>
      </trkpt>
      <trkpt lat="45.38831" lon="5.66793">
        <ele>581.4</ele>
        <time>2013-06-23T06:08:37Z</time>
      </trkpt>
      <trkpt lat="45.38825" lon="5.66789">
        <ele>580.9</ele>
        <time>2013-06-23T06:08:38Z</time>
      </trkpt>
      <trkpt lat="45.38819" lon="5.66787">
        <ele>580.5</ele>
        <time>2013-06-23T06:08:39Z</time>
      </trkpt>
      <trkpt lat="45.38813" lon="5.66786">
        <ele>580.2</ele>
        <time>2013-06-23T06:08:40Z</time>
      </trkpt>
      <trkpt lat="45.38806" lon="5.66783">
        <ele>579.8</ele>
        <time>2013-06-23T06:08:42Z</time>
      </trkpt>
      <trkpt lat="45.38799" lon="5.66776">
        <ele>579.5</ele>
        <time>2013-06-23T06:08:44Z</time>
      </trkpt>
      <trkpt lat="45.38795" lon="5.6677">
        <ele>578.1</ele>
        <time>2013-06-23T06:08:45Z</time>
      </trkpt>
      <trkpt lat="45.38792" lon="5.66765">
        <ele>577.1</ele>
        <time>2013-06-23T06:08:46Z</time>
      </trkpt>
      <trkpt lat="45.38787" lon="5.66762">
        <ele>576.3</ele>
        <time>2013-06-23T06:08:47Z</time>
      </trkpt>
      <trkpt lat="45.38783" lon="5.66759">
        <ele>575.9</ele>
        <time>2013-06-23T06:08:48Z</time>
      </trkpt>
      <trkpt lat="45.38775" lon="5.66754">
        <ele>575.4</ele>
        <time>2013-06-23T06:08:50Z</time>
      </trkpt>
      <trkpt lat="45.38771" lon="5.6675">
        <ele>574.8</ele>
        <time>2013-06-23T06:08:51Z</time>
      </trkpt>
      <trkpt lat="45.38766" lon="5.66745">
        <ele>574.4</ele>
        <time>2013-06-23T06:08:52Z</time>
      </trkpt>
      <trkpt lat="45.38761" lon="5.6674">
        <ele>574.1</ele>
        <time>2013-06-23T06:08:53Z</time>
      </trkpt>
      <trkpt lat="45.38756" lon="5.66737">
        <ele>573</ele>
        <time>2013-06-23T06:08:54Z</time>
      </trkpt>
      <trkpt lat="45.38749" lon="5.66732">
        <ele>571.7</ele>
        <time>2013-06-23T06:08:56Z</time>
      </trkpt>
      <trkpt lat="45.38744" lon="5.66731">
        <ele>570.3</ele>
        <time>2013-06-23T06:08:57Z</time>
      </trkpt>
      <trkpt lat="45.38738" lon="5.66729">
        <ele>569.2</ele>
        <time>2013-06-23T06:08:58Z</time>
      </trkpt>
      <trkpt lat="45.38732" lon="5.66728">
        <ele>568.4</ele>
        <time>2013-06-23T06:08:59Z</time>
      </trkpt>
      <trkpt lat="45.38727" lon="5.66727">
        <ele>567.5</ele>
        <time>2013-06-23T06:09:00Z</time>
      </trkpt>
      <trkpt lat="45.38722" lon="5.66726">
        <ele>566.9</ele>
        <time>2013-06-23T06:09:01Z</time>
      </trkpt>
      <trkpt lat="45.38718" lon="5.66724">
        <ele>566.4</ele>
        <time>2013-06-23T06:09:02Z</time>
      </trkpt>
      <trkpt lat="45.38714" lon="5.66721">
        <ele>566</ele>
        <time>2013-06-23T06:09:03Z</time>
      </trkpt>
      <trkpt lat="45.3871" lon="5.66716">
        <ele>565.3</ele>
        <time>2013-06-23T06:09:04Z</time>
      </trkpt>
      <trkpt lat="45.38705" lon="5.66711">
        <ele>564.8</ele>
        <time>2013-06-23T06:09:05Z</time>
      </trkpt>
      <trkpt lat="45.387" lon="5.66708">
        <ele>564.4</ele>
        <time>2013-06-23T06:09:06Z</time>
      </trkpt>
      <trkpt lat="45.38693" lon="5.66708">
        <ele>562.6</ele>
        <time>2013-06-23T06:09:08Z</time>
      </trkpt>
      <trkpt lat="45.38685" lon="5.66704">
        <ele>559.9</ele>
        <time>2013-06-23T06:09:12Z</time>
      </trkpt>
      <trkpt lat="45.38678" lon="5.66698">
        <ele>557.5</ele>
        <time>2013-06-23T06:09:16Z</time>
      </trkpt>
      <trkpt lat="45.38672" lon="5.6669">
        <ele>556.9</ele>
        <time>2013-06-23T06:09:18Z</time>
      </trkpt>
      <trkpt lat="45.38667" lon="5.66684">
        <ele>555.1</ele>
        <time>2013-06-23T06:09:20Z</time>
      </trkpt>
      <trkpt lat="45.38663" lon="5.66679">
        <ele>553.1</ele>
        <time>2013-06-23T06:09:22Z</time>
      </trkpt>
      <trkpt lat="45.38659" lon="5.66675">
        <ele>551.9</ele>
        <time>2013-06-23T06:09:23Z</time>
      </trkpt>
      <trkpt lat="45.38655" lon="5.6667">
        <ele>551</ele>
        <time>2013-06-23T06:09:24Z</time>
      </trkpt>
      <trkpt lat="45.38649" lon="5.66664">
        <ele>549</ele>
        <time>2013-06-23T06:09:26Z</time>
      </trkpt>
      <trkpt lat="45.38641" lon="5.66658">
        <ele>546.4</ele>
        <time>2013-06-23T06:09:29Z</time>
      </trkpt>
      <trkpt lat="45.38638" lon="5.66657">
        <ele>545.7</ele>
        <time>2013-06-23T06:09:30Z</time>
      </trkpt>
      <trkpt lat="45.38629" lon="5.66647">
        <ele>543.7</ele>
        <time>2013-06-23T06:09:33Z</time>
      </trkpt>
      <trkpt lat="45.38623" lon="5.66641">
        <ele>542.9</ele>
        <time>2013-06-23T06:09:35Z</time>
      </trkpt>
      <trkpt lat="45.38617" lon="5.66635">
        <ele>541.1</ele>
        <time>2013-06-23T06:09:37Z</time>
      </trkpt>
      <trkpt lat="45.38611" lon="5.66629">
        <ele>539.4</ele>
        <time>2013-06-23T06:09:39Z</time>
      </trkpt>
      <trkpt lat="45.38607" lon="5.66624">
        <ele>538.1</ele>
        <time>2013-06-23T06:09:41Z</time>
      </trkpt>
      <trkpt lat="45.38602" lon="5.66617">
        <ele>536.7</ele>
        <time>2013-06-23T06:09:43Z</time>
      </trkpt>
      <trkpt lat="45.38597" lon="5.66608">
        <ele>533.7</ele>
        <time>2013-06-23T06:09:46Z</time>
      </trkpt>
      <trkpt lat="45.3859" lon="5.66602">
        <ele>529.7</ele>
        <time>2013-06-23T06:09:49Z</time>
      </trkpt>
      <trkpt lat="45.38583" lon="5.66596">
        <ele>527.9</ele>
        <time>2013-06-23T06:09:51Z</time>
      </trkpt>
      <trkpt lat="45.38576" lon="5.66591">
        <ele>526.8</ele>
        <time>2013-06-23T06:09:53Z</time>
      </trkpt>
      <trkpt lat="45.38569" lon="5.66587">
        <ele>526</ele>
        <time>2013-06-23T06:09:55Z</time>
      </trkpt>
      <trkpt lat="45.38564" lon="5.66582">
        <ele>525.4</ele>
        <time>2013-06-23T06:09:57Z</time>
      </trkpt>
      <trkpt lat="45.38556" lon="5.66575">
        <ele>524.3</ele>
        <time>2013-06-23T06:10:00Z</time>
      </trkpt>
      <trkpt lat="45.38551" lon="5.66569">
        <ele>521.7</ele>
        <time>2013-06-23T06:10:02Z</time>
      </trkpt>
      <trkpt lat="45.38546" lon="5.66561">
        <ele>518.7</ele>
        <time>2013-06-23T06:10:05Z</time>
      </trkpt>
      <trkpt lat="45.3854" lon="5.66555">
        <ele>516.2</ele>
        <time>2013-06-23T06:10:08Z</time>
      </trkpt>
      <trkpt lat="45.38535" lon="5.66549">
        <ele>514.6</ele>
        <time>2013-06-23T06:10:10Z</time>
      </trkpt>
      <trkpt lat="45.3853" lon="5.66542">
        <ele>513.1</ele>
        <time>2013-06-23T06:10:12Z</time>
      </trkpt>
      <trkpt lat="45.38525" lon="5.66535">
        <ele>511.2</ele>
        <time>2013-06-23T06:10:14Z</time>
      </trkpt>
      <trkpt lat="45.3852" lon="5.66529">
        <ele>509.3</ele>
        <time>2013-06-23T06:10:16Z</time>
      </trkpt>
      <trkpt lat="45.38515" lon="5.66522">
        <ele>507</ele>
        <time>2013-06-23T06:10:18Z</time>
      </trkpt>
      <trkpt lat="45.3851" lon="5.66513">
        <ele>505</ele>
        <time>2013-06-23T06:10:20Z</time>
      </trkpt>
      <trkpt lat="45.38506" lon="5.66506">
        <ele>503.5</ele>
        <time>2013-06-23T06:10:22Z</time>
      </trkpt>
      <trkpt lat="45.38501" lon="5.665">
        <ele>500.4</ele>
        <time>2013-06-23T06:10:24Z</time>
      </trkpt>
      <trkpt lat="45.38497" lon="5.66492">
        <ele>498.7</ele>
        <time>2013-06-23T06:10:26Z</time>
      </trkpt>
      <trkpt lat="45.38493" lon="5.66484">
        <ele>497.7</ele>
        <time>2013-06-23T06:10:28Z</time>
      </trkpt>
      <trkpt lat="45.38489" lon="5.66475">
        <ele>496.1</ele>
        <time>2013-06-23T06:10:30Z</time>
      </trkpt>
      <trkpt lat="45.38487" lon="5.6647">
        <ele>495.2</ele>
        <time>2013-06-23T06:10:31Z</time>
      </trkpt>
      <trkpt lat="45.38481" lon="5.6646">
        <ele>493.3</ele>
        <time>2013-06-23T06:10:33Z</time>
      </trkpt>
      <trkpt lat="45.38477" lon="5.66449">
        <ele>491.7</ele>
        <time>2013-06-23T06:10:35Z</time>
      </trkpt>
      <trkpt lat="45.38476" lon="5.66438">
        <ele>489.2</ele>
        <time>2013-06-23T06:10:37Z</time>
      </trkpt>
      <trkpt lat="45.38475" lon="5.66431">
        <ele>488.4</ele>
        <time>2013-06-23T06:10:38Z</time>
      </trkpt>
      <trkpt lat="45.38473" lon="5.66425">
        <ele>487.3</ele>
        <time>2013-06-23T06:10:39Z</time>
      </trkpt>
      <trkpt lat="45.38473" lon="5.66418">
        <ele>486.4</ele>
        <time>2013-06-23T06:10:40Z</time>
      </trkpt>
      <trkpt lat="45.38472" lon="5.66406">
        <ele>485.3</ele>
        <time>2013-06-23T06:10:42Z</time>
      </trkpt>
      <trkpt lat="45.3847" lon="5.66395">
        <ele>483.1</ele>
        <time>2013-06-23T06:10:44Z</time>
      </trkpt>
      <trkpt lat="45.38466" lon="5.66384">
        <ele>480.6</ele>
        <time>2013-06-23T06:10:47Z</time>
      </trkpt>
      <trkpt lat="45.38465" lon="5.66372">
        <ele>478.2</ele>
        <time>2013-06-23T06:10:50Z</time>
      </trkpt>
      <trkpt lat="45.38467" lon="5.66363">
        <ele>476.7</ele>
        <time>2013-06-23T06:10:53Z</time>
      </trkpt>
      <trkpt lat="45.38473" lon="5.66354">
        <ele>474.9</ele>
        <time>2013-06-23T06:10:56Z</time>
      </trkpt>
      <trkpt lat="45.38479" lon="5.66347">
        <ele>473.2</ele>
        <time>2013-06-23T06:10:59Z</time>
      </trkpt>
      <trkpt lat="45.38484" lon="5.66339">
        <ele>471.5</ele>
        <time>2013-06-23T06:11:02Z</time>
      </trkpt>
      <trkpt lat="45.38487" lon="5.66334">
        <ele>471.1</ele>
        <time>2013-06-23T06:11:03Z</time>
      </trkpt>
      <trkpt lat="45.3849" lon="5.66329">
        <ele>470.8</ele>
        <time>2013-06-23T06:11:04Z</time>
      </trkpt>
      <trkpt lat="45.38495" lon="5.66324">
        <ele>469.5</ele>
        <time>2013-06-23T06:11:05Z</time>
      </trkpt>
      <trkpt lat="45.385" lon="5.66319">
        <ele>468.5</ele>
        <time>2013-06-23T06:11:06Z</time>
      </trkpt>
      <trkpt lat="45.38504" lon="5.66313">
        <ele>467.7</ele>
        <time>2013-06-23T06:11:07Z</time>
      </trkpt>
      <trkpt lat="45.38507" lon="5.66308">
        <ele>466.8</ele>
        <time>2013-06-23T06:11:08Z</time>
      </trkpt>
      <trkpt lat="45.38511" lon="5.66301">
        <ele>466.1</ele>
        <time>2013-06-23T06:11:09Z</time>
      </trkpt>
      <trkpt lat="45.38517" lon="5.66294">
        <ele>465.6</ele>
        <time>2013-06-23T06:11:10Z</time>
      </trkpt>
      <trkpt lat="45.38522" lon="5.66286">
        <ele>464.8</ele>
        <time>2013-06-23T06:11:11Z</time>
      </trkpt>
      <trkpt lat="45.38527" lon="5.66277">
        <ele>464.1</ele>
        <time>2013-06-23T06:11:12Z</time>
      </trkpt>
      <trkpt lat="45.38532" lon="5.66269">
        <ele>463.6</ele>
        <time>2013-06-23T06:11:13Z</time>
      </trkpt>
      <trkpt lat="45.38537" lon="5.66261">
        <ele>463.3</ele>
        <time>2013-06-23T06:11:14Z</time>
      </trkpt>
      <trkpt lat="45.38542" lon="5.66253">
        <ele>461.8</ele>
        <time>2013-06-23T06:11:15Z</time>
      </trkpt>
      <trkpt lat="45.38545" lon="5.66245">
        <ele>460.6</ele>
        <time>2013-06-23T06:11:16Z</time>
      </trkpt>
      <trkpt lat="45.38548" lon="5.66237">
        <ele>459.8</ele>
        <time>2013-06-23T06:11:17Z</time>
      </trkpt>
      <trkpt lat="45.38551" lon="5.66229">
        <ele>459.1</ele>
        <time>2013-06-23T06:11:18Z</time>
      </trkpt>
      <trkpt lat="45.38552" lon="5.6622">
        <ele>458.5</ele>
        <time>2013-06-23T06:11:19Z</time>
      </trkpt>
      <trkpt lat="45.38553" lon="5.66211">
        <ele>458.1</ele>
        <time>2013-06-23T06:11:20Z</time>
      </trkpt>
      <trkpt lat="45.38553" lon="5.66202">
        <ele>457.1</ele>
        <time>2013-06-23T06:11:21Z</time>
      </trkpt>
      <trkpt lat="45.38553" lon="5.66192">
        <ele>456.4</ele>
        <time>2013-06-23T06:11:22Z</time>
      </trkpt>
      <trkpt lat="45.38553" lon="5.66182">
        <ele>455.8</ele>
        <time>2013-06-23T06:11:23Z</time>
      </trkpt>
      <trkpt lat="45.38553" lon="5.66173">
        <ele>455.2</ele>
        <time>2013-06-23T06:11:24Z</time>
      </trkpt>
      <trkpt lat="45.38554" lon="5.66164">
        <ele>454.7</ele>
        <time>2013-06-23T06:11:25Z</time>
      </trkpt>
      <trkpt lat="45.38555" lon="5.66157">
        <ele>454.4</ele>
        <time>2013-06-23T06:11:26Z</time>
      </trkpt>
      <trkpt lat="45.38556" lon="5.66151">
        <ele>453.5</ele>
        <time>2013-06-23T06:11:27Z</time>
      </trkpt>
      <trkpt lat="45.38558" lon="5.66144">
        <ele>452.8</ele>
        <time>2013-06-23T06:11:28Z</time>
      </trkpt>
      <trkpt lat="45.38561" lon="5.66138">
        <ele>452.3</ele>
        <time>2013-06-23T06:11:29Z</time>
      </trkpt>
      <trkpt lat="45.38565" lon="5.66133">
        <ele>451.5</ele>
        <time>2013-06-23T06:11:30Z</time>
      </trkpt>
      <trkpt lat="45.38568" lon="5.66127">
        <ele>450.9</ele>
        <time>2013-06-23T06:11:31Z</time>
      </trkpt>
      <trkpt lat="45.38572" lon="5.66121">
        <ele>450.5</ele>
        <time>2013-06-23T06:11:32Z</time>
      </trkpt>
      <trkpt lat="45.38575" lon="5.66114">
        <ele>450.2</ele>
        <time>2013-06-23T06:11:33Z</time>
      </trkpt>
      <trkpt lat="45.38578" lon="5.66106">
        <ele>450</ele>
        <time>2013-06-23T06:11:34Z</time>
      </trkpt>
      <trkpt lat="45.3858" lon="5.66099">
        <ele>449.9</ele>
        <time>2013-06-23T06:11:35Z</time>
      </trkpt>
      <trkpt lat="45.38583" lon="5.66086">
        <ele>449.3</ele>
        <time>2013-06-23T06:11:37Z</time>
      </trkpt>
      <trkpt lat="45.38583" lon="5.66074">
        <ele>448.7</ele>
        <time>2013-06-23T06:11:39Z</time>
      </trkpt>
      <trkpt lat="45.3858" lon="5.66062">
        <ele>447.6</ele>
        <time>2013-06-23T06:11:41Z</time>
      </trkpt>
      <trkpt lat="45.38577" lon="5.66057">
        <ele>447.3</ele>
        <time>2013-06-23T06:11:42Z</time>
      </trkpt>
      <trkpt lat="45.38575" lon="5.66052">
        <ele>447.2</ele>
        <time>2013-06-23T06:11:43Z</time>
      </trkpt>
      <trkpt lat="45.3857" lon="5.66041">
        <ele>447.2</ele>
        <time>2013-06-23T06:11:45Z</time>
      </trkpt>
      <trkpt lat="45.38566" lon="5.6603">
        <ele>446.7</ele>
        <time>2013-06-23T06:11:47Z</time>
      </trkpt>
      <trkpt lat="45.38562" lon="5.66019">
        <ele>446.4</ele>
        <time>2013-06-23T06:11:49Z</time>
      </trkpt>
      <trkpt lat="45.3856" lon="5.66013">
        <ele>446.4</ele>
        <time>2013-06-23T06:11:50Z</time>
      </trkpt>
      <trkpt lat="45.38558" lon="5.66007">
        <ele>446.3</ele>
        <time>2013-06-23T06:11:51Z</time>
      </trkpt>
      <trkpt lat="45.38556" lon="5.66001">
        <ele>446.3</ele>
        <time>2013-06-23T06:11:52Z</time>
      </trkpt>
      <trkpt lat="45.38553" lon="5.65994">
        <ele>446.2</ele>
        <time>2013-06-23T06:11:53Z</time>
      </trkpt>
      <trkpt lat="45.38551" lon="5.65988">
        <ele>446.2</ele>
        <time>2013-06-23T06:11:54Z</time>
      </trkpt>
      <trkpt lat="45.38549" lon="5.65981">
        <ele>446.2</ele>
        <time>2013-06-23T06:11:55Z</time>
      </trkpt>
      <trkpt lat="45.38547" lon="5.65975">
        <ele>445.9</ele>
        <time>2013-06-23T06:11:56Z</time>
      </trkpt>
      <trkpt lat="45.38545" lon="5.65968">
        <ele>445.7</ele>
        <time>2013-06-23T06:11:57Z</time>
      </trkpt>
      <trkpt lat="45.38543" lon="5.65961">
        <ele>445.6</ele>
        <time>2013-06-23T06:11:58Z</time>
      </trkpt>
      <trkpt lat="45.38541" lon="5.65954">
        <ele>445.6</ele>
        <time>2013-06-23T06:11:59Z</time>
      </trkpt>
      <trkpt lat="45.38539" lon="5.65947">
        <ele>445.7</ele>
        <time>2013-06-23T06:12:00Z</time>
      </trkpt>
      <trkpt lat="45.38537" lon="5.6594">
        <ele>445.7</ele>
        <time>2013-06-23T06:12:01Z</time>
      </trkpt>
      <trkpt lat="45.38536" lon="5.65933">
        <ele>445.7</ele>
        <time>2013-06-23T06:12:02Z</time>
      </trkpt>
      <trkpt lat="45.38534" lon="5.65926">
        <ele>445.6</ele>
        <time>2013-06-23T06:12:03Z</time>
      </trkpt>
      <trkpt lat="45.38532" lon="5.65919">
        <ele>445.6</ele>
        <time>2013-06-23T06:12:04Z</time>
      </trkpt>
      <trkpt lat="45.3853" lon="5.65912">
        <ele>445.6</ele>
        <time>2013-06-23T06:12:05Z</time>
      </trkpt>
      <trkpt lat="45.38529" lon="5.65905">
        <ele>445.8</ele>
        <time>2013-06-23T06:12:06Z</time>
      </trkpt>
      <trkpt lat="45.38527" lon="5.65897">
        <ele>445.9</ele>
        <time>2013-06-23T06:12:07Z</time>
      </trkpt>
      <trkpt lat="45.38526" lon="5.6589">
        <ele>446</ele>
        <time>2013-06-23T06:12:08Z</time>
      </trkpt>
      <trkpt lat="45.38524" lon="5.65883">
        <ele>445.9</ele>
        <time>2013-06-23T06:12:09Z</time>
      </trkpt>
      <trkpt lat="45.38523" lon="5.65876">
        <ele>445.9</ele>
        <time>2013-06-23T06:12:10Z</time>
      </trkpt>
      <trkpt lat="45.38521" lon="5.65869">
        <ele>445.8</ele>
        <time>2013-06-23T06:12:11Z</time>
      </trkpt>
      <trkpt lat="45.38519" lon="5.65862">
        <ele>446</ele>
        <time>2013-06-23T06:12:12Z</time>
      </trkpt>
      <trkpt lat="45.38517" lon="5.65856">
        <ele>446.1</ele>
        <time>2013-06-23T06:12:13Z</time>
      </trkpt>
      <trkpt lat="45.38515" lon="5.65849">
        <ele>446.2</ele>
        <time>2013-06-23T06:12:14Z</time>
      </trkpt>
      <trkpt lat="45.38512" lon="5.65842">
        <ele>446.3</ele>
        <time>2013-06-23T06:12:15Z</time>
      </trkpt>
      <trkpt lat="45.38509" lon="5.65835">
        <ele>446.3</ele>
        <time>2013-06-23T06:12:16Z</time>
      </trkpt>
      <trkpt lat="45.38506" lon="5.65829">
        <ele>446.4</ele>
        <time>2013-06-23T06:12:17Z</time>
      </trkpt>
      <trkpt lat="45.38503" lon="5.65822">
        <ele>446.2</ele>
        <time>2013-06-23T06:12:18Z</time>
      </trkpt>
      <trkpt lat="45.385" lon="5.65816">
        <ele>446</ele>
        <time>2013-06-23T06:12:19Z</time>
      </trkpt>
      <trkpt lat="45.38497" lon="5.6581">
        <ele>445.9</ele>
        <time>2013-06-23T06:12:20Z</time>
      </trkpt>
      <trkpt lat="45.38493" lon="5.65804">
        <ele>445.8</ele>
        <time>2013-06-23T06:12:21Z</time>
      </trkpt>
      <trkpt lat="45.3849" lon="5.65798">
        <ele>446.1</ele>
        <time>2013-06-23T06:12:22Z</time>
      </trkpt>
      <trkpt lat="45.38486" lon="5.65792">
        <ele>446.4</ele>
        <time>2013-06-23T06:12:23Z</time>
      </trkpt>
      <trkpt lat="45.38483" lon="5.65786">
        <ele>446.6</ele>
        <time>2013-06-23T06:12:24Z</time>
      </trkpt>
      <trkpt lat="45.38479" lon="5.6578">
        <ele>446.4</ele>
        <time>2013-06-23T06:12:25Z</time>
      </trkpt>
      <trkpt lat="45.38476" lon="5.65774">
        <ele>446.2</ele>
        <time>2013-06-23T06:12:26Z</time>
      </trkpt>
      <trkpt lat="45.38473" lon="5.65768">
        <ele>446.1</ele>
        <time>2013-06-23T06:12:27Z</time>
      </trkpt>
      <trkpt lat="45.38469" lon="5.65762">
        <ele>446.1</ele>
        <time>2013-06-23T06:12:28Z</time>
      </trkpt>
      <trkpt lat="45.38466" lon="5.65756">
        <ele>446</ele>
        <time>2013-06-23T06:12:29Z</time>
      </trkpt>
      <trkpt lat="45.38462" lon="5.6575">
        <ele>446</ele>
        <time>2013-06-23T06:12:30Z</time>
      </trkpt>
      <trkpt lat="45.38459" lon="5.65744">
        <ele>446.1</ele>
        <time>2013-06-23T06:12:31Z</time>
      </trkpt>
      <trkpt lat="45.38456" lon="5.65737">
        <ele>446.1</ele>
        <time>2013-06-23T06:12:32Z</time>
      </trkpt>
      <trkpt lat="45.38453" lon="5.65731">
        <ele>446.2</ele>
        <time>2013-06-23T06:12:33Z</time>
      </trkpt>
      <trkpt lat="45.3845" lon="5.65725">
        <ele>446.4</ele>
        <time>2013-06-23T06:12:34Z</time>
      </trkpt>
      <trkpt lat="45.38446" lon="5.65719">
        <ele>446.6</ele>
        <time>2013-06-23T06:12:35Z</time>
      </trkpt>
      <trkpt lat="45.38443" lon="5.65714">
        <ele>446.7</ele>
        <time>2013-06-23T06:12:36Z</time>
      </trkpt>
      <trkpt lat="45.3844" lon="5.65708">
        <ele>446.8</ele>
        <time>2013-06-23T06:12:37Z</time>
      </trkpt>
      <trkpt lat="45.38437" lon="5.65701">
        <ele>446.8</ele>
        <time>2013-06-23T06:12:38Z</time>
      </trkpt>
      <trkpt lat="45.38433" lon="5.65695">
        <ele>446.7</ele>
        <time>2013-06-23T06:12:39Z</time>
      </trkpt>
      <trkpt lat="45.3843" lon="5.65689">
        <ele>446.7</ele>
        <time>2013-06-23T06:12:40Z</time>
      </trkpt>
      <trkpt lat="45.38427" lon="5.65683">
        <ele>446.5</ele>
        <time>2013-06-23T06:12:41Z</time>
      </trkpt>
      <trkpt lat="45.38423" lon="5.65677">
        <ele>446.3</ele>
        <time>2013-06-23T06:12:42Z</time>
      </trkpt>
      <trkpt lat="45.3842" lon="5.65671">
        <ele>446.1</ele>
        <time>2013-06-23T06:12:43Z</time>
      </trkpt>
      <trkpt lat="45.38416" lon="5.65665">
        <ele>446.2</ele>
        <time>2013-06-23T06:12:44Z</time>
      </trkpt>
      <trkpt lat="45.38413" lon="5.65659">
        <ele>446.3</ele>
        <time>2013-06-23T06:12:45Z</time>
      </trkpt>
      <trkpt lat="45.38409" lon="5.65653">
        <ele>446.4</ele>
        <time>2013-06-23T06:12:46Z</time>
      </trkpt>
      <trkpt lat="45.38406" lon="5.65647">
        <ele>446.5</ele>
        <time>2013-06-23T06:12:47Z</time>
      </trkpt>
      <trkpt lat="45.38403" lon="5.65641">
        <ele>446.6</ele>
        <time>2013-06-23T06:12:48Z</time>
      </trkpt>
      <trkpt lat="45.38399" lon="5.65635">
        <ele>446.6</ele>
        <time>2013-06-23T06:12:49Z</time>
      </trkpt>
      <trkpt lat="45.38396" lon="5.65629">
        <ele>446.5</ele>
        <time>2013-06-23T06:12:50Z</time>
      </trkpt>
      <trkpt lat="45.38393" lon="5.65623">
        <ele>446.4</ele>
        <time>2013-06-23T06:12:51Z</time>
      </trkpt>
      <trkpt lat="45.38389" lon="5.65617">
        <ele>446.4</ele>
        <time>2013-06-23T06:12:52Z</time>
      </trkpt>
      <trkpt lat="45.38387" lon="5.65611">
        <ele>446.3</ele>
        <time>2013-06-23T06:12:53Z</time>
      </trkpt>
      <trkpt lat="45.38384" lon="5.65605">
        <ele>445.9</ele>
        <time>2013-06-23T06:12:54Z</time>
      </trkpt>
      <trkpt lat="45.38381" lon="5.65599">
        <ele>445.6</ele>
        <time>2013-06-23T06:12:55Z</time>
      </trkpt>
      <trkpt lat="45.38378" lon="5.65593">
        <ele>445.3</ele>
        <time>2013-06-23T06:12:56Z</time>
      </trkpt>
      <trkpt lat="45.38375" lon="5.65587">
        <ele>446</ele>
        <time>2013-06-23T06:12:57Z</time>
      </trkpt>
      <trkpt lat="45.38373" lon="5.6558">
        <ele>446.5</ele>
        <time>2013-06-23T06:12:58Z</time>
      </trkpt>
      <trkpt lat="45.3837" lon="5.65574">
        <ele>446.9</ele>
        <time>2013-06-23T06:12:59Z</time>
      </trkpt>
      <trkpt lat="45.38368" lon="5.65567">
        <ele>446.8</ele>
        <time>2013-06-23T06:13:00Z</time>
      </trkpt>
      <trkpt lat="45.38365" lon="5.6556">
        <ele>446.7</ele>
        <time>2013-06-23T06:13:01Z</time>
      </trkpt>
      <trkpt lat="45.38363" lon="5.65548">
        <ele>446.2</ele>
        <time>2013-06-23T06:13:03Z</time>
      </trkpt>
      <trkpt lat="45.38371" lon="5.65543">
        <ele>445.4</ele>
        <time>2013-06-23T06:13:06Z</time>
      </trkpt>
      <trkpt lat="45.38378" lon="5.6554">
        <ele>445.1</ele>
        <time>2013-06-23T06:13:08Z</time>
      </trkpt>
      <trkpt lat="45.38387" lon="5.65539">
        <ele>445</ele>
        <time>2013-06-23T06:13:10Z</time>
      </trkpt>
      <trkpt lat="45.38392" lon="5.65539">
        <ele>445</ele>
        <time>2013-06-23T06:13:11Z</time>
      </trkpt>
      <trkpt lat="45.38396" lon="5.65539">
        <ele>445</ele>
        <time>2013-06-23T06:13:12Z</time>
      </trkpt>
      <trkpt lat="45.38401" lon="5.65539">
        <ele>445</ele>
        <time>2013-06-23T06:13:13Z</time>
      </trkpt>
      <trkpt lat="45.38406" lon="5.65539">
        <ele>444.9</ele>
        <time>2013-06-23T06:13:14Z</time>
      </trkpt>
      <trkpt lat="45.38411" lon="5.65539">
        <ele>444.9</ele>
        <time>2013-06-23T06:13:15Z</time>
      </trkpt>
      <trkpt lat="45.38416" lon="5.65539">
        <ele>445</ele>
        <time>2013-06-23T06:13:16Z</time>
      </trkpt>
      <trkpt lat="45.38421" lon="5.65539">
        <ele>445.1</ele>
        <time>2013-06-23T06:13:17Z</time>
      </trkpt>
      <trkpt lat="45.38426" lon="5.65539">
        <ele>445.2</ele>
        <time>2013-06-23T06:13:18Z</time>
      </trkpt>
      <trkpt lat="45.38434" lon="5.65536">
        <ele>445.3</ele>
        <time>2013-06-23T06:13:20Z</time>
      </trkpt>
      <trkpt lat="45.38442" lon="5.6553">
        <ele>445.2</ele>
        <time>2013-06-23T06:13:22Z</time>
      </trkpt>
      <trkpt lat="45.3845" lon="5.65525">
        <ele>445.1</ele>
        <time>2013-06-23T06:13:24Z</time>
      </trkpt>
      <trkpt lat="45.38458" lon="5.65521">
        <ele>445.3</ele>
        <time>2013-06-23T06:13:26Z</time>
      </trkpt>
      <trkpt lat="45.38467" lon="5.65518">
        <ele>445.4</ele>
        <time>2013-06-23T06:13:28Z</time>
      </trkpt>
      <trkpt lat="45.38471" lon="5.65517">
        <ele>445.1</ele>
        <time>2013-06-23T06:13:29Z</time>
      </trkpt>
      <trkpt lat="45.38475" lon="5.65515">
        <ele>444.9</ele>
        <time>2013-06-23T06:13:30Z</time>
      </trkpt>
      <trkpt lat="45.3848" lon="5.65513">
        <ele>444.7</ele>
        <time>2013-06-23T06:13:31Z</time>
      </trkpt>
      <trkpt lat="45.38484" lon="5.65512">
        <ele>444.6</ele>
        <time>2013-06-23T06:13:32Z</time>
      </trkpt>
      <trkpt lat="45.38489" lon="5.6551">
        <ele>444.5</ele>
        <time>2013-06-23T06:13:33Z</time>
      </trkpt>
      <trkpt lat="45.38494" lon="5.65508">
        <ele>444.4</ele>
        <time>2013-06-23T06:13:34Z</time>
      </trkpt>
      <trkpt lat="45.38498" lon="5.65504">
        <ele>444.1</ele>
        <time>2013-06-23T06:13:35Z</time>
      </trkpt>
      <trkpt lat="45.38502" lon="5.65493">
        <ele>443.7</ele>
        <time>2013-06-23T06:13:37Z</time>
      </trkpt>
      <trkpt lat="45.385" lon="5.65481">
        <ele>443.5</ele>
        <time>2013-06-23T06:13:39Z</time>
      </trkpt>
      <trkpt lat="45.38499" lon="5.6547">
        <ele>443.5</ele>
        <time>2013-06-23T06:13:41Z</time>
      </trkpt>
      <trkpt lat="45.38497" lon="5.65459">
        <ele>443.6</ele>
        <time>2013-06-23T06:13:43Z</time>
      </trkpt>
      <trkpt lat="45.38496" lon="5.65447">
        <ele>443.5</ele>
        <time>2013-06-23T06:13:45Z</time>
      </trkpt>
      <trkpt lat="45.38495" lon="5.65436">
        <ele>443.4</ele>
        <time>2013-06-23T06:13:47Z</time>
      </trkpt>
      <trkpt lat="45.38493" lon="5.65424">
        <ele>442.3</ele>
        <time>2013-06-23T06:13:49Z</time>
      </trkpt>
      <trkpt lat="45.38491" lon="5.65412">
        <ele>442</ele>
        <time>2013-06-23T06:13:51Z</time>
      </trkpt>
      <trkpt lat="45.38489" lon="5.654">
        <ele>442.2</ele>
        <time>2013-06-23T06:13:53Z</time>
      </trkpt>
      <trkpt lat="45.38487" lon="5.6539">
        <ele>442.6</ele>
        <time>2013-06-23T06:13:55Z</time>
      </trkpt>
      <trkpt lat="45.38483" lon="5.65378">
        <ele>442.6</ele>
        <time>2013-06-23T06:13:57Z</time>
      </trkpt>
      <trkpt lat="45.3848" lon="5.65367">
        <ele>442.4</ele>
        <time>2013-06-23T06:13:59Z</time>
      </trkpt>
      <trkpt lat="45.38477" lon="5.65357">
        <ele>442.6</ele>
        <time>2013-06-23T06:14:01Z</time>
      </trkpt>
      <trkpt lat="45.38474" lon="5.65346">
        <ele>442.9</ele>
        <time>2013-06-23T06:14:03Z</time>
      </trkpt>
      <trkpt lat="45.38471" lon="5.65335">
        <ele>442.5</ele>
        <time>2013-06-23T06:14:05Z</time>
      </trkpt>
      <trkpt lat="45.38468" lon="5.65325">
        <ele>442.6</ele>
        <time>2013-06-23T06:14:07Z</time>
      </trkpt>
      <trkpt lat="45.38465" lon="5.65314">
        <ele>443</ele>
        <time>2013-06-23T06:14:09Z</time>
      </trkpt>
      <trkpt lat="45.38463" lon="5.65303">
        <ele>443.5</ele>
        <time>2013-06-23T06:14:11Z</time>
      </trkpt>
      <trkpt lat="45.38461" lon="5.65292">
        <ele>443.2</ele>
        <time>2013-06-23T06:14:13Z</time>
      </trkpt>
      <trkpt lat="45.38459" lon="5.65281">
        <ele>442.6</ele>
        <time>2013-06-23T06:14:15Z</time>
      </trkpt>
      <trkpt lat="45.38456" lon="5.6527">
        <ele>442.7</ele>
        <time>2013-06-23T06:14:17Z</time>
      </trkpt>
      <trkpt lat="45.38454" lon="5.65258">
        <ele>443.1</ele>
        <time>2013-06-23T06:14:19Z</time>
      </trkpt>
      <trkpt lat="45.38452" lon="5.65245">
        <ele>443</ele>
        <time>2013-06-23T06:14:21Z</time>
      </trkpt>
      <trkpt lat="45.3845" lon="5.65233">
        <ele>443</ele>
        <time>2013-06-23T06:14:23Z</time>
      </trkpt>
      <trkpt lat="45.38449" lon="5.65221">
        <ele>443</ele>
        <time>2013-06-23T06:14:25Z</time>
      </trkpt>
      <trkpt lat="45.38448" lon="5.65209">
        <ele>443.5</ele>
        <time>2013-06-23T06:14:27Z</time>
      </trkpt>
      <trkpt lat="45.38447" lon="5.65197">
        <ele>443.6</ele>
        <time>2013-06-23T06:14:29Z</time>
      </trkpt>
      <trkpt lat="45.38447" lon="5.65184">
        <ele>443.6</ele>
        <time>2013-06-23T06:14:31Z</time>
      </trkpt>
      <trkpt lat="45.38447" lon="5.65178">
        <ele>444.2</ele>
        <time>2013-06-23T06:14:32Z</time>
      </trkpt>
      <trkpt lat="45.38447" lon="5.65172">
        <ele>444.6</ele>
        <time>2013-06-23T06:14:33Z</time>
      </trkpt>
      <trkpt lat="45.38447" lon="5.65165">
        <ele>445</ele>
        <time>2013-06-23T06:14:34Z</time>
      </trkpt>
      <trkpt lat="45.38447" lon="5.65159">
        <ele>445.2</ele>
        <time>2013-06-23T06:14:35Z</time>
      </trkpt>
      <trkpt lat="45.38447" lon="5.65152">
        <ele>445.1</ele>
        <time>2013-06-23T06:14:36Z</time>
      </trkpt>
      <trkpt lat="45.38446" lon="5.65146">
        <ele>445.1</ele>
        <time>2013-06-23T06:14:37Z</time>
      </trkpt>
      <trkpt lat="45.38446" lon="5.65139">
        <ele>445</ele>
        <time>2013-06-23T06:14:38Z</time>
      </trkpt>
      <trkpt lat="45.38446" lon="5.65133">
        <ele>444.6</ele>
        <time>2013-06-23T06:14:39Z</time>
      </trkpt>
      <trkpt lat="45.38445" lon="5.65126">
        <ele>444.2</ele>
        <time>2013-06-23T06:14:40Z</time>
      </trkpt>
      <trkpt lat="45.38445" lon="5.6512">
        <ele>443.9</ele>
        <time>2013-06-23T06:14:41Z</time>
      </trkpt>
      <trkpt lat="45.38445" lon="5.65113">
        <ele>443.6</ele>
        <time>2013-06-23T06:14:42Z</time>
      </trkpt>
      <trkpt lat="45.38445" lon="5.65107">
        <ele>443.4</ele>
        <time>2013-06-23T06:14:43Z</time>
      </trkpt>
      <trkpt lat="45.38444" lon="5.651">
        <ele>443.3</ele>
        <time>2013-06-23T06:14:44Z</time>
      </trkpt>
      <trkpt lat="45.38444" lon="5.65093">
        <ele>443.9</ele>
        <time>2013-06-23T06:14:45Z</time>
      </trkpt>
      <trkpt lat="45.38443" lon="5.65087">
        <ele>444.3</ele>
        <time>2013-06-23T06:14:46Z</time>
      </trkpt>
      <trkpt lat="45.38443" lon="5.6508">
        <ele>444.6</ele>
        <time>2013-06-23T06:14:47Z</time>
      </trkpt>
      <trkpt lat="45.38443" lon="5.65073">
        <ele>444.4</ele>
        <time>2013-06-23T06:14:48Z</time>
      </trkpt>
      <trkpt lat="45.38442" lon="5.65066">
        <ele>444.3</ele>
        <time>2013-06-23T06:14:49Z</time>
      </trkpt>
      <trkpt lat="45.38442" lon="5.6506">
        <ele>444.2</ele>
        <time>2013-06-23T06:14:50Z</time>
      </trkpt>
      <trkpt lat="45.38442" lon="5.65053">
        <ele>444.1</ele>
        <time>2013-06-23T06:14:51Z</time>
      </trkpt>
      <trkpt lat="45.38441" lon="5.65046">
        <ele>444</ele>
        <time>2013-06-23T06:14:52Z</time>
      </trkpt>
      <trkpt lat="45.38441" lon="5.65039">
        <ele>444</ele>
        <time>2013-06-23T06:14:53Z</time>
      </trkpt>
      <trkpt lat="45.3844" lon="5.65032">
        <ele>443.9</ele>
        <time>2013-06-23T06:14:54Z</time>
      </trkpt>
      <trkpt lat="45.3844" lon="5.65025">
        <ele>444.1</ele>
        <time>2013-06-23T06:14:55Z</time>
      </trkpt>
      <trkpt lat="45.38439" lon="5.65018">
        <ele>444.2</ele>
        <time>2013-06-23T06:14:56Z</time>
      </trkpt>
      <trkpt lat="45.38439" lon="5.65011">
        <ele>444.3</ele>
        <time>2013-06-23T06:14:57Z</time>
      </trkpt>
      <trkpt lat="45.38438" lon="5.65004">
        <ele>444.3</ele>
        <time>2013-06-23T06:14:58Z</time>
      </trkpt>
      <trkpt lat="45.38438" lon="5.64997">
        <ele>444.3</ele>
        <time>2013-06-23T06:14:59Z</time>
      </trkpt>
      <trkpt lat="45.38438" lon="5.6499">
        <ele>444.3</ele>
        <time>2013-06-23T06:15:00Z</time>
      </trkpt>
      <trkpt lat="45.38437" lon="5.64983">
        <ele>443.6</ele>
        <time>2013-06-23T06:15:01Z</time>
      </trkpt>
      <trkpt lat="45.38437" lon="5.64977">
        <ele>443.1</ele>
        <time>2013-06-23T06:15:02Z</time>
      </trkpt>
      <trkpt lat="45.38437" lon="5.6497">
        <ele>442.8</ele>
        <time>2013-06-23T06:15:03Z</time>
      </trkpt>
      <trkpt lat="45.38437" lon="5.64963">
        <ele>442.9</ele>
        <time>2013-06-23T06:15:04Z</time>
      </trkpt>
      <trkpt lat="45.38437" lon="5.64956">
        <ele>443</ele>
        <time>2013-06-23T06:15:05Z</time>
      </trkpt>
      <trkpt lat="45.38437" lon="5.6495">
        <ele>443.1</ele>
        <time>2013-06-23T06:15:06Z</time>
      </trkpt>
      <trkpt lat="45.38437" lon="5.64943">
        <ele>443.1</ele>
        <time>2013-06-23T06:15:07Z</time>
      </trkpt>
      <trkpt lat="45.38437" lon="5.64936">
        <ele>443.1</ele>
        <time>2013-06-23T06:15:08Z</time>
      </trkpt>
      <trkpt lat="45.38437" lon="5.64924">
        <ele>443.1</ele>
        <time>2013-06-23T06:15:10Z</time>
      </trkpt>
      <trkpt lat="45.38436" lon="5.64912">
        <ele>443.3</ele>
        <time>2013-06-23T06:15:12Z</time>
      </trkpt>
      <trkpt lat="45.3843" lon="5.64905">
        <ele>443.8</ele>
        <time>2013-06-23T06:15:14Z</time>
      </trkpt>
      <trkpt lat="45.38425" lon="5.64904">
        <ele>444.2</ele>
        <time>2013-06-23T06:15:15Z</time>
      </trkpt>
      <trkpt lat="45.38421" lon="5.64903">
        <ele>444.5</ele>
        <time>2013-06-23T06:15:16Z</time>
      </trkpt>
      <trkpt lat="45.38416" lon="5.64902">
        <ele>444.3</ele>
        <time>2013-06-23T06:15:17Z</time>
      </trkpt>
      <trkpt lat="45.38411" lon="5.64902">
        <ele>444.1</ele>
        <time>2013-06-23T06:15:18Z</time>
      </trkpt>
      <trkpt lat="45.38406" lon="5.64901">
        <ele>443.9</ele>
        <time>2013-06-23T06:15:19Z</time>
      </trkpt>
      <trkpt lat="45.38401" lon="5.64901">
        <ele>443.8</ele>
        <time>2013-06-23T06:15:20Z</time>
      </trkpt>
      <trkpt lat="45.38395" lon="5.649">
        <ele>443.7</ele>
        <time>2013-06-23T06:15:21Z</time>
      </trkpt>
      <trkpt lat="45.38391" lon="5.649">
        <ele>443.7</ele>
        <time>2013-06-23T06:15:22Z</time>
      </trkpt>
      <trkpt lat="45.38386" lon="5.649">
        <ele>443.6</ele>
        <time>2013-06-23T06:15:23Z</time>
      </trkpt>
      <trkpt lat="45.3838" lon="5.64899">
        <ele>443.7</ele>
        <time>2013-06-23T06:15:24Z</time>
      </trkpt>
      <trkpt lat="45.38375" lon="5.64898">
        <ele>443.8</ele>
        <time>2013-06-23T06:15:25Z</time>
      </trkpt>
      <trkpt lat="45.3837" lon="5.64898">
        <ele>443.8</ele>
        <time>2013-06-23T06:15:26Z</time>
      </trkpt>
      <trkpt lat="45.38365" lon="5.64897">
        <ele>443.9</ele>
        <time>2013-06-23T06:15:27Z</time>
      </trkpt>
      <trkpt lat="45.38359" lon="5.64897">
        <ele>444</ele>
        <time>2013-06-23T06:15:28Z</time>
      </trkpt>
      <trkpt lat="45.38354" lon="5.64897">
        <ele>444</ele>
        <time>2013-06-23T06:15:29Z</time>
      </trkpt>
      <trkpt lat="45.38349" lon="5.64896">
        <ele>444.5</ele>
        <time>2013-06-23T06:15:30Z</time>
      </trkpt>
      <trkpt lat="45.38344" lon="5.64896">
        <ele>444.8</ele>
        <time>2013-06-23T06:15:31Z</time>
      </trkpt>
      <trkpt lat="45.3834" lon="5.64897">
        <ele>445</ele>
        <time>2013-06-23T06:15:32Z</time>
      </trkpt>
      <trkpt lat="45.38335" lon="5.64895">
        <ele>445.3</ele>
        <time>2013-06-23T06:15:33Z</time>
      </trkpt>
      <trkpt lat="45.38328" lon="5.64887">
        <ele>445.7</ele>
        <time>2013-06-23T06:15:35Z</time>
      </trkpt>
      <trkpt lat="45.38327" lon="5.64881">
        <ele>445.9</ele>
        <time>2013-06-23T06:15:36Z</time>
      </trkpt>
      <trkpt lat="45.38327" lon="5.64874">
        <ele>446.1</ele>
        <time>2013-06-23T06:15:37Z</time>
      </trkpt>
      <trkpt lat="45.38328" lon="5.64866">
        <ele>446.2</ele>
        <time>2013-06-23T06:15:38Z</time>
      </trkpt>
      <trkpt lat="45.38328" lon="5.64859">
        <ele>446.2</ele>
        <time>2013-06-23T06:15:39Z</time>
      </trkpt>
      <trkpt lat="45.38328" lon="5.64851">
        <ele>445.9</ele>
        <time>2013-06-23T06:15:40Z</time>
      </trkpt>
      <trkpt lat="45.38328" lon="5.64842">
        <ele>445.7</ele>
        <time>2013-06-23T06:15:41Z</time>
      </trkpt>
      <trkpt lat="45.38328" lon="5.64834">
        <ele>445.5</ele>
        <time>2013-06-23T06:15:42Z</time>
      </trkpt>
      <trkpt lat="45.38329" lon="5.64826">
        <ele>445.5</ele>
        <time>2013-06-23T06:15:43Z</time>
      </trkpt>
      <trkpt lat="45.38329" lon="5.64817">
        <ele>445.4</ele>
        <time>2013-06-23T06:15:44Z</time>
      </trkpt>
      <trkpt lat="45.38329" lon="5.64809">
        <ele>445.4</ele>
        <time>2013-06-23T06:15:45Z</time>
      </trkpt>
      <trkpt lat="45.3833" lon="5.648">
        <ele>445.3</ele>
        <time>2013-06-23T06:15:46Z</time>
      </trkpt>
      <trkpt lat="45.3833" lon="5.64792">
        <ele>445.1</ele>
        <time>2013-06-23T06:15:47Z</time>
      </trkpt>
      <trkpt lat="45.3833" lon="5.64783">
        <ele>445.1</ele>
        <time>2013-06-23T06:15:48Z</time>
      </trkpt>
      <trkpt lat="45.3833" lon="5.64775">
        <ele>445.1</ele>
        <time>2013-06-23T06:15:49Z</time>
      </trkpt>
      <trkpt lat="45.3833" lon="5.64766">
        <ele>445.2</ele>
        <time>2013-06-23T06:15:50Z</time>
      </trkpt>
      <trkpt lat="45.38329" lon="5.64757">
        <ele>445.2</ele>
        <time>2013-06-23T06:15:51Z</time>
      </trkpt>
      <trkpt lat="45.38329" lon="5.64748">
        <ele>444.6</ele>
        <time>2013-06-23T06:15:52Z</time>
      </trkpt>
      <trkpt lat="45.38328" lon="5.64739">
        <ele>444.2</ele>
        <time>2013-06-23T06:15:53Z</time>
      </trkpt>
      <trkpt lat="45.38328" lon="5.6473">
        <ele>443.9</ele>
        <time>2013-06-23T06:15:54Z</time>
      </trkpt>
      <trkpt lat="45.38327" lon="5.64721">
        <ele>444</ele>
        <time>2013-06-23T06:15:55Z</time>
      </trkpt>
      <trkpt lat="45.38326" lon="5.64712">
        <ele>444.1</ele>
        <time>2013-06-23T06:15:56Z</time>
      </trkpt>
      <trkpt lat="45.38325" lon="5.64703">
        <ele>444.2</ele>
        <time>2013-06-23T06:15:57Z</time>
      </trkpt>
      <trkpt lat="45.38324" lon="5.64694">
        <ele>444.3</ele>
        <time>2013-06-23T06:15:58Z</time>
      </trkpt>
      <trkpt lat="45.38323" lon="5.64685">
        <ele>444.4</ele>
        <time>2013-06-23T06:15:59Z</time>
      </trkpt>
      <trkpt lat="45.38321" lon="5.64677">
        <ele>444.6</ele>
        <time>2013-06-23T06:16:00Z</time>
      </trkpt>
      <trkpt lat="45.3832" lon="5.64668">
        <ele>444.7</ele>
        <time>2013-06-23T06:16:01Z</time>
      </trkpt>
      <trkpt lat="45.38318" lon="5.64659">
        <ele>444.3</ele>
        <time>2013-06-23T06:16:02Z</time>
      </trkpt>
      <trkpt lat="45.38316" lon="5.64651">
        <ele>444</ele>
        <time>2013-06-23T06:16:03Z</time>
      </trkpt>
      <trkpt lat="45.38314" lon="5.64643">
        <ele>443.8</ele>
        <time>2013-06-23T06:16:04Z</time>
      </trkpt>
      <trkpt lat="45.38312" lon="5.64634">
        <ele>443.6</ele>
        <time>2013-06-23T06:16:05Z</time>
      </trkpt>
      <trkpt lat="45.3831" lon="5.64626">
        <ele>443.4</ele>
        <time>2013-06-23T06:16:06Z</time>
      </trkpt>
      <trkpt lat="45.38307" lon="5.64618">
        <ele>443.2</ele>
        <time>2013-06-23T06:16:07Z</time>
      </trkpt>
      <trkpt lat="45.38305" lon="5.6461">
        <ele>443.3</ele>
        <time>2013-06-23T06:16:08Z</time>
      </trkpt>
      <trkpt lat="45.38303" lon="5.64601">
        <ele>443.3</ele>
        <time>2013-06-23T06:16:09Z</time>
      </trkpt>
      <trkpt lat="45.38301" lon="5.64593">
        <ele>443.3</ele>
        <time>2013-06-23T06:16:10Z</time>
      </trkpt>
      <trkpt lat="45.38299" lon="5.64585">
        <ele>443.4</ele>
        <time>2013-06-23T06:16:11Z</time>
      </trkpt>
      <trkpt lat="45.38297" lon="5.64576">
        <ele>443.4</ele>
        <time>2013-06-23T06:16:12Z</time>
      </trkpt>
      <trkpt lat="45.38296" lon="5.64568">
        <ele>443.5</ele>
        <time>2013-06-23T06:16:13Z</time>
      </trkpt>
      <trkpt lat="45.38295" lon="5.6456">
        <ele>443.5</ele>
        <time>2013-06-23T06:16:14Z</time>
      </trkpt>
      <trkpt lat="45.38293" lon="5.64552">
        <ele>443.2</ele>
        <time>2013-06-23T06:16:15Z</time>
      </trkpt>
      <trkpt lat="45.38292" lon="5.64544">
        <ele>443</ele>
        <time>2013-06-23T06:16:16Z</time>
      </trkpt>
      <trkpt lat="45.38293" lon="5.64536">
        <ele>442.9</ele>
        <time>2013-06-23T06:16:17Z</time>
      </trkpt>
      <trkpt lat="45.38295" lon="5.64525">
        <ele>442.8</ele>
        <time>2013-06-23T06:16:19Z</time>
      </trkpt>
      <trkpt lat="45.38302" lon="5.64522">
        <ele>443.2</ele>
        <time>2013-06-23T06:16:21Z</time>
      </trkpt>
      <trkpt lat="45.38306" lon="5.64523">
        <ele>443.5</ele>
        <time>2013-06-23T06:16:22Z</time>
      </trkpt>
      <trkpt lat="45.38311" lon="5.64524">
        <ele>443.8</ele>
        <time>2013-06-23T06:16:23Z</time>
      </trkpt>
      <trkpt lat="45.38316" lon="5.64525">
        <ele>443.8</ele>
        <time>2013-06-23T06:16:24Z</time>
      </trkpt>
      <trkpt lat="45.38322" lon="5.64526">
        <ele>443.7</ele>
        <time>2013-06-23T06:16:25Z</time>
      </trkpt>
      <trkpt lat="45.38327" lon="5.64527">
        <ele>443.7</ele>
        <time>2013-06-23T06:16:26Z</time>
      </trkpt>
      <trkpt lat="45.38333" lon="5.64528">
        <ele>443.1</ele>
        <time>2013-06-23T06:16:27Z</time>
      </trkpt>
      <trkpt lat="45.38339" lon="5.64529">
        <ele>442.7</ele>
        <time>2013-06-23T06:16:28Z</time>
      </trkpt>
      <trkpt lat="45.38346" lon="5.64531">
        <ele>442.3</ele>
        <time>2013-06-23T06:16:29Z</time>
      </trkpt>
      <trkpt lat="45.38353" lon="5.64531">
        <ele>442.1</ele>
        <time>2013-06-23T06:16:30Z</time>
      </trkpt>
      <trkpt lat="45.38359" lon="5.64532">
        <ele>441.9</ele>
        <time>2013-06-23T06:16:31Z</time>
      </trkpt>
      <trkpt lat="45.38366" lon="5.64533">
        <ele>441.8</ele>
        <time>2013-06-23T06:16:32Z</time>
      </trkpt>
      <trkpt lat="45.38374" lon="5.64534">
        <ele>441.7</ele>
        <time>2013-06-23T06:16:33Z</time>
      </trkpt>
      <trkpt lat="45.38381" lon="5.64535">
        <ele>441.4</ele>
        <time>2013-06-23T06:16:34Z</time>
      </trkpt>
      <trkpt lat="45.38388" lon="5.64536">
        <ele>441.3</ele>
        <time>2013-06-23T06:16:35Z</time>
      </trkpt>
      <trkpt lat="45.38395" lon="5.64536">
        <ele>441.1</ele>
        <time>2013-06-23T06:16:36Z</time>
      </trkpt>
      <trkpt lat="45.38403" lon="5.64536">
        <ele>441.2</ele>
        <time>2013-06-23T06:16:37Z</time>
      </trkpt>
      <trkpt lat="45.3841" lon="5.64537">
        <ele>441.2</ele>
        <time>2013-06-23T06:16:38Z</time>
      </trkpt>
      <trkpt lat="45.38418" lon="5.64538">
        <ele>441.2</ele>
        <time>2013-06-23T06:16:39Z</time>
      </trkpt>
      <trkpt lat="45.38425" lon="5.64539">
        <ele>440.9</ele>
        <time>2013-06-23T06:16:40Z</time>
      </trkpt>
      <trkpt lat="45.38433" lon="5.6454">
        <ele>440.7</ele>
        <time>2013-06-23T06:16:41Z</time>
      </trkpt>
      <trkpt lat="45.3844" lon="5.64541">
        <ele>440.6</ele>
        <time>2013-06-23T06:16:42Z</time>
      </trkpt>
      <trkpt lat="45.38448" lon="5.64542">
        <ele>440</ele>
        <time>2013-06-23T06:16:43Z</time>
      </trkpt>
      <trkpt lat="45.38456" lon="5.64543">
        <ele>439.5</ele>
        <time>2013-06-23T06:16:44Z</time>
      </trkpt>
      <trkpt lat="45.38464" lon="5.64544">
        <ele>439.2</ele>
        <time>2013-06-23T06:16:45Z</time>
      </trkpt>
      <trkpt lat="45.38472" lon="5.64545">
        <ele>438.9</ele>
        <time>2013-06-23T06:16:46Z</time>
      </trkpt>
      <trkpt lat="45.3848" lon="5.64546">
        <ele>439.1</ele>
        <time>2013-06-23T06:16:47Z</time>
      </trkpt>
      <trkpt lat="45.38488" lon="5.64548">
        <ele>439.3</ele>
        <time>2013-06-23T06:16:48Z</time>
      </trkpt>
      <trkpt lat="45.38496" lon="5.6455">
        <ele>439.4</ele>
        <time>2013-06-23T06:16:49Z</time>
      </trkpt>
      <trkpt lat="45.38505" lon="5.64554">
        <ele>438.4</ele>
        <time>2013-06-23T06:16:50Z</time>
      </trkpt>
      <trkpt lat="45.38513" lon="5.64559">
        <ele>437.6</ele>
        <time>2013-06-23T06:16:51Z</time>
      </trkpt>
      <trkpt lat="45.3852" lon="5.64565">
        <ele>437.1</ele>
        <time>2013-06-23T06:16:52Z</time>
      </trkpt>
      <trkpt lat="45.38527" lon="5.64573">
        <ele>436.6</ele>
        <time>2013-06-23T06:16:53Z</time>
      </trkpt>
      <trkpt lat="45.38532" lon="5.64582">
        <ele>436.3</ele>
        <time>2013-06-23T06:16:54Z</time>
      </trkpt>
      <trkpt lat="45.38537" lon="5.64592">
        <ele>436.1</ele>
        <time>2013-06-23T06:16:55Z</time>
      </trkpt>
      <trkpt lat="45.38542" lon="5.64603">
        <ele>435.7</ele>
        <time>2013-06-23T06:16:56Z</time>
      </trkpt>
      <trkpt lat="45.38545" lon="5.64613">
        <ele>435.4</ele>
        <time>2013-06-23T06:16:57Z</time>
      </trkpt>
      <trkpt lat="45.38549" lon="5.64624">
        <ele>435.2</ele>
        <time>2013-06-23T06:16:58Z</time>
      </trkpt>
      <trkpt lat="45.38553" lon="5.64634">
        <ele>434.3</ele>
        <time>2013-06-23T06:16:59Z</time>
      </trkpt>
      <trkpt lat="45.38557" lon="5.64644">
        <ele>433.6</ele>
        <time>2013-06-23T06:17:00Z</time>
      </trkpt>
      <trkpt lat="45.38561" lon="5.64654">
        <ele>433.1</ele>
        <time>2013-06-23T06:17:01Z</time>
      </trkpt>
      <trkpt lat="45.38565" lon="5.64664">
        <ele>433.1</ele>
        <time>2013-06-23T06:17:02Z</time>
      </trkpt>
      <trkpt lat="45.38568" lon="5.64673">
        <ele>433</ele>
        <time>2013-06-23T06:17:03Z</time>
      </trkpt>
      <trkpt lat="45.38572" lon="5.64683">
        <ele>433</ele>
        <time>2013-06-23T06:17:04Z</time>
      </trkpt>
      <trkpt lat="45.38575" lon="5.64691">
        <ele>433</ele>
        <time>2013-06-23T06:17:05Z</time>
      </trkpt>
      <trkpt lat="45.38579" lon="5.64699">
        <ele>433.1</ele>
        <time>2013-06-23T06:17:06Z</time>
      </trkpt>
      <trkpt lat="45.38582" lon="5.64707">
        <ele>433.2</ele>
        <time>2013-06-23T06:17:07Z</time>
      </trkpt>
      <trkpt lat="45.38585" lon="5.64714">
        <ele>433.3</ele>
        <time>2013-06-23T06:17:08Z</time>
      </trkpt>
      <trkpt lat="45.38588" lon="5.64721">
        <ele>433.9</ele>
        <time>2013-06-23T06:17:09Z</time>
      </trkpt>
      <trkpt lat="45.3859" lon="5.64727">
        <ele>434.4</ele>
        <time>2013-06-23T06:17:10Z</time>
      </trkpt>
      <trkpt lat="45.38592" lon="5.64739">
        <ele>435.1</ele>
        <time>2013-06-23T06:17:12Z</time>
      </trkpt>
      <trkpt lat="45.38588" lon="5.6475">
        <ele>435.7</ele>
        <time>2013-06-23T06:17:14Z</time>
      </trkpt>
      <trkpt lat="45.38586" lon="5.64755">
        <ele>435.3</ele>
        <time>2013-06-23T06:17:15Z</time>
      </trkpt>
      <trkpt lat="45.38583" lon="5.6476">
        <ele>434.9</ele>
        <time>2013-06-23T06:17:16Z</time>
      </trkpt>
      <trkpt lat="45.3858" lon="5.64766">
        <ele>434.6</ele>
        <time>2013-06-23T06:17:17Z</time>
      </trkpt>
      <trkpt lat="45.38574" lon="5.64774">
        <ele>434.6</ele>
        <time>2013-06-23T06:17:19Z</time>
      </trkpt>
      <trkpt lat="45.38568" lon="5.6478">
        <ele>434.5</ele>
        <time>2013-06-23T06:17:21Z</time>
      </trkpt>
      <trkpt lat="45.38562" lon="5.64789">
        <ele>435.1</ele>
        <time>2013-06-23T06:17:23Z</time>
      </trkpt>
      <trkpt lat="45.38563" lon="5.64797">
        <ele>435</ele>
        <time>2013-06-23T06:17:25Z</time>
      </trkpt>
      <trkpt lat="45.38566" lon="5.64806">
        <ele>434.5</ele>
        <time>2013-06-23T06:17:27Z</time>
      </trkpt>
      <trkpt lat="45.38571" lon="5.64816">
        <ele>433.9</ele>
        <time>2013-06-23T06:17:29Z</time>
      </trkpt>
      <trkpt lat="45.38573" lon="5.64822">
        <ele>433.7</ele>
        <time>2013-06-23T06:17:30Z</time>
      </trkpt>
      <trkpt lat="45.38578" lon="5.64832">
        <ele>433.9</ele>
        <time>2013-06-23T06:17:32Z</time>
      </trkpt>
      <trkpt lat="45.38581" lon="5.64843">
        <ele>433.8</ele>
        <time>2013-06-23T06:17:34Z</time>
      </trkpt>
      <trkpt lat="45.38583" lon="5.64855">
        <ele>433.5</ele>
        <time>2013-06-23T06:17:36Z</time>
      </trkpt>
      <trkpt lat="45.38586" lon="5.64867">
        <ele>433.5</ele>
        <time>2013-06-23T06:17:38Z</time>
      </trkpt>
      <trkpt lat="45.38587" lon="5.64873">
        <ele>433.5</ele>
        <time>2013-06-23T06:17:39Z</time>
      </trkpt>
      <trkpt lat="45.38592" lon="5.64889">
        <ele>433.4</ele>
        <time>2013-06-23T06:17:42Z</time>
      </trkpt>
      <trkpt lat="45.38594" lon="5.64899">
        <ele>433.5</ele>
        <time>2013-06-23T06:17:44Z</time>
      </trkpt>
      <trkpt lat="45.38596" lon="5.64909">
        <ele>433.7</ele>
        <time>2013-06-23T06:17:46Z</time>
      </trkpt>
      <trkpt lat="45.38597" lon="5.64918">
        <ele>434.9</ele>
        <time>2013-06-23T06:17:48Z</time>
      </trkpt>
      <trkpt lat="45.38599" lon="5.64929">
        <ele>434.8</ele>
        <time>2013-06-23T06:17:51Z</time>
      </trkpt>
      <trkpt lat="45.38601" lon="5.64939">
        <ele>433.9</ele>
        <time>2013-06-23T06:17:54Z</time>
      </trkpt>
      <trkpt lat="45.38599" lon="5.6495">
        <ele>433.5</ele>
        <time>2013-06-23T06:17:57Z</time>
      </trkpt>
      <trkpt lat="45.38599" lon="5.6496">
        <ele>434.1</ele>
        <time>2013-06-23T06:18:00Z</time>
      </trkpt>
      <trkpt lat="45.386" lon="5.64973">
        <ele>434.9</ele>
        <time>2013-06-23T06:18:05Z</time>
      </trkpt>
      <trkpt lat="45.38604" lon="5.64983">
        <ele>434.7</ele>
        <time>2013-06-23T06:18:09Z</time>
      </trkpt>
      <trkpt lat="45.38605" lon="5.64992">
        <ele>434.8</ele>
        <time>2013-06-23T06:18:11Z</time>
      </trkpt>
      <trkpt lat="45.38605" lon="5.65002">
        <ele>435</ele>
        <time>2013-06-23T06:18:13Z</time>
      </trkpt>
      <trkpt lat="45.38603" lon="5.65012">
        <ele>435</ele>
        <time>2013-06-23T06:18:15Z</time>
      </trkpt>
      <trkpt lat="45.38604" lon="5.65023">
        <ele>434.9</ele>
        <time>2013-06-23T06:18:18Z</time>
      </trkpt>
      <trkpt lat="45.38601" lon="5.65032">
        <ele>435.3</ele>
        <time>2013-06-23T06:18:21Z</time>
      </trkpt>
      <trkpt lat="45.386" lon="5.65044">
        <ele>435.3</ele>
        <time>2013-06-23T06:18:25Z</time>
      </trkpt>
      <trkpt lat="45.38606" lon="5.65053">
        <ele>435.6</ele>
        <time>2013-06-23T06:18:30Z</time>
      </trkpt>
      <trkpt lat="45.38611" lon="5.65062">
        <ele>436.1</ele>
        <time>2013-06-23T06:18:35Z</time>
      </trkpt>
      <trkpt lat="45.38611" lon="5.65074">
        <ele>436.3</ele>
        <time>2013-06-23T06:18:40Z</time>
      </trkpt>
      <trkpt lat="45.38611" lon="5.65076">
        <ele>436</ele>
        <time>2013-06-23T06:18:41Z</time>
      </trkpt>
      <trkpt lat="45.38611" lon="5.65091">
        <ele>435.9</ele>
        <time>2013-06-23T06:18:46Z</time>
      </trkpt>
      <trkpt lat="45.38613" lon="5.651">
        <ele>436.1</ele>
        <time>2013-06-23T06:18:48Z</time>
      </trkpt>
      <trkpt lat="45.38615" lon="5.6511">
        <ele>436.2</ele>
        <time>2013-06-23T06:18:50Z</time>
      </trkpt>
      <trkpt lat="45.38619" lon="5.65118">
        <ele>435.9</ele>
        <time>2013-06-23T06:18:52Z</time>
      </trkpt>
      <trkpt lat="45.38622" lon="5.65127">
        <ele>436</ele>
        <time>2013-06-23T06:18:54Z</time>
      </trkpt>
      <trkpt lat="45.38625" lon="5.65135">
        <ele>436.2</ele>
        <time>2013-06-23T06:18:56Z</time>
      </trkpt>
      <trkpt lat="45.38633" lon="5.65139">
        <ele>436.7</ele>
        <time>2013-06-23T06:18:59Z</time>
      </trkpt>
      <trkpt lat="45.38639" lon="5.65139">
        <ele>437</ele>
        <time>2013-06-23T06:19:01Z</time>
      </trkpt>
      <trkpt lat="45.38646" lon="5.65138">
        <ele>437.2</ele>
        <time>2013-06-23T06:19:03Z</time>
      </trkpt>
      <trkpt lat="45.38652" lon="5.65138">
        <ele>436.9</ele>
        <time>2013-06-23T06:19:05Z</time>
      </trkpt>
      <trkpt lat="45.38659" lon="5.65137">
        <ele>437.3</ele>
        <time>2013-06-23T06:19:07Z</time>
      </trkpt>
      <trkpt lat="45.38665" lon="5.65136">
        <ele>437.9</ele>
        <time>2013-06-23T06:19:09Z</time>
      </trkpt>
      <trkpt lat="45.38671" lon="5.65135">
        <ele>437.6</ele>
        <time>2013-06-23T06:19:11Z</time>
      </trkpt>
      <trkpt lat="45.38677" lon="5.65133">
        <ele>437.9</ele>
        <time>2013-06-23T06:19:13Z</time>
      </trkpt>
      <trkpt lat="45.38683" lon="5.65132">
        <ele>438.3</ele>
        <time>2013-06-23T06:19:15Z</time>
      </trkpt>
      <trkpt lat="45.38689" lon="5.65131">
        <ele>439</ele>
        <time>2013-06-23T06:19:17Z</time>
      </trkpt>
      <trkpt lat="45.38696" lon="5.65129">
        <ele>439.6</ele>
        <time>2013-06-23T06:19:19Z</time>
      </trkpt>
      <trkpt lat="45.38702" lon="5.65128">
        <ele>439.2</ele>
        <time>2013-06-23T06:19:21Z</time>
      </trkpt>
      <trkpt lat="45.38709" lon="5.65127">
        <ele>439.1</ele>
        <time>2013-06-23T06:19:23Z</time>
      </trkpt>
      <trkpt lat="45.38715" lon="5.65126">
        <ele>439.2</ele>
        <time>2013-06-23T06:19:25Z</time>
      </trkpt>
      <trkpt lat="45.38722" lon="5.65125">
        <ele>439</ele>
        <time>2013-06-23T06:19:27Z</time>
      </trkpt>
      <trkpt lat="45.38728" lon="5.65123">
        <ele>439.7</ele>
        <time>2013-06-23T06:19:29Z</time>
      </trkpt>
      <trkpt lat="45.38734" lon="5.65122">
        <ele>440.5</ele>
        <time>2013-06-23T06:19:31Z</time>
      </trkpt>
      <trkpt lat="45.3874" lon="5.6512">
        <ele>440.8</ele>
        <time>2013-06-23T06:19:33Z</time>
      </trkpt>
      <trkpt lat="45.38746" lon="5.65118">
        <ele>440.7</ele>
        <time>2013-06-23T06:19:35Z</time>
      </trkpt>
      <trkpt lat="45.38752" lon="5.65117">
        <ele>440.7</ele>
        <time>2013-06-23T06:19:37Z</time>
      </trkpt>
      <trkpt lat="45.38758" lon="5.65115">
        <ele>440.8</ele>
        <time>2013-06-23T06:19:39Z</time>
      </trkpt>
      <trkpt lat="45.38765" lon="5.65113">
        <ele>440.9</ele>
        <time>2013-06-23T06:19:41Z</time>
      </trkpt>
      <trkpt lat="45.38768" lon="5.65112">
        <ele>441</ele>
        <time>2013-06-23T06:19:42Z</time>
      </trkpt>
      <trkpt lat="45.38779" lon="5.65109">
        <ele>441.6</ele>
        <time>2013-06-23T06:19:46Z</time>
      </trkpt>
      <trkpt lat="45.38788" lon="5.65106">
        <ele>442</ele>
        <time>2013-06-23T06:19:49Z</time>
      </trkpt>
      <trkpt lat="45.38797" lon="5.65104">
        <ele>441.9</ele>
        <time>2013-06-23T06:19:52Z</time>
      </trkpt>
      <trkpt lat="45.38805" lon="5.65101">
        <ele>441.8</ele>
        <time>2013-06-23T06:19:55Z</time>
      </trkpt>
      <trkpt lat="45.38811" lon="5.65099">
        <ele>442.4</ele>
        <time>2013-06-23T06:19:57Z</time>
      </trkpt>
      <trkpt lat="45.38818" lon="5.65097">
        <ele>443.7</ele>
        <time>2013-06-23T06:19:59Z</time>
      </trkpt>
      <trkpt lat="45.38824" lon="5.65095">
        <ele>444.1</ele>
        <time>2013-06-23T06:20:01Z</time>
      </trkpt>
      <trkpt lat="45.3883" lon="5.65094">
        <ele>444</ele>
        <time>2013-06-23T06:20:03Z</time>
      </trkpt>
      <trkpt lat="45.38837" lon="5.65092">
        <ele>443.8</ele>
        <time>2013-06-23T06:20:05Z</time>
      </trkpt>
      <trkpt lat="45.38843" lon="5.65091">
        <ele>443.7</ele>
        <time>2013-06-23T06:20:07Z</time>
      </trkpt>
      <trkpt lat="45.38849" lon="5.65089">
        <ele>443.9</ele>
        <time>2013-06-23T06:20:09Z</time>
      </trkpt>
      <trkpt lat="45.38855" lon="5.65088">
        <ele>444.1</ele>
        <time>2013-06-23T06:20:11Z</time>
      </trkpt>
      <trkpt lat="45.38862" lon="5.65086">
        <ele>444.3</ele>
        <time>2013-06-23T06:20:13Z</time>
      </trkpt>
      <trkpt lat="45.38868" lon="5.65085">
        <ele>444.7</ele>
        <time>2013-06-23T06:20:15Z</time>
      </trkpt>
      <trkpt lat="45.38874" lon="5.65084">
        <ele>445.4</ele>
        <time>2013-06-23T06:20:17Z</time>
      </trkpt>
      <trkpt lat="45.38881" lon="5.65082">
        <ele>446.2</ele>
        <time>2013-06-23T06:20:19Z</time>
      </trkpt>
      <trkpt lat="45.38887" lon="5.6508">
        <ele>446.5</ele>
        <time>2013-06-23T06:20:21Z</time>
      </trkpt>
      <trkpt lat="45.38894" lon="5.65078">
        <ele>446.7</ele>
        <time>2013-06-23T06:20:23Z</time>
      </trkpt>
      <trkpt lat="45.389" lon="5.65076">
        <ele>447.1</ele>
        <time>2013-06-23T06:20:25Z</time>
      </trkpt>
      <trkpt lat="45.38906" lon="5.65075">
        <ele>447</ele>
        <time>2013-06-23T06:20:27Z</time>
      </trkpt>
      <trkpt lat="45.38913" lon="5.65073">
        <ele>446.6</ele>
        <time>2013-06-23T06:20:29Z</time>
      </trkpt>
      <trkpt lat="45.38919" lon="5.65071">
        <ele>446.7</ele>
        <time>2013-06-23T06:20:31Z</time>
      </trkpt>
      <trkpt lat="45.38925" lon="5.6507">
        <ele>447.1</ele>
        <time>2013-06-23T06:20:33Z</time>
      </trkpt>
      <trkpt lat="45.38931" lon="5.65069">
        <ele>447.5</ele>
        <time>2013-06-23T06:20:35Z</time>
      </trkpt>
      <trkpt lat="45.38937" lon="5.65067">
        <ele>447.8</ele>
        <time>2013-06-23T06:20:37Z</time>
      </trkpt>
      <trkpt lat="45.38944" lon="5.65066">
        <ele>448</ele>
        <time>2013-06-23T06:20:39Z</time>
      </trkpt>
      <trkpt lat="45.3895" lon="5.65064">
        <ele>447.8</ele>
        <time>2013-06-23T06:20:41Z</time>
      </trkpt>
      <trkpt lat="45.38956" lon="5.65062">
        <ele>448</ele>
        <time>2013-06-23T06:20:43Z</time>
      </trkpt>
      <trkpt lat="45.38959" lon="5.6506">
        <ele>448.1</ele>
        <time>2013-06-23T06:20:44Z</time>
      </trkpt>
      <trkpt lat="45.38969" lon="5.65057">
        <ele>448.5</ele>
        <time>2013-06-23T06:20:47Z</time>
      </trkpt>
      <trkpt lat="45.38976" lon="5.65055">
        <ele>448.7</ele>
        <time>2013-06-23T06:20:49Z</time>
      </trkpt>
      <trkpt lat="45.38983" lon="5.65053">
        <ele>448.8</ele>
        <time>2013-06-23T06:20:51Z</time>
      </trkpt>
      <trkpt lat="45.3899" lon="5.65051">
        <ele>449.5</ele>
        <time>2013-06-23T06:20:53Z</time>
      </trkpt>
      <trkpt lat="45.38997" lon="5.6505">
        <ele>449.8</ele>
        <time>2013-06-23T06:20:55Z</time>
      </trkpt>
      <trkpt lat="45.39004" lon="5.65049">
        <ele>450.1</ele>
        <time>2013-06-23T06:20:57Z</time>
      </trkpt>
      <trkpt lat="45.39011" lon="5.65047">
        <ele>450.2</ele>
        <time>2013-06-23T06:20:59Z</time>
      </trkpt>
      <trkpt lat="45.39019" lon="5.65045">
        <ele>450.2</ele>
        <time>2013-06-23T06:21:01Z</time>
      </trkpt>
      <trkpt lat="45.39026" lon="5.65043">
        <ele>449.7</ele>
        <time>2013-06-23T06:21:03Z</time>
      </trkpt>
      <trkpt lat="45.39033" lon="5.65041">
        <ele>449.5</ele>
        <time>2013-06-23T06:21:05Z</time>
      </trkpt>
      <trkpt lat="45.39041" lon="5.65039">
        <ele>449.4</ele>
        <time>2013-06-23T06:21:07Z</time>
      </trkpt>
      <trkpt lat="45.39047" lon="5.65036">
        <ele>450.2</ele>
        <time>2013-06-23T06:21:09Z</time>
      </trkpt>
      <trkpt lat="45.39055" lon="5.65034">
        <ele>450.4</ele>
        <time>2013-06-23T06:21:12Z</time>
      </trkpt>
      <trkpt lat="45.39061" lon="5.65041">
        <ele>450.9</ele>
        <time>2013-06-23T06:22:40Z</time>
      </trkpt>
      <trkpt lat="45.39061" lon="5.65044">
        <ele>451.4</ele>
        <time>2013-06-23T06:22:41Z</time>
      </trkpt>
      <trkpt lat="45.39062" lon="5.6506">
        <ele>452.3</ele>
        <time>2013-06-23T06:22:45Z</time>
      </trkpt>
      <trkpt lat="45.39063" lon="5.65072">
        <ele>452.2</ele>
        <time>2013-06-23T06:22:48Z</time>
      </trkpt>
      <trkpt lat="45.39065" lon="5.65083">
        <ele>451.6</ele>
        <time>2013-06-23T06:22:51Z</time>
      </trkpt>
      <trkpt lat="45.39073" lon="5.65088">
        <ele>450.9</ele>
        <time>2013-06-23T06:22:55Z</time>
      </trkpt>
      <trkpt lat="45.39079" lon="5.65083">
        <ele>450.8</ele>
        <time>2013-06-23T06:22:58Z</time>
      </trkpt>
      <trkpt lat="45.39087" lon="5.65077">
        <ele>452.3</ele>
        <time>2013-06-23T06:23:02Z</time>
      </trkpt>
      <trkpt lat="45.39093" lon="5.65071">
        <ele>452.4</ele>
        <time>2013-06-23T06:23:05Z</time>
      </trkpt>
      <trkpt lat="45.39098" lon="5.65065">
        <ele>451.7</ele>
        <time>2013-06-23T06:23:08Z</time>
      </trkpt>
      <trkpt lat="45.39104" lon="5.65059">
        <ele>452.9</ele>
        <time>2013-06-23T06:23:11Z</time>
      </trkpt>
      <trkpt lat="45.3911" lon="5.65052">
        <ele>453.6</ele>
        <time>2013-06-23T06:23:14Z</time>
      </trkpt>
      <trkpt lat="45.39115" lon="5.65046">
        <ele>454.3</ele>
        <time>2013-06-23T06:23:16Z</time>
      </trkpt>
      <trkpt lat="45.39122" lon="5.6504">
        <ele>455</ele>
        <time>2013-06-23T06:23:19Z</time>
      </trkpt>
      <trkpt lat="45.39128" lon="5.65036">
        <ele>454.8</ele>
        <time>2013-06-23T06:23:21Z</time>
      </trkpt>
      <trkpt lat="45.39134" lon="5.65032">
        <ele>455.2</ele>
        <time>2013-06-23T06:23:23Z</time>
      </trkpt>
      <trkpt lat="45.39141" lon="5.65029">
        <ele>455.4</ele>
        <time>2013-06-23T06:23:25Z</time>
      </trkpt>
      <trkpt lat="45.39148" lon="5.65026">
        <ele>455.3</ele>
        <time>2013-06-23T06:23:27Z</time>
      </trkpt>
      <trkpt lat="45.39154" lon="5.65023">
        <ele>455.2</ele>
        <time>2013-06-23T06:23:29Z</time>
      </trkpt>
      <trkpt lat="45.39161" lon="5.6502">
        <ele>455.1</ele>
        <time>2013-06-23T06:23:31Z</time>
      </trkpt>
      <trkpt lat="45.39168" lon="5.65017">
        <ele>455.6</ele>
        <time>2013-06-23T06:23:33Z</time>
      </trkpt>
      <trkpt lat="45.39175" lon="5.65014">
        <ele>455.4</ele>
        <time>2013-06-23T06:23:35Z</time>
      </trkpt>
      <trkpt lat="45.39182" lon="5.65012">
        <ele>455</ele>
        <time>2013-06-23T06:23:37Z</time>
      </trkpt>
      <trkpt lat="45.39189" lon="5.65009">
        <ele>455.6</ele>
        <time>2013-06-23T06:23:39Z</time>
      </trkpt>
      <trkpt lat="45.39196" lon="5.65007">
        <ele>455.9</ele>
        <time>2013-06-23T06:23:41Z</time>
      </trkpt>
      <trkpt lat="45.392" lon="5.65006">
        <ele>455.8</ele>
        <time>2013-06-23T06:23:42Z</time>
      </trkpt>
      <trkpt lat="45.39211" lon="5.65004">
        <ele>455.8</ele>
        <time>2013-06-23T06:23:46Z</time>
      </trkpt>
      <trkpt lat="45.39217" lon="5.65001">
        <ele>455.1</ele>
        <time>2013-06-23T06:23:50Z</time>
      </trkpt>
      <trkpt lat="45.39225" lon="5.64998">
        <ele>456.3</ele>
        <time>2013-06-23T06:23:53Z</time>
      </trkpt>
      <trkpt lat="45.39232" lon="5.64997">
        <ele>456.3</ele>
        <time>2013-06-23T06:23:55Z</time>
      </trkpt>
      <trkpt lat="45.39238" lon="5.64996">
        <ele>456.5</ele>
        <time>2013-06-23T06:23:57Z</time>
      </trkpt>
      <trkpt lat="45.39245" lon="5.64995">
        <ele>456.7</ele>
        <time>2013-06-23T06:23:59Z</time>
      </trkpt>
      <trkpt lat="45.39252" lon="5.64994">
        <ele>456.9</ele>
        <time>2013-06-23T06:24:01Z</time>
      </trkpt>
      <trkpt lat="45.39258" lon="5.64992">
        <ele>457</ele>
        <time>2013-06-23T06:24:03Z</time>
      </trkpt>
      <trkpt lat="45.39266" lon="5.64991">
        <ele>457.4</ele>
        <time>2013-06-23T06:24:05Z</time>
      </trkpt>
      <trkpt lat="45.39273" lon="5.64989">
        <ele>457.3</ele>
        <time>2013-06-23T06:24:07Z</time>
      </trkpt>
      <trkpt lat="45.3928" lon="5.64988">
        <ele>457</ele>
        <time>2013-06-23T06:24:09Z</time>
      </trkpt>
      <trkpt lat="45.39287" lon="5.64987">
        <ele>457.1</ele>
        <time>2013-06-23T06:24:11Z</time>
      </trkpt>
      <trkpt lat="45.39295" lon="5.64985">
        <ele>457.4</ele>
        <time>2013-06-23T06:24:13Z</time>
      </trkpt>
      <trkpt lat="45.39302" lon="5.64984">
        <ele>457.9</ele>
        <time>2013-06-23T06:24:15Z</time>
      </trkpt>
      <trkpt lat="45.39309" lon="5.64982">
        <ele>457.9</ele>
        <time>2013-06-23T06:24:17Z</time>
      </trkpt>
      <trkpt lat="45.39317" lon="5.64981">
        <ele>457.7</ele>
        <time>2013-06-23T06:24:19Z</time>
      </trkpt>
      <trkpt lat="45.39324" lon="5.64979">
        <ele>458.3</ele>
        <time>2013-06-23T06:24:21Z</time>
      </trkpt>
      <trkpt lat="45.39331" lon="5.64978">
        <ele>458.4</ele>
        <time>2013-06-23T06:24:23Z</time>
      </trkpt>
      <trkpt lat="45.39338" lon="5.64977">
        <ele>458.2</ele>
        <time>2013-06-23T06:24:25Z</time>
      </trkpt>
      <trkpt lat="45.39345" lon="5.64975">
        <ele>458.8</ele>
        <time>2013-06-23T06:24:27Z</time>
      </trkpt>
      <trkpt lat="45.39352" lon="5.64973">
        <ele>459.3</ele>
        <time>2013-06-23T06:24:29Z</time>
      </trkpt>
      <trkpt lat="45.39359" lon="5.64971">
        <ele>459.9</ele>
        <time>2013-06-23T06:24:31Z</time>
      </trkpt>
      <trkpt lat="45.39367" lon="5.64969">
        <ele>460.2</ele>
        <time>2013-06-23T06:24:33Z</time>
      </trkpt>
      <trkpt lat="45.39374" lon="5.64967">
        <ele>460.4</ele>
        <time>2013-06-23T06:24:35Z</time>
      </trkpt>
      <trkpt lat="45.39381" lon="5.64965">
        <ele>460.4</ele>
        <time>2013-06-23T06:24:37Z</time>
      </trkpt>
      <trkpt lat="45.39388" lon="5.64963">
        <ele>460.7</ele>
        <time>2013-06-23T06:24:39Z</time>
      </trkpt>
      <trkpt lat="45.39394" lon="5.64961">
        <ele>461.1</ele>
        <time>2013-06-23T06:24:41Z</time>
      </trkpt>
      <trkpt lat="45.39401" lon="5.64958">
        <ele>461</ele>
        <time>2013-06-23T06:24:43Z</time>
      </trkpt>
      <trkpt lat="45.39404" lon="5.64956">
        <ele>461</ele>
        <time>2013-06-23T06:24:44Z</time>
      </trkpt>
      <trkpt lat="45.39413" lon="5.64951">
        <ele>462.3</ele>
        <time>2013-06-23T06:24:47Z</time>
      </trkpt>
      <trkpt lat="45.39421" lon="5.64947">
        <ele>463</ele>
        <time>2013-06-23T06:24:50Z</time>
      </trkpt>
      <trkpt lat="45.39428" lon="5.64942">
        <ele>462.9</ele>
        <time>2013-06-23T06:24:53Z</time>
      </trkpt>
      <trkpt lat="45.39435" lon="5.64938">
        <ele>463.3</ele>
        <time>2013-06-23T06:24:56Z</time>
      </trkpt>
      <trkpt lat="45.39443" lon="5.64934">
        <ele>465.2</ele>
        <time>2013-06-23T06:25:00Z</time>
      </trkpt>
      <trkpt lat="45.39452" lon="5.64934">
        <ele>466.7</ele>
        <time>2013-06-23T06:25:04Z</time>
      </trkpt>
      <trkpt lat="45.3946" lon="5.64938">
        <ele>468.1</ele>
        <time>2013-06-23T06:25:09Z</time>
      </trkpt>
      <trkpt lat="45.39468" lon="5.64941">
        <ele>469.1</ele>
        <time>2013-06-23T06:25:14Z</time>
      </trkpt>
      <trkpt lat="45.39476" lon="5.64943">
        <ele>468.9</ele>
        <time>2013-06-23T06:25:19Z</time>
      </trkpt>
      <trkpt lat="45.39484" lon="5.64945">
        <ele>471.3</ele>
        <time>2013-06-23T06:25:24Z</time>
      </trkpt>
      <trkpt lat="45.39492" lon="5.64946">
        <ele>472.8</ele>
        <time>2013-06-23T06:25:29Z</time>
      </trkpt>
      <trkpt lat="45.395" lon="5.64947">
        <ele>475</ele>
        <time>2013-06-23T06:25:34Z</time>
      </trkpt>
      <trkpt lat="45.39507" lon="5.64946">
        <ele>475.1</ele>
        <time>2013-06-23T06:25:39Z</time>
      </trkpt>
      <trkpt lat="45.39516" lon="5.64945">
        <ele>475.8</ele>
        <time>2013-06-23T06:25:45Z</time>
      </trkpt>
      <trkpt lat="45.39517" lon="5.64945">
        <ele>475.9</ele>
        <time>2013-06-23T06:25:46Z</time>
      </trkpt>
      <trkpt lat="45.3953" lon="5.64946">
        <ele>480.2</ele>
        <time>2013-06-23T06:26:00Z</time>
      </trkpt>
      <trkpt lat="45.39537" lon="5.64946">
        <ele>480.5</ele>
        <time>2013-06-23T06:26:03Z</time>
      </trkpt>
      <trkpt lat="45.39545" lon="5.64947">
        <ele>481</ele>
        <time>2013-06-23T06:26:07Z</time>
      </trkpt>
      <trkpt lat="45.39552" lon="5.64947">
        <ele>480.7</ele>
        <time>2013-06-23T06:26:10Z</time>
      </trkpt>
      <trkpt lat="45.39561" lon="5.64947">
        <ele>480.9</ele>
        <time>2013-06-23T06:26:14Z</time>
      </trkpt>
      <trkpt lat="45.39569" lon="5.64948">
        <ele>481.1</ele>
        <time>2013-06-23T06:26:18Z</time>
      </trkpt>
      <trkpt lat="45.39577" lon="5.64948">
        <ele>481.4</ele>
        <time>2013-06-23T06:26:22Z</time>
      </trkpt>
      <trkpt lat="45.39584" lon="5.64946">
        <ele>483.1</ele>
        <time>2013-06-23T06:26:26Z</time>
      </trkpt>
      <trkpt lat="45.39592" lon="5.64954">
        <ele>483.7</ele>
        <time>2013-06-23T06:26:31Z</time>
      </trkpt>
      <trkpt lat="45.39596" lon="5.64964">
        <ele>485.6</ele>
        <time>2013-06-23T06:26:36Z</time>
      </trkpt>
      <trkpt lat="45.39599" lon="5.64974">
        <ele>485.5</ele>
        <time>2013-06-23T06:26:41Z</time>
      </trkpt>
      <trkpt lat="45.39602" lon="5.64985">
        <ele>486</ele>
        <time>2013-06-23T06:26:46Z</time>
      </trkpt>
      <trkpt lat="45.39603" lon="5.64987">
        <ele>486</ele>
        <time>2013-06-23T06:26:47Z</time>
      </trkpt>
      <trkpt lat="45.39614" lon="5.65002">
        <ele>488.7</ele>
        <time>2013-06-23T06:26:58Z</time>
      </trkpt>
      <trkpt lat="45.39623" lon="5.65003">
        <ele>489.8</ele>
        <time>2013-06-23T06:27:04Z</time>
      </trkpt>
      <trkpt lat="45.39631" lon="5.65002">
        <ele>491.1</ele>
        <time>2013-06-23T06:27:09Z</time>
      </trkpt>
      <trkpt lat="45.39639" lon="5.65">
        <ele>493</ele>
        <time>2013-06-23T06:27:14Z</time>
      </trkpt>
      <trkpt lat="45.39646" lon="5.64998">
        <ele>493.1</ele>
        <time>2013-06-23T06:27:19Z</time>
      </trkpt>
      <trkpt lat="45.39654" lon="5.64996">
        <ele>493.4</ele>
        <time>2013-06-23T06:27:24Z</time>
      </trkpt>
      <trkpt lat="45.3966" lon="5.64996">
        <ele>500.9</ele>
        <time>2013-06-23T06:27:54Z</time>
      </trkpt>
      <trkpt lat="45.39665" lon="5.64997">
        <ele>501.1</ele>
        <time>2013-06-23T06:27:55Z</time>
      </trkpt>
      <trkpt lat="45.39676" lon="5.64999">
        <ele>502.1</ele>
        <time>2013-06-23T06:27:58Z</time>
      </trkpt>
      <trkpt lat="45.39683" lon="5.65001">
        <ele>503</ele>
        <time>2013-06-23T06:28:08Z</time>
      </trkpt>
      <trkpt lat="45.3969" lon="5.65003">
        <ele>503.5</ele>
        <time>2013-06-23T06:28:10Z</time>
      </trkpt>
      <trkpt lat="45.39697" lon="5.65006">
        <ele>503.8</ele>
        <time>2013-06-23T06:28:12Z</time>
      </trkpt>
      <trkpt lat="45.39705" lon="5.65011">
        <ele>504</ele>
        <time>2013-06-23T06:28:15Z</time>
      </trkpt>
      <trkpt lat="45.39713" lon="5.65015">
        <ele>505</ele>
        <time>2013-06-23T06:28:18Z</time>
      </trkpt>
      <trkpt lat="45.3972" lon="5.65018">
        <ele>505.4</ele>
        <time>2013-06-23T06:28:21Z</time>
      </trkpt>
      <trkpt lat="45.39729" lon="5.65021">
        <ele>506.5</ele>
        <time>2013-06-23T06:28:25Z</time>
      </trkpt>
      <trkpt lat="45.39737" lon="5.65023">
        <ele>506.8</ele>
        <time>2013-06-23T06:28:29Z</time>
      </trkpt>
      <trkpt lat="45.39745" lon="5.65024">
        <ele>508.4</ele>
        <time>2013-06-23T06:28:33Z</time>
      </trkpt>
      <trkpt lat="45.39752" lon="5.65025">
        <ele>508.8</ele>
        <time>2013-06-23T06:28:37Z</time>
      </trkpt>
      <trkpt lat="45.3976" lon="5.65026">
        <ele>510.9</ele>
        <time>2013-06-23T06:28:41Z</time>
      </trkpt>
      <trkpt lat="45.39768" lon="5.65028">
        <ele>510.9</ele>
        <time>2013-06-23T06:28:46Z</time>
      </trkpt>
      <trkpt lat="45.39777" lon="5.6503">
        <ele>512.1</ele>
        <time>2013-06-23T06:28:51Z</time>
      </trkpt>
      <trkpt lat="45.39786" lon="5.65032">
        <ele>512.5</ele>
        <time>2013-06-23T06:28:56Z</time>
      </trkpt>
      <trkpt lat="45.39788" lon="5.65032">
        <ele>512.6</ele>
        <time>2013-06-23T06:28:57Z</time>
      </trkpt>
      <trkpt lat="45.39803" lon="5.65032">
        <ele>512.2</ele>
        <time>2013-06-23T06:29:06Z</time>
      </trkpt>
      <trkpt lat="45.3981" lon="5.65027">
        <ele>513.4</ele>
        <time>2013-06-23T06:29:11Z</time>
      </trkpt>
      <trkpt lat="45.39814" lon="5.65016">
        <ele>514.5</ele>
        <time>2013-06-23T06:29:16Z</time>
      </trkpt>
      <trkpt lat="45.39819" lon="5.65006">
        <ele>516</ele>
        <time>2013-06-23T06:29:21Z</time>
      </trkpt>
      <trkpt lat="45.39824" lon="5.64996">
        <ele>516.2</ele>
        <time>2013-06-23T06:29:26Z</time>
      </trkpt>
      <trkpt lat="45.39827" lon="5.64985">
        <ele>517.8</ele>
        <time>2013-06-23T06:29:31Z</time>
      </trkpt>
      <trkpt lat="45.39831" lon="5.64975">
        <ele>518.3</ele>
        <time>2013-06-23T06:29:36Z</time>
      </trkpt>
      <trkpt lat="45.39835" lon="5.64964">
        <ele>520.3</ele>
        <time>2013-06-23T06:29:41Z</time>
      </trkpt>
      <trkpt lat="45.39839" lon="5.64954">
        <ele>521.2</ele>
        <time>2013-06-23T06:29:46Z</time>
      </trkpt>
      <trkpt lat="45.39844" lon="5.64945">
        <ele>522.8</ele>
        <time>2013-06-23T06:29:51Z</time>
      </trkpt>
      <trkpt lat="45.39852" lon="5.6494">
        <ele>524.1</ele>
        <time>2013-06-23T06:29:56Z</time>
      </trkpt>
      <trkpt lat="45.3986" lon="5.64942">
        <ele>525.1</ele>
        <time>2013-06-23T06:30:00Z</time>
      </trkpt>
      <trkpt lat="45.39862" lon="5.64943">
        <ele>525.3</ele>
        <time>2013-06-23T06:30:01Z</time>
      </trkpt>
      <trkpt lat="45.39875" lon="5.64947">
        <ele>526.8</ele>
        <time>2013-06-23T06:30:07Z</time>
      </trkpt>
      <trkpt lat="45.39882" lon="5.64949">
        <ele>526.8</ele>
        <time>2013-06-23T06:30:10Z</time>
      </trkpt>
      <trkpt lat="45.39889" lon="5.64952">
        <ele>527.2</ele>
        <time>2013-06-23T06:30:13Z</time>
      </trkpt>
      <trkpt lat="45.39896" lon="5.64954">
        <ele>526.1</ele>
        <time>2013-06-23T06:30:16Z</time>
      </trkpt>
      <trkpt lat="45.39903" lon="5.64957">
        <ele>527.2</ele>
        <time>2013-06-23T06:30:19Z</time>
      </trkpt>
      <trkpt lat="45.3991" lon="5.64959">
        <ele>527.1</ele>
        <time>2013-06-23T06:30:22Z</time>
      </trkpt>
      <trkpt lat="45.39918" lon="5.64962">
        <ele>526.3</ele>
        <time>2013-06-23T06:30:25Z</time>
      </trkpt>
      <trkpt lat="45.39925" lon="5.64964">
        <ele>526.3</ele>
        <time>2013-06-23T06:30:28Z</time>
      </trkpt>
      <trkpt lat="45.39933" lon="5.64967">
        <ele>527</ele>
        <time>2013-06-23T06:30:31Z</time>
      </trkpt>
      <trkpt lat="45.3994" lon="5.6497">
        <ele>527.8</ele>
        <time>2013-06-23T06:30:34Z</time>
      </trkpt>
      <trkpt lat="45.39947" lon="5.64972">
        <ele>528.5</ele>
        <time>2013-06-23T06:30:37Z</time>
      </trkpt>
      <trkpt lat="45.39954" lon="5.64975">
        <ele>528.8</ele>
        <time>2013-06-23T06:30:40Z</time>
      </trkpt>
      <trkpt lat="45.3996" lon="5.64978">
        <ele>528.8</ele>
        <time>2013-06-23T06:30:43Z</time>
      </trkpt>
      <trkpt lat="45.39969" lon="5.64981">
        <ele>529.6</ele>
        <time>2013-06-23T06:30:47Z</time>
      </trkpt>
      <trkpt lat="45.39975" lon="5.64984">
        <ele>530.7</ele>
        <time>2013-06-23T06:30:50Z</time>
      </trkpt>
      <trkpt lat="45.39984" lon="5.64988">
        <ele>531</ele>
        <time>2013-06-23T06:30:54Z</time>
      </trkpt>
      <trkpt lat="45.39992" lon="5.64992">
        <ele>532.5</ele>
        <time>2013-06-23T06:30:58Z</time>
      </trkpt>
      <trkpt lat="45.39999" lon="5.64997">
        <ele>532.3</ele>
        <time>2013-06-23T06:31:02Z</time>
      </trkpt>
      <trkpt lat="45.40001" lon="5.64998">
        <ele>532.3</ele>
        <time>2013-06-23T06:31:03Z</time>
      </trkpt>
      <trkpt lat="45.40014" lon="5.65005">
        <ele>533.6</ele>
        <time>2013-06-23T06:31:10Z</time>
      </trkpt>
      <trkpt lat="45.40021" lon="5.6501">
        <ele>535.2</ele>
        <time>2013-06-23T06:31:14Z</time>
      </trkpt>
      <trkpt lat="45.40029" lon="5.65014">
        <ele>535.9</ele>
        <time>2013-06-23T06:31:18Z</time>
      </trkpt>
      <trkpt lat="45.40036" lon="5.65018">
        <ele>535.9</ele>
        <time>2013-06-23T06:31:22Z</time>
      </trkpt>
      <trkpt lat="45.40044" lon="5.65023">
        <ele>537.3</ele>
        <time>2013-06-23T06:31:26Z</time>
      </trkpt>
      <trkpt lat="45.40051" lon="5.65028">
        <ele>537.1</ele>
        <time>2013-06-23T06:31:30Z</time>
      </trkpt>
      <trkpt lat="45.40059" lon="5.65032">
        <ele>537.9</ele>
        <time>2013-06-23T06:31:34Z</time>
      </trkpt>
      <trkpt lat="45.40067" lon="5.65036">
        <ele>537.9</ele>
        <time>2013-06-23T06:31:38Z</time>
      </trkpt>
      <trkpt lat="45.40075" lon="5.65039">
        <ele>539.2</ele>
        <time>2013-06-23T06:31:42Z</time>
      </trkpt>
      <trkpt lat="45.40083" lon="5.65042">
        <ele>540.3</ele>
        <time>2013-06-23T06:31:46Z</time>
      </trkpt>
      <trkpt lat="45.40091" lon="5.65044">
        <ele>540.6</ele>
        <time>2013-06-23T06:31:50Z</time>
      </trkpt>
      <trkpt lat="45.40099" lon="5.65046">
        <ele>541.9</ele>
        <time>2013-06-23T06:31:54Z</time>
      </trkpt>
      <trkpt lat="45.40107" lon="5.65047">
        <ele>542.6</ele>
        <time>2013-06-23T06:31:58Z</time>
      </trkpt>
      <trkpt lat="45.40116" lon="5.65049">
        <ele>543</ele>
        <time>2013-06-23T06:32:02Z</time>
      </trkpt>
      <trkpt lat="45.40125" lon="5.65051">
        <ele>543.5</ele>
        <time>2013-06-23T06:32:06Z</time>
      </trkpt>
      <trkpt lat="45.40127" lon="5.65052">
        <ele>543.6</ele>
        <time>2013-06-23T06:32:07Z</time>
      </trkpt>
      <trkpt lat="45.40142" lon="5.65055">
        <ele>544</ele>
        <time>2013-06-23T06:32:14Z</time>
      </trkpt>
      <trkpt lat="45.40151" lon="5.65058">
        <ele>543.9</ele>
        <time>2013-06-23T06:32:18Z</time>
      </trkpt>
      <trkpt lat="45.40157" lon="5.65061">
        <ele>544.2</ele>
        <time>2013-06-23T06:32:21Z</time>
      </trkpt>
      <trkpt lat="45.40164" lon="5.65063">
        <ele>544</ele>
        <time>2013-06-23T06:32:24Z</time>
      </trkpt>
      <trkpt lat="45.40171" lon="5.65064">
        <ele>545.6</ele>
        <time>2013-06-23T06:32:27Z</time>
      </trkpt>
      <trkpt lat="45.40178" lon="5.65067">
        <ele>545.8</ele>
        <time>2013-06-23T06:32:30Z</time>
      </trkpt>
      <trkpt lat="45.40186" lon="5.65071">
        <ele>545.8</ele>
        <time>2013-06-23T06:32:33Z</time>
      </trkpt>
      <trkpt lat="45.40195" lon="5.65075">
        <ele>545.3</ele>
        <time>2013-06-23T06:32:36Z</time>
      </trkpt>
      <trkpt lat="45.40201" lon="5.65077">
        <ele>545.1</ele>
        <time>2013-06-23T06:32:38Z</time>
      </trkpt>
      <trkpt lat="45.40207" lon="5.6508">
        <ele>545.2</ele>
        <time>2013-06-23T06:32:40Z</time>
      </trkpt>
      <trkpt lat="45.40213" lon="5.65082">
        <ele>544.5</ele>
        <time>2013-06-23T06:32:42Z</time>
      </trkpt>
      <trkpt lat="45.4022" lon="5.65085">
        <ele>544.9</ele>
        <time>2013-06-23T06:32:44Z</time>
      </trkpt>
      <trkpt lat="45.40226" lon="5.65088">
        <ele>545.7</ele>
        <time>2013-06-23T06:32:46Z</time>
      </trkpt>
      <trkpt lat="45.40233" lon="5.65091">
        <ele>545.7</ele>
        <time>2013-06-23T06:32:48Z</time>
      </trkpt>
      <trkpt lat="45.4024" lon="5.65094">
        <ele>545.7</ele>
        <time>2013-06-23T06:32:50Z</time>
      </trkpt>
      <trkpt lat="45.40247" lon="5.65097">
        <ele>545.8</ele>
        <time>2013-06-23T06:32:52Z</time>
      </trkpt>
      <trkpt lat="45.40253" lon="5.651">
        <ele>545.7</ele>
        <time>2013-06-23T06:32:54Z</time>
      </trkpt>
      <trkpt lat="45.4026" lon="5.65103">
        <ele>545.7</ele>
        <time>2013-06-23T06:32:56Z</time>
      </trkpt>
      <trkpt lat="45.40266" lon="5.65107">
        <ele>545.8</ele>
        <time>2013-06-23T06:32:58Z</time>
      </trkpt>
      <trkpt lat="45.40273" lon="5.65111">
        <ele>545.4</ele>
        <time>2013-06-23T06:33:00Z</time>
      </trkpt>
      <trkpt lat="45.40279" lon="5.65116">
        <ele>545</ele>
        <time>2013-06-23T06:33:02Z</time>
      </trkpt>
      <trkpt lat="45.40285" lon="5.65121">
        <ele>544.9</ele>
        <time>2013-06-23T06:33:04Z</time>
      </trkpt>
      <trkpt lat="45.40291" lon="5.65126">
        <ele>544.8</ele>
        <time>2013-06-23T06:33:06Z</time>
      </trkpt>
      <trkpt lat="45.40297" lon="5.65132">
        <ele>545</ele>
        <time>2013-06-23T06:33:08Z</time>
      </trkpt>
      <trkpt lat="45.40299" lon="5.65135">
        <ele>545.1</ele>
        <time>2013-06-23T06:33:09Z</time>
      </trkpt>
      <trkpt lat="45.40307" lon="5.65144">
        <ele>545.1</ele>
        <time>2013-06-23T06:33:12Z</time>
      </trkpt>
      <trkpt lat="45.40313" lon="5.6515">
        <ele>546.1</ele>
        <time>2013-06-23T06:33:14Z</time>
      </trkpt>
      <trkpt lat="45.40318" lon="5.65156">
        <ele>545.9</ele>
        <time>2013-06-23T06:33:16Z</time>
      </trkpt>
      <trkpt lat="45.40323" lon="5.65162">
        <ele>545.2</ele>
        <time>2013-06-23T06:33:18Z</time>
      </trkpt>
      <trkpt lat="45.40328" lon="5.65169">
        <ele>545.1</ele>
        <time>2013-06-23T06:33:20Z</time>
      </trkpt>
      <trkpt lat="45.40334" lon="5.65175">
        <ele>545.1</ele>
        <time>2013-06-23T06:33:22Z</time>
      </trkpt>
      <trkpt lat="45.40339" lon="5.65182">
        <ele>545.3</ele>
        <time>2013-06-23T06:33:24Z</time>
      </trkpt>
      <trkpt lat="45.40345" lon="5.6519">
        <ele>545.3</ele>
        <time>2013-06-23T06:33:26Z</time>
      </trkpt>
      <trkpt lat="45.40349" lon="5.65195">
        <ele>545.1</ele>
        <time>2013-06-23T06:33:27Z</time>
      </trkpt>
      <trkpt lat="45.40353" lon="5.65199">
        <ele>545.1</ele>
        <time>2013-06-23T06:33:28Z</time>
      </trkpt>
      <trkpt lat="45.40357" lon="5.65204">
        <ele>544.7</ele>
        <time>2013-06-23T06:33:29Z</time>
      </trkpt>
      <trkpt lat="45.4036" lon="5.65209">
        <ele>544.4</ele>
        <time>2013-06-23T06:33:30Z</time>
      </trkpt>
      <trkpt lat="45.40364" lon="5.65214">
        <ele>544.2</ele>
        <time>2013-06-23T06:33:31Z</time>
      </trkpt>
      <trkpt lat="45.40368" lon="5.65219">
        <ele>544.1</ele>
        <time>2013-06-23T06:33:32Z</time>
      </trkpt>
      <trkpt lat="45.40372" lon="5.65224">
        <ele>544</ele>
        <time>2013-06-23T06:33:33Z</time>
      </trkpt>
      <trkpt lat="45.40376" lon="5.65229">
        <ele>544</ele>
        <time>2013-06-23T06:33:34Z</time>
      </trkpt>
      <trkpt lat="45.4038" lon="5.65234">
        <ele>544.1</ele>
        <time>2013-06-23T06:33:35Z</time>
      </trkpt>
      <trkpt lat="45.40384" lon="5.65239">
        <ele>544.2</ele>
        <time>2013-06-23T06:33:36Z</time>
      </trkpt>
      <trkpt lat="45.40388" lon="5.65243">
        <ele>544.3</ele>
        <time>2013-06-23T06:33:37Z</time>
      </trkpt>
      <trkpt lat="45.40392" lon="5.65248">
        <ele>544.4</ele>
        <time>2013-06-23T06:33:38Z</time>
      </trkpt>
      <trkpt lat="45.40395" lon="5.65252">
        <ele>543.9</ele>
        <time>2013-06-23T06:33:39Z</time>
      </trkpt>
      <trkpt lat="45.40399" lon="5.65256">
        <ele>543.5</ele>
        <time>2013-06-23T06:33:40Z</time>
      </trkpt>
      <trkpt lat="45.40403" lon="5.6526">
        <ele>543.2</ele>
        <time>2013-06-23T06:33:41Z</time>
      </trkpt>
      <trkpt lat="45.4041" lon="5.65268">
        <ele>543.1</ele>
        <time>2013-06-23T06:33:43Z</time>
      </trkpt>
      <trkpt lat="45.40416" lon="5.65275">
        <ele>543.2</ele>
        <time>2013-06-23T06:33:45Z</time>
      </trkpt>
      <trkpt lat="45.40422" lon="5.65282">
        <ele>543.3</ele>
        <time>2013-06-23T06:33:47Z</time>
      </trkpt>
      <trkpt lat="45.40428" lon="5.65289">
        <ele>543.8</ele>
        <time>2013-06-23T06:33:49Z</time>
      </trkpt>
      <trkpt lat="45.40434" lon="5.65295">
        <ele>543.8</ele>
        <time>2013-06-23T06:33:51Z</time>
      </trkpt>
      <trkpt lat="45.40439" lon="5.65301">
        <ele>543.6</ele>
        <time>2013-06-23T06:33:53Z</time>
      </trkpt>
      <trkpt lat="45.40445" lon="5.65307">
        <ele>543.3</ele>
        <time>2013-06-23T06:33:55Z</time>
      </trkpt>
      <trkpt lat="45.40451" lon="5.65314">
        <ele>543.1</ele>
        <time>2013-06-23T06:33:57Z</time>
      </trkpt>
      <trkpt lat="45.40456" lon="5.65321">
        <ele>543.5</ele>
        <time>2013-06-23T06:33:59Z</time>
      </trkpt>
      <trkpt lat="45.40462" lon="5.65327">
        <ele>543.5</ele>
        <time>2013-06-23T06:34:01Z</time>
      </trkpt>
      <trkpt lat="45.40467" lon="5.65334">
        <ele>543.2</ele>
        <time>2013-06-23T06:34:03Z</time>
      </trkpt>
      <trkpt lat="45.40472" lon="5.65341">
        <ele>543.2</ele>
        <time>2013-06-23T06:34:05Z</time>
      </trkpt>
      <trkpt lat="45.40476" lon="5.65348">
        <ele>543.2</ele>
        <time>2013-06-23T06:34:07Z</time>
      </trkpt>
      <trkpt lat="45.40481" lon="5.65355">
        <ele>543.1</ele>
        <time>2013-06-23T06:34:09Z</time>
      </trkpt>
      <trkpt lat="45.40483" lon="5.65359">
        <ele>543.2</ele>
        <time>2013-06-23T06:34:10Z</time>
      </trkpt>
      <trkpt lat="45.4049" lon="5.6537">
        <ele>543.5</ele>
        <time>2013-06-23T06:34:13Z</time>
      </trkpt>
      <trkpt lat="45.40494" lon="5.65378">
        <ele>543.6</ele>
        <time>2013-06-23T06:34:15Z</time>
      </trkpt>
      <trkpt lat="45.40492" lon="5.6539">
        <ele>543.5</ele>
        <time>2013-06-23T06:34:17Z</time>
      </trkpt>
      <trkpt lat="45.40488" lon="5.65397">
        <ele>543.4</ele>
        <time>2013-06-23T06:34:18Z</time>
      </trkpt>
      <trkpt lat="45.40484" lon="5.65404">
        <ele>543.4</ele>
        <time>2013-06-23T06:34:19Z</time>
      </trkpt>
      <trkpt lat="45.40479" lon="5.65413">
        <ele>542.8</ele>
        <time>2013-06-23T06:34:20Z</time>
      </trkpt>
      <trkpt lat="45.40474" lon="5.65422">
        <ele>542.4</ele>
        <time>2013-06-23T06:34:21Z</time>
      </trkpt>
      <trkpt lat="45.40468" lon="5.65431">
        <ele>542.1</ele>
        <time>2013-06-23T06:34:22Z</time>
      </trkpt>
      <trkpt lat="45.40463" lon="5.65439">
        <ele>540.9</ele>
        <time>2013-06-23T06:34:23Z</time>
      </trkpt>
      <trkpt lat="45.40457" lon="5.65448">
        <ele>540</ele>
        <time>2013-06-23T06:34:24Z</time>
      </trkpt>
      <trkpt lat="45.40452" lon="5.65457">
        <ele>539.3</ele>
        <time>2013-06-23T06:34:25Z</time>
      </trkpt>
      <trkpt lat="45.40448" lon="5.65467">
        <ele>538.5</ele>
        <time>2013-06-23T06:34:26Z</time>
      </trkpt>
      <trkpt lat="45.40445" lon="5.65476">
        <ele>537.9</ele>
        <time>2013-06-23T06:34:27Z</time>
      </trkpt>
      <trkpt lat="45.40443" lon="5.65485">
        <ele>537.4</ele>
        <time>2013-06-23T06:34:28Z</time>
      </trkpt>
      <trkpt lat="45.40441" lon="5.65495">
        <ele>537</ele>
        <time>2013-06-23T06:34:29Z</time>
      </trkpt>
      <trkpt lat="45.40439" lon="5.65504">
        <ele>537.1</ele>
        <time>2013-06-23T06:34:30Z</time>
      </trkpt>
      <trkpt lat="45.40438" lon="5.65512">
        <ele>537.2</ele>
        <time>2013-06-23T06:34:31Z</time>
      </trkpt>
      <trkpt lat="45.40436" lon="5.65521">
        <ele>537.2</ele>
        <time>2013-06-23T06:34:32Z</time>
      </trkpt>
      <trkpt lat="45.40435" lon="5.65529">
        <ele>536.9</ele>
        <time>2013-06-23T06:34:33Z</time>
      </trkpt>
      <trkpt lat="45.40433" lon="5.65536">
        <ele>536.6</ele>
        <time>2013-06-23T06:34:34Z</time>
      </trkpt>
      <trkpt lat="45.40432" lon="5.65549">
        <ele>536.7</ele>
        <time>2013-06-23T06:34:36Z</time>
      </trkpt>
      <trkpt lat="45.40431" lon="5.65559">
        <ele>537.1</ele>
        <time>2013-06-23T06:34:38Z</time>
      </trkpt>
      <trkpt lat="45.40431" lon="5.65569">
        <ele>537.2</ele>
        <time>2013-06-23T06:34:40Z</time>
      </trkpt>
      <trkpt lat="45.40431" lon="5.6558">
        <ele>538.2</ele>
        <time>2013-06-23T06:34:43Z</time>
      </trkpt>
      <trkpt lat="45.40431" lon="5.65591">
        <ele>539</ele>
        <time>2013-06-23T06:34:46Z</time>
      </trkpt>
      <trkpt lat="45.40432" lon="5.656">
        <ele>539.9</ele>
        <time>2013-06-23T06:34:49Z</time>
      </trkpt>
      <trkpt lat="45.40434" lon="5.65612">
        <ele>540.2</ele>
        <time>2013-06-23T06:34:53Z</time>
      </trkpt>
      <trkpt lat="45.4044" lon="5.6562">
        <ele>540.9</ele>
        <time>2013-06-23T06:34:58Z</time>
      </trkpt>
      <trkpt lat="45.40447" lon="5.65626">
        <ele>541.7</ele>
        <time>2013-06-23T06:35:02Z</time>
      </trkpt>
      <trkpt lat="45.40453" lon="5.65633">
        <ele>542.4</ele>
        <time>2013-06-23T06:35:06Z</time>
      </trkpt>
      <trkpt lat="45.40459" lon="5.6564">
        <ele>542.5</ele>
        <time>2013-06-23T06:35:10Z</time>
      </trkpt>
      <trkpt lat="45.4046" lon="5.65641">
        <ele>542.4</ele>
        <time>2013-06-23T06:35:11Z</time>
      </trkpt>
      <trkpt lat="45.40471" lon="5.65652">
        <ele>544.8</ele>
        <time>2013-06-23T06:35:18Z</time>
      </trkpt>
      <trkpt lat="45.40477" lon="5.6566">
        <ele>546.2</ele>
        <time>2013-06-23T06:35:23Z</time>
      </trkpt>
      <trkpt lat="45.40484" lon="5.65667">
        <ele>547.2</ele>
        <time>2013-06-23T06:35:28Z</time>
      </trkpt>
      <trkpt lat="45.40489" lon="5.65675">
        <ele>547.8</ele>
        <time>2013-06-23T06:35:33Z</time>
      </trkpt>
      <trkpt lat="45.40494" lon="5.65685">
        <ele>548.3</ele>
        <time>2013-06-23T06:35:38Z</time>
      </trkpt>
      <trkpt lat="45.40498" lon="5.65695">
        <ele>550.3</ele>
        <time>2013-06-23T06:35:43Z</time>
      </trkpt>
      <trkpt lat="45.40503" lon="5.65704">
        <ele>550.6</ele>
        <time>2013-06-23T06:35:48Z</time>
      </trkpt>
      <trkpt lat="45.40508" lon="5.65712">
        <ele>552.3</ele>
        <time>2013-06-23T06:35:53Z</time>
      </trkpt>
      <trkpt lat="45.40513" lon="5.65719">
        <ele>552.3</ele>
        <time>2013-06-23T06:35:58Z</time>
      </trkpt>
      <trkpt lat="45.4052" lon="5.65727">
        <ele>554.7</ele>
        <time>2013-06-23T06:36:04Z</time>
      </trkpt>
      <trkpt lat="45.40525" lon="5.65729">
        <ele>560.6</ele>
        <time>2013-06-23T06:36:31Z</time>
      </trkpt>
      <trkpt lat="45.40529" lon="5.6573">
        <ele>560.7</ele>
        <time>2013-06-23T06:36:32Z</time>
      </trkpt>
      <trkpt lat="45.40539" lon="5.65735">
        <ele>561.4</ele>
        <time>2013-06-23T06:36:35Z</time>
      </trkpt>
      <trkpt lat="45.40545" lon="5.65737">
        <ele>562</ele>
        <time>2013-06-23T06:36:37Z</time>
      </trkpt>
      <trkpt lat="45.40553" lon="5.65741">
        <ele>562.7</ele>
        <time>2013-06-23T06:36:40Z</time>
      </trkpt>
      <trkpt lat="45.4056" lon="5.65744">
        <ele>564.6</ele>
        <time>2013-06-23T06:36:43Z</time>
      </trkpt>
      <trkpt lat="45.40566" lon="5.65746">
        <ele>569.9</ele>
        <time>2013-06-23T06:37:07Z</time>
      </trkpt>
      <trkpt lat="45.40574" lon="5.6575">
        <ele>570.7</ele>
        <time>2013-06-23T06:37:09Z</time>
      </trkpt>
      <trkpt lat="45.40581" lon="5.65752">
        <ele>571.7</ele>
        <time>2013-06-23T06:37:11Z</time>
      </trkpt>
      <trkpt lat="45.40587" lon="5.65752">
        <ele>572.4</ele>
        <time>2013-06-23T06:37:13Z</time>
      </trkpt>
      <trkpt lat="45.40596" lon="5.65753">
        <ele>572.9</ele>
        <time>2013-06-23T06:37:16Z</time>
      </trkpt>
      <trkpt lat="45.40603" lon="5.65757">
        <ele>573.1</ele>
        <time>2013-06-23T06:37:19Z</time>
      </trkpt>
      <trkpt lat="45.40598" lon="5.65767">
        <ele>574.5</ele>
        <time>2013-06-23T06:37:27Z</time>
      </trkpt>
      <trkpt lat="45.40592" lon="5.65774">
        <ele>573.7</ele>
        <time>2013-06-23T06:37:33Z</time>
      </trkpt>
      <trkpt lat="45.40591" lon="5.65776">
        <ele>573.9</ele>
        <time>2013-06-23T06:37:34Z</time>
      </trkpt>
      <trkpt lat="45.40582" lon="5.6579">
        <ele>573.5</ele>
        <time>2013-06-23T06:37:40Z</time>
      </trkpt>
      <trkpt lat="45.40578" lon="5.65798">
        <ele>573.5</ele>
        <time>2013-06-23T06:37:42Z</time>
      </trkpt>
      <trkpt lat="45.40575" lon="5.65805">
        <ele>573.3</ele>
        <time>2013-06-23T06:37:44Z</time>
      </trkpt>
      <trkpt lat="45.40569" lon="5.65814">
        <ele>573</ele>
        <time>2013-06-23T06:37:46Z</time>
      </trkpt>
      <trkpt lat="45.40565" lon="5.65818">
        <ele>572.9</ele>
        <time>2013-06-23T06:37:47Z</time>
      </trkpt>
      <trkpt lat="45.40561" lon="5.65822">
        <ele>571.8</ele>
        <time>2013-06-23T06:37:48Z</time>
      </trkpt>
      <trkpt lat="45.40556" lon="5.65825">
        <ele>571</ele>
        <time>2013-06-23T06:37:49Z</time>
      </trkpt>
      <trkpt lat="45.40552" lon="5.65826">
        <ele>570.4</ele>
        <time>2013-06-23T06:37:50Z</time>
      </trkpt>
      <trkpt lat="45.40547" lon="5.65828">
        <ele>571.1</ele>
        <time>2013-06-23T06:37:51Z</time>
      </trkpt>
      <trkpt lat="45.40542" lon="5.65829">
        <ele>571.6</ele>
        <time>2013-06-23T06:37:52Z</time>
      </trkpt>
      <trkpt lat="45.40534" lon="5.6583">
        <ele>571.8</ele>
        <time>2013-06-23T06:37:54Z</time>
      </trkpt>
      <trkpt lat="45.40529" lon="5.65831">
        <ele>571.7</ele>
        <time>2013-06-23T06:37:55Z</time>
      </trkpt>
      <trkpt lat="45.40525" lon="5.65831">
        <ele>571.6</ele>
        <time>2013-06-23T06:37:56Z</time>
      </trkpt>
      <trkpt lat="45.40516" lon="5.65832">
        <ele>572.6</ele>
        <time>2013-06-23T06:37:58Z</time>
      </trkpt>
      <trkpt lat="45.40509" lon="5.65832">
        <ele>572.9</ele>
        <time>2013-06-23T06:38:00Z</time>
      </trkpt>
      <trkpt lat="45.40501" lon="5.65832">
        <ele>572.9</ele>
        <time>2013-06-23T06:38:02Z</time>
      </trkpt>
      <trkpt lat="45.40495" lon="5.65833">
        <ele>572.6</ele>
        <time>2013-06-23T06:38:04Z</time>
      </trkpt>
      <trkpt lat="45.40488" lon="5.65833">
        <ele>572.3</ele>
        <time>2013-06-23T06:38:06Z</time>
      </trkpt>
      <trkpt lat="45.40482" lon="5.65833">
        <ele>572.9</ele>
        <time>2013-06-23T06:38:08Z</time>
      </trkpt>
      <trkpt lat="45.40475" lon="5.65833">
        <ele>573.4</ele>
        <time>2013-06-23T06:38:10Z</time>
      </trkpt>
      <trkpt lat="45.40468" lon="5.65833">
        <ele>573.8</ele>
        <time>2013-06-23T06:38:12Z</time>
      </trkpt>
      <trkpt lat="45.40461" lon="5.65832">
        <ele>574.3</ele>
        <time>2013-06-23T06:38:14Z</time>
      </trkpt>
      <trkpt lat="45.40454" lon="5.65832">
        <ele>574.2</ele>
        <time>2013-06-23T06:38:16Z</time>
      </trkpt>
      <trkpt lat="45.40448" lon="5.65832">
        <ele>573.7</ele>
        <time>2013-06-23T06:38:18Z</time>
      </trkpt>
      <trkpt lat="45.40442" lon="5.65832">
        <ele>573.4</ele>
        <time>2013-06-23T06:38:20Z</time>
      </trkpt>
      <trkpt lat="45.40434" lon="5.65832">
        <ele>573.4</ele>
        <time>2013-06-23T06:38:23Z</time>
      </trkpt>
      <trkpt lat="45.40426" lon="5.65832">
        <ele>573.8</ele>
        <time>2013-06-23T06:38:26Z</time>
      </trkpt>
      <trkpt lat="45.40419" lon="5.65834">
        <ele>574.8</ele>
        <time>2013-06-23T06:38:29Z</time>
      </trkpt>
      <trkpt lat="45.40412" lon="5.65838">
        <ele>575.6</ele>
        <time>2013-06-23T06:38:32Z</time>
      </trkpt>
      <trkpt lat="45.40406" lon="5.65842">
        <ele>576</ele>
        <time>2013-06-23T06:38:35Z</time>
      </trkpt>
      <trkpt lat="45.40403" lon="5.65844">
        <ele>576</ele>
        <time>2013-06-23T06:38:36Z</time>
      </trkpt>
      <trkpt lat="45.40392" lon="5.65854">
        <ele>577</ele>
        <time>2013-06-23T06:38:42Z</time>
      </trkpt>
      <trkpt lat="45.40385" lon="5.65861">
        <ele>578</ele>
        <time>2013-06-23T06:38:46Z</time>
      </trkpt>
      <trkpt lat="45.40378" lon="5.65867">
        <ele>579.6</ele>
        <time>2013-06-23T06:38:50Z</time>
      </trkpt>
      <trkpt lat="45.40372" lon="5.65872">
        <ele>578.7</ele>
        <time>2013-06-23T06:38:53Z</time>
      </trkpt>
      <trkpt lat="45.40366" lon="5.65878">
        <ele>578.9</ele>
        <time>2013-06-23T06:38:56Z</time>
      </trkpt>
      <trkpt lat="45.40359" lon="5.65883">
        <ele>579.7</ele>
        <time>2013-06-23T06:38:59Z</time>
      </trkpt>
      <trkpt lat="45.40352" lon="5.65886">
        <ele>580.5</ele>
        <time>2013-06-23T06:39:02Z</time>
      </trkpt>
      <trkpt lat="45.40343" lon="5.65888">
        <ele>579.9</ele>
        <time>2013-06-23T06:39:06Z</time>
      </trkpt>
      <trkpt lat="45.40336" lon="5.65887">
        <ele>581</ele>
        <time>2013-06-23T06:39:10Z</time>
      </trkpt>
      <trkpt lat="45.40328" lon="5.65886">
        <ele>583.1</ele>
        <time>2013-06-23T06:39:15Z</time>
      </trkpt>
      <trkpt lat="45.4032" lon="5.65885">
        <ele>583.7</ele>
        <time>2013-06-23T06:39:19Z</time>
      </trkpt>
      <trkpt lat="45.40313" lon="5.65884">
        <ele>583.9</ele>
        <time>2013-06-23T06:39:22Z</time>
      </trkpt>
      <trkpt lat="45.40306" lon="5.65886">
        <ele>585</ele>
        <time>2013-06-23T06:39:25Z</time>
      </trkpt>
      <trkpt lat="45.40298" lon="5.6589">
        <ele>584.7</ele>
        <time>2013-06-23T06:39:28Z</time>
      </trkpt>
      <trkpt lat="45.40291" lon="5.65894">
        <ele>585.8</ele>
        <time>2013-06-23T06:39:31Z</time>
      </trkpt>
      <trkpt lat="45.40285" lon="5.65898">
        <ele>586.3</ele>
        <time>2013-06-23T06:39:33Z</time>
      </trkpt>
      <trkpt lat="45.40279" lon="5.65901">
        <ele>586.4</ele>
        <time>2013-06-23T06:39:35Z</time>
      </trkpt>
      <trkpt lat="45.40272" lon="5.65905">
        <ele>585.7</ele>
        <time>2013-06-23T06:39:37Z</time>
      </trkpt>
      <trkpt lat="45.40269" lon="5.65908">
        <ele>585.4</ele>
        <time>2013-06-23T06:39:38Z</time>
      </trkpt>
      <trkpt lat="45.40258" lon="5.65914">
        <ele>585.5</ele>
        <time>2013-06-23T06:39:41Z</time>
      </trkpt>
      <trkpt lat="45.40252" lon="5.65918">
        <ele>585</ele>
        <time>2013-06-23T06:39:43Z</time>
      </trkpt>
      <trkpt lat="45.40245" lon="5.65921">
        <ele>584.7</ele>
        <time>2013-06-23T06:39:45Z</time>
      </trkpt>
      <trkpt lat="45.40237" lon="5.65924">
        <ele>584.6</ele>
        <time>2013-06-23T06:39:47Z</time>
      </trkpt>
      <trkpt lat="45.4023" lon="5.65927">
        <ele>584.6</ele>
        <time>2013-06-23T06:39:49Z</time>
      </trkpt>
      <trkpt lat="45.40223" lon="5.6593">
        <ele>584.6</ele>
        <time>2013-06-23T06:39:51Z</time>
      </trkpt>
      <trkpt lat="45.40217" lon="5.65934">
        <ele>584.5</ele>
        <time>2013-06-23T06:39:53Z</time>
      </trkpt>
      <trkpt lat="45.40209" lon="5.65937">
        <ele>585.3</ele>
        <time>2013-06-23T06:40:08Z</time>
      </trkpt>
      <trkpt lat="45.40209" lon="5.65949">
        <ele>585.1</ele>
        <time>2013-06-23T06:40:23Z</time>
      </trkpt>
      <trkpt lat="45.40214" lon="5.65958">
        <ele>585.2</ele>
        <time>2013-06-23T06:40:26Z</time>
      </trkpt>
      <trkpt lat="45.40219" lon="5.65964">
        <ele>585.8</ele>
        <time>2013-06-23T06:40:29Z</time>
      </trkpt>
      <trkpt lat="45.40226" lon="5.65969">
        <ele>586.2</ele>
        <time>2013-06-23T06:40:33Z</time>
      </trkpt>
      <trkpt lat="45.40234" lon="5.65973">
        <ele>587.6</ele>
        <time>2013-06-23T06:40:38Z</time>
      </trkpt>
      <trkpt lat="45.40235" lon="5.65974">
        <ele>587.8</ele>
        <time>2013-06-23T06:40:39Z</time>
      </trkpt>
      <trkpt lat="45.40249" lon="5.65979">
        <ele>589.5</ele>
        <time>2013-06-23T06:40:47Z</time>
      </trkpt>
      <trkpt lat="45.40256" lon="5.65984">
        <ele>590.1</ele>
        <time>2013-06-23T06:40:51Z</time>
      </trkpt>
      <trkpt lat="45.40263" lon="5.65986">
        <ele>591.4</ele>
        <time>2013-06-23T06:40:56Z</time>
      </trkpt>
      <trkpt lat="45.40269" lon="5.65987">
        <ele>596.2</ele>
        <time>2013-06-23T06:41:23Z</time>
      </trkpt>
      <trkpt lat="45.40276" lon="5.6599">
        <ele>596.6</ele>
        <time>2013-06-23T06:41:25Z</time>
      </trkpt>
      <trkpt lat="45.40283" lon="5.65993">
        <ele>597.2</ele>
        <time>2013-06-23T06:41:27Z</time>
      </trkpt>
      <trkpt lat="45.4029" lon="5.65997">
        <ele>598.2</ele>
        <time>2013-06-23T06:41:29Z</time>
      </trkpt>
      <trkpt lat="45.40298" lon="5.66001">
        <ele>599.2</ele>
        <time>2013-06-23T06:41:32Z</time>
      </trkpt>
      <trkpt lat="45.40306" lon="5.66004">
        <ele>600</ele>
        <time>2013-06-23T06:41:42Z</time>
      </trkpt>
      <trkpt lat="45.40309" lon="5.66006">
        <ele>599.8</ele>
        <time>2013-06-23T06:41:43Z</time>
      </trkpt>
      <trkpt lat="45.40317" lon="5.66011">
        <ele>601.9</ele>
        <time>2013-06-23T06:41:56Z</time>
      </trkpt>
      <trkpt lat="45.40324" lon="5.66017">
        <ele>602.7</ele>
        <time>2013-06-23T06:41:58Z</time>
      </trkpt>
      <trkpt lat="45.4033" lon="5.66021">
        <ele>602.8</ele>
        <time>2013-06-23T06:42:00Z</time>
      </trkpt>
      <trkpt lat="45.40336" lon="5.66026">
        <ele>602.5</ele>
        <time>2013-06-23T06:42:02Z</time>
      </trkpt>
      <trkpt lat="45.40342" lon="5.6603">
        <ele>603.3</ele>
        <time>2013-06-23T06:42:04Z</time>
      </trkpt>
      <trkpt lat="45.40349" lon="5.66036">
        <ele>604.1</ele>
        <time>2013-06-23T06:42:07Z</time>
      </trkpt>
      <trkpt lat="45.40356" lon="5.6604">
        <ele>604.8</ele>
        <time>2013-06-23T06:42:10Z</time>
      </trkpt>
      <trkpt lat="45.40364" lon="5.66046">
        <ele>605.2</ele>
        <time>2013-06-23T06:42:14Z</time>
      </trkpt>
      <trkpt lat="45.40369" lon="5.66051">
        <ele>610.4</ele>
        <time>2013-06-23T06:42:38Z</time>
      </trkpt>
      <trkpt lat="45.40376" lon="5.66056">
        <ele>610.9</ele>
        <time>2013-06-23T06:42:40Z</time>
      </trkpt>
      <trkpt lat="45.40382" lon="5.66059">
        <ele>611.5</ele>
        <time>2013-06-23T06:42:49Z</time>
      </trkpt>
      <trkpt lat="45.40385" lon="5.66061">
        <ele>611.5</ele>
        <time>2013-06-23T06:42:50Z</time>
      </trkpt>
      <trkpt lat="45.40396" lon="5.66065">
        <ele>614</ele>
        <time>2013-06-23T06:43:01Z</time>
      </trkpt>
      <trkpt lat="45.40403" lon="5.66068">
        <ele>614.3</ele>
        <time>2013-06-23T06:43:03Z</time>
      </trkpt>
      <trkpt lat="45.40409" lon="5.6607">
        <ele>616.7</ele>
        <time>2013-06-23T06:43:11Z</time>
      </trkpt>
      <trkpt lat="45.40416" lon="5.66073">
        <ele>616.7</ele>
        <time>2013-06-23T06:43:13Z</time>
      </trkpt>
      <trkpt lat="45.40422" lon="5.66075">
        <ele>620.5</ele>
        <time>2013-06-23T06:43:24Z</time>
      </trkpt>
      <trkpt lat="45.40429" lon="5.66078">
        <ele>621.3</ele>
        <time>2013-06-23T06:43:26Z</time>
      </trkpt>
      <trkpt lat="45.40436" lon="5.66081">
        <ele>623.8</ele>
        <time>2013-06-23T06:43:35Z</time>
      </trkpt>
      <trkpt lat="45.40443" lon="5.66084">
        <ele>623.8</ele>
        <time>2013-06-23T06:43:37Z</time>
      </trkpt>
      <trkpt lat="45.40448" lon="5.66088">
        <ele>626.1</ele>
        <time>2013-06-23T06:43:46Z</time>
      </trkpt>
      <trkpt lat="45.40455" lon="5.66091">
        <ele>626.2</ele>
        <time>2013-06-23T06:43:48Z</time>
      </trkpt>
      <trkpt lat="45.40461" lon="5.66095">
        <ele>627.2</ele>
        <time>2013-06-23T06:43:57Z</time>
      </trkpt>
      <trkpt lat="45.40465" lon="5.66097">
        <ele>627.8</ele>
        <time>2013-06-23T06:43:58Z</time>
      </trkpt>
      <trkpt lat="45.40474" lon="5.66103">
        <ele>629.7</ele>
        <time>2013-06-23T06:44:08Z</time>
      </trkpt>
      <trkpt lat="45.40481" lon="5.66107">
        <ele>629.8</ele>
        <time>2013-06-23T06:44:10Z</time>
      </trkpt>
      <trkpt lat="45.40487" lon="5.66111">
        <ele>631</ele>
        <time>2013-06-23T06:44:19Z</time>
      </trkpt>
      <trkpt lat="45.40495" lon="5.66115">
        <ele>631.7</ele>
        <time>2013-06-23T06:44:21Z</time>
      </trkpt>
      <trkpt lat="45.40502" lon="5.66116">
        <ele>631.3</ele>
        <time>2013-06-23T06:44:29Z</time>
      </trkpt>
      <trkpt lat="45.40509" lon="5.6612">
        <ele>630.9</ele>
        <time>2013-06-23T06:44:31Z</time>
      </trkpt>
      <trkpt lat="45.40516" lon="5.66124">
        <ele>630.9</ele>
        <time>2013-06-23T06:44:33Z</time>
      </trkpt>
      <trkpt lat="45.40523" lon="5.66127">
        <ele>630.9</ele>
        <time>2013-06-23T06:44:35Z</time>
      </trkpt>
      <trkpt lat="45.40529" lon="5.66131">
        <ele>631.4</ele>
        <time>2013-06-23T06:44:37Z</time>
      </trkpt>
      <trkpt lat="45.40535" lon="5.66135">
        <ele>631.7</ele>
        <time>2013-06-23T06:44:39Z</time>
      </trkpt>
      <trkpt lat="45.40543" lon="5.6614">
        <ele>631.8</ele>
        <time>2013-06-23T06:44:42Z</time>
      </trkpt>
      <trkpt lat="45.4055" lon="5.66145">
        <ele>632.4</ele>
        <time>2013-06-23T06:44:45Z</time>
      </trkpt>
      <trkpt lat="45.40556" lon="5.66149">
        <ele>631.7</ele>
        <time>2013-06-23T06:44:48Z</time>
      </trkpt>
      <trkpt lat="45.40564" lon="5.66154">
        <ele>631.7</ele>
        <time>2013-06-23T06:44:52Z</time>
      </trkpt>
      <trkpt lat="45.40571" lon="5.66159">
        <ele>632</ele>
        <time>2013-06-23T06:44:55Z</time>
      </trkpt>
      <trkpt lat="45.40579" lon="5.66164">
        <ele>632.9</ele>
        <time>2013-06-23T06:44:59Z</time>
      </trkpt>
      <trkpt lat="45.40581" lon="5.66165">
        <ele>633.3</ele>
        <time>2013-06-23T06:45:00Z</time>
      </trkpt>
      <trkpt lat="45.40594" lon="5.66174">
        <ele>633.6</ele>
        <time>2013-06-23T06:45:07Z</time>
      </trkpt>
      <trkpt lat="45.40601" lon="5.6618">
        <ele>634.7</ele>
        <time>2013-06-23T06:45:11Z</time>
      </trkpt>
      <trkpt lat="45.40608" lon="5.66185">
        <ele>635.3</ele>
        <time>2013-06-23T06:45:15Z</time>
      </trkpt>
      <trkpt lat="45.40615" lon="5.66189">
        <ele>635.2</ele>
        <time>2013-06-23T06:45:19Z</time>
      </trkpt>
      <trkpt lat="45.40623" lon="5.66192">
        <ele>635.3</ele>
        <time>2013-06-23T06:45:23Z</time>
      </trkpt>
      <trkpt lat="45.4063" lon="5.66195">
        <ele>636.7</ele>
        <time>2013-06-23T06:45:27Z</time>
      </trkpt>
      <trkpt lat="45.40638" lon="5.66198">
        <ele>640.4</ele>
        <time>2013-06-23T06:45:39Z</time>
      </trkpt>
      <trkpt lat="45.40646" lon="5.66201">
        <ele>641.3</ele>
        <time>2013-06-23T06:45:42Z</time>
      </trkpt>
      <trkpt lat="45.40654" lon="5.66202">
        <ele>641.2</ele>
        <time>2013-06-23T06:45:45Z</time>
      </trkpt>
      <trkpt lat="45.40661" lon="5.66205">
        <ele>640.5</ele>
        <time>2013-06-23T06:45:48Z</time>
      </trkpt>
      <trkpt lat="45.4067" lon="5.66207">
        <ele>641.6</ele>
        <time>2013-06-23T06:45:52Z</time>
      </trkpt>
      <trkpt lat="45.40675" lon="5.6621">
        <ele>644</ele>
        <time>2013-06-23T06:46:09Z</time>
      </trkpt>
      <trkpt lat="45.40679" lon="5.66211">
        <ele>644</ele>
        <time>2013-06-23T06:46:10Z</time>
      </trkpt>
      <trkpt lat="45.40689" lon="5.66216">
        <ele>647.8</ele>
        <time>2013-06-23T06:46:19Z</time>
      </trkpt>
      <trkpt lat="45.40695" lon="5.6622">
        <ele>647.9</ele>
        <time>2013-06-23T06:46:21Z</time>
      </trkpt>
      <trkpt lat="45.40702" lon="5.66224">
        <ele>650.7</ele>
        <time>2013-06-23T06:46:30Z</time>
      </trkpt>
      <trkpt lat="45.40708" lon="5.66228">
        <ele>651.3</ele>
        <time>2013-06-23T06:46:32Z</time>
      </trkpt>
      <trkpt lat="45.40715" lon="5.66232">
        <ele>654.2</ele>
        <time>2013-06-23T06:46:40Z</time>
      </trkpt>
      <trkpt lat="45.40722" lon="5.66237">
        <ele>653.8</ele>
        <time>2013-06-23T06:46:42Z</time>
      </trkpt>
      <trkpt lat="45.40729" lon="5.66241">
        <ele>655.1</ele>
        <time>2013-06-23T06:46:50Z</time>
      </trkpt>
      <trkpt lat="45.40736" lon="5.66245">
        <ele>655.2</ele>
        <time>2013-06-23T06:46:52Z</time>
      </trkpt>
      <trkpt lat="45.40743" lon="5.66249">
        <ele>655.8</ele>
        <time>2013-06-23T06:47:00Z</time>
      </trkpt>
      <trkpt lat="45.4075" lon="5.66252">
        <ele>655.6</ele>
        <time>2013-06-23T06:47:02Z</time>
      </trkpt>
      <trkpt lat="45.40757" lon="5.66256">
        <ele>658</ele>
        <time>2013-06-23T06:47:10Z</time>
      </trkpt>
      <trkpt lat="45.40761" lon="5.66258">
        <ele>657.9</ele>
        <time>2013-06-23T06:47:11Z</time>
      </trkpt>
      <trkpt lat="45.40771" lon="5.66262">
        <ele>657.7</ele>
        <time>2013-06-23T06:47:14Z</time>
      </trkpt>
      <trkpt lat="45.40778" lon="5.66265">
        <ele>658.2</ele>
        <time>2013-06-23T06:47:16Z</time>
      </trkpt>
      <trkpt lat="45.40786" lon="5.66268">
        <ele>658.8</ele>
        <time>2013-06-23T06:47:19Z</time>
      </trkpt>
      <trkpt lat="45.40793" lon="5.6627">
        <ele>660.4</ele>
        <time>2013-06-23T06:47:35Z</time>
      </trkpt>
      <trkpt lat="45.408" lon="5.66271">
        <ele>661</ele>
        <time>2013-06-23T06:47:37Z</time>
      </trkpt>
      <trkpt lat="45.40806" lon="5.66273">
        <ele>664.7</ele>
        <time>2013-06-23T06:47:48Z</time>
      </trkpt>
      <trkpt lat="45.40812" lon="5.66276">
        <ele>665</ele>
        <time>2013-06-23T06:47:50Z</time>
      </trkpt>
      <trkpt lat="45.40819" lon="5.66278">
        <ele>665.8</ele>
        <time>2013-06-23T06:48:01Z</time>
      </trkpt>
      <trkpt lat="45.40825" lon="5.6628">
        <ele>666.3</ele>
        <time>2013-06-23T06:48:03Z</time>
      </trkpt>
      <trkpt lat="45.40832" lon="5.66282">
        <ele>667.7</ele>
        <time>2013-06-23T06:48:11Z</time>
      </trkpt>
      <trkpt lat="45.40835" lon="5.66283">
        <ele>668</ele>
        <time>2013-06-23T06:48:12Z</time>
      </trkpt>
      <trkpt lat="45.40845" lon="5.66286">
        <ele>671.7</ele>
        <time>2013-06-23T06:48:23Z</time>
      </trkpt>
      <trkpt lat="45.40851" lon="5.66287">
        <ele>672</ele>
        <time>2013-06-23T06:48:25Z</time>
      </trkpt>
      <trkpt lat="45.40857" lon="5.66289">
        <ele>672.9</ele>
        <time>2013-06-23T06:48:36Z</time>
      </trkpt>
      <trkpt lat="45.40864" lon="5.66289">
        <ele>674.1</ele>
        <time>2013-06-23T06:48:38Z</time>
      </trkpt>
      <trkpt lat="45.4087" lon="5.6629">
        <ele>676.8</ele>
        <time>2013-06-23T06:48:47Z</time>
      </trkpt>
      <trkpt lat="45.40877" lon="5.66292">
        <ele>677.7</ele>
        <time>2013-06-23T06:48:49Z</time>
      </trkpt>
      <trkpt lat="45.40883" lon="5.66293">
        <ele>677</ele>
        <time>2013-06-23T06:48:59Z</time>
      </trkpt>
      <trkpt lat="45.4089" lon="5.66295">
        <ele>677.6</ele>
        <time>2013-06-23T06:49:01Z</time>
      </trkpt>
      <trkpt lat="45.40897" lon="5.66296">
        <ele>680.9</ele>
        <time>2013-06-23T06:49:09Z</time>
      </trkpt>
      <trkpt lat="45.40903" lon="5.66295">
        <ele>681</ele>
        <time>2013-06-23T06:49:11Z</time>
      </trkpt>
      <trkpt lat="45.4091" lon="5.66294">
        <ele>682.4</ele>
        <time>2013-06-23T06:49:21Z</time>
      </trkpt>
      <trkpt lat="45.40913" lon="5.66293">
        <ele>682.6</ele>
        <time>2013-06-23T06:49:22Z</time>
      </trkpt>
      <trkpt lat="45.40925" lon="5.66287">
        <ele>685.3</ele>
        <time>2013-06-23T06:49:32Z</time>
      </trkpt>
      <trkpt lat="45.40931" lon="5.66285">
        <ele>686</ele>
        <time>2013-06-23T06:49:39Z</time>
      </trkpt>
      <trkpt lat="45.40938" lon="5.66282">
        <ele>686.7</ele>
        <time>2013-06-23T06:49:41Z</time>
      </trkpt>
      <trkpt lat="45.40945" lon="5.66278">
        <ele>685.7</ele>
        <time>2013-06-23T06:49:48Z</time>
      </trkpt>
      <trkpt lat="45.40951" lon="5.66274">
        <ele>685.4</ele>
        <time>2013-06-23T06:49:50Z</time>
      </trkpt>
      <trkpt lat="45.40958" lon="5.66269">
        <ele>686.8</ele>
        <time>2013-06-23T06:49:58Z</time>
      </trkpt>
      <trkpt lat="45.40964" lon="5.66266">
        <ele>687.8</ele>
        <time>2013-06-23T06:50:00Z</time>
      </trkpt>
      <trkpt lat="45.40971" lon="5.66263">
        <ele>688.7</ele>
        <time>2013-06-23T06:50:10Z</time>
      </trkpt>
      <trkpt lat="45.40978" lon="5.66263">
        <ele>690.3</ele>
        <time>2013-06-23T06:50:12Z</time>
      </trkpt>
      <trkpt lat="45.40984" lon="5.66264">
        <ele>692.4</ele>
        <time>2013-06-23T06:50:21Z</time>
      </trkpt>
      <trkpt lat="45.40992" lon="5.66265">
        <ele>693.4</ele>
        <time>2013-06-23T06:50:23Z</time>
      </trkpt>
      <trkpt lat="45.40995" lon="5.66265">
        <ele>693.9</ele>
        <time>2013-06-23T06:50:24Z</time>
      </trkpt>
      <trkpt lat="45.41006" lon="5.66268">
        <ele>695.3</ele>
        <time>2013-06-23T06:50:34Z</time>
      </trkpt>
      <trkpt lat="45.41012" lon="5.6627">
        <ele>697.5</ele>
        <time>2013-06-23T06:50:41Z</time>
      </trkpt>
      <trkpt lat="45.4102" lon="5.66272">
        <ele>697.8</ele>
        <time>2013-06-23T06:50:43Z</time>
      </trkpt>
      <trkpt lat="45.41028" lon="5.66274">
        <ele>697.6</ele>
        <time>2013-06-23T06:50:45Z</time>
      </trkpt>
      <trkpt lat="45.41035" lon="5.66275">
        <ele>697.5</ele>
        <time>2013-06-23T06:50:47Z</time>
      </trkpt>
      <trkpt lat="45.41042" lon="5.66276">
        <ele>697.3</ele>
        <time>2013-06-23T06:50:49Z</time>
      </trkpt>
      <trkpt lat="45.4105" lon="5.66277">
        <ele>697.6</ele>
        <time>2013-06-23T06:50:52Z</time>
      </trkpt>
      <trkpt lat="45.41058" lon="5.66277">
        <ele>698.2</ele>
        <time>2013-06-23T06:50:55Z</time>
      </trkpt>
      <trkpt lat="45.41065" lon="5.66279">
        <ele>698.1</ele>
        <time>2013-06-23T06:50:58Z</time>
      </trkpt>
      <trkpt lat="45.41073" lon="5.6628">
        <ele>697.2</ele>
        <time>2013-06-23T06:51:01Z</time>
      </trkpt>
      <trkpt lat="45.4108" lon="5.6628">
        <ele>698.5</ele>
        <time>2013-06-23T06:51:04Z</time>
      </trkpt>
      <trkpt lat="45.41087" lon="5.66279">
        <ele>698.3</ele>
        <time>2013-06-23T06:51:07Z</time>
      </trkpt>
      <trkpt lat="45.41094" lon="5.66278">
        <ele>698.6</ele>
        <time>2013-06-23T06:51:10Z</time>
      </trkpt>
      <trkpt lat="45.41103" lon="5.66275">
        <ele>699.3</ele>
        <time>2013-06-23T06:51:14Z</time>
      </trkpt>
      <trkpt lat="45.4111" lon="5.66272">
        <ele>699.8</ele>
        <time>2013-06-23T06:51:18Z</time>
      </trkpt>
      <trkpt lat="45.41118" lon="5.66268">
        <ele>699.5</ele>
        <time>2013-06-23T06:51:23Z</time>
      </trkpt>
      <trkpt lat="45.41126" lon="5.66263">
        <ele>705.7</ele>
        <time>2013-06-23T06:51:49Z</time>
      </trkpt>
      <trkpt lat="45.41129" lon="5.6626">
        <ele>705.4</ele>
        <time>2013-06-23T06:51:50Z</time>
      </trkpt>
      <trkpt lat="45.41139" lon="5.66252">
        <ele>705.1</ele>
        <time>2013-06-23T06:51:53Z</time>
      </trkpt>
      <trkpt lat="45.41144" lon="5.66248">
        <ele>705.8</ele>
        <time>2013-06-23T06:51:55Z</time>
      </trkpt>
      <trkpt lat="45.4115" lon="5.66243">
        <ele>706.5</ele>
        <time>2013-06-23T06:51:57Z</time>
      </trkpt>
      <trkpt lat="45.41157" lon="5.66238">
        <ele>707.6</ele>
        <time>2013-06-23T06:52:00Z</time>
      </trkpt>
      <trkpt lat="45.41163" lon="5.66232">
        <ele>707.9</ele>
        <time>2013-06-23T06:52:05Z</time>
      </trkpt>
      <trkpt lat="45.41168" lon="5.66222">
        <ele>709.6</ele>
        <time>2013-06-23T06:52:09Z</time>
      </trkpt>
      <trkpt lat="45.41171" lon="5.66212">
        <ele>713.6</ele>
        <time>2013-06-23T06:52:33Z</time>
      </trkpt>
      <trkpt lat="45.41173" lon="5.66202">
        <ele>714</ele>
        <time>2013-06-23T06:52:35Z</time>
      </trkpt>
      <trkpt lat="45.41175" lon="5.66193">
        <ele>716.7</ele>
        <time>2013-06-23T06:52:44Z</time>
      </trkpt>
      <trkpt lat="45.41177" lon="5.66183">
        <ele>717.4</ele>
        <time>2013-06-23T06:52:46Z</time>
      </trkpt>
      <trkpt lat="45.4118" lon="5.66173">
        <ele>718.9</ele>
        <time>2013-06-23T06:52:56Z</time>
      </trkpt>
      <trkpt lat="45.41181" lon="5.66169">
        <ele>719.1</ele>
        <time>2013-06-23T06:52:57Z</time>
      </trkpt>
      <trkpt lat="45.41184" lon="5.66154">
        <ele>721</ele>
        <time>2013-06-23T06:53:09Z</time>
      </trkpt>
      <trkpt lat="45.41187" lon="5.66145">
        <ele>722.1</ele>
        <time>2013-06-23T06:53:11Z</time>
      </trkpt>
      <trkpt lat="45.4119" lon="5.66136">
        <ele>725</ele>
        <time>2013-06-23T06:53:22Z</time>
      </trkpt>
      <trkpt lat="45.41193" lon="5.66127">
        <ele>725</ele>
        <time>2013-06-23T06:53:24Z</time>
      </trkpt>
      <trkpt lat="45.41197" lon="5.66119">
        <ele>728</ele>
        <time>2013-06-23T06:53:36Z</time>
      </trkpt>
      <trkpt lat="45.41201" lon="5.6611">
        <ele>729.3</ele>
        <time>2013-06-23T06:53:38Z</time>
      </trkpt>
      <trkpt lat="45.41206" lon="5.66102">
        <ele>730.5</ele>
        <time>2013-06-23T06:53:48Z</time>
      </trkpt>
      <trkpt lat="45.41211" lon="5.66095">
        <ele>730.7</ele>
        <time>2013-06-23T06:53:50Z</time>
      </trkpt>
      <trkpt lat="45.41216" lon="5.66089">
        <ele>732.5</ele>
        <time>2013-06-23T06:54:01Z</time>
      </trkpt>
      <trkpt lat="45.41219" lon="5.66085">
        <ele>732.6</ele>
        <time>2013-06-23T06:54:02Z</time>
      </trkpt>
      <trkpt lat="45.41228" lon="5.66076">
        <ele>735.7</ele>
        <time>2013-06-23T06:54:13Z</time>
      </trkpt>
      <trkpt lat="45.41234" lon="5.6607">
        <ele>736.2</ele>
        <time>2013-06-23T06:54:15Z</time>
      </trkpt>
      <trkpt lat="45.4124" lon="5.66065">
        <ele>737.6</ele>
        <time>2013-06-23T06:54:25Z</time>
      </trkpt>
      <trkpt lat="45.41247" lon="5.66061">
        <ele>737.8</ele>
        <time>2013-06-23T06:54:27Z</time>
      </trkpt>
      <trkpt lat="45.41253" lon="5.66057">
        <ele>739.2</ele>
        <time>2013-06-23T06:54:38Z</time>
      </trkpt>
      <trkpt lat="45.41261" lon="5.66053">
        <ele>739.6</ele>
        <time>2013-06-23T06:54:40Z</time>
      </trkpt>
      <trkpt lat="45.41267" lon="5.6605">
        <ele>740.1</ele>
        <time>2013-06-23T06:54:42Z</time>
      </trkpt>
      <trkpt lat="45.41273" lon="5.66046">
        <ele>740.7</ele>
        <time>2013-06-23T06:54:44Z</time>
      </trkpt>
      <trkpt lat="45.4128" lon="5.66041">
        <ele>741.4</ele>
        <time>2013-06-23T06:54:47Z</time>
      </trkpt>
      <trkpt lat="45.41288" lon="5.66036">
        <ele>743.5</ele>
        <time>2013-06-23T06:54:56Z</time>
      </trkpt>
      <trkpt lat="45.41296" lon="5.66031">
        <ele>743.7</ele>
        <time>2013-06-23T06:54:59Z</time>
      </trkpt>
      <trkpt lat="45.41305" lon="5.66027">
        <ele>745.3</ele>
        <time>2013-06-23T06:55:07Z</time>
      </trkpt>
      <trkpt lat="45.41308" lon="5.66026">
        <ele>745.4</ele>
        <time>2013-06-23T06:55:08Z</time>
      </trkpt>
      <trkpt lat="45.41319" lon="5.6602">
        <ele>746</ele>
        <time>2013-06-23T06:55:12Z</time>
      </trkpt>
      <trkpt lat="45.41326" lon="5.66017">
        <ele>746.6</ele>
        <time>2013-06-23T06:55:15Z</time>
      </trkpt>
      <trkpt lat="45.41334" lon="5.66014">
        <ele>746.7</ele>
        <time>2013-06-23T06:55:18Z</time>
      </trkpt>
      <trkpt lat="45.41342" lon="5.66009">
        <ele>746.9</ele>
        <time>2013-06-23T06:55:21Z</time>
      </trkpt>
      <trkpt lat="45.41349" lon="5.66004">
        <ele>747.2</ele>
        <time>2013-06-23T06:55:24Z</time>
      </trkpt>
      <trkpt lat="45.41356" lon="5.65999">
        <ele>747.2</ele>
        <time>2013-06-23T06:55:27Z</time>
      </trkpt>
      <trkpt lat="45.41363" lon="5.65993">
        <ele>747.6</ele>
        <time>2013-06-23T06:55:30Z</time>
      </trkpt>
      <trkpt lat="45.41371" lon="5.65987">
        <ele>748.7</ele>
        <time>2013-06-23T06:55:34Z</time>
      </trkpt>
      <trkpt lat="45.41379" lon="5.65982">
        <ele>750</ele>
        <time>2013-06-23T06:55:40Z</time>
      </trkpt>
      <trkpt lat="45.41387" lon="5.65979">
        <ele>750.2</ele>
        <time>2013-06-23T06:55:44Z</time>
      </trkpt>
      <trkpt lat="45.41394" lon="5.65974">
        <ele>750.5</ele>
        <time>2013-06-23T06:55:47Z</time>
      </trkpt>
      <trkpt lat="45.414" lon="5.6597">
        <ele>751.3</ele>
        <time>2013-06-23T06:55:50Z</time>
      </trkpt>
      <trkpt lat="45.41407" lon="5.65963">
        <ele>752</ele>
        <time>2013-06-23T06:55:53Z</time>
      </trkpt>
      <trkpt lat="45.41414" lon="5.65956">
        <ele>752.3</ele>
        <time>2013-06-23T06:55:56Z</time>
      </trkpt>
      <trkpt lat="45.41417" lon="5.65948">
        <ele>752.6</ele>
        <time>2013-06-23T06:55:58Z</time>
      </trkpt>
      <trkpt lat="45.41421" lon="5.65941">
        <ele>752.2</ele>
        <time>2013-06-23T06:56:00Z</time>
      </trkpt>
      <trkpt lat="45.41424" lon="5.65933">
        <ele>752</ele>
        <time>2013-06-23T06:56:02Z</time>
      </trkpt>
      <trkpt lat="45.41428" lon="5.65921">
        <ele>752.8</ele>
        <time>2013-06-23T06:56:05Z</time>
      </trkpt>
      <trkpt lat="45.41431" lon="5.65911">
        <ele>751.6</ele>
        <time>2013-06-23T06:56:08Z</time>
      </trkpt>
      <trkpt lat="45.41432" lon="5.65907">
        <ele>752.5</ele>
        <time>2013-06-23T06:56:09Z</time>
      </trkpt>
      <trkpt lat="45.41436" lon="5.65888">
        <ele>752.9</ele>
        <time>2013-06-23T06:56:14Z</time>
      </trkpt>
      <trkpt lat="45.41439" lon="5.65878">
        <ele>753.6</ele>
        <time>2013-06-23T06:56:17Z</time>
      </trkpt>
      <trkpt lat="45.41444" lon="5.65869">
        <ele>754.2</ele>
        <time>2013-06-23T06:56:21Z</time>
      </trkpt>
      <trkpt lat="45.41449" lon="5.65861">
        <ele>755.7</ele>
        <time>2013-06-23T06:56:25Z</time>
      </trkpt>
      <trkpt lat="45.41454" lon="5.65854">
        <ele>757.1</ele>
        <time>2013-06-23T06:56:29Z</time>
      </trkpt>
      <trkpt lat="45.41461" lon="5.65846">
        <ele>756.4</ele>
        <time>2013-06-23T06:56:34Z</time>
      </trkpt>
      <trkpt lat="45.41468" lon="5.65839">
        <ele>758.6</ele>
        <time>2013-06-23T06:56:39Z</time>
      </trkpt>
      <trkpt lat="45.41476" lon="5.65835">
        <ele>757.5</ele>
        <time>2013-06-23T06:56:43Z</time>
      </trkpt>
      <trkpt lat="45.41484" lon="5.6583">
        <ele>759.3</ele>
        <time>2013-06-23T06:56:47Z</time>
      </trkpt>
      <trkpt lat="45.41492" lon="5.65826">
        <ele>759.1</ele>
        <time>2013-06-23T06:56:51Z</time>
      </trkpt>
      <trkpt lat="45.415" lon="5.65824">
        <ele>760</ele>
        <time>2013-06-23T06:56:55Z</time>
      </trkpt>
      <trkpt lat="45.41508" lon="5.65825">
        <ele>761.5</ele>
        <time>2013-06-23T06:56:59Z</time>
      </trkpt>
      <trkpt lat="45.41517" lon="5.65827">
        <ele>761.5</ele>
        <time>2013-06-23T06:57:03Z</time>
      </trkpt>
      <trkpt lat="45.41524" lon="5.65833">
        <ele>761.4</ele>
        <time>2013-06-23T06:57:07Z</time>
      </trkpt>
      <trkpt lat="45.41531" lon="5.65839">
        <ele>762</ele>
        <time>2013-06-23T06:57:11Z</time>
      </trkpt>
      <trkpt lat="45.41533" lon="5.65841">
        <ele>762.2</ele>
        <time>2013-06-23T06:57:12Z</time>
      </trkpt>
      <trkpt lat="45.41545" lon="5.65851">
        <ele>763.2</ele>
        <time>2013-06-23T06:57:19Z</time>
      </trkpt>
      <trkpt lat="45.41552" lon="5.65855">
        <ele>764.3</ele>
        <time>2013-06-23T06:57:23Z</time>
      </trkpt>
      <trkpt lat="45.4156" lon="5.65857">
        <ele>763.6</ele>
        <time>2013-06-23T06:57:27Z</time>
      </trkpt>
      <trkpt lat="45.41568" lon="5.65858">
        <ele>764</ele>
        <time>2013-06-23T06:57:31Z</time>
      </trkpt>
      <trkpt lat="45.41577" lon="5.65859">
        <ele>764.6</ele>
        <time>2013-06-23T06:57:35Z</time>
      </trkpt>
      <trkpt lat="45.41585" lon="5.65858">
        <ele>765.4</ele>
        <time>2013-06-23T06:57:39Z</time>
      </trkpt>
      <trkpt lat="45.41593" lon="5.65857">
        <ele>765.8</ele>
        <time>2013-06-23T06:57:43Z</time>
      </trkpt>
      <trkpt lat="45.41601" lon="5.65856">
        <ele>765.9</ele>
        <time>2013-06-23T06:57:47Z</time>
      </trkpt>
      <trkpt lat="45.41609" lon="5.65856">
        <ele>767.2</ele>
        <time>2013-06-23T06:57:51Z</time>
      </trkpt>
      <trkpt lat="45.41618" lon="5.65857">
        <ele>766.9</ele>
        <time>2013-06-23T06:57:55Z</time>
      </trkpt>
      <trkpt lat="45.41626" lon="5.65857">
        <ele>767.7</ele>
        <time>2013-06-23T06:57:59Z</time>
      </trkpt>
      <trkpt lat="45.41634" lon="5.65858">
        <ele>768.7</ele>
        <time>2013-06-23T06:58:03Z</time>
      </trkpt>
      <trkpt lat="45.41642" lon="5.6586">
        <ele>767.9</ele>
        <time>2013-06-23T06:58:08Z</time>
      </trkpt>
      <trkpt lat="45.41651" lon="5.65863">
        <ele>768.6</ele>
        <time>2013-06-23T06:58:13Z</time>
      </trkpt>
      <trkpt lat="45.41653" lon="5.65864">
        <ele>768.6</ele>
        <time>2013-06-23T06:58:14Z</time>
      </trkpt>
      <trkpt lat="45.41666" lon="5.65868">
        <ele>769.7</ele>
        <time>2013-06-23T06:58:21Z</time>
      </trkpt>
      <trkpt lat="45.41674" lon="5.65867">
        <ele>770.6</ele>
        <time>2013-06-23T06:58:25Z</time>
      </trkpt>
      <trkpt lat="45.41682" lon="5.65866">
        <ele>771.8</ele>
        <time>2013-06-23T06:58:29Z</time>
      </trkpt>
      <trkpt lat="45.4169" lon="5.65862">
        <ele>773.2</ele>
        <time>2013-06-23T06:58:33Z</time>
      </trkpt>
      <trkpt lat="45.41698" lon="5.65858">
        <ele>772.6</ele>
        <time>2013-06-23T06:58:37Z</time>
      </trkpt>
      <trkpt lat="45.41705" lon="5.65854">
        <ele>773.1</ele>
        <time>2013-06-23T06:58:41Z</time>
      </trkpt>
      <trkpt lat="45.41713" lon="5.65848">
        <ele>772.9</ele>
        <time>2013-06-23T06:58:46Z</time>
      </trkpt>
      <trkpt lat="45.41721" lon="5.65844">
        <ele>774.8</ele>
        <time>2013-06-23T06:58:51Z</time>
      </trkpt>
      <trkpt lat="45.41728" lon="5.6584">
        <ele>775.3</ele>
        <time>2013-06-23T06:58:56Z</time>
      </trkpt>
      <trkpt lat="45.41736" lon="5.65836">
        <ele>776.5</ele>
        <time>2013-06-23T06:59:01Z</time>
      </trkpt>
      <trkpt lat="45.41742" lon="5.65831">
        <ele>777.9</ele>
        <time>2013-06-23T06:59:06Z</time>
      </trkpt>
      <trkpt lat="45.41749" lon="5.65823">
        <ele>779.6</ele>
        <time>2013-06-23T06:59:11Z</time>
      </trkpt>
      <trkpt lat="45.41753" lon="5.65813">
        <ele>781.3</ele>
        <time>2013-06-23T06:59:16Z</time>
      </trkpt>
      <trkpt lat="45.41754" lon="5.65811">
        <ele>781.8</ele>
        <time>2013-06-23T06:59:17Z</time>
      </trkpt>
      <trkpt lat="45.4176" lon="5.65794">
        <ele>783.2</ele>
        <time>2013-06-23T06:59:26Z</time>
      </trkpt>
      <trkpt lat="45.41764" lon="5.65784">
        <ele>784.6</ele>
        <time>2013-06-23T06:59:31Z</time>
      </trkpt>
      <trkpt lat="45.41772" lon="5.65779">
        <ele>785.6</ele>
        <time>2013-06-23T06:59:37Z</time>
      </trkpt>
      <trkpt lat="45.4178" lon="5.65781">
        <ele>792.4</ele>
        <time>2013-06-23T07:00:09Z</time>
      </trkpt>
      <trkpt lat="45.41788" lon="5.65784">
        <ele>792.8</ele>
        <time>2013-06-23T07:00:11Z</time>
      </trkpt>
      <trkpt lat="45.41795" lon="5.65787">
        <ele>793.2</ele>
        <time>2013-06-23T07:00:13Z</time>
      </trkpt>
      <trkpt lat="45.41801" lon="5.65789">
        <ele>793.4</ele>
        <time>2013-06-23T07:00:15Z</time>
      </trkpt>
      <trkpt lat="45.41807" lon="5.6579">
        <ele>797</ele>
        <time>2013-06-23T07:00:28Z</time>
      </trkpt>
      <trkpt lat="45.41811" lon="5.6579">
        <ele>797.1</ele>
        <time>2013-06-23T07:00:29Z</time>
      </trkpt>
      <trkpt lat="45.41822" lon="5.65787">
        <ele>797.9</ele>
        <time>2013-06-23T07:00:40Z</time>
      </trkpt>
      <trkpt lat="45.41829" lon="5.65784">
        <ele>798.1</ele>
        <time>2013-06-23T07:00:42Z</time>
      </trkpt>
      <trkpt lat="45.41836" lon="5.65781">
        <ele>798.5</ele>
        <time>2013-06-23T07:00:44Z</time>
      </trkpt>
      <trkpt lat="45.41842" lon="5.65779">
        <ele>799.1</ele>
        <time>2013-06-23T07:00:46Z</time>
      </trkpt>
      <trkpt lat="45.41849" lon="5.65775">
        <ele>798.6</ele>
        <time>2013-06-23T07:00:49Z</time>
      </trkpt>
      <trkpt lat="45.41857" lon="5.6577">
        <ele>800</ele>
        <time>2013-06-23T07:00:52Z</time>
      </trkpt>
      <trkpt lat="45.41865" lon="5.65766">
        <ele>800.5</ele>
        <time>2013-06-23T07:00:56Z</time>
      </trkpt>
      <trkpt lat="45.41872" lon="5.65763">
        <ele>803.2</ele>
        <time>2013-06-23T07:01:19Z</time>
      </trkpt>
      <trkpt lat="45.41879" lon="5.65761">
        <ele>803.6</ele>
        <time>2013-06-23T07:01:21Z</time>
      </trkpt>
      <trkpt lat="45.41885" lon="5.6576">
        <ele>805.6</ele>
        <time>2013-06-23T07:01:29Z</time>
      </trkpt>
      <trkpt lat="45.41889" lon="5.6576">
        <ele>805.7</ele>
        <time>2013-06-23T07:01:30Z</time>
      </trkpt>
      <trkpt lat="45.419" lon="5.65758">
        <ele>806.2</ele>
        <time>2013-06-23T07:01:38Z</time>
      </trkpt>
      <trkpt lat="45.41907" lon="5.65755">
        <ele>806.5</ele>
        <time>2013-06-23T07:01:40Z</time>
      </trkpt>
      <trkpt lat="45.41915" lon="5.65753">
        <ele>808.9</ele>
        <time>2013-06-23T07:01:47Z</time>
      </trkpt>
      <trkpt lat="45.41922" lon="5.6575">
        <ele>809</ele>
        <time>2013-06-23T07:01:49Z</time>
      </trkpt>
      <trkpt lat="45.41929" lon="5.65748">
        <ele>809.1</ele>
        <time>2013-06-23T07:01:51Z</time>
      </trkpt>
      <trkpt lat="45.41935" lon="5.65746">
        <ele>809</ele>
        <time>2013-06-23T07:01:53Z</time>
      </trkpt>
      <trkpt lat="45.41944" lon="5.65745">
        <ele>809.8</ele>
        <time>2013-06-23T07:01:56Z</time>
      </trkpt>
      <trkpt lat="45.41951" lon="5.65746">
        <ele>815.8</ele>
        <time>2013-06-23T07:02:20Z</time>
      </trkpt>
      <trkpt lat="45.41958" lon="5.6575">
        <ele>816.4</ele>
        <time>2013-06-23T07:02:22Z</time>
      </trkpt>
      <trkpt lat="45.41964" lon="5.65753">
        <ele>819.4</ele>
        <time>2013-06-23T07:02:33Z</time>
      </trkpt>
      <trkpt lat="45.41968" lon="5.65755">
        <ele>819.5</ele>
        <time>2013-06-23T07:02:34Z</time>
      </trkpt>
      <trkpt lat="45.41977" lon="5.65759">
        <ele>821.9</ele>
        <time>2013-06-23T07:02:45Z</time>
      </trkpt>
      <trkpt lat="45.41984" lon="5.65764">
        <ele>821.8</ele>
        <time>2013-06-23T07:02:47Z</time>
      </trkpt>
      <trkpt lat="45.41989" lon="5.65768">
        <ele>824.4</ele>
        <time>2013-06-23T07:02:57Z</time>
      </trkpt>
      <trkpt lat="45.41996" lon="5.65774">
        <ele>824.2</ele>
        <time>2013-06-23T07:02:59Z</time>
      </trkpt>
      <trkpt lat="45.42001" lon="5.6578">
        <ele>824.1</ele>
        <time>2013-06-23T07:03:01Z</time>
      </trkpt>
      <trkpt lat="45.42007" lon="5.65786">
        <ele>824</ele>
        <time>2013-06-23T07:03:03Z</time>
      </trkpt>
      <trkpt lat="45.42011" lon="5.65792">
        <ele>824.6</ele>
        <time>2013-06-23T07:03:05Z</time>
      </trkpt>
      <trkpt lat="45.42017" lon="5.65801">
        <ele>825.3</ele>
        <time>2013-06-23T07:03:08Z</time>
      </trkpt>
      <trkpt lat="45.42023" lon="5.6581">
        <ele>825.8</ele>
        <time>2013-06-23T07:03:11Z</time>
      </trkpt>
      <trkpt lat="45.42029" lon="5.65817">
        <ele>826.3</ele>
        <time>2013-06-23T07:03:14Z</time>
      </trkpt>
      <trkpt lat="45.42034" lon="5.65824">
        <ele>826.4</ele>
        <time>2013-06-23T07:03:17Z</time>
      </trkpt>
      <trkpt lat="45.4204" lon="5.65833">
        <ele>827.6</ele>
        <time>2013-06-23T07:03:21Z</time>
      </trkpt>
      <trkpt lat="45.42046" lon="5.65841">
        <ele>827.9</ele>
        <time>2013-06-23T07:03:25Z</time>
      </trkpt>
      <trkpt lat="45.42053" lon="5.6585">
        <ele>828.4</ele>
        <time>2013-06-23T07:03:29Z</time>
      </trkpt>
      <trkpt lat="45.4206" lon="5.65858">
        <ele>828.3</ele>
        <time>2013-06-23T07:03:33Z</time>
      </trkpt>
      <trkpt lat="45.42065" lon="5.65864">
        <ele>828.2</ele>
        <time>2013-06-23T07:03:36Z</time>
      </trkpt>
      <trkpt lat="45.42066" lon="5.65866">
        <ele>828.6</ele>
        <time>2013-06-23T07:03:37Z</time>
      </trkpt>
      <trkpt lat="45.42079" lon="5.6588">
        <ele>830.2</ele>
        <time>2013-06-23T07:03:44Z</time>
      </trkpt>
      <trkpt lat="45.42085" lon="5.65884">
        <ele>830.4</ele>
        <time>2013-06-23T07:03:47Z</time>
      </trkpt>
      <trkpt lat="45.42091" lon="5.65889">
        <ele>830.7</ele>
        <time>2013-06-23T07:03:50Z</time>
      </trkpt>
      <trkpt lat="45.42097" lon="5.65893">
        <ele>831.2</ele>
        <time>2013-06-23T07:03:53Z</time>
      </trkpt>
      <trkpt lat="45.42103" lon="5.65897">
        <ele>832.1</ele>
        <time>2013-06-23T07:03:56Z</time>
      </trkpt>
      <trkpt lat="45.42111" lon="5.65902">
        <ele>832.6</ele>
        <time>2013-06-23T07:04:00Z</time>
      </trkpt>
      <trkpt lat="45.42119" lon="5.65907">
        <ele>832.8</ele>
        <time>2013-06-23T07:04:04Z</time>
      </trkpt>
      <trkpt lat="45.42125" lon="5.6591">
        <ele>833.9</ele>
        <time>2013-06-23T07:04:07Z</time>
      </trkpt>
      <trkpt lat="45.42132" lon="5.65914">
        <ele>833.9</ele>
        <time>2013-06-23T07:04:10Z</time>
      </trkpt>
      <trkpt lat="45.4214" lon="5.65918">
        <ele>834.7</ele>
        <time>2013-06-23T07:04:14Z</time>
      </trkpt>
      <trkpt lat="45.42147" lon="5.6592">
        <ele>834.8</ele>
        <time>2013-06-23T07:04:18Z</time>
      </trkpt>
      <trkpt lat="45.42155" lon="5.65925">
        <ele>836.8</ele>
        <time>2013-06-23T07:04:23Z</time>
      </trkpt>
      <trkpt lat="45.42162" lon="5.65932">
        <ele>837.8</ele>
        <time>2013-06-23T07:04:28Z</time>
      </trkpt>
      <trkpt lat="45.42169" lon="5.65939">
        <ele>838.5</ele>
        <time>2013-06-23T07:04:32Z</time>
      </trkpt>
      <trkpt lat="45.42176" lon="5.65944">
        <ele>838.4</ele>
        <time>2013-06-23T07:04:36Z</time>
      </trkpt>
      <trkpt lat="45.42184" lon="5.65943">
        <ele>838.2</ele>
        <time>2013-06-23T07:04:40Z</time>
      </trkpt>
      <trkpt lat="45.42186" lon="5.65943">
        <ele>838.1</ele>
        <time>2013-06-23T07:04:41Z</time>
      </trkpt>
      <trkpt lat="45.42199" lon="5.65934">
        <ele>838.5</ele>
        <time>2013-06-23T07:04:50Z</time>
      </trkpt>
      <trkpt lat="45.42204" lon="5.65927">
        <ele>839.6</ele>
        <time>2013-06-23T07:04:54Z</time>
      </trkpt>
      <trkpt lat="45.42208" lon="5.65918">
        <ele>839.9</ele>
        <time>2013-06-23T07:04:58Z</time>
      </trkpt>
      <trkpt lat="45.4221" lon="5.65909">
        <ele>842.2</ele>
        <time>2013-06-23T07:05:01Z</time>
      </trkpt>
      <trkpt lat="45.42209" lon="5.65896">
        <ele>842.7</ele>
        <time>2013-06-23T07:05:04Z</time>
      </trkpt>
      <trkpt lat="45.42206" lon="5.65887">
        <ele>842.6</ele>
        <time>2013-06-23T07:05:06Z</time>
      </trkpt>
      <trkpt lat="45.42202" lon="5.65876">
        <ele>842.5</ele>
        <time>2013-06-23T07:05:08Z</time>
      </trkpt>
      <trkpt lat="45.422" lon="5.6587">
        <ele>842.2</ele>
        <time>2013-06-23T07:05:09Z</time>
      </trkpt>
      <trkpt lat="45.42198" lon="5.65864">
        <ele>841.9</ele>
        <time>2013-06-23T07:05:10Z</time>
      </trkpt>
      <trkpt lat="45.42196" lon="5.65858">
        <ele>841.7</ele>
        <time>2013-06-23T07:05:11Z</time>
      </trkpt>
      <trkpt lat="45.42195" lon="5.65851">
        <ele>841.5</ele>
        <time>2013-06-23T07:05:12Z</time>
      </trkpt>
      <trkpt lat="45.42194" lon="5.65845">
        <ele>841.3</ele>
        <time>2013-06-23T07:05:13Z</time>
      </trkpt>
      <trkpt lat="45.42194" lon="5.65837">
        <ele>841.1</ele>
        <time>2013-06-23T07:05:14Z</time>
      </trkpt>
      <trkpt lat="45.42196" lon="5.65826">
        <ele>841.1</ele>
        <time>2013-06-23T07:05:16Z</time>
      </trkpt>
      <trkpt lat="45.42196" lon="5.65819">
        <ele>841.1</ele>
        <time>2013-06-23T07:05:17Z</time>
      </trkpt>
      <trkpt lat="45.42196" lon="5.6581">
        <ele>840.5</ele>
        <time>2013-06-23T07:05:18Z</time>
      </trkpt>
      <trkpt lat="45.42196" lon="5.65802">
        <ele>840.1</ele>
        <time>2013-06-23T07:05:19Z</time>
      </trkpt>
      <trkpt lat="45.42195" lon="5.65795">
        <ele>839.8</ele>
        <time>2013-06-23T07:05:20Z</time>
      </trkpt>
      <trkpt lat="45.42193" lon="5.65788">
        <ele>839.5</ele>
        <time>2013-06-23T07:05:21Z</time>
      </trkpt>
      <trkpt lat="45.42193" lon="5.65781">
        <ele>839.3</ele>
        <time>2013-06-23T07:05:22Z</time>
      </trkpt>
      <trkpt lat="45.42193" lon="5.65769">
        <ele>839.1</ele>
        <time>2013-06-23T07:05:24Z</time>
      </trkpt>
      <trkpt lat="45.42193" lon="5.65763">
        <ele>838.8</ele>
        <time>2013-06-23T07:05:25Z</time>
      </trkpt>
      <trkpt lat="45.42193" lon="5.65756">
        <ele>838.6</ele>
        <time>2013-06-23T07:05:26Z</time>
      </trkpt>
      <trkpt lat="45.42192" lon="5.65749">
        <ele>838.4</ele>
        <time>2013-06-23T07:05:27Z</time>
      </trkpt>
      <trkpt lat="45.42192" lon="5.65741">
        <ele>838.3</ele>
        <time>2013-06-23T07:05:28Z</time>
      </trkpt>
      <trkpt lat="45.42191" lon="5.65734">
        <ele>838.1</ele>
        <time>2013-06-23T07:05:29Z</time>
      </trkpt>
      <trkpt lat="45.4219" lon="5.65727">
        <ele>838</ele>
        <time>2013-06-23T07:05:30Z</time>
      </trkpt>
      <trkpt lat="45.42189" lon="5.65719">
        <ele>838.3</ele>
        <time>2013-06-23T07:05:31Z</time>
      </trkpt>
      <trkpt lat="45.42188" lon="5.65712">
        <ele>838.4</ele>
        <time>2013-06-23T07:05:32Z</time>
      </trkpt>
      <trkpt lat="45.42187" lon="5.65699">
        <ele>838.8</ele>
        <time>2013-06-23T07:05:34Z</time>
      </trkpt>
      <trkpt lat="45.42187" lon="5.65687">
        <ele>839.2</ele>
        <time>2013-06-23T07:05:36Z</time>
      </trkpt>
      <trkpt lat="45.42188" lon="5.65676">
        <ele>839.6</ele>
        <time>2013-06-23T07:05:38Z</time>
      </trkpt>
      <trkpt lat="45.4219" lon="5.65665">
        <ele>839.9</ele>
        <time>2013-06-23T07:05:40Z</time>
      </trkpt>
      <trkpt lat="45.42191" lon="5.65655">
        <ele>840.1</ele>
        <time>2013-06-23T07:05:42Z</time>
      </trkpt>
      <trkpt lat="45.42192" lon="5.65651">
        <ele>840.2</ele>
        <time>2013-06-23T07:05:43Z</time>
      </trkpt>
      <trkpt lat="45.42196" lon="5.65634">
        <ele>841.3</ele>
        <time>2013-06-23T07:05:48Z</time>
      </trkpt>
      <trkpt lat="45.42199" lon="5.65624">
        <ele>841.5</ele>
        <time>2013-06-23T07:05:52Z</time>
      </trkpt>
      <trkpt lat="45.42205" lon="5.65617">
        <ele>842.7</ele>
        <time>2013-06-23T07:05:57Z</time>
      </trkpt>
      <trkpt lat="45.42213" lon="5.65617">
        <ele>842.9</ele>
        <time>2013-06-23T07:06:02Z</time>
      </trkpt>
      <trkpt lat="45.4222" lon="5.65623">
        <ele>844.5</ele>
        <time>2013-06-23T07:06:08Z</time>
      </trkpt>
      <trkpt lat="45.42227" lon="5.65628">
        <ele>844.9</ele>
        <time>2013-06-23T07:06:13Z</time>
      </trkpt>
      <trkpt lat="45.42234" lon="5.65634">
        <ele>847</ele>
        <time>2013-06-23T07:06:18Z</time>
      </trkpt>
      <trkpt lat="45.42241" lon="5.65639">
        <ele>846.7</ele>
        <time>2013-06-23T07:06:23Z</time>
      </trkpt>
      <trkpt lat="45.42248" lon="5.65644">
        <ele>848</ele>
        <time>2013-06-23T07:06:28Z</time>
      </trkpt>
      <trkpt lat="45.42255" lon="5.65649">
        <ele>851.3</ele>
        <time>2013-06-23T07:06:55Z</time>
      </trkpt>
      <trkpt lat="45.42258" lon="5.65651">
        <ele>851.4</ele>
        <time>2013-06-23T07:06:56Z</time>
      </trkpt>
      <trkpt lat="45.42268" lon="5.65659">
        <ele>852.5</ele>
        <time>2013-06-23T07:06:59Z</time>
      </trkpt>
      <trkpt lat="45.42274" lon="5.65664">
        <ele>855.7</ele>
        <time>2013-06-23T07:07:10Z</time>
      </trkpt>
      <trkpt lat="45.4228" lon="5.6567">
        <ele>855.7</ele>
        <time>2013-06-23T07:07:12Z</time>
      </trkpt>
      <trkpt lat="45.42286" lon="5.65676">
        <ele>858.3</ele>
        <time>2013-06-23T07:07:22Z</time>
      </trkpt>
      <trkpt lat="45.42291" lon="5.65682">
        <ele>858.4</ele>
        <time>2013-06-23T07:07:24Z</time>
      </trkpt>
      <trkpt lat="45.42297" lon="5.65689">
        <ele>862.6</ele>
        <time>2013-06-23T07:07:34Z</time>
      </trkpt>
      <trkpt lat="45.42302" lon="5.65697">
        <ele>863.2</ele>
        <time>2013-06-23T07:07:36Z</time>
      </trkpt>
      <trkpt lat="45.42307" lon="5.65704">
        <ele>863.5</ele>
        <time>2013-06-23T07:07:38Z</time>
      </trkpt>
      <trkpt lat="45.42311" lon="5.6571">
        <ele>863.6</ele>
        <time>2013-06-23T07:07:40Z</time>
      </trkpt>
      <trkpt lat="45.42317" lon="5.65719">
        <ele>863.7</ele>
        <time>2013-06-23T07:07:43Z</time>
      </trkpt>
      <trkpt lat="45.42322" lon="5.65727">
        <ele>864.2</ele>
        <time>2013-06-23T07:07:46Z</time>
      </trkpt>
      <trkpt lat="45.42327" lon="5.65736">
        <ele>863.5</ele>
        <time>2013-06-23T07:07:50Z</time>
      </trkpt>
      <trkpt lat="45.42331" lon="5.65746">
        <ele>864.6</ele>
        <time>2013-06-23T07:07:54Z</time>
      </trkpt>
      <trkpt lat="45.42336" lon="5.65752">
        <ele>868.3</ele>
        <time>2013-06-23T07:08:21Z</time>
      </trkpt>
      <trkpt lat="45.4234" lon="5.65753">
        <ele>868.6</ele>
        <time>2013-06-23T07:08:22Z</time>
      </trkpt>
      <trkpt lat="45.4235" lon="5.65757">
        <ele>870.4</ele>
        <time>2013-06-23T07:08:33Z</time>
      </trkpt>
      <trkpt lat="45.42356" lon="5.65759">
        <ele>871.3</ele>
        <time>2013-06-23T07:08:35Z</time>
      </trkpt>
      <trkpt lat="45.42363" lon="5.65762">
        <ele>873.9</ele>
        <time>2013-06-23T07:08:44Z</time>
      </trkpt>
      <trkpt lat="45.4237" lon="5.65766">
        <ele>874.4</ele>
        <time>2013-06-23T07:08:46Z</time>
      </trkpt>
      <trkpt lat="45.42375" lon="5.6577">
        <ele>875</ele>
        <time>2013-06-23T07:08:48Z</time>
      </trkpt>
      <trkpt lat="45.42382" lon="5.65778">
        <ele>874.6</ele>
        <time>2013-06-23T07:08:51Z</time>
      </trkpt>
      <trkpt lat="45.42388" lon="5.65785">
        <ele>875.7</ele>
        <time>2013-06-23T07:08:54Z</time>
      </trkpt>
      <trkpt lat="45.42395" lon="5.65791">
        <ele>874.9</ele>
        <time>2013-06-23T07:08:57Z</time>
      </trkpt>
      <trkpt lat="45.42401" lon="5.65798">
        <ele>873.8</ele>
        <time>2013-06-23T07:09:01Z</time>
      </trkpt>
      <trkpt lat="45.42406" lon="5.65808">
        <ele>874.2</ele>
        <time>2013-06-23T07:09:06Z</time>
      </trkpt>
      <trkpt lat="45.4241" lon="5.65817">
        <ele>874.8</ele>
        <time>2013-06-23T07:09:10Z</time>
      </trkpt>
      <trkpt lat="45.42415" lon="5.65827">
        <ele>876.7</ele>
        <time>2013-06-23T07:09:15Z</time>
      </trkpt>
      <trkpt lat="45.42422" lon="5.65832">
        <ele>877.4</ele>
        <time>2013-06-23T07:09:35Z</time>
      </trkpt>
      <trkpt lat="45.42424" lon="5.65836">
        <ele>877.3</ele>
        <time>2013-06-23T07:09:36Z</time>
      </trkpt>
      <trkpt lat="45.42431" lon="5.65851">
        <ele>878</ele>
        <time>2013-06-23T07:09:41Z</time>
      </trkpt>
      <trkpt lat="45.42435" lon="5.65858">
        <ele>878.1</ele>
        <time>2013-06-23T07:09:44Z</time>
      </trkpt>
      <trkpt lat="45.4244" lon="5.65866">
        <ele>878.6</ele>
        <time>2013-06-23T07:09:47Z</time>
      </trkpt>
      <trkpt lat="45.42446" lon="5.65876">
        <ele>879</ele>
        <time>2013-06-23T07:09:50Z</time>
      </trkpt>
      <trkpt lat="45.42449" lon="5.65885">
        <ele>879.4</ele>
        <time>2013-06-23T07:09:53Z</time>
      </trkpt>
      <trkpt lat="45.42454" lon="5.65894">
        <ele>879.6</ele>
        <time>2013-06-23T07:09:56Z</time>
      </trkpt>
      <trkpt lat="45.42459" lon="5.65903">
        <ele>879</ele>
        <time>2013-06-23T07:09:59Z</time>
      </trkpt>
      <trkpt lat="45.42466" lon="5.6591">
        <ele>878.9</ele>
        <time>2013-06-23T07:10:02Z</time>
      </trkpt>
      <trkpt lat="45.42474" lon="5.65915">
        <ele>879.1</ele>
        <time>2013-06-23T07:10:05Z</time>
      </trkpt>
      <trkpt lat="45.42482" lon="5.65917">
        <ele>879.8</ele>
        <time>2013-06-23T07:10:08Z</time>
      </trkpt>
      <trkpt lat="45.42488" lon="5.65924">
        <ele>879.4</ele>
        <time>2013-06-23T07:10:11Z</time>
      </trkpt>
      <trkpt lat="45.42495" lon="5.65932">
        <ele>879.7</ele>
        <time>2013-06-23T07:10:14Z</time>
      </trkpt>
      <trkpt lat="45.42501" lon="5.65939">
        <ele>879.3</ele>
        <time>2013-06-23T07:10:18Z</time>
      </trkpt>
      <trkpt lat="45.42509" lon="5.65945">
        <ele>880.6</ele>
        <time>2013-06-23T07:10:22Z</time>
      </trkpt>
      <trkpt lat="45.42516" lon="5.65951">
        <ele>880.7</ele>
        <time>2013-06-23T07:10:26Z</time>
      </trkpt>
      <trkpt lat="45.42521" lon="5.65961">
        <ele>880.1</ele>
        <time>2013-06-23T07:10:31Z</time>
      </trkpt>
      <trkpt lat="45.42525" lon="5.65972">
        <ele>880.6</ele>
        <time>2013-06-23T07:10:35Z</time>
      </trkpt>
      <trkpt lat="45.4253" lon="5.6598">
        <ele>879.7</ele>
        <time>2013-06-23T07:10:38Z</time>
      </trkpt>
      <trkpt lat="45.42532" lon="5.65983">
        <ele>879.4</ele>
        <time>2013-06-23T07:10:39Z</time>
      </trkpt>
      <trkpt lat="45.42546" lon="5.65985">
        <ele>878.7</ele>
        <time>2013-06-23T07:10:46Z</time>
      </trkpt>
      <trkpt lat="45.42552" lon="5.65995">
        <ele>878.5</ele>
        <time>2013-06-23T07:10:52Z</time>
      </trkpt>
      <trkpt lat="45.42559" lon="5.66002">
        <ele>877.4</ele>
        <time>2013-06-23T07:10:56Z</time>
      </trkpt>
      <trkpt lat="45.42565" lon="5.66011">
        <ele>878.7</ele>
        <time>2013-06-23T07:11:00Z</time>
      </trkpt>
      <trkpt lat="45.4257" lon="5.66017">
        <ele>879.5</ele>
        <time>2013-06-23T07:11:03Z</time>
      </trkpt>
      <trkpt lat="45.42577" lon="5.66024">
        <ele>878.9</ele>
        <time>2013-06-23T07:11:07Z</time>
      </trkpt>
      <trkpt lat="45.42584" lon="5.66031">
        <ele>879.4</ele>
        <time>2013-06-23T07:11:10Z</time>
      </trkpt>
      <trkpt lat="45.42589" lon="5.66037">
        <ele>879.7</ele>
        <time>2013-06-23T07:11:13Z</time>
      </trkpt>
      <trkpt lat="45.42597" lon="5.66041">
        <ele>880.9</ele>
        <time>2013-06-23T07:11:17Z</time>
      </trkpt>
      <trkpt lat="45.42602" lon="5.66049">
        <ele>882.1</ele>
        <time>2013-06-23T07:11:21Z</time>
      </trkpt>
      <trkpt lat="45.42609" lon="5.66057">
        <ele>881</ele>
        <time>2013-06-23T07:11:28Z</time>
      </trkpt>
      <trkpt lat="45.42615" lon="5.66063">
        <ele>882.7</ele>
        <time>2013-06-23T07:11:32Z</time>
      </trkpt>
      <trkpt lat="45.42619" lon="5.66072">
        <ele>883.5</ele>
        <time>2013-06-23T07:11:36Z</time>
      </trkpt>
      <trkpt lat="45.42624" lon="5.66082">
        <ele>885.1</ele>
        <time>2013-06-23T07:11:41Z</time>
      </trkpt>
      <trkpt lat="45.42625" lon="5.66084">
        <ele>885.5</ele>
        <time>2013-06-23T07:11:42Z</time>
      </trkpt>
      <trkpt lat="45.42621" lon="5.66106">
        <ele>884.5</ele>
        <time>2013-06-23T07:11:52Z</time>
      </trkpt>
      <trkpt lat="45.42617" lon="5.66117">
        <ele>885.1</ele>
        <time>2013-06-23T07:11:55Z</time>
      </trkpt>
      <trkpt lat="45.42615" lon="5.66128">
        <ele>883.6</ele>
        <time>2013-06-23T07:11:58Z</time>
      </trkpt>
      <trkpt lat="45.42612" lon="5.66136">
        <ele>882.2</ele>
        <time>2013-06-23T07:12:00Z</time>
      </trkpt>
      <trkpt lat="45.4261" lon="5.66141">
        <ele>881.6</ele>
        <time>2013-06-23T07:12:01Z</time>
      </trkpt>
      <trkpt lat="45.42607" lon="5.66146">
        <ele>881.1</ele>
        <time>2013-06-23T07:12:02Z</time>
      </trkpt>
      <trkpt lat="45.42603" lon="5.66152">
        <ele>880.8</ele>
        <time>2013-06-23T07:12:03Z</time>
      </trkpt>
      <trkpt lat="45.42598" lon="5.6616">
        <ele>881.4</ele>
        <time>2013-06-23T07:12:05Z</time>
      </trkpt>
      <trkpt lat="45.42595" lon="5.6617">
        <ele>880.8</ele>
        <time>2013-06-23T07:12:08Z</time>
      </trkpt>
      <trkpt lat="45.42589" lon="5.66177">
        <ele>880.4</ele>
        <time>2013-06-23T07:12:11Z</time>
      </trkpt>
      <trkpt lat="45.42584" lon="5.66182">
        <ele>879.9</ele>
        <time>2013-06-23T07:12:13Z</time>
      </trkpt>
      <trkpt lat="45.42581" lon="5.66191">
        <ele>879.4</ele>
        <time>2013-06-23T07:12:15Z</time>
      </trkpt>
      <trkpt lat="45.4258" lon="5.662">
        <ele>877.6</ele>
        <time>2013-06-23T07:12:17Z</time>
      </trkpt>
      <trkpt lat="45.42577" lon="5.66212">
        <ele>876.2</ele>
        <time>2013-06-23T07:12:20Z</time>
      </trkpt>
      <trkpt lat="45.42576" lon="5.66223">
        <ele>875.3</ele>
        <time>2013-06-23T07:12:24Z</time>
      </trkpt>
      <trkpt lat="45.42575" lon="5.66235">
        <ele>874</ele>
        <time>2013-06-23T07:12:28Z</time>
      </trkpt>
      <trkpt lat="45.42575" lon="5.66246">
        <ele>871.8</ele>
        <time>2013-06-23T07:12:35Z</time>
      </trkpt>
      <trkpt lat="45.42578" lon="5.66257">
        <ele>870.9</ele>
        <time>2013-06-23T07:12:39Z</time>
      </trkpt>
      <trkpt lat="45.4258" lon="5.66267">
        <ele>869.5</ele>
        <time>2013-06-23T07:12:42Z</time>
      </trkpt>
      <trkpt lat="45.42582" lon="5.66271">
        <ele>869.1</ele>
        <time>2013-06-23T07:12:43Z</time>
      </trkpt>
      <trkpt lat="45.42589" lon="5.66282">
        <ele>868.8</ele>
        <time>2013-06-23T07:12:47Z</time>
      </trkpt>
      <trkpt lat="45.42594" lon="5.6629">
        <ele>868.3</ele>
        <time>2013-06-23T07:12:49Z</time>
      </trkpt>
      <trkpt lat="45.42597" lon="5.66295">
        <ele>868.1</ele>
        <time>2013-06-23T07:12:50Z</time>
      </trkpt>
      <trkpt lat="45.42602" lon="5.663">
        <ele>868</ele>
        <time>2013-06-23T07:12:51Z</time>
      </trkpt>
      <trkpt lat="45.42607" lon="5.66304">
        <ele>867.3</ele>
        <time>2013-06-23T07:12:52Z</time>
      </trkpt>
      <trkpt lat="45.42611" lon="5.66308">
        <ele>866.8</ele>
        <time>2013-06-23T07:12:53Z</time>
      </trkpt>
      <trkpt lat="45.42615" lon="5.66312">
        <ele>866.4</ele>
        <time>2013-06-23T07:12:54Z</time>
      </trkpt>
      <trkpt lat="45.42622" lon="5.66318">
        <ele>863.5</ele>
        <time>2013-06-23T07:12:56Z</time>
      </trkpt>
      <trkpt lat="45.42627" lon="5.66321">
        <ele>862.6</ele>
        <time>2013-06-23T07:12:57Z</time>
      </trkpt>
      <trkpt lat="45.42635" lon="5.66325">
        <ele>861.8</ele>
        <time>2013-06-23T07:12:59Z</time>
      </trkpt>
      <trkpt lat="45.42642" lon="5.66328">
        <ele>860.8</ele>
        <time>2013-06-23T07:13:01Z</time>
      </trkpt>
      <trkpt lat="45.42647" lon="5.6633">
        <ele>860.2</ele>
        <time>2013-06-23T07:13:02Z</time>
      </trkpt>
      <trkpt lat="45.42652" lon="5.66333">
        <ele>859.7</ele>
        <time>2013-06-23T07:13:03Z</time>
      </trkpt>
      <trkpt lat="45.42658" lon="5.66336">
        <ele>858.3</ele>
        <time>2013-06-23T07:13:04Z</time>
      </trkpt>
      <trkpt lat="45.42664" lon="5.66339">
        <ele>857.2</ele>
        <time>2013-06-23T07:13:05Z</time>
      </trkpt>
      <trkpt lat="45.4267" lon="5.66343">
        <ele>856.4</ele>
        <time>2013-06-23T07:13:06Z</time>
      </trkpt>
      <trkpt lat="45.42676" lon="5.66347">
        <ele>855.8</ele>
        <time>2013-06-23T07:13:07Z</time>
      </trkpt>
      <trkpt lat="45.42681" lon="5.66352">
        <ele>854.4</ele>
        <time>2013-06-23T07:13:08Z</time>
      </trkpt>
      <trkpt lat="45.42686" lon="5.66356">
        <ele>853.4</ele>
        <time>2013-06-23T07:13:09Z</time>
      </trkpt>
      <trkpt lat="45.42691" lon="5.66361">
        <ele>852.6</ele>
        <time>2013-06-23T07:13:10Z</time>
      </trkpt>
      <trkpt lat="45.42697" lon="5.66366">
        <ele>851.6</ele>
        <time>2013-06-23T07:13:11Z</time>
      </trkpt>
      <trkpt lat="45.42703" lon="5.6637">
        <ele>850.9</ele>
        <time>2013-06-23T07:13:12Z</time>
      </trkpt>
      <trkpt lat="45.42708" lon="5.66374">
        <ele>850.3</ele>
        <time>2013-06-23T07:13:13Z</time>
      </trkpt>
      <trkpt lat="45.42713" lon="5.66377">
        <ele>849.6</ele>
        <time>2013-06-23T07:13:14Z</time>
      </trkpt>
      <trkpt lat="45.42718" lon="5.66379">
        <ele>849</ele>
        <time>2013-06-23T07:13:15Z</time>
      </trkpt>
      <trkpt lat="45.42724" lon="5.6638">
        <ele>848.6</ele>
        <time>2013-06-23T07:13:16Z</time>
      </trkpt>
      <trkpt lat="45.42732" lon="5.6638">
        <ele>846.3</ele>
        <time>2013-06-23T07:13:18Z</time>
      </trkpt>
      <trkpt lat="45.42739" lon="5.66388">
        <ele>846.9</ele>
        <time>2013-06-23T07:13:51Z</time>
      </trkpt>
      <trkpt lat="45.42739" lon="5.66392">
        <ele>848.1</ele>
        <time>2013-06-23T07:13:52Z</time>
      </trkpt>
      <trkpt lat="45.42739" lon="5.6641">
        <ele>851.1</ele>
        <time>2013-06-23T07:14:02Z</time>
      </trkpt>
      <trkpt lat="45.42739" lon="5.66419">
        <ele>852.7</ele>
        <time>2013-06-23T07:14:11Z</time>
      </trkpt>
      <trkpt lat="45.42739" lon="5.66428">
        <ele>853.2</ele>
        <time>2013-06-23T07:14:13Z</time>
      </trkpt>
      <trkpt lat="45.42738" lon="5.66436">
        <ele>856</ele>
        <time>2013-06-23T07:14:25Z</time>
      </trkpt>
      <trkpt lat="45.42739" lon="5.66447">
        <ele>856.7</ele>
        <time>2013-06-23T07:14:27Z</time>
      </trkpt>
      <trkpt lat="45.42741" lon="5.66457">
        <ele>857.2</ele>
        <time>2013-06-23T07:14:29Z</time>
      </trkpt>
      <trkpt lat="45.42742" lon="5.66466">
        <ele>857.6</ele>
        <time>2013-06-23T07:14:31Z</time>
      </trkpt>
      <trkpt lat="45.42745" lon="5.66477">
        <ele>857.6</ele>
        <time>2013-06-23T07:14:34Z</time>
      </trkpt>
      <trkpt lat="45.42747" lon="5.66487">
        <ele>857.1</ele>
        <time>2013-06-23T07:14:37Z</time>
      </trkpt>
      <trkpt lat="45.42749" lon="5.66498">
        <ele>857.1</ele>
        <time>2013-06-23T07:14:40Z</time>
      </trkpt>
      <trkpt lat="45.42752" lon="5.66509">
        <ele>858.5</ele>
        <time>2013-06-23T07:14:44Z</time>
      </trkpt>
      <trkpt lat="45.42754" lon="5.66522">
        <ele>858.5</ele>
        <time>2013-06-23T07:14:48Z</time>
      </trkpt>
      <trkpt lat="45.42757" lon="5.66533">
        <ele>857.7</ele>
        <time>2013-06-23T07:14:52Z</time>
      </trkpt>
      <trkpt lat="45.42758" lon="5.66545">
        <ele>858.5</ele>
        <time>2013-06-23T07:14:56Z</time>
      </trkpt>
      <trkpt lat="45.42758" lon="5.66548">
        <ele>858.6</ele>
        <time>2013-06-23T07:14:57Z</time>
      </trkpt>
      <trkpt lat="45.42761" lon="5.66568">
        <ele>858.3</ele>
        <time>2013-06-23T07:15:04Z</time>
      </trkpt>
      <trkpt lat="45.42762" lon="5.66579">
        <ele>858.2</ele>
        <time>2013-06-23T07:15:08Z</time>
      </trkpt>
      <trkpt lat="45.42763" lon="5.66591">
        <ele>859.9</ele>
        <time>2013-06-23T07:15:13Z</time>
      </trkpt>
      <trkpt lat="45.42764" lon="5.66604">
        <ele>861.1</ele>
        <time>2013-06-23T07:15:18Z</time>
      </trkpt>
      <trkpt lat="45.42765" lon="5.66616">
        <ele>861.8</ele>
        <time>2013-06-23T07:15:23Z</time>
      </trkpt>
      <trkpt lat="45.42768" lon="5.66626">
        <ele>862.7</ele>
        <time>2013-06-23T07:15:27Z</time>
      </trkpt>
      <trkpt lat="45.42771" lon="5.66637">
        <ele>862.6</ele>
        <time>2013-06-23T07:15:31Z</time>
      </trkpt>
      <trkpt lat="45.42774" lon="5.66646">
        <ele>863</ele>
        <time>2013-06-23T07:15:35Z</time>
      </trkpt>
      <trkpt lat="45.42779" lon="5.66655">
        <ele>862.7</ele>
        <time>2013-06-23T07:15:39Z</time>
      </trkpt>
      <trkpt lat="45.42785" lon="5.66662">
        <ele>862.4</ele>
        <time>2013-06-23T07:15:43Z</time>
      </trkpt>
      <trkpt lat="45.42787" lon="5.66671">
        <ele>862.8</ele>
        <time>2013-06-23T07:15:46Z</time>
      </trkpt>
      <trkpt lat="45.42788" lon="5.66681">
        <ele>863.2</ele>
        <time>2013-06-23T07:15:49Z</time>
      </trkpt>
      <trkpt lat="45.42792" lon="5.66691">
        <ele>863.3</ele>
        <time>2013-06-23T07:15:52Z</time>
      </trkpt>
      <trkpt lat="45.42796" lon="5.66702">
        <ele>862.3</ele>
        <time>2013-06-23T07:15:54Z</time>
      </trkpt>
      <trkpt lat="45.42798" lon="5.66709">
        <ele>862</ele>
        <time>2013-06-23T07:15:55Z</time>
      </trkpt>
      <trkpt lat="45.42801" lon="5.66717">
        <ele>861.8</ele>
        <time>2013-06-23T07:15:56Z</time>
      </trkpt>
      <trkpt lat="45.42803" lon="5.66726">
        <ele>861.6</ele>
        <time>2013-06-23T07:15:57Z</time>
      </trkpt>
      <trkpt lat="45.42806" lon="5.66734">
        <ele>861.5</ele>
        <time>2013-06-23T07:15:58Z</time>
      </trkpt>
      <trkpt lat="45.42809" lon="5.66743">
        <ele>861.4</ele>
        <time>2013-06-23T07:15:59Z</time>
      </trkpt>
      <trkpt lat="45.42812" lon="5.66751">
        <ele>860.9</ele>
        <time>2013-06-23T07:16:00Z</time>
      </trkpt>
      <trkpt lat="45.42815" lon="5.66757">
        <ele>860.6</ele>
        <time>2013-06-23T07:16:01Z</time>
      </trkpt>
      <trkpt lat="45.42818" lon="5.66764">
        <ele>860.3</ele>
        <time>2013-06-23T07:16:02Z</time>
      </trkpt>
      <trkpt lat="45.42821" lon="5.66771">
        <ele>859.9</ele>
        <time>2013-06-23T07:16:03Z</time>
      </trkpt>
      <trkpt lat="45.42824" lon="5.66777">
        <ele>859.6</ele>
        <time>2013-06-23T07:16:04Z</time>
      </trkpt>
      <trkpt lat="45.42827" lon="5.66788">
        <ele>859.2</ele>
        <time>2013-06-23T07:16:06Z</time>
      </trkpt>
      <trkpt lat="45.42831" lon="5.66796">
        <ele>859</ele>
        <time>2013-06-23T07:16:08Z</time>
      </trkpt>
      <trkpt lat="45.42835" lon="5.66804">
        <ele>858.9</ele>
        <time>2013-06-23T07:16:10Z</time>
      </trkpt>
      <trkpt lat="45.42839" lon="5.66813">
        <ele>858.9</ele>
        <time>2013-06-23T07:16:12Z</time>
      </trkpt>
      <trkpt lat="45.42843" lon="5.66821">
        <ele>859.6</ele>
        <time>2013-06-23T07:16:14Z</time>
      </trkpt>
      <trkpt lat="45.42848" lon="5.6683">
        <ele>859.7</ele>
        <time>2013-06-23T07:16:16Z</time>
      </trkpt>
      <trkpt lat="45.42853" lon="5.66839">
        <ele>859.7</ele>
        <time>2013-06-23T07:16:18Z</time>
      </trkpt>
      <trkpt lat="45.42857" lon="5.66847">
        <ele>859.9</ele>
        <time>2013-06-23T07:16:20Z</time>
      </trkpt>
      <trkpt lat="45.4286" lon="5.66855">
        <ele>860.2</ele>
        <time>2013-06-23T07:16:22Z</time>
      </trkpt>
      <trkpt lat="45.42865" lon="5.66862">
        <ele>860.4</ele>
        <time>2013-06-23T07:16:24Z</time>
      </trkpt>
      <trkpt lat="45.4287" lon="5.66869">
        <ele>859.5</ele>
        <time>2013-06-23T07:16:26Z</time>
      </trkpt>
      <trkpt lat="45.42875" lon="5.66877">
        <ele>859</ele>
        <time>2013-06-23T07:16:28Z</time>
      </trkpt>
      <trkpt lat="45.42878" lon="5.66886">
        <ele>858.1</ele>
        <time>2013-06-23T07:16:30Z</time>
      </trkpt>
      <trkpt lat="45.4288" lon="5.66893">
        <ele>857.8</ele>
        <time>2013-06-23T07:16:31Z</time>
      </trkpt>
      <trkpt lat="45.42883" lon="5.66902">
        <ele>857</ele>
        <time>2013-06-23T07:16:32Z</time>
      </trkpt>
      <trkpt lat="45.42886" lon="5.66911">
        <ele>856.4</ele>
        <time>2013-06-23T07:16:33Z</time>
      </trkpt>
      <trkpt lat="45.42887" lon="5.6692">
        <ele>856</ele>
        <time>2013-06-23T07:16:34Z</time>
      </trkpt>
      <trkpt lat="45.42887" lon="5.6693">
        <ele>854.8</ele>
        <time>2013-06-23T07:16:35Z</time>
      </trkpt>
      <trkpt lat="45.42889" lon="5.66941">
        <ele>853.9</ele>
        <time>2013-06-23T07:16:36Z</time>
      </trkpt>
      <trkpt lat="45.42892" lon="5.66952">
        <ele>853.2</ele>
        <time>2013-06-23T07:16:37Z</time>
      </trkpt>
      <trkpt lat="45.42896" lon="5.66963">
        <ele>851.5</ele>
        <time>2013-06-23T07:16:38Z</time>
      </trkpt>
      <trkpt lat="45.42901" lon="5.66973">
        <ele>850.3</ele>
        <time>2013-06-23T07:16:39Z</time>
      </trkpt>
      <trkpt lat="45.42906" lon="5.66982">
        <ele>849.4</ele>
        <time>2013-06-23T07:16:40Z</time>
      </trkpt>
      <trkpt lat="45.42911" lon="5.6699">
        <ele>848</ele>
        <time>2013-06-23T07:16:41Z</time>
      </trkpt>
      <trkpt lat="45.42917" lon="5.66998">
        <ele>847</ele>
        <time>2013-06-23T07:16:42Z</time>
      </trkpt>
      <trkpt lat="45.42922" lon="5.67006">
        <ele>846.2</ele>
        <time>2013-06-23T07:16:43Z</time>
      </trkpt>
      <trkpt lat="45.42926" lon="5.67014">
        <ele>845.6</ele>
        <time>2013-06-23T07:16:44Z</time>
      </trkpt>
      <trkpt lat="45.42929" lon="5.67023">
        <ele>845.3</ele>
        <time>2013-06-23T07:16:45Z</time>
      </trkpt>
      <trkpt lat="45.42932" lon="5.67031">
        <ele>845.2</ele>
        <time>2013-06-23T07:16:46Z</time>
      </trkpt>
      <trkpt lat="45.42934" lon="5.67038">
        <ele>845</ele>
        <time>2013-06-23T07:16:47Z</time>
      </trkpt>
      <trkpt lat="45.42937" lon="5.67045">
        <ele>844.9</ele>
        <time>2013-06-23T07:16:48Z</time>
      </trkpt>
      <trkpt lat="45.42939" lon="5.67051">
        <ele>844.9</ele>
        <time>2013-06-23T07:16:49Z</time>
      </trkpt>
      <trkpt lat="45.42944" lon="5.67062">
        <ele>845.4</ele>
        <time>2013-06-23T07:16:51Z</time>
      </trkpt>
      <trkpt lat="45.42947" lon="5.6707">
        <ele>846.1</ele>
        <time>2013-06-23T07:16:53Z</time>
      </trkpt>
      <trkpt lat="45.4295" lon="5.67077">
        <ele>845.2</ele>
        <time>2013-06-23T07:16:55Z</time>
      </trkpt>
      <trkpt lat="45.42955" lon="5.67084">
        <ele>845.2</ele>
        <time>2013-06-23T07:16:57Z</time>
      </trkpt>
      <trkpt lat="45.42961" lon="5.67091">
        <ele>845.7</ele>
        <time>2013-06-23T07:16:59Z</time>
      </trkpt>
      <trkpt lat="45.42963" lon="5.67095">
        <ele>845.9</ele>
        <time>2013-06-23T07:17:00Z</time>
      </trkpt>
      <trkpt lat="45.42972" lon="5.67104">
        <ele>845.4</ele>
        <time>2013-06-23T07:17:03Z</time>
      </trkpt>
      <trkpt lat="45.42976" lon="5.67108">
        <ele>845.4</ele>
        <time>2013-06-23T07:17:04Z</time>
      </trkpt>
      <trkpt lat="45.42979" lon="5.67111">
        <ele>845.4</ele>
        <time>2013-06-23T07:17:05Z</time>
      </trkpt>
      <trkpt lat="45.42983" lon="5.67115">
        <ele>845.3</ele>
        <time>2013-06-23T07:17:06Z</time>
      </trkpt>
      <trkpt lat="45.42987" lon="5.67119">
        <ele>845.5</ele>
        <time>2013-06-23T07:17:07Z</time>
      </trkpt>
      <trkpt lat="45.42994" lon="5.67127">
        <ele>845.7</ele>
        <time>2013-06-23T07:17:09Z</time>
      </trkpt>
      <trkpt lat="45.43" lon="5.67135">
        <ele>845.7</ele>
        <time>2013-06-23T07:17:11Z</time>
      </trkpt>
      <trkpt lat="45.43006" lon="5.67144">
        <ele>845.6</ele>
        <time>2013-06-23T07:17:13Z</time>
      </trkpt>
      <trkpt lat="45.43011" lon="5.67152">
        <ele>845.4</ele>
        <time>2013-06-23T07:17:15Z</time>
      </trkpt>
      <trkpt lat="45.43017" lon="5.6716">
        <ele>845</ele>
        <time>2013-06-23T07:17:17Z</time>
      </trkpt>
      <trkpt lat="45.43024" lon="5.67167">
        <ele>844.7</ele>
        <time>2013-06-23T07:17:19Z</time>
      </trkpt>
      <trkpt lat="45.43028" lon="5.67174">
        <ele>845</ele>
        <time>2013-06-23T07:17:21Z</time>
      </trkpt>
      <trkpt lat="45.4303" lon="5.67182">
        <ele>845.3</ele>
        <time>2013-06-23T07:17:23Z</time>
      </trkpt>
      <trkpt lat="45.43032" lon="5.67193">
        <ele>845.4</ele>
        <time>2013-06-23T07:17:26Z</time>
      </trkpt>
      <trkpt lat="45.43031" lon="5.67203">
        <ele>845.2</ele>
        <time>2013-06-23T07:17:29Z</time>
      </trkpt>
      <trkpt lat="45.43032" lon="5.67216">
        <ele>845.7</ele>
        <time>2013-06-23T07:17:33Z</time>
      </trkpt>
      <trkpt lat="45.43037" lon="5.67225">
        <ele>846.2</ele>
        <time>2013-06-23T07:17:36Z</time>
      </trkpt>
      <trkpt lat="45.43043" lon="5.67234">
        <ele>846.8</ele>
        <time>2013-06-23T07:17:39Z</time>
      </trkpt>
      <trkpt lat="45.43049" lon="5.67243">
        <ele>846.8</ele>
        <time>2013-06-23T07:17:42Z</time>
      </trkpt>
      <trkpt lat="45.43055" lon="5.67253">
        <ele>846.8</ele>
        <time>2013-06-23T07:17:45Z</time>
      </trkpt>
      <trkpt lat="45.43058" lon="5.67261">
        <ele>847.2</ele>
        <time>2013-06-23T07:17:47Z</time>
      </trkpt>
      <trkpt lat="45.43062" lon="5.67269">
        <ele>846.7</ele>
        <time>2013-06-23T07:17:49Z</time>
      </trkpt>
      <trkpt lat="45.43066" lon="5.67279">
        <ele>846.4</ele>
        <time>2013-06-23T07:17:51Z</time>
      </trkpt>
      <trkpt lat="45.43069" lon="5.6729">
        <ele>846.9</ele>
        <time>2013-06-23T07:17:53Z</time>
      </trkpt>
      <trkpt lat="45.43073" lon="5.673">
        <ele>847.2</ele>
        <time>2013-06-23T07:17:55Z</time>
      </trkpt>
      <trkpt lat="45.43076" lon="5.6731">
        <ele>847.3</ele>
        <time>2013-06-23T07:17:57Z</time>
      </trkpt>
      <trkpt lat="45.43079" lon="5.6732">
        <ele>847.3</ele>
        <time>2013-06-23T07:17:59Z</time>
      </trkpt>
      <trkpt lat="45.43083" lon="5.67329">
        <ele>846.8</ele>
        <time>2013-06-23T07:18:01Z</time>
      </trkpt>
      <trkpt lat="45.43084" lon="5.67334">
        <ele>846.5</ele>
        <time>2013-06-23T07:18:02Z</time>
      </trkpt>
      <trkpt lat="45.43089" lon="5.67347">
        <ele>847.1</ele>
        <time>2013-06-23T07:18:05Z</time>
      </trkpt>
      <trkpt lat="45.43091" lon="5.67356">
        <ele>847.6</ele>
        <time>2013-06-23T07:18:07Z</time>
      </trkpt>
      <trkpt lat="45.43095" lon="5.67366">
        <ele>848.9</ele>
        <time>2013-06-23T07:18:10Z</time>
      </trkpt>
      <trkpt lat="45.43098" lon="5.67375">
        <ele>849.5</ele>
        <time>2013-06-23T07:18:13Z</time>
      </trkpt>
      <trkpt lat="45.43102" lon="5.67384">
        <ele>850.2</ele>
        <time>2013-06-23T07:18:16Z</time>
      </trkpt>
      <trkpt lat="45.43105" lon="5.67393">
        <ele>850.5</ele>
        <time>2013-06-23T07:18:19Z</time>
      </trkpt>
      <trkpt lat="45.43109" lon="5.67402">
        <ele>851.7</ele>
        <time>2013-06-23T07:18:22Z</time>
      </trkpt>
      <trkpt lat="45.43111" lon="5.6741">
        <ele>852</ele>
        <time>2013-06-23T07:18:25Z</time>
      </trkpt>
      <trkpt lat="45.43114" lon="5.6742">
        <ele>852.4</ele>
        <time>2013-06-23T07:18:28Z</time>
      </trkpt>
      <trkpt lat="45.43117" lon="5.67431">
        <ele>852.8</ele>
        <time>2013-06-23T07:18:31Z</time>
      </trkpt>
      <trkpt lat="45.43119" lon="5.67441">
        <ele>853</ele>
        <time>2013-06-23T07:18:34Z</time>
      </trkpt>
      <trkpt lat="45.43122" lon="5.67452">
        <ele>853.5</ele>
        <time>2013-06-23T07:18:38Z</time>
      </trkpt>
      <trkpt lat="45.43124" lon="5.67462">
        <ele>854.8</ele>
        <time>2013-06-23T07:18:41Z</time>
      </trkpt>
      <trkpt lat="45.43125" lon="5.67474">
        <ele>855</ele>
        <time>2013-06-23T07:18:44Z</time>
      </trkpt>
      <trkpt lat="45.43127" lon="5.67485">
        <ele>855.8</ele>
        <time>2013-06-23T07:18:47Z</time>
      </trkpt>
      <trkpt lat="45.4313" lon="5.67495">
        <ele>856.5</ele>
        <time>2013-06-23T07:18:50Z</time>
      </trkpt>
      <trkpt lat="45.43131" lon="5.67506">
        <ele>855.8</ele>
        <time>2013-06-23T07:18:53Z</time>
      </trkpt>
      <trkpt lat="45.43133" lon="5.67518">
        <ele>856.4</ele>
        <time>2013-06-23T07:18:56Z</time>
      </trkpt>
      <trkpt lat="45.43134" lon="5.67531">
        <ele>856.8</ele>
        <time>2013-06-23T07:18:59Z</time>
      </trkpt>
      <trkpt lat="45.43136" lon="5.67539">
        <ele>856.7</ele>
        <time>2013-06-23T07:19:01Z</time>
      </trkpt>
      <trkpt lat="45.43137" lon="5.67548">
        <ele>856.7</ele>
        <time>2013-06-23T07:19:03Z</time>
      </trkpt>
      <trkpt lat="45.43137" lon="5.67553">
        <ele>856.7</ele>
        <time>2013-06-23T07:19:04Z</time>
      </trkpt>
      <trkpt lat="45.4314" lon="5.67569">
        <ele>856.7</ele>
        <time>2013-06-23T07:19:08Z</time>
      </trkpt>
      <trkpt lat="45.43143" lon="5.67581">
        <ele>856.2</ele>
        <time>2013-06-23T07:19:11Z</time>
      </trkpt>
      <trkpt lat="45.43145" lon="5.67591">
        <ele>856.2</ele>
        <time>2013-06-23T07:19:14Z</time>
      </trkpt>
      <trkpt lat="45.43148" lon="5.67601">
        <ele>856.7</ele>
        <time>2013-06-23T07:19:17Z</time>
      </trkpt>
      <trkpt lat="45.43152" lon="5.67612">
        <ele>857.5</ele>
        <time>2013-06-23T07:19:21Z</time>
      </trkpt>
      <trkpt lat="45.43157" lon="5.67622">
        <ele>857.7</ele>
        <time>2013-06-23T07:19:26Z</time>
      </trkpt>
      <trkpt lat="45.4316" lon="5.67632">
        <ele>859.4</ele>
        <time>2013-06-23T07:19:31Z</time>
      </trkpt>
      <trkpt lat="45.43159" lon="5.67644">
        <ele>869.1</ele>
        <time>2013-06-23T07:20:18Z</time>
      </trkpt>
      <trkpt lat="45.43156" lon="5.67647">
        <ele>869.4</ele>
        <time>2013-06-23T07:20:19Z</time>
      </trkpt>
      <trkpt lat="45.43147" lon="5.67652">
        <ele>873.3</ele>
        <time>2013-06-23T07:20:32Z</time>
      </trkpt>
      <trkpt lat="45.4314" lon="5.67655">
        <ele>874</ele>
        <time>2013-06-23T07:20:34Z</time>
      </trkpt>
      <trkpt lat="45.43133" lon="5.67657">
        <ele>876.5</ele>
        <time>2013-06-23T07:20:44Z</time>
      </trkpt>
      <trkpt lat="45.43126" lon="5.67658">
        <ele>877.6</ele>
        <time>2013-06-23T07:20:46Z</time>
      </trkpt>
      <trkpt lat="45.43119" lon="5.6766">
        <ele>879.7</ele>
        <time>2013-06-23T07:20:53Z</time>
      </trkpt>
      <trkpt lat="45.43111" lon="5.67659">
        <ele>880.4</ele>
        <time>2013-06-23T07:20:55Z</time>
      </trkpt>
      <trkpt lat="45.43104" lon="5.67659">
        <ele>880.3</ele>
        <time>2013-06-23T07:20:57Z</time>
      </trkpt>
      <trkpt lat="45.43098" lon="5.67658">
        <ele>879.9</ele>
        <time>2013-06-23T07:20:59Z</time>
      </trkpt>
      <trkpt lat="45.43089" lon="5.67657">
        <ele>879.3</ele>
        <time>2013-06-23T07:21:02Z</time>
      </trkpt>
      <trkpt lat="45.43081" lon="5.67656">
        <ele>880.4</ele>
        <time>2013-06-23T07:21:05Z</time>
      </trkpt>
      <trkpt lat="45.43074" lon="5.67656">
        <ele>880.7</ele>
        <time>2013-06-23T07:21:08Z</time>
      </trkpt>
      <trkpt lat="45.43067" lon="5.67655">
        <ele>880.7</ele>
        <time>2013-06-23T07:21:11Z</time>
      </trkpt>
      <trkpt lat="45.43059" lon="5.67655">
        <ele>881</ele>
        <time>2013-06-23T07:21:15Z</time>
      </trkpt>
      <trkpt lat="45.4305" lon="5.67653">
        <ele>888.7</ele>
        <time>2013-06-23T07:21:48Z</time>
      </trkpt>
      <trkpt lat="45.43046" lon="5.67655">
        <ele>889.1</ele>
        <time>2013-06-23T07:21:49Z</time>
      </trkpt>
      <trkpt lat="45.43038" lon="5.67659">
        <ele>891.2</ele>
        <time>2013-06-23T07:22:06Z</time>
      </trkpt>
      <trkpt lat="45.43031" lon="5.67661">
        <ele>891.4</ele>
        <time>2013-06-23T07:22:08Z</time>
      </trkpt>
      <trkpt lat="45.43026" lon="5.67663">
        <ele>894.5</ele>
        <time>2013-06-23T07:22:23Z</time>
      </trkpt>
      <trkpt lat="45.43019" lon="5.67665">
        <ele>895</ele>
        <time>2013-06-23T07:22:25Z</time>
      </trkpt>
      <trkpt lat="45.43013" lon="5.67667">
        <ele>898.8</ele>
        <time>2013-06-23T07:22:39Z</time>
      </trkpt>
      <trkpt lat="45.43006" lon="5.67669">
        <ele>899</ele>
        <time>2013-06-23T07:22:41Z</time>
      </trkpt>
      <trkpt lat="45.43" lon="5.67671">
        <ele>901.3</ele>
        <time>2013-06-23T07:22:59Z</time>
      </trkpt>
      <trkpt lat="45.42996" lon="5.67672">
        <ele>901.4</ele>
        <time>2013-06-23T07:23:00Z</time>
      </trkpt>
      <trkpt lat="45.42986" lon="5.67676">
        <ele>902</ele>
        <time>2013-06-23T07:23:13Z</time>
      </trkpt>
      <trkpt lat="45.42978" lon="5.67676">
        <ele>902.9</ele>
        <time>2013-06-23T07:23:15Z</time>
      </trkpt>
      <trkpt lat="45.42972" lon="5.67676">
        <ele>903.8</ele>
        <time>2013-06-23T07:23:25Z</time>
      </trkpt>
      <trkpt lat="45.42964" lon="5.67678">
        <ele>904.2</ele>
        <time>2013-06-23T07:23:27Z</time>
      </trkpt>
      <trkpt lat="45.42958" lon="5.67679">
        <ele>906.4</ele>
        <time>2013-06-23T07:23:34Z</time>
      </trkpt>
      <trkpt lat="45.42949" lon="5.6768">
        <ele>906.3</ele>
        <time>2013-06-23T07:23:36Z</time>
      </trkpt>
      <trkpt lat="45.42942" lon="5.67679">
        <ele>905.7</ele>
        <time>2013-06-23T07:23:38Z</time>
      </trkpt>
      <trkpt lat="45.42935" lon="5.67679">
        <ele>905.8</ele>
        <time>2013-06-23T07:23:40Z</time>
      </trkpt>
      <trkpt lat="45.42929" lon="5.67679">
        <ele>906.1</ele>
        <time>2013-06-23T07:23:42Z</time>
      </trkpt>
      <trkpt lat="45.4292" lon="5.67679">
        <ele>906.7</ele>
        <time>2013-06-23T07:23:45Z</time>
      </trkpt>
      <trkpt lat="45.42912" lon="5.67678">
        <ele>906.5</ele>
        <time>2013-06-23T07:23:53Z</time>
      </trkpt>
      <trkpt lat="45.42906" lon="5.67678">
        <ele>906.3</ele>
        <time>2013-06-23T07:23:55Z</time>
      </trkpt>
      <trkpt lat="45.42898" lon="5.67678">
        <ele>906.9</ele>
        <time>2013-06-23T07:23:58Z</time>
      </trkpt>
      <trkpt lat="45.42889" lon="5.67679">
        <ele>908.5</ele>
        <time>2013-06-23T07:24:01Z</time>
      </trkpt>
      <trkpt lat="45.42886" lon="5.67679">
        <ele>908.3</ele>
        <time>2013-06-23T07:24:02Z</time>
      </trkpt>
      <trkpt lat="45.42874" lon="5.67677">
        <ele>908.2</ele>
        <time>2013-06-23T07:24:07Z</time>
      </trkpt>
      <trkpt lat="45.42866" lon="5.67674">
        <ele>908.4</ele>
        <time>2013-06-23T07:24:10Z</time>
      </trkpt>
      <trkpt lat="45.42858" lon="5.6767">
        <ele>908.3</ele>
        <time>2013-06-23T07:24:12Z</time>
      </trkpt>
      <trkpt lat="45.42853" lon="5.67667">
        <ele>908.2</ele>
        <time>2013-06-23T07:24:13Z</time>
      </trkpt>
      <trkpt lat="45.42847" lon="5.67662">
        <ele>908.1</ele>
        <time>2013-06-23T07:24:14Z</time>
      </trkpt>
      <trkpt lat="45.42841" lon="5.67656">
        <ele>907</ele>
        <time>2013-06-23T07:24:15Z</time>
      </trkpt>
      <trkpt lat="45.42835" lon="5.67651">
        <ele>906.2</ele>
        <time>2013-06-23T07:24:16Z</time>
      </trkpt>
      <trkpt lat="45.42829" lon="5.67647">
        <ele>905.5</ele>
        <time>2013-06-23T07:24:17Z</time>
      </trkpt>
      <trkpt lat="45.42823" lon="5.67644">
        <ele>904.7</ele>
        <time>2013-06-23T07:24:18Z</time>
      </trkpt>
      <trkpt lat="45.42816" lon="5.67642">
        <ele>904.1</ele>
        <time>2013-06-23T07:24:19Z</time>
      </trkpt>
      <trkpt lat="45.42811" lon="5.67639">
        <ele>903.7</ele>
        <time>2013-06-23T07:24:20Z</time>
      </trkpt>
      <trkpt lat="45.42806" lon="5.67637">
        <ele>903.1</ele>
        <time>2013-06-23T07:24:21Z</time>
      </trkpt>
      <trkpt lat="45.42801" lon="5.67635">
        <ele>902.6</ele>
        <time>2013-06-23T07:24:22Z</time>
      </trkpt>
      <trkpt lat="45.42796" lon="5.67633">
        <ele>902.3</ele>
        <time>2013-06-23T07:24:23Z</time>
      </trkpt>
      <trkpt lat="45.42792" lon="5.67631">
        <ele>901.6</ele>
        <time>2013-06-23T07:24:24Z</time>
      </trkpt>
      <trkpt lat="45.42787" lon="5.67628">
        <ele>901.1</ele>
        <time>2013-06-23T07:24:25Z</time>
      </trkpt>
      <trkpt lat="45.42782" lon="5.67627">
        <ele>900.7</ele>
        <time>2013-06-23T07:24:26Z</time>
      </trkpt>
      <trkpt lat="45.42777" lon="5.67627">
        <ele>900.4</ele>
        <time>2013-06-23T07:24:27Z</time>
      </trkpt>
      <trkpt lat="45.42771" lon="5.67628">
        <ele>900.1</ele>
        <time>2013-06-23T07:24:28Z</time>
      </trkpt>
      <trkpt lat="45.42766" lon="5.67629">
        <ele>899.8</ele>
        <time>2013-06-23T07:24:29Z</time>
      </trkpt>
      <trkpt lat="45.4276" lon="5.6763">
        <ele>899.5</ele>
        <time>2013-06-23T07:24:30Z</time>
      </trkpt>
      <trkpt lat="45.42753" lon="5.67633">
        <ele>898.6</ele>
        <time>2013-06-23T07:24:31Z</time>
      </trkpt>
      <trkpt lat="45.42747" lon="5.67635">
        <ele>897.9</ele>
        <time>2013-06-23T07:24:32Z</time>
      </trkpt>
      <trkpt lat="45.42741" lon="5.67637">
        <ele>897.4</ele>
        <time>2013-06-23T07:24:33Z</time>
      </trkpt>
      <trkpt lat="45.42736" lon="5.67637">
        <ele>896.8</ele>
        <time>2013-06-23T07:24:34Z</time>
      </trkpt>
      <trkpt lat="45.42731" lon="5.67638">
        <ele>896.4</ele>
        <time>2013-06-23T07:24:35Z</time>
      </trkpt>
      <trkpt lat="45.42727" lon="5.67638">
        <ele>896.1</ele>
        <time>2013-06-23T07:24:36Z</time>
      </trkpt>
      <trkpt lat="45.42722" lon="5.67638">
        <ele>896</ele>
        <time>2013-06-23T07:24:37Z</time>
      </trkpt>
      <trkpt lat="45.42717" lon="5.67639">
        <ele>895.9</ele>
        <time>2013-06-23T07:24:38Z</time>
      </trkpt>
      <trkpt lat="45.42712" lon="5.67639">
        <ele>895.8</ele>
        <time>2013-06-23T07:24:39Z</time>
      </trkpt>
      <trkpt lat="45.42703" lon="5.67639">
        <ele>895.5</ele>
        <time>2013-06-23T07:24:41Z</time>
      </trkpt>
      <trkpt lat="45.42699" lon="5.67639">
        <ele>895.4</ele>
        <time>2013-06-23T07:24:42Z</time>
      </trkpt>
      <trkpt lat="45.42694" lon="5.67639">
        <ele>894.6</ele>
        <time>2013-06-23T07:24:43Z</time>
      </trkpt>
      <trkpt lat="45.42689" lon="5.67639">
        <ele>894</ele>
        <time>2013-06-23T07:24:44Z</time>
      </trkpt>
      <trkpt lat="45.42683" lon="5.67638">
        <ele>893.5</ele>
        <time>2013-06-23T07:24:45Z</time>
      </trkpt>
      <trkpt lat="45.42678" lon="5.67637">
        <ele>893.2</ele>
        <time>2013-06-23T07:24:46Z</time>
      </trkpt>
      <trkpt lat="45.42673" lon="5.67637">
        <ele>893.2</ele>
        <time>2013-06-23T07:24:47Z</time>
      </trkpt>
      <trkpt lat="45.42664" lon="5.67636">
        <ele>893.1</ele>
        <time>2013-06-23T07:24:49Z</time>
      </trkpt>
      <trkpt lat="45.42656" lon="5.67637">
        <ele>893.1</ele>
        <time>2013-06-23T07:24:51Z</time>
      </trkpt>
      <trkpt lat="45.42648" lon="5.67638">
        <ele>892.5</ele>
        <time>2013-06-23T07:24:53Z</time>
      </trkpt>
      <trkpt lat="45.4264" lon="5.67638">
        <ele>892.4</ele>
        <time>2013-06-23T07:24:56Z</time>
      </trkpt>
      <trkpt lat="45.42633" lon="5.67637">
        <ele>893.2</ele>
        <time>2013-06-23T07:24:58Z</time>
      </trkpt>
      <trkpt lat="45.42626" lon="5.67637">
        <ele>892.4</ele>
        <time>2013-06-23T07:25:00Z</time>
      </trkpt>
      <trkpt lat="45.42619" lon="5.67638">
        <ele>892</ele>
        <time>2013-06-23T07:25:02Z</time>
      </trkpt>
      <trkpt lat="45.4261" lon="5.67638">
        <ele>891.3</ele>
        <time>2013-06-23T07:25:04Z</time>
      </trkpt>
      <trkpt lat="45.42605" lon="5.67637">
        <ele>891.1</ele>
        <time>2013-06-23T07:25:05Z</time>
      </trkpt>
      <trkpt lat="45.42599" lon="5.67636">
        <ele>890.5</ele>
        <time>2013-06-23T07:25:06Z</time>
      </trkpt>
      <trkpt lat="45.42594" lon="5.67633">
        <ele>890.1</ele>
        <time>2013-06-23T07:25:07Z</time>
      </trkpt>
      <trkpt lat="45.42587" lon="5.67626">
        <ele>889.7</ele>
        <time>2013-06-23T07:25:09Z</time>
      </trkpt>
      <trkpt lat="45.42582" lon="5.6762">
        <ele>889.5</ele>
        <time>2013-06-23T07:25:11Z</time>
      </trkpt>
      <trkpt lat="45.42574" lon="5.67616">
        <ele>888.3</ele>
        <time>2013-06-23T07:25:14Z</time>
      </trkpt>
      <trkpt lat="45.42567" lon="5.67618">
        <ele>886.9</ele>
        <time>2013-06-23T07:25:24Z</time>
      </trkpt>
      <trkpt lat="45.42562" lon="5.67625">
        <ele>885.3</ele>
        <time>2013-06-23T07:25:26Z</time>
      </trkpt>
      <trkpt lat="45.42557" lon="5.67633">
        <ele>884.2</ele>
        <time>2013-06-23T07:25:28Z</time>
      </trkpt>
      <trkpt lat="45.42553" lon="5.67642">
        <ele>883.3</ele>
        <time>2013-06-23T07:25:30Z</time>
      </trkpt>
      <trkpt lat="45.4255" lon="5.67647">
        <ele>883</ele>
        <time>2013-06-23T07:25:31Z</time>
      </trkpt>
      <trkpt lat="45.42547" lon="5.67653">
        <ele>882.7</ele>
        <time>2013-06-23T07:25:32Z</time>
      </trkpt>
      <trkpt lat="45.42544" lon="5.67658">
        <ele>882.5</ele>
        <time>2013-06-23T07:25:33Z</time>
      </trkpt>
      <trkpt lat="45.42541" lon="5.67666">
        <ele>882.4</ele>
        <time>2013-06-23T07:25:34Z</time>
      </trkpt>
      <trkpt lat="45.42538" lon="5.67674">
        <ele>881.8</ele>
        <time>2013-06-23T07:25:35Z</time>
      </trkpt>
      <trkpt lat="45.42536" lon="5.67682">
        <ele>881.3</ele>
        <time>2013-06-23T07:25:36Z</time>
      </trkpt>
      <trkpt lat="45.42534" lon="5.6769">
        <ele>881</ele>
        <time>2013-06-23T07:25:37Z</time>
      </trkpt>
      <trkpt lat="45.42532" lon="5.67697">
        <ele>880.4</ele>
        <time>2013-06-23T07:25:38Z</time>
      </trkpt>
      <trkpt lat="45.42531" lon="5.67707">
        <ele>879.5</ele>
        <time>2013-06-23T07:25:40Z</time>
      </trkpt>
      <trkpt lat="45.4253" lon="5.67717">
        <ele>877.4</ele>
        <time>2013-06-23T07:25:43Z</time>
      </trkpt>
      <trkpt lat="45.42531" lon="5.67726">
        <ele>876.8</ele>
        <time>2013-06-23T07:25:45Z</time>
      </trkpt>
      <trkpt lat="45.42531" lon="5.67737">
        <ele>876.4</ele>
        <time>2013-06-23T07:25:47Z</time>
      </trkpt>
      <trkpt lat="45.42532" lon="5.67744">
        <ele>876.3</ele>
        <time>2013-06-23T07:25:48Z</time>
      </trkpt>
      <trkpt lat="45.42534" lon="5.67751">
        <ele>876.2</ele>
        <time>2013-06-23T07:25:49Z</time>
      </trkpt>
      <trkpt lat="45.42535" lon="5.67757">
        <ele>876.1</ele>
        <time>2013-06-23T07:25:50Z</time>
      </trkpt>
      <trkpt lat="45.42537" lon="5.67764">
        <ele>875.5</ele>
        <time>2013-06-23T07:25:51Z</time>
      </trkpt>
      <trkpt lat="45.4254" lon="5.67772">
        <ele>875.1</ele>
        <time>2013-06-23T07:25:52Z</time>
      </trkpt>
      <trkpt lat="45.42543" lon="5.67779">
        <ele>874.7</ele>
        <time>2013-06-23T07:25:53Z</time>
      </trkpt>
      <trkpt lat="45.42546" lon="5.67785">
        <ele>873.3</ele>
        <time>2013-06-23T07:25:54Z</time>
      </trkpt>
      <trkpt lat="45.42549" lon="5.67791">
        <ele>872.3</ele>
        <time>2013-06-23T07:25:55Z</time>
      </trkpt>
      <trkpt lat="45.42555" lon="5.678">
        <ele>871.4</ele>
        <time>2013-06-23T07:25:57Z</time>
      </trkpt>
      <trkpt lat="45.42558" lon="5.67805">
        <ele>871.3</ele>
        <time>2013-06-23T07:25:58Z</time>
      </trkpt>
      <trkpt lat="45.42561" lon="5.6781">
        <ele>871.3</ele>
        <time>2013-06-23T07:25:59Z</time>
      </trkpt>
      <trkpt lat="45.42567" lon="5.67818">
        <ele>870.3</ele>
        <time>2013-06-23T07:26:01Z</time>
      </trkpt>
      <trkpt lat="45.42573" lon="5.67826">
        <ele>869.9</ele>
        <time>2013-06-23T07:26:03Z</time>
      </trkpt>
      <trkpt lat="45.42578" lon="5.67834">
        <ele>869.7</ele>
        <time>2013-06-23T07:26:05Z</time>
      </trkpt>
      <trkpt lat="45.42582" lon="5.67841">
        <ele>869.9</ele>
        <time>2013-06-23T07:26:07Z</time>
      </trkpt>
      <trkpt lat="45.42586" lon="5.67843">
        <ele>870.1</ele>
        <time>2013-06-23T07:26:08Z</time>
      </trkpt>
      <trkpt lat="45.42595" lon="5.67853">
        <ele>870.2</ele>
        <time>2013-06-23T07:26:11Z</time>
      </trkpt>
      <trkpt lat="45.42602" lon="5.67858">
        <ele>871.2</ele>
        <time>2013-06-23T07:26:14Z</time>
      </trkpt>
      <trkpt lat="45.42609" lon="5.67863">
        <ele>872.4</ele>
        <time>2013-06-23T07:26:18Z</time>
      </trkpt>
      <trkpt lat="45.42616" lon="5.67869">
        <ele>872.8</ele>
        <time>2013-06-23T07:26:22Z</time>
      </trkpt>
      <trkpt lat="45.42623" lon="5.67873">
        <ele>872</ele>
        <time>2013-06-23T07:26:26Z</time>
      </trkpt>
      <trkpt lat="45.4263" lon="5.67876">
        <ele>872.7</ele>
        <time>2013-06-23T07:26:30Z</time>
      </trkpt>
      <trkpt lat="45.42638" lon="5.67879">
        <ele>873.9</ele>
        <time>2013-06-23T07:26:33Z</time>
      </trkpt>
      <trkpt lat="45.42645" lon="5.67882">
        <ele>874.3</ele>
        <time>2013-06-23T07:26:36Z</time>
      </trkpt>
      <trkpt lat="45.42653" lon="5.67884">
        <ele>874.4</ele>
        <time>2013-06-23T07:26:39Z</time>
      </trkpt>
      <trkpt lat="45.4266" lon="5.67888">
        <ele>874.8</ele>
        <time>2013-06-23T07:26:42Z</time>
      </trkpt>
      <trkpt lat="45.42666" lon="5.67891">
        <ele>875.1</ele>
        <time>2013-06-23T07:26:44Z</time>
      </trkpt>
      <trkpt lat="45.42672" lon="5.67893">
        <ele>875.2</ele>
        <time>2013-06-23T07:26:46Z</time>
      </trkpt>
      <trkpt lat="45.4268" lon="5.67895">
        <ele>874</ele>
        <time>2013-06-23T07:26:54Z</time>
      </trkpt>
      <trkpt lat="45.42687" lon="5.67897">
        <ele>873.8</ele>
        <time>2013-06-23T07:26:56Z</time>
      </trkpt>
      <trkpt lat="45.42693" lon="5.67899">
        <ele>874.5</ele>
        <time>2013-06-23T07:26:58Z</time>
      </trkpt>
      <trkpt lat="45.42701" lon="5.67901">
        <ele>875.3</ele>
        <time>2013-06-23T07:27:01Z</time>
      </trkpt>
      <trkpt lat="45.42709" lon="5.67903">
        <ele>875.6</ele>
        <time>2013-06-23T07:27:09Z</time>
      </trkpt>
      <trkpt lat="45.42712" lon="5.67904">
        <ele>876</ele>
        <time>2013-06-23T07:27:10Z</time>
      </trkpt>
      <trkpt lat="45.42724" lon="5.67914">
        <ele>875.4</ele>
        <time>2013-06-23T07:27:15Z</time>
      </trkpt>
      <trkpt lat="45.42731" lon="5.67919">
        <ele>875.4</ele>
        <time>2013-06-23T07:27:18Z</time>
      </trkpt>
      <trkpt lat="45.42739" lon="5.67923">
        <ele>874.9</ele>
        <time>2013-06-23T07:27:21Z</time>
      </trkpt>
      <trkpt lat="45.42747" lon="5.67925">
        <ele>875.7</ele>
        <time>2013-06-23T07:27:24Z</time>
      </trkpt>
      <trkpt lat="45.42753" lon="5.67924">
        <ele>875.9</ele>
        <time>2013-06-23T07:27:26Z</time>
      </trkpt>
      <trkpt lat="45.4276" lon="5.67925">
        <ele>875.7</ele>
        <time>2013-06-23T07:27:28Z</time>
      </trkpt>
      <trkpt lat="45.42767" lon="5.67927">
        <ele>874.9</ele>
        <time>2013-06-23T07:27:30Z</time>
      </trkpt>
      <trkpt lat="45.42774" lon="5.67932">
        <ele>873.9</ele>
        <time>2013-06-23T07:27:32Z</time>
      </trkpt>
      <trkpt lat="45.4278" lon="5.67934">
        <ele>874.6</ele>
        <time>2013-06-23T07:27:34Z</time>
      </trkpt>
      <trkpt lat="45.42787" lon="5.67936">
        <ele>875.3</ele>
        <time>2013-06-23T07:27:36Z</time>
      </trkpt>
      <trkpt lat="45.42795" lon="5.67938">
        <ele>876.1</ele>
        <time>2013-06-23T07:27:39Z</time>
      </trkpt>
      <trkpt lat="45.42801" lon="5.67939">
        <ele>876.5</ele>
        <time>2013-06-23T07:27:41Z</time>
      </trkpt>
      <trkpt lat="45.42808" lon="5.67939">
        <ele>876.4</ele>
        <time>2013-06-23T07:27:43Z</time>
      </trkpt>
      <trkpt lat="45.42815" lon="5.67942">
        <ele>876.2</ele>
        <time>2013-06-23T07:27:45Z</time>
      </trkpt>
      <trkpt lat="45.42821" lon="5.67945">
        <ele>875.9</ele>
        <time>2013-06-23T07:27:47Z</time>
      </trkpt>
      <trkpt lat="45.42827" lon="5.6795">
        <ele>875.5</ele>
        <time>2013-06-23T07:27:49Z</time>
      </trkpt>
      <trkpt lat="45.42833" lon="5.67956">
        <ele>875.1</ele>
        <time>2013-06-23T07:27:51Z</time>
      </trkpt>
      <trkpt lat="45.4284" lon="5.67961">
        <ele>874.2</ele>
        <time>2013-06-23T07:27:53Z</time>
      </trkpt>
      <trkpt lat="45.42847" lon="5.67965">
        <ele>874.1</ele>
        <time>2013-06-23T07:27:55Z</time>
      </trkpt>
      <trkpt lat="45.42853" lon="5.67969">
        <ele>874.5</ele>
        <time>2013-06-23T07:27:57Z</time>
      </trkpt>
      <trkpt lat="45.42858" lon="5.67974">
        <ele>874.2</ele>
        <time>2013-06-23T07:27:59Z</time>
      </trkpt>
      <trkpt lat="45.42863" lon="5.6798">
        <ele>873.6</ele>
        <time>2013-06-23T07:28:01Z</time>
      </trkpt>
      <trkpt lat="45.42869" lon="5.6799">
        <ele>872.8</ele>
        <time>2013-06-23T07:28:04Z</time>
      </trkpt>
      <trkpt lat="45.42875" lon="5.67999">
        <ele>872.8</ele>
        <time>2013-06-23T07:28:07Z</time>
      </trkpt>
      <trkpt lat="45.42878" lon="5.68011">
        <ele>873.3</ele>
        <time>2013-06-23T07:28:11Z</time>
      </trkpt>
      <trkpt lat="45.42879" lon="5.68014">
        <ele>873.1</ele>
        <time>2013-06-23T07:28:12Z</time>
      </trkpt>
      <trkpt lat="45.42883" lon="5.68029">
        <ele>872.3</ele>
        <time>2013-06-23T07:28:16Z</time>
      </trkpt>
      <trkpt lat="45.42885" lon="5.68039">
        <ele>872.2</ele>
        <time>2013-06-23T07:28:18Z</time>
      </trkpt>
      <trkpt lat="45.42887" lon="5.68045">
        <ele>872.2</ele>
        <time>2013-06-23T07:28:19Z</time>
      </trkpt>
      <trkpt lat="45.4289" lon="5.68051">
        <ele>872.1</ele>
        <time>2013-06-23T07:28:20Z</time>
      </trkpt>
      <trkpt lat="45.42893" lon="5.68057">
        <ele>871</ele>
        <time>2013-06-23T07:28:21Z</time>
      </trkpt>
      <trkpt lat="45.42897" lon="5.68063">
        <ele>870.1</ele>
        <time>2013-06-23T07:28:22Z</time>
      </trkpt>
      <trkpt lat="45.42901" lon="5.68067">
        <ele>869.5</ele>
        <time>2013-06-23T07:28:23Z</time>
      </trkpt>
      <trkpt lat="45.42906" lon="5.68071">
        <ele>868.8</ele>
        <time>2013-06-23T07:28:24Z</time>
      </trkpt>
      <trkpt lat="45.42911" lon="5.68075">
        <ele>868.4</ele>
        <time>2013-06-23T07:28:25Z</time>
      </trkpt>
      <trkpt lat="45.42916" lon="5.6808">
        <ele>868</ele>
        <time>2013-06-23T07:28:26Z</time>
      </trkpt>
      <trkpt lat="45.42921" lon="5.68083">
        <ele>867.4</ele>
        <time>2013-06-23T07:28:27Z</time>
      </trkpt>
      <trkpt lat="45.42927" lon="5.68085">
        <ele>867</ele>
        <time>2013-06-23T07:28:28Z</time>
      </trkpt>
      <trkpt lat="45.42934" lon="5.68087">
        <ele>866.7</ele>
        <time>2013-06-23T07:28:29Z</time>
      </trkpt>
      <trkpt lat="45.4294" lon="5.68089">
        <ele>866.1</ele>
        <time>2013-06-23T07:28:30Z</time>
      </trkpt>
      <trkpt lat="45.42946" lon="5.6809">
        <ele>865.6</ele>
        <time>2013-06-23T07:28:31Z</time>
      </trkpt>
      <trkpt lat="45.42953" lon="5.68091">
        <ele>865.3</ele>
        <time>2013-06-23T07:28:32Z</time>
      </trkpt>
      <trkpt lat="45.42959" lon="5.68092">
        <ele>864.7</ele>
        <time>2013-06-23T07:28:33Z</time>
      </trkpt>
      <trkpt lat="45.42966" lon="5.68093">
        <ele>864.3</ele>
        <time>2013-06-23T07:28:34Z</time>
      </trkpt>
      <trkpt lat="45.42973" lon="5.68094">
        <ele>864</ele>
        <time>2013-06-23T07:28:35Z</time>
      </trkpt>
      <trkpt lat="45.42979" lon="5.68096">
        <ele>863.7</ele>
        <time>2013-06-23T07:28:36Z</time>
      </trkpt>
      <trkpt lat="45.42987" lon="5.68097">
        <ele>863</ele>
        <time>2013-06-23T07:28:37Z</time>
      </trkpt>
      <trkpt lat="45.42993" lon="5.68098">
        <ele>862.5</ele>
        <time>2013-06-23T07:28:38Z</time>
      </trkpt>
      <trkpt lat="45.43" lon="5.68098">
        <ele>862.2</ele>
        <time>2013-06-23T07:28:39Z</time>
      </trkpt>
      <trkpt lat="45.43006" lon="5.68098">
        <ele>861.7</ele>
        <time>2013-06-23T07:28:40Z</time>
      </trkpt>
      <trkpt lat="45.43012" lon="5.68098">
        <ele>861.3</ele>
        <time>2013-06-23T07:28:41Z</time>
      </trkpt>
      <trkpt lat="45.43017" lon="5.68098">
        <ele>861.1</ele>
        <time>2013-06-23T07:28:42Z</time>
      </trkpt>
      <trkpt lat="45.43024" lon="5.68098">
        <ele>860.2</ele>
        <time>2013-06-23T07:28:44Z</time>
      </trkpt>
      <trkpt lat="45.4306" lon="5.68093">
        <ele>859</ele>
        <time>2013-06-23T07:33:14Z</time>
      </trkpt>
      <trkpt lat="45.43071" lon="5.68092">
        <ele>859.6</ele>
        <time>2013-06-23T07:33:17Z</time>
      </trkpt>
      <trkpt lat="45.43079" lon="5.68092">
        <ele>859.2</ele>
        <time>2013-06-23T07:33:19Z</time>
      </trkpt>
      <trkpt lat="45.43087" lon="5.68091">
        <ele>859.2</ele>
        <time>2013-06-23T07:33:21Z</time>
      </trkpt>
      <trkpt lat="45.43095" lon="5.68091">
        <ele>859.4</ele>
        <time>2013-06-23T07:33:23Z</time>
      </trkpt>
      <trkpt lat="45.43103" lon="5.6809">
        <ele>858.6</ele>
        <time>2013-06-23T07:33:25Z</time>
      </trkpt>
      <trkpt lat="45.43111" lon="5.6809">
        <ele>858.8</ele>
        <time>2013-06-23T07:33:27Z</time>
      </trkpt>
      <trkpt lat="45.43119" lon="5.68091">
        <ele>859.5</ele>
        <time>2013-06-23T07:33:29Z</time>
      </trkpt>
      <trkpt lat="45.43127" lon="5.68091">
        <ele>858.7</ele>
        <time>2013-06-23T07:33:31Z</time>
      </trkpt>
      <trkpt lat="45.43134" lon="5.6809">
        <ele>858</ele>
        <time>2013-06-23T07:33:33Z</time>
      </trkpt>
      <trkpt lat="45.43142" lon="5.68089">
        <ele>857.4</ele>
        <time>2013-06-23T07:33:35Z</time>
      </trkpt>
      <trkpt lat="45.4315" lon="5.68088">
        <ele>857.1</ele>
        <time>2013-06-23T07:33:37Z</time>
      </trkpt>
      <trkpt lat="45.43158" lon="5.68087">
        <ele>857</ele>
        <time>2013-06-23T07:33:39Z</time>
      </trkpt>
      <trkpt lat="45.43166" lon="5.68087">
        <ele>856.7</ele>
        <time>2013-06-23T07:33:41Z</time>
      </trkpt>
      <trkpt lat="45.43174" lon="5.6809">
        <ele>857.1</ele>
        <time>2013-06-23T07:33:43Z</time>
      </trkpt>
      <trkpt lat="45.43182" lon="5.68094">
        <ele>857.8</ele>
        <time>2013-06-23T07:33:45Z</time>
      </trkpt>
      <trkpt lat="45.43189" lon="5.68099">
        <ele>858</ele>
        <time>2013-06-23T07:33:47Z</time>
      </trkpt>
      <trkpt lat="45.43197" lon="5.68103">
        <ele>858</ele>
        <time>2013-06-23T07:33:49Z</time>
      </trkpt>
      <trkpt lat="45.43202" lon="5.68108">
        <ele>857.9</ele>
        <time>2013-06-23T07:33:51Z</time>
      </trkpt>
      <trkpt lat="45.43208" lon="5.68111">
        <ele>857.5</ele>
        <time>2013-06-23T07:33:53Z</time>
      </trkpt>
      <trkpt lat="45.43216" lon="5.68113">
        <ele>857.2</ele>
        <time>2013-06-23T07:33:55Z</time>
      </trkpt>
      <trkpt lat="45.43223" lon="5.68114">
        <ele>856.3</ele>
        <time>2013-06-23T07:33:57Z</time>
      </trkpt>
      <trkpt lat="45.43231" lon="5.68112">
        <ele>856</ele>
        <time>2013-06-23T07:33:59Z</time>
      </trkpt>
      <trkpt lat="45.43237" lon="5.6811">
        <ele>855.9</ele>
        <time>2013-06-23T07:34:01Z</time>
      </trkpt>
      <trkpt lat="45.43245" lon="5.68107">
        <ele>856.1</ele>
        <time>2013-06-23T07:34:03Z</time>
      </trkpt>
      <trkpt lat="45.43249" lon="5.68105">
        <ele>856.1</ele>
        <time>2013-06-23T07:34:04Z</time>
      </trkpt>
      <trkpt lat="45.43254" lon="5.68104">
        <ele>856.1</ele>
        <time>2013-06-23T07:34:05Z</time>
      </trkpt>
      <trkpt lat="45.4326" lon="5.68103">
        <ele>856.1</ele>
        <time>2013-06-23T07:34:06Z</time>
      </trkpt>
      <trkpt lat="45.43265" lon="5.68102">
        <ele>856.1</ele>
        <time>2013-06-23T07:34:07Z</time>
      </trkpt>
      <trkpt lat="45.4327" lon="5.68101">
        <ele>856.1</ele>
        <time>2013-06-23T07:34:08Z</time>
      </trkpt>
      <trkpt lat="45.43275" lon="5.681">
        <ele>856.3</ele>
        <time>2013-06-23T07:34:09Z</time>
      </trkpt>
      <trkpt lat="45.43281" lon="5.681">
        <ele>856.5</ele>
        <time>2013-06-23T07:34:10Z</time>
      </trkpt>
      <trkpt lat="45.43286" lon="5.68099">
        <ele>856.7</ele>
        <time>2013-06-23T07:34:11Z</time>
      </trkpt>
      <trkpt lat="45.43295" lon="5.68098">
        <ele>856</ele>
        <time>2013-06-23T07:34:13Z</time>
      </trkpt>
      <trkpt lat="45.43303" lon="5.68096">
        <ele>856</ele>
        <time>2013-06-23T07:34:16Z</time>
      </trkpt>
      <trkpt lat="45.43306" lon="5.68084">
        <ele>856.2</ele>
        <time>2013-06-23T07:34:20Z</time>
      </trkpt>
      <trkpt lat="45.43305" lon="5.6808">
        <ele>856</ele>
        <time>2013-06-23T07:34:21Z</time>
      </trkpt>
      <trkpt lat="45.43302" lon="5.68063">
        <ele>855.6</ele>
        <time>2013-06-23T07:34:25Z</time>
      </trkpt>
      <trkpt lat="45.43301" lon="5.68054">
        <ele>855.6</ele>
        <time>2013-06-23T07:34:27Z</time>
      </trkpt>
      <trkpt lat="45.433" lon="5.68044">
        <ele>855.9</ele>
        <time>2013-06-23T07:34:29Z</time>
      </trkpt>
      <trkpt lat="45.433" lon="5.68034">
        <ele>856.8</ele>
        <time>2013-06-23T07:34:31Z</time>
      </trkpt>
      <trkpt lat="45.433" lon="5.68024">
        <ele>857.8</ele>
        <time>2013-06-23T07:34:33Z</time>
      </trkpt>
      <trkpt lat="45.43301" lon="5.68014">
        <ele>858.2</ele>
        <time>2013-06-23T07:34:35Z</time>
      </trkpt>
      <trkpt lat="45.43301" lon="5.68003">
        <ele>858.6</ele>
        <time>2013-06-23T07:34:37Z</time>
      </trkpt>
      <trkpt lat="45.43302" lon="5.67991">
        <ele>858.9</ele>
        <time>2013-06-23T07:34:39Z</time>
      </trkpt>
      <trkpt lat="45.43302" lon="5.67979">
        <ele>859</ele>
        <time>2013-06-23T07:34:41Z</time>
      </trkpt>
      <trkpt lat="45.43303" lon="5.67967">
        <ele>859.1</ele>
        <time>2013-06-23T07:34:43Z</time>
      </trkpt>
      <trkpt lat="45.43304" lon="5.67955">
        <ele>859.3</ele>
        <time>2013-06-23T07:34:45Z</time>
      </trkpt>
      <trkpt lat="45.43304" lon="5.67943">
        <ele>859.2</ele>
        <time>2013-06-23T07:34:47Z</time>
      </trkpt>
      <trkpt lat="45.43305" lon="5.67931">
        <ele>859.1</ele>
        <time>2013-06-23T07:34:49Z</time>
      </trkpt>
      <trkpt lat="45.43306" lon="5.6792">
        <ele>859.5</ele>
        <time>2013-06-23T07:34:51Z</time>
      </trkpt>
      <trkpt lat="45.43306" lon="5.67909">
        <ele>860</ele>
        <time>2013-06-23T07:34:53Z</time>
      </trkpt>
      <trkpt lat="45.43307" lon="5.67898">
        <ele>860.4</ele>
        <time>2013-06-23T07:34:55Z</time>
      </trkpt>
      <trkpt lat="45.43307" lon="5.67888">
        <ele>860.7</ele>
        <time>2013-06-23T07:34:57Z</time>
      </trkpt>
      <trkpt lat="45.43309" lon="5.6788">
        <ele>860.9</ele>
        <time>2013-06-23T07:34:59Z</time>
      </trkpt>
      <trkpt lat="45.4331" lon="5.6787">
        <ele>861.7</ele>
        <time>2013-06-23T07:35:01Z</time>
      </trkpt>
      <trkpt lat="45.4331" lon="5.6786">
        <ele>861.9</ele>
        <time>2013-06-23T07:35:03Z</time>
      </trkpt>
      <trkpt lat="45.4331" lon="5.6785">
        <ele>861.8</ele>
        <time>2013-06-23T07:35:05Z</time>
      </trkpt>
      <trkpt lat="45.43311" lon="5.6784">
        <ele>861.7</ele>
        <time>2013-06-23T07:35:07Z</time>
      </trkpt>
      <trkpt lat="45.43311" lon="5.67829">
        <ele>861.5</ele>
        <time>2013-06-23T07:35:09Z</time>
      </trkpt>
      <trkpt lat="45.43312" lon="5.67817">
        <ele>861.2</ele>
        <time>2013-06-23T07:35:11Z</time>
      </trkpt>
      <trkpt lat="45.43312" lon="5.6781">
        <ele>861.4</ele>
        <time>2013-06-23T07:35:12Z</time>
      </trkpt>
      <trkpt lat="45.43314" lon="5.67804">
        <ele>861.7</ele>
        <time>2013-06-23T07:35:13Z</time>
      </trkpt>
      <trkpt lat="45.43318" lon="5.67799">
        <ele>861.8</ele>
        <time>2013-06-23T07:35:14Z</time>
      </trkpt>
      <trkpt lat="45.43322" lon="5.67796">
        <ele>861.9</ele>
        <time>2013-06-23T07:35:15Z</time>
      </trkpt>
      <trkpt lat="45.4333" lon="5.67793">
        <ele>861.6</ele>
        <time>2013-06-23T07:35:17Z</time>
      </trkpt>
      <trkpt lat="45.43337" lon="5.67791">
        <ele>860.8</ele>
        <time>2013-06-23T07:35:19Z</time>
      </trkpt>
      <trkpt lat="45.43345" lon="5.67791">
        <ele>859.7</ele>
        <time>2013-06-23T07:35:22Z</time>
      </trkpt>
      <trkpt lat="45.43348" lon="5.67792">
        <ele>859.7</ele>
        <time>2013-06-23T07:35:23Z</time>
      </trkpt>
      <trkpt lat="45.43359" lon="5.67792">
        <ele>860.4</ele>
        <time>2013-06-23T07:35:28Z</time>
      </trkpt>
      <trkpt lat="45.43367" lon="5.67792">
        <ele>860</ele>
        <time>2013-06-23T07:35:31Z</time>
      </trkpt>
      <trkpt lat="45.43374" lon="5.67789">
        <ele>860.2</ele>
        <time>2013-06-23T07:35:33Z</time>
      </trkpt>
      <trkpt lat="45.43383" lon="5.67788">
        <ele>859.9</ele>
        <time>2013-06-23T07:35:35Z</time>
      </trkpt>
      <trkpt lat="45.43387" lon="5.67788">
        <ele>859.7</ele>
        <time>2013-06-23T07:35:36Z</time>
      </trkpt>
      <trkpt lat="45.43392" lon="5.67788">
        <ele>859.6</ele>
        <time>2013-06-23T07:35:37Z</time>
      </trkpt>
      <trkpt lat="45.43398" lon="5.67788">
        <ele>859.9</ele>
        <time>2013-06-23T07:35:38Z</time>
      </trkpt>
      <trkpt lat="45.43403" lon="5.67788">
        <ele>860.1</ele>
        <time>2013-06-23T07:35:39Z</time>
      </trkpt>
      <trkpt lat="45.43408" lon="5.67788">
        <ele>860.3</ele>
        <time>2013-06-23T07:35:40Z</time>
      </trkpt>
      <trkpt lat="45.43414" lon="5.67788">
        <ele>859.7</ele>
        <time>2013-06-23T07:35:41Z</time>
      </trkpt>
      <trkpt lat="45.4342" lon="5.67788">
        <ele>859.3</ele>
        <time>2013-06-23T07:35:42Z</time>
      </trkpt>
      <trkpt lat="45.43425" lon="5.6779">
        <ele>858.9</ele>
        <time>2013-06-23T07:35:43Z</time>
      </trkpt>
      <trkpt lat="45.43429" lon="5.67792">
        <ele>858.2</ele>
        <time>2013-06-23T07:35:44Z</time>
      </trkpt>
      <trkpt lat="45.43433" lon="5.67795">
        <ele>857.7</ele>
        <time>2013-06-23T07:35:45Z</time>
      </trkpt>
      <trkpt lat="45.43437" lon="5.67798">
        <ele>857.3</ele>
        <time>2013-06-23T07:35:46Z</time>
      </trkpt>
      <trkpt lat="45.43442" lon="5.67801">
        <ele>857</ele>
        <time>2013-06-23T07:35:47Z</time>
      </trkpt>
      <trkpt lat="45.43447" lon="5.67806">
        <ele>856.1</ele>
        <time>2013-06-23T07:35:48Z</time>
      </trkpt>
      <trkpt lat="45.43452" lon="5.6781">
        <ele>855.4</ele>
        <time>2013-06-23T07:35:49Z</time>
      </trkpt>
      <trkpt lat="45.43458" lon="5.67815">
        <ele>854.9</ele>
        <time>2013-06-23T07:35:50Z</time>
      </trkpt>
      <trkpt lat="45.43463" lon="5.6782">
        <ele>854.3</ele>
        <time>2013-06-23T07:35:51Z</time>
      </trkpt>
      <trkpt lat="45.43469" lon="5.67825">
        <ele>853.9</ele>
        <time>2013-06-23T07:35:52Z</time>
      </trkpt>
      <trkpt lat="45.43474" lon="5.67829">
        <ele>853.5</ele>
        <time>2013-06-23T07:35:53Z</time>
      </trkpt>
      <trkpt lat="45.43479" lon="5.67832">
        <ele>852.7</ele>
        <time>2013-06-23T07:35:54Z</time>
      </trkpt>
      <trkpt lat="45.43483" lon="5.67836">
        <ele>852</ele>
        <time>2013-06-23T07:35:55Z</time>
      </trkpt>
      <trkpt lat="45.43488" lon="5.67841">
        <ele>851.5</ele>
        <time>2013-06-23T07:35:56Z</time>
      </trkpt>
      <trkpt lat="45.43492" lon="5.67846">
        <ele>851.2</ele>
        <time>2013-06-23T07:35:57Z</time>
      </trkpt>
      <trkpt lat="45.435" lon="5.67851">
        <ele>850.8</ele>
        <time>2013-06-23T07:35:59Z</time>
      </trkpt>
      <trkpt lat="45.43506" lon="5.67856">
        <ele>850.8</ele>
        <time>2013-06-23T07:36:01Z</time>
      </trkpt>
      <trkpt lat="45.43513" lon="5.67862">
        <ele>850.8</ele>
        <time>2013-06-23T07:36:03Z</time>
      </trkpt>
      <trkpt lat="45.43518" lon="5.67866">
        <ele>849.7</ele>
        <time>2013-06-23T07:36:04Z</time>
      </trkpt>
      <trkpt lat="45.43523" lon="5.67871">
        <ele>849</ele>
        <time>2013-06-23T07:36:05Z</time>
      </trkpt>
      <trkpt lat="45.43527" lon="5.67877">
        <ele>848.4</ele>
        <time>2013-06-23T07:36:06Z</time>
      </trkpt>
      <trkpt lat="45.43532" lon="5.67882">
        <ele>847.5</ele>
        <time>2013-06-23T07:36:07Z</time>
      </trkpt>
      <trkpt lat="45.43538" lon="5.67886">
        <ele>846.3</ele>
        <time>2013-06-23T07:36:09Z</time>
      </trkpt>
      <trkpt lat="45.43543" lon="5.67881">
        <ele>845.5</ele>
        <time>2013-06-23T07:36:11Z</time>
      </trkpt>
      <trkpt lat="45.43549" lon="5.67874">
        <ele>844.1</ele>
        <time>2013-06-23T07:36:13Z</time>
      </trkpt>
      <trkpt lat="45.43554" lon="5.67867">
        <ele>842.7</ele>
        <time>2013-06-23T07:36:15Z</time>
      </trkpt>
      <trkpt lat="45.43562" lon="5.67865">
        <ele>842.6</ele>
        <time>2013-06-23T07:36:18Z</time>
      </trkpt>
      <trkpt lat="45.43568" lon="5.67863">
        <ele>841.8</ele>
        <time>2013-06-23T07:36:21Z</time>
      </trkpt>
      <trkpt lat="45.43576" lon="5.67862">
        <ele>842.6</ele>
        <time>2013-06-23T07:36:24Z</time>
      </trkpt>
      <trkpt lat="45.43578" lon="5.67862">
        <ele>842.9</ele>
        <time>2013-06-23T07:36:25Z</time>
      </trkpt>
      <trkpt lat="45.43592" lon="5.67871">
        <ele>843.3</ele>
        <time>2013-06-23T07:36:30Z</time>
      </trkpt>
      <trkpt lat="45.43598" lon="5.67874">
        <ele>843.9</ele>
        <time>2013-06-23T07:36:32Z</time>
      </trkpt>
      <trkpt lat="45.43605" lon="5.67879">
        <ele>844.6</ele>
        <time>2013-06-23T07:36:35Z</time>
      </trkpt>
      <trkpt lat="45.43612" lon="5.67884">
        <ele>844.8</ele>
        <time>2013-06-23T07:36:38Z</time>
      </trkpt>
      <trkpt lat="45.4362" lon="5.67889">
        <ele>845.7</ele>
        <time>2013-06-23T07:36:42Z</time>
      </trkpt>
      <trkpt lat="45.43626" lon="5.67893">
        <ele>846.8</ele>
        <time>2013-06-23T07:36:45Z</time>
      </trkpt>
      <trkpt lat="45.43633" lon="5.67897">
        <ele>847.2</ele>
        <time>2013-06-23T07:36:48Z</time>
      </trkpt>
      <trkpt lat="45.4364" lon="5.67902">
        <ele>846.8</ele>
        <time>2013-06-23T07:36:52Z</time>
      </trkpt>
      <trkpt lat="45.43648" lon="5.67908">
        <ele>847.7</ele>
        <time>2013-06-23T07:36:56Z</time>
      </trkpt>
      <trkpt lat="45.43654" lon="5.67913">
        <ele>847.2</ele>
        <time>2013-06-23T07:36:59Z</time>
      </trkpt>
      <trkpt lat="45.43661" lon="5.67917">
        <ele>846.9</ele>
        <time>2013-06-23T07:37:02Z</time>
      </trkpt>
      <trkpt lat="45.43668" lon="5.6792">
        <ele>847.9</ele>
        <time>2013-06-23T07:37:05Z</time>
      </trkpt>
      <trkpt lat="45.43675" lon="5.67923">
        <ele>849.1</ele>
        <time>2013-06-23T07:37:08Z</time>
      </trkpt>
      <trkpt lat="45.43684" lon="5.67927">
        <ele>849.8</ele>
        <time>2013-06-23T07:37:12Z</time>
      </trkpt>
      <trkpt lat="45.43691" lon="5.6793">
        <ele>849.5</ele>
        <time>2013-06-23T07:37:15Z</time>
      </trkpt>
      <trkpt lat="45.437" lon="5.67934">
        <ele>849.5</ele>
        <time>2013-06-23T07:37:18Z</time>
      </trkpt>
      <trkpt lat="45.43707" lon="5.6794">
        <ele>849.5</ele>
        <time>2013-06-23T07:37:22Z</time>
      </trkpt>
      <trkpt lat="45.43712" lon="5.67947">
        <ele>850.1</ele>
        <time>2013-06-23T07:37:27Z</time>
      </trkpt>
      <trkpt lat="45.43714" lon="5.67949">
        <ele>850.3</ele>
        <time>2013-06-23T07:37:28Z</time>
      </trkpt>
      <trkpt lat="45.43723" lon="5.67966">
        <ele>851.4</ele>
        <time>2013-06-23T07:37:35Z</time>
      </trkpt>
      <trkpt lat="45.43729" lon="5.67972">
        <ele>851.2</ele>
        <time>2013-06-23T07:37:40Z</time>
      </trkpt>
      <trkpt lat="45.43734" lon="5.67979">
        <ele>851</ele>
        <time>2013-06-23T07:37:43Z</time>
      </trkpt>
      <trkpt lat="45.43741" lon="5.67984">
        <ele>851.3</ele>
        <time>2013-06-23T07:37:46Z</time>
      </trkpt>
      <trkpt lat="45.43748" lon="5.67989">
        <ele>851.9</ele>
        <time>2013-06-23T07:37:49Z</time>
      </trkpt>
      <trkpt lat="45.43754" lon="5.67995">
        <ele>852.4</ele>
        <time>2013-06-23T07:37:52Z</time>
      </trkpt>
      <trkpt lat="45.4376" lon="5.68">
        <ele>853</ele>
        <time>2013-06-23T07:37:55Z</time>
      </trkpt>
      <trkpt lat="45.43766" lon="5.68004">
        <ele>853.2</ele>
        <time>2013-06-23T07:37:57Z</time>
      </trkpt>
      <trkpt lat="45.43772" lon="5.68006">
        <ele>853.3</ele>
        <time>2013-06-23T07:37:59Z</time>
      </trkpt>
      <trkpt lat="45.43779" lon="5.68008">
        <ele>853.2</ele>
        <time>2013-06-23T07:38:01Z</time>
      </trkpt>
      <trkpt lat="45.43785" lon="5.68014">
        <ele>853.1</ele>
        <time>2013-06-23T07:38:03Z</time>
      </trkpt>
      <trkpt lat="45.43791" lon="5.68019">
        <ele>852.4</ele>
        <time>2013-06-23T07:38:05Z</time>
      </trkpt>
      <trkpt lat="45.43796" lon="5.68024">
        <ele>851.6</ele>
        <time>2013-06-23T07:38:07Z</time>
      </trkpt>
      <trkpt lat="45.43802" lon="5.68031">
        <ele>852.4</ele>
        <time>2013-06-23T07:38:10Z</time>
      </trkpt>
      <trkpt lat="45.43809" lon="5.68039">
        <ele>851.5</ele>
        <time>2013-06-23T07:38:14Z</time>
      </trkpt>
      <trkpt lat="45.43816" lon="5.68045">
        <ele>852</ele>
        <time>2013-06-23T07:38:17Z</time>
      </trkpt>
      <trkpt lat="45.43822" lon="5.68051">
        <ele>851.5</ele>
        <time>2013-06-23T07:38:20Z</time>
      </trkpt>
      <trkpt lat="45.43828" lon="5.68057">
        <ele>850.9</ele>
        <time>2013-06-23T07:38:22Z</time>
      </trkpt>
      <trkpt lat="45.43833" lon="5.68066">
        <ele>850.9</ele>
        <time>2013-06-23T07:38:24Z</time>
      </trkpt>
      <trkpt lat="45.43838" lon="5.68073">
        <ele>851.1</ele>
        <time>2013-06-23T07:38:26Z</time>
      </trkpt>
      <trkpt lat="45.43843" lon="5.6808">
        <ele>851.3</ele>
        <time>2013-06-23T07:38:28Z</time>
      </trkpt>
      <trkpt lat="45.43849" lon="5.68087">
        <ele>851.6</ele>
        <time>2013-06-23T07:38:30Z</time>
      </trkpt>
      <trkpt lat="45.43852" lon="5.68091">
        <ele>851.7</ele>
        <time>2013-06-23T07:38:31Z</time>
      </trkpt>
      <trkpt lat="45.4386" lon="5.68105">
        <ele>851.7</ele>
        <time>2013-06-23T07:38:34Z</time>
      </trkpt>
      <trkpt lat="45.43864" lon="5.68115">
        <ele>851.5</ele>
        <time>2013-06-23T07:38:36Z</time>
      </trkpt>
      <trkpt lat="45.43867" lon="5.68126">
        <ele>850.9</ele>
        <time>2013-06-23T07:38:39Z</time>
      </trkpt>
      <trkpt lat="45.43869" lon="5.68135">
        <ele>851</ele>
        <time>2013-06-23T07:38:42Z</time>
      </trkpt>
      <trkpt lat="45.43869" lon="5.68146">
        <ele>851.5</ele>
        <time>2013-06-23T07:38:45Z</time>
      </trkpt>
      <trkpt lat="45.43866" lon="5.68156">
        <ele>851.5</ele>
        <time>2013-06-23T07:38:47Z</time>
      </trkpt>
      <trkpt lat="45.43865" lon="5.68163">
        <ele>851.5</ele>
        <time>2013-06-23T07:38:48Z</time>
      </trkpt>
      <trkpt lat="45.43864" lon="5.6817">
        <ele>851.4</ele>
        <time>2013-06-23T07:38:49Z</time>
      </trkpt>
      <trkpt lat="45.43863" lon="5.68178">
        <ele>851.1</ele>
        <time>2013-06-23T07:38:50Z</time>
      </trkpt>
      <trkpt lat="45.43862" lon="5.68187">
        <ele>850.8</ele>
        <time>2013-06-23T07:38:51Z</time>
      </trkpt>
      <trkpt lat="45.4386" lon="5.68195">
        <ele>850.6</ele>
        <time>2013-06-23T07:38:52Z</time>
      </trkpt>
      <trkpt lat="45.43858" lon="5.68203">
        <ele>849.6</ele>
        <time>2013-06-23T07:38:53Z</time>
      </trkpt>
      <trkpt lat="45.43856" lon="5.68211">
        <ele>848.9</ele>
        <time>2013-06-23T07:38:54Z</time>
      </trkpt>
      <trkpt lat="45.43855" lon="5.68218">
        <ele>848.3</ele>
        <time>2013-06-23T07:38:55Z</time>
      </trkpt>
      <trkpt lat="45.43853" lon="5.68225">
        <ele>848.2</ele>
        <time>2013-06-23T07:38:56Z</time>
      </trkpt>
      <trkpt lat="45.43852" lon="5.68233">
        <ele>848.1</ele>
        <time>2013-06-23T07:38:57Z</time>
      </trkpt>
      <trkpt lat="45.43852" lon="5.68245">
        <ele>846.6</ele>
        <time>2013-06-23T07:39:00Z</time>
      </trkpt>
      <trkpt lat="45.43857" lon="5.68256">
        <ele>845.3</ele>
        <time>2013-06-23T07:39:03Z</time>
      </trkpt>
      <trkpt lat="45.43864" lon="5.68258">
        <ele>845</ele>
        <time>2013-06-23T07:39:06Z</time>
      </trkpt>
      <trkpt lat="45.43871" lon="5.68257">
        <ele>845</ele>
        <time>2013-06-23T07:39:10Z</time>
      </trkpt>
      <trkpt lat="45.43878" lon="5.68263">
        <ele>844.5</ele>
        <time>2013-06-23T07:39:13Z</time>
      </trkpt>
      <trkpt lat="45.43884" lon="5.68266">
        <ele>844.2</ele>
        <time>2013-06-23T07:39:15Z</time>
      </trkpt>
      <trkpt lat="45.4389" lon="5.68267">
        <ele>844</ele>
        <time>2013-06-23T07:39:17Z</time>
      </trkpt>
      <trkpt lat="45.43898" lon="5.68271">
        <ele>843.9</ele>
        <time>2013-06-23T07:39:20Z</time>
      </trkpt>
      <trkpt lat="45.43906" lon="5.68275">
        <ele>844.4</ele>
        <time>2013-06-23T07:39:25Z</time>
      </trkpt>
      <trkpt lat="45.43913" lon="5.68277">
        <ele>844.7</ele>
        <time>2013-06-23T07:39:27Z</time>
      </trkpt>
      <trkpt lat="45.43918" lon="5.6828">
        <ele>844.6</ele>
        <time>2013-06-23T07:39:29Z</time>
      </trkpt>
      <trkpt lat="45.43924" lon="5.68284">
        <ele>844.1</ele>
        <time>2013-06-23T07:39:31Z</time>
      </trkpt>
      <trkpt lat="45.43932" lon="5.68287">
        <ele>843.4</ele>
        <time>2013-06-23T07:39:33Z</time>
      </trkpt>
      <trkpt lat="45.43935" lon="5.68289">
        <ele>842.7</ele>
        <time>2013-06-23T07:39:34Z</time>
      </trkpt>
      <trkpt lat="45.43946" lon="5.68295">
        <ele>841.7</ele>
        <time>2013-06-23T07:39:37Z</time>
      </trkpt>
      <trkpt lat="45.43954" lon="5.68297">
        <ele>841.7</ele>
        <time>2013-06-23T07:39:39Z</time>
      </trkpt>
      <trkpt lat="45.43961" lon="5.683">
        <ele>841.5</ele>
        <time>2013-06-23T07:39:41Z</time>
      </trkpt>
      <trkpt lat="45.43969" lon="5.68303">
        <ele>841.3</ele>
        <time>2013-06-23T07:39:44Z</time>
      </trkpt>
      <trkpt lat="45.43978" lon="5.68306">
        <ele>841.8</ele>
        <time>2013-06-23T07:39:47Z</time>
      </trkpt>
      <trkpt lat="45.43983" lon="5.68309">
        <ele>842.4</ele>
        <time>2013-06-23T07:39:49Z</time>
      </trkpt>
      <trkpt lat="45.4399" lon="5.68313">
        <ele>843.3</ele>
        <time>2013-06-23T07:39:51Z</time>
      </trkpt>
      <trkpt lat="45.43996" lon="5.68318">
        <ele>843.5</ele>
        <time>2013-06-23T07:39:53Z</time>
      </trkpt>
      <trkpt lat="45.44002" lon="5.68322">
        <ele>843.4</ele>
        <time>2013-06-23T07:39:55Z</time>
      </trkpt>
      <trkpt lat="45.44009" lon="5.68326">
        <ele>843.4</ele>
        <time>2013-06-23T07:39:57Z</time>
      </trkpt>
      <trkpt lat="45.44016" lon="5.68331">
        <ele>843.5</ele>
        <time>2013-06-23T07:39:59Z</time>
      </trkpt>
      <trkpt lat="45.44022" lon="5.68336">
        <ele>843.5</ele>
        <time>2013-06-23T07:40:01Z</time>
      </trkpt>
      <trkpt lat="45.44029" lon="5.68343">
        <ele>843.3</ele>
        <time>2013-06-23T07:40:03Z</time>
      </trkpt>
      <trkpt lat="45.44033" lon="5.68347">
        <ele>843.2</ele>
        <time>2013-06-23T07:40:04Z</time>
      </trkpt>
      <trkpt lat="45.44037" lon="5.68351">
        <ele>843.2</ele>
        <time>2013-06-23T07:40:05Z</time>
      </trkpt>
      <trkpt lat="45.44042" lon="5.68361">
        <ele>841.8</ele>
        <time>2013-06-23T07:40:07Z</time>
      </trkpt>
      <trkpt lat="45.44047" lon="5.68369">
        <ele>840.7</ele>
        <time>2013-06-23T07:40:09Z</time>
      </trkpt>
      <trkpt lat="45.44053" lon="5.68375">
        <ele>839.9</ele>
        <time>2013-06-23T07:40:11Z</time>
      </trkpt>
      <trkpt lat="45.44059" lon="5.68379">
        <ele>838.9</ele>
        <time>2013-06-23T07:40:13Z</time>
      </trkpt>
      <trkpt lat="45.44067" lon="5.68382">
        <ele>838.3</ele>
        <time>2013-06-23T07:40:17Z</time>
      </trkpt>
      <trkpt lat="45.44073" lon="5.68384">
        <ele>837.5</ele>
        <time>2013-06-23T07:40:20Z</time>
      </trkpt>
      <trkpt lat="45.44081" lon="5.68387">
        <ele>837.2</ele>
        <time>2013-06-23T07:40:23Z</time>
      </trkpt>
      <trkpt lat="45.44089" lon="5.68387">
        <ele>836.9</ele>
        <time>2013-06-23T07:40:26Z</time>
      </trkpt>
      <trkpt lat="45.44096" lon="5.68386">
        <ele>837.3</ele>
        <time>2013-06-23T07:40:29Z</time>
      </trkpt>
      <trkpt lat="45.44104" lon="5.68383">
        <ele>838.5</ele>
        <time>2013-06-23T07:40:33Z</time>
      </trkpt>
      <trkpt lat="45.44111" lon="5.68377">
        <ele>839.7</ele>
        <time>2013-06-23T07:40:36Z</time>
      </trkpt>
      <trkpt lat="45.44113" lon="5.68374">
        <ele>840</ele>
        <time>2013-06-23T07:40:37Z</time>
      </trkpt>
      <trkpt lat="45.44123" lon="5.6836">
        <ele>841.2</ele>
        <time>2013-06-23T07:40:42Z</time>
      </trkpt>
      <trkpt lat="45.44127" lon="5.68352">
        <ele>842.1</ele>
        <time>2013-06-23T07:40:45Z</time>
      </trkpt>
      <trkpt lat="45.44133" lon="5.68345">
        <ele>842.5</ele>
        <time>2013-06-23T07:40:47Z</time>
      </trkpt>
      <trkpt lat="45.44138" lon="5.68337">
        <ele>841.1</ele>
        <time>2013-06-23T07:40:49Z</time>
      </trkpt>
      <trkpt lat="45.44143" lon="5.6833">
        <ele>840</ele>
        <time>2013-06-23T07:40:52Z</time>
      </trkpt>
      <trkpt lat="45.4415" lon="5.68327">
        <ele>839.7</ele>
        <time>2013-06-23T07:40:55Z</time>
      </trkpt>
      <trkpt lat="45.44156" lon="5.68326">
        <ele>839.1</ele>
        <time>2013-06-23T07:40:58Z</time>
      </trkpt>
      <trkpt lat="45.44162" lon="5.68317">
        <ele>840.2</ele>
        <time>2013-06-23T07:41:02Z</time>
      </trkpt>
      <trkpt lat="45.44163" lon="5.68305">
        <ele>840.2</ele>
        <time>2013-06-23T07:41:05Z</time>
      </trkpt>
      <trkpt lat="45.44167" lon="5.68295">
        <ele>840.4</ele>
        <time>2013-06-23T07:41:08Z</time>
      </trkpt>
      <trkpt lat="45.44171" lon="5.68287">
        <ele>840.7</ele>
        <time>2013-06-23T07:41:10Z</time>
      </trkpt>
      <trkpt lat="45.44176" lon="5.68279">
        <ele>840.9</ele>
        <time>2013-06-23T07:41:12Z</time>
      </trkpt>
      <trkpt lat="45.44181" lon="5.68272">
        <ele>839.8</ele>
        <time>2013-06-23T07:41:14Z</time>
      </trkpt>
      <trkpt lat="45.44184" lon="5.68267">
        <ele>839.5</ele>
        <time>2013-06-23T07:41:15Z</time>
      </trkpt>
      <trkpt lat="45.44188" lon="5.68262">
        <ele>839.1</ele>
        <time>2013-06-23T07:41:16Z</time>
      </trkpt>
      <trkpt lat="45.44192" lon="5.68257">
        <ele>838.9</ele>
        <time>2013-06-23T07:41:17Z</time>
      </trkpt>
      <trkpt lat="45.44196" lon="5.68252">
        <ele>838.7</ele>
        <time>2013-06-23T07:41:18Z</time>
      </trkpt>
      <trkpt lat="45.442" lon="5.68246">
        <ele>838.5</ele>
        <time>2013-06-23T07:41:19Z</time>
      </trkpt>
      <trkpt lat="45.44207" lon="5.68238">
        <ele>836.7</ele>
        <time>2013-06-23T07:41:21Z</time>
      </trkpt>
      <trkpt lat="45.44216" lon="5.68237">
        <ele>834.6</ele>
        <time>2013-06-23T07:41:25Z</time>
      </trkpt>
      <trkpt lat="45.44224" lon="5.68234">
        <ele>834.8</ele>
        <time>2013-06-23T07:41:29Z</time>
      </trkpt>
      <trkpt lat="45.44232" lon="5.6823">
        <ele>834.6</ele>
        <time>2013-06-23T07:41:32Z</time>
      </trkpt>
      <trkpt lat="45.44238" lon="5.68225">
        <ele>834.2</ele>
        <time>2013-06-23T07:41:34Z</time>
      </trkpt>
      <trkpt lat="45.44245" lon="5.68223">
        <ele>833.9</ele>
        <time>2013-06-23T07:41:36Z</time>
      </trkpt>
      <trkpt lat="45.44253" lon="5.68221">
        <ele>833.6</ele>
        <time>2013-06-23T07:41:38Z</time>
      </trkpt>
      <trkpt lat="45.44256" lon="5.6822">
        <ele>833</ele>
        <time>2013-06-23T07:41:39Z</time>
      </trkpt>
      <trkpt lat="45.44266" lon="5.68217">
        <ele>831.2</ele>
        <time>2013-06-23T07:41:42Z</time>
      </trkpt>
      <trkpt lat="45.44274" lon="5.68213">
        <ele>830.1</ele>
        <time>2013-06-23T07:41:44Z</time>
      </trkpt>
      <trkpt lat="45.44278" lon="5.68211">
        <ele>829.9</ele>
        <time>2013-06-23T07:41:45Z</time>
      </trkpt>
      <trkpt lat="45.44287" lon="5.68208">
        <ele>829.5</ele>
        <time>2013-06-23T07:41:47Z</time>
      </trkpt>
      <trkpt lat="45.44291" lon="5.68206">
        <ele>828.4</ele>
        <time>2013-06-23T07:41:48Z</time>
      </trkpt>
      <trkpt lat="45.44296" lon="5.68204">
        <ele>827.6</ele>
        <time>2013-06-23T07:41:49Z</time>
      </trkpt>
      <trkpt lat="45.44305" lon="5.68201">
        <ele>825.6</ele>
        <time>2013-06-23T07:41:51Z</time>
      </trkpt>
      <trkpt lat="45.44311" lon="5.68196">
        <ele>823.7</ele>
        <time>2013-06-23T07:41:53Z</time>
      </trkpt>
      <trkpt lat="45.44318" lon="5.68191">
        <ele>822.4</ele>
        <time>2013-06-23T07:41:56Z</time>
      </trkpt>
      <trkpt lat="45.44326" lon="5.68192">
        <ele>820.6</ele>
        <time>2013-06-23T07:42:00Z</time>
      </trkpt>
      <trkpt lat="45.44333" lon="5.68193">
        <ele>818.7</ele>
        <time>2013-06-23T07:42:06Z</time>
      </trkpt>
      <trkpt lat="45.4434" lon="5.6819">
        <ele>818.7</ele>
        <time>2013-06-23T07:42:10Z</time>
      </trkpt>
      <trkpt lat="45.44347" lon="5.68183">
        <ele>817.3</ele>
        <time>2013-06-23T07:42:14Z</time>
      </trkpt>
      <trkpt lat="45.44351" lon="5.68172">
        <ele>813.2</ele>
        <time>2013-06-23T07:42:19Z</time>
      </trkpt>
      <trkpt lat="45.44357" lon="5.68164">
        <ele>810.1</ele>
        <time>2013-06-23T07:42:23Z</time>
      </trkpt>
      <trkpt lat="45.44361" lon="5.68154">
        <ele>808.7</ele>
        <time>2013-06-23T07:42:26Z</time>
      </trkpt>
      <trkpt lat="45.44365" lon="5.68144">
        <ele>806.7</ele>
        <time>2013-06-23T07:42:29Z</time>
      </trkpt>
      <trkpt lat="45.44372" lon="5.68142">
        <ele>803.3</ele>
        <time>2013-06-23T07:42:32Z</time>
      </trkpt>
      <trkpt lat="45.44379" lon="5.68139">
        <ele>801.3</ele>
        <time>2013-06-23T07:42:35Z</time>
      </trkpt>
      <trkpt lat="45.44387" lon="5.68136">
        <ele>797.5</ele>
        <time>2013-06-23T07:42:39Z</time>
      </trkpt>
      <trkpt lat="45.44394" lon="5.68132">
        <ele>795.2</ele>
        <time>2013-06-23T07:42:43Z</time>
      </trkpt>
      <trkpt lat="45.44395" lon="5.68131">
        <ele>794.9</ele>
        <time>2013-06-23T07:42:44Z</time>
      </trkpt>
      <trkpt lat="45.44407" lon="5.68119">
        <ele>791.4</ele>
        <time>2013-06-23T07:42:50Z</time>
      </trkpt>
      <trkpt lat="45.44412" lon="5.68112">
        <ele>788.9</ele>
        <time>2013-06-23T07:42:53Z</time>
      </trkpt>
      <trkpt lat="45.44419" lon="5.68105">
        <ele>787</ele>
        <time>2013-06-23T07:42:56Z</time>
      </trkpt>
      <trkpt lat="45.44422" lon="5.68098">
        <ele>780.7</ele>
        <time>2013-06-23T07:43:08Z</time>
      </trkpt>
      <trkpt lat="45.44425" lon="5.68089">
        <ele>779.2</ele>
        <time>2013-06-23T07:43:10Z</time>
      </trkpt>
      <trkpt lat="45.44428" lon="5.68081">
        <ele>777.8</ele>
        <time>2013-06-23T07:43:12Z</time>
      </trkpt>
      <trkpt lat="45.44433" lon="5.68072">
        <ele>775.8</ele>
        <time>2013-06-23T07:43:15Z</time>
      </trkpt>
      <trkpt lat="45.4444" lon="5.68064">
        <ele>773.7</ele>
        <time>2013-06-23T07:43:18Z</time>
      </trkpt>
      <trkpt lat="45.44447" lon="5.68057">
        <ele>771.8</ele>
        <time>2013-06-23T07:43:22Z</time>
      </trkpt>
      <trkpt lat="45.44454" lon="5.68051">
        <ele>770.1</ele>
        <time>2013-06-23T07:43:25Z</time>
      </trkpt>
      <trkpt lat="45.44461" lon="5.68047">
        <ele>767.5</ele>
        <time>2013-06-23T07:43:28Z</time>
      </trkpt>
      <trkpt lat="45.44468" lon="5.68045">
        <ele>765.2</ele>
        <time>2013-06-23T07:43:31Z</time>
      </trkpt>
      <trkpt lat="45.44474" lon="5.68044">
        <ele>763.2</ele>
        <time>2013-06-23T07:43:34Z</time>
      </trkpt>
      <trkpt lat="45.44482" lon="5.68043">
        <ele>762.2</ele>
        <time>2013-06-23T07:43:37Z</time>
      </trkpt>
      <trkpt lat="45.44489" lon="5.68043">
        <ele>761.8</ele>
        <time>2013-06-23T07:43:40Z</time>
      </trkpt>
      <trkpt lat="45.44495" lon="5.68041">
        <ele>761.4</ele>
        <time>2013-06-23T07:43:42Z</time>
      </trkpt>
      <trkpt lat="45.44504" lon="5.68046">
        <ele>759</ele>
        <time>2013-06-23T07:43:45Z</time>
      </trkpt>
      <trkpt lat="45.44507" lon="5.68048">
        <ele>758.7</ele>
        <time>2013-06-23T07:43:46Z</time>
      </trkpt>
      <trkpt lat="45.44517" lon="5.68052">
        <ele>757.8</ele>
        <time>2013-06-23T07:43:50Z</time>
      </trkpt>
      <trkpt lat="45.44524" lon="5.68058">
        <ele>756.8</ele>
        <time>2013-06-23T07:43:53Z</time>
      </trkpt>
      <trkpt lat="45.44529" lon="5.68063">
        <ele>765.1</ele>
        <time>2013-06-23T07:44:36Z</time>
      </trkpt>
      <trkpt lat="45.44535" lon="5.68069">
        <ele>765</ele>
        <time>2013-06-23T07:44:38Z</time>
      </trkpt>
      <trkpt lat="45.44541" lon="5.68075">
        <ele>766.1</ele>
        <time>2013-06-23T07:44:46Z</time>
      </trkpt>
      <trkpt lat="45.44548" lon="5.68081">
        <ele>766.4</ele>
        <time>2013-06-23T07:44:48Z</time>
      </trkpt>
      <trkpt lat="45.44551" lon="5.68084">
        <ele>766.5</ele>
        <time>2013-06-23T07:44:49Z</time>
      </trkpt>
      <trkpt lat="45.44559" lon="5.68094">
        <ele>766.8</ele>
        <time>2013-06-23T07:44:52Z</time>
      </trkpt>
      <trkpt lat="45.44565" lon="5.681">
        <ele>767.4</ele>
        <time>2013-06-23T07:44:54Z</time>
      </trkpt>
      <trkpt lat="45.44571" lon="5.68107">
        <ele>767.7</ele>
        <time>2013-06-23T07:44:56Z</time>
      </trkpt>
      <trkpt lat="45.44578" lon="5.68113">
        <ele>767.5</ele>
        <time>2013-06-23T07:44:58Z</time>
      </trkpt>
      <trkpt lat="45.44586" lon="5.6812">
        <ele>767.7</ele>
        <time>2013-06-23T07:45:00Z</time>
      </trkpt>
      <trkpt lat="45.44593" lon="5.68126">
        <ele>767.9</ele>
        <time>2013-06-23T07:45:02Z</time>
      </trkpt>
      <trkpt lat="45.446" lon="5.68132">
        <ele>765.5</ele>
        <time>2013-06-23T07:45:04Z</time>
      </trkpt>
      <trkpt lat="45.44607" lon="5.68139">
        <ele>764.6</ele>
        <time>2013-06-23T07:45:06Z</time>
      </trkpt>
      <trkpt lat="45.44613" lon="5.68144">
        <ele>764.4</ele>
        <time>2013-06-23T07:45:08Z</time>
      </trkpt>
      <trkpt lat="45.44619" lon="5.6815">
        <ele>763.9</ele>
        <time>2013-06-23T07:45:10Z</time>
      </trkpt>
      <trkpt lat="45.44625" lon="5.68156">
        <ele>763.7</ele>
        <time>2013-06-23T07:45:12Z</time>
      </trkpt>
      <trkpt lat="45.44632" lon="5.68163">
        <ele>763</ele>
        <time>2013-06-23T07:45:14Z</time>
      </trkpt>
      <trkpt lat="45.44637" lon="5.6817">
        <ele>762.6</ele>
        <time>2013-06-23T07:45:16Z</time>
      </trkpt>
      <trkpt lat="45.44643" lon="5.68176">
        <ele>762.4</ele>
        <time>2013-06-23T07:45:18Z</time>
      </trkpt>
      <trkpt lat="45.44648" lon="5.68181">
        <ele>761.1</ele>
        <time>2013-06-23T07:45:20Z</time>
      </trkpt>
      <trkpt lat="45.44653" lon="5.68185">
        <ele>761.1</ele>
        <time>2013-06-23T07:45:22Z</time>
      </trkpt>
      <trkpt lat="45.44661" lon="5.68191">
        <ele>762.1</ele>
        <time>2013-06-23T07:45:25Z</time>
      </trkpt>
      <trkpt lat="45.44667" lon="5.68196">
        <ele>762.8</ele>
        <time>2013-06-23T07:45:27Z</time>
      </trkpt>
      <trkpt lat="45.44672" lon="5.68202">
        <ele>763.1</ele>
        <time>2013-06-23T07:45:29Z</time>
      </trkpt>
      <trkpt lat="45.44678" lon="5.68207">
        <ele>763.1</ele>
        <time>2013-06-23T07:45:31Z</time>
      </trkpt>
      <trkpt lat="45.44683" lon="5.68214">
        <ele>763.3</ele>
        <time>2013-06-23T07:45:33Z</time>
      </trkpt>
      <trkpt lat="45.44689" lon="5.68221">
        <ele>763.2</ele>
        <time>2013-06-23T07:45:35Z</time>
      </trkpt>
      <trkpt lat="45.44696" lon="5.68229">
        <ele>763</ele>
        <time>2013-06-23T07:45:37Z</time>
      </trkpt>
      <trkpt lat="45.44702" lon="5.68237">
        <ele>763.1</ele>
        <time>2013-06-23T07:45:39Z</time>
      </trkpt>
      <trkpt lat="45.44707" lon="5.68245">
        <ele>762.8</ele>
        <time>2013-06-23T07:45:41Z</time>
      </trkpt>
      <trkpt lat="45.44712" lon="5.68252">
        <ele>762.2</ele>
        <time>2013-06-23T07:45:44Z</time>
      </trkpt>
      <trkpt lat="45.44718" lon="5.68261">
        <ele>761.3</ele>
        <time>2013-06-23T07:45:47Z</time>
      </trkpt>
      <trkpt lat="45.44724" lon="5.6827">
        <ele>762</ele>
        <time>2013-06-23T07:45:50Z</time>
      </trkpt>
      <trkpt lat="45.44726" lon="5.68273">
        <ele>762.2</ele>
        <time>2013-06-23T07:45:51Z</time>
      </trkpt>
      <trkpt lat="45.44733" lon="5.68286">
        <ele>762.3</ele>
        <time>2013-06-23T07:45:56Z</time>
      </trkpt>
      <trkpt lat="45.44738" lon="5.68295">
        <ele>763.6</ele>
        <time>2013-06-23T07:45:59Z</time>
      </trkpt>
      <trkpt lat="45.44744" lon="5.68303">
        <ele>764.4</ele>
        <time>2013-06-23T07:46:02Z</time>
      </trkpt>
      <trkpt lat="45.44748" lon="5.68309">
        <ele>764.5</ele>
        <time>2013-06-23T07:46:04Z</time>
      </trkpt>
      <trkpt lat="45.44754" lon="5.68318">
        <ele>764.6</ele>
        <time>2013-06-23T07:46:07Z</time>
      </trkpt>
      <trkpt lat="45.44761" lon="5.68326">
        <ele>765.3</ele>
        <time>2013-06-23T07:46:10Z</time>
      </trkpt>
      <trkpt lat="45.44767" lon="5.68333">
        <ele>765.4</ele>
        <time>2013-06-23T07:46:13Z</time>
      </trkpt>
      <trkpt lat="45.44772" lon="5.68342">
        <ele>765.2</ele>
        <time>2013-06-23T07:46:17Z</time>
      </trkpt>
      <trkpt lat="45.44776" lon="5.68353">
        <ele>766.3</ele>
        <time>2013-06-23T07:46:22Z</time>
      </trkpt>
      <trkpt lat="45.44778" lon="5.68363">
        <ele>767.3</ele>
        <time>2013-06-23T07:46:27Z</time>
      </trkpt>
      <trkpt lat="45.44781" lon="5.68373">
        <ele>768.5</ele>
        <time>2013-06-23T07:46:31Z</time>
      </trkpt>
      <trkpt lat="45.44783" lon="5.68384">
        <ele>769</ele>
        <time>2013-06-23T07:46:36Z</time>
      </trkpt>
      <trkpt lat="45.44785" lon="5.68393">
        <ele>770</ele>
        <time>2013-06-23T07:46:39Z</time>
      </trkpt>
      <trkpt lat="45.44786" lon="5.68404">
        <ele>770</ele>
        <time>2013-06-23T07:46:42Z</time>
      </trkpt>
      <trkpt lat="45.44789" lon="5.68413">
        <ele>769.8</ele>
        <time>2013-06-23T07:46:45Z</time>
      </trkpt>
      <trkpt lat="45.44792" lon="5.68424">
        <ele>770.1</ele>
        <time>2013-06-23T07:46:48Z</time>
      </trkpt>
      <trkpt lat="45.44794" lon="5.68432">
        <ele>770.8</ele>
        <time>2013-06-23T07:46:50Z</time>
      </trkpt>
      <trkpt lat="45.44797" lon="5.68443">
        <ele>771</ele>
        <time>2013-06-23T07:46:53Z</time>
      </trkpt>
      <trkpt lat="45.44799" lon="5.68447">
        <ele>771</ele>
        <time>2013-06-23T07:46:54Z</time>
      </trkpt>
      <trkpt lat="45.44802" lon="5.6846">
        <ele>771.4</ele>
        <time>2013-06-23T07:46:57Z</time>
      </trkpt>
      <trkpt lat="45.44805" lon="5.68468">
        <ele>770.9</ele>
        <time>2013-06-23T07:46:59Z</time>
      </trkpt>
      <trkpt lat="45.44809" lon="5.68476">
        <ele>770.7</ele>
        <time>2013-06-23T07:47:01Z</time>
      </trkpt>
      <trkpt lat="45.44813" lon="5.68485">
        <ele>770.6</ele>
        <time>2013-06-23T07:47:03Z</time>
      </trkpt>
      <trkpt lat="45.44817" lon="5.68491">
        <ele>770</ele>
        <time>2013-06-23T07:47:04Z</time>
      </trkpt>
      <trkpt lat="45.4482" lon="5.68496">
        <ele>769.5</ele>
        <time>2013-06-23T07:47:05Z</time>
      </trkpt>
      <trkpt lat="45.44824" lon="5.68503">
        <ele>769.2</ele>
        <time>2013-06-23T07:47:06Z</time>
      </trkpt>
      <trkpt lat="45.44828" lon="5.68509">
        <ele>768.9</ele>
        <time>2013-06-23T07:47:07Z</time>
      </trkpt>
      <trkpt lat="45.44832" lon="5.68514">
        <ele>768.7</ele>
        <time>2013-06-23T07:47:08Z</time>
      </trkpt>
      <trkpt lat="45.44837" lon="5.68521">
        <ele>768.4</ele>
        <time>2013-06-23T07:47:10Z</time>
      </trkpt>
      <trkpt lat="45.44841" lon="5.68529">
        <ele>767.9</ele>
        <time>2013-06-23T07:47:13Z</time>
      </trkpt>
      <trkpt lat="45.44846" lon="5.68537">
        <ele>767.8</ele>
        <time>2013-06-23T07:47:16Z</time>
      </trkpt>
      <trkpt lat="45.44849" lon="5.68547">
        <ele>769.3</ele>
        <time>2013-06-23T07:47:19Z</time>
      </trkpt>
      <trkpt lat="45.44852" lon="5.68558">
        <ele>770.4</ele>
        <time>2013-06-23T07:47:23Z</time>
      </trkpt>
      <trkpt lat="45.44853" lon="5.6857">
        <ele>770.5</ele>
        <time>2013-06-23T07:47:27Z</time>
      </trkpt>
      <trkpt lat="45.44853" lon="5.68579">
        <ele>771.6</ele>
        <time>2013-06-23T07:47:30Z</time>
      </trkpt>
      <trkpt lat="45.44853" lon="5.68591">
        <ele>770.9</ele>
        <time>2013-06-23T07:47:33Z</time>
      </trkpt>
      <trkpt lat="45.44853" lon="5.68601">
        <ele>770.9</ele>
        <time>2013-06-23T07:47:36Z</time>
      </trkpt>
      <trkpt lat="45.44853" lon="5.68612">
        <ele>771.2</ele>
        <time>2013-06-23T07:47:39Z</time>
      </trkpt>
      <trkpt lat="45.44852" lon="5.68622">
        <ele>771.9</ele>
        <time>2013-06-23T07:47:42Z</time>
      </trkpt>
      <trkpt lat="45.44853" lon="5.68635">
        <ele>772.6</ele>
        <time>2013-06-23T07:47:45Z</time>
      </trkpt>
      <trkpt lat="45.44854" lon="5.68646">
        <ele>771.4</ele>
        <time>2013-06-23T07:47:48Z</time>
      </trkpt>
      <trkpt lat="45.44855" lon="5.68657">
        <ele>772</ele>
        <time>2013-06-23T07:47:51Z</time>
      </trkpt>
      <trkpt lat="45.44857" lon="5.68666">
        <ele>771.5</ele>
        <time>2013-06-23T07:47:54Z</time>
      </trkpt>
      <trkpt lat="45.44858" lon="5.68676">
        <ele>773.2</ele>
        <time>2013-06-23T07:47:57Z</time>
      </trkpt>
      <trkpt lat="45.44859" lon="5.6868">
        <ele>773.5</ele>
        <time>2013-06-23T07:47:58Z</time>
      </trkpt>
      <trkpt lat="45.44858" lon="5.68701">
        <ele>774.4</ele>
        <time>2013-06-23T07:48:04Z</time>
      </trkpt>
      <trkpt lat="45.44856" lon="5.68712">
        <ele>774.5</ele>
        <time>2013-06-23T07:48:08Z</time>
      </trkpt>
      <trkpt lat="45.44854" lon="5.68721">
        <ele>777.1</ele>
        <time>2013-06-23T07:48:19Z</time>
      </trkpt>
      <trkpt lat="45.44851" lon="5.68732">
        <ele>777.1</ele>
        <time>2013-06-23T07:48:23Z</time>
      </trkpt>
      <trkpt lat="45.44846" lon="5.68742">
        <ele>777.5</ele>
        <time>2013-06-23T07:48:27Z</time>
      </trkpt>
      <trkpt lat="45.44843" lon="5.68752">
        <ele>781.6</ele>
        <time>2013-06-23T07:48:44Z</time>
      </trkpt>
      <trkpt lat="45.44839" lon="5.68763">
        <ele>782.5</ele>
        <time>2013-06-23T07:48:55Z</time>
      </trkpt>
      <trkpt lat="45.44835" lon="5.68773">
        <ele>782.8</ele>
        <time>2013-06-23T07:48:57Z</time>
      </trkpt>
      <trkpt lat="45.44832" lon="5.68782">
        <ele>783</ele>
        <time>2013-06-23T07:48:59Z</time>
      </trkpt>
      <trkpt lat="45.4483" lon="5.68786">
        <ele>783.1</ele>
        <time>2013-06-23T07:49:00Z</time>
      </trkpt>
      <trkpt lat="45.44823" lon="5.68803">
        <ele>783.9</ele>
        <time>2013-06-23T07:49:06Z</time>
      </trkpt>
      <trkpt lat="45.44819" lon="5.68813">
        <ele>784.2</ele>
        <time>2013-06-23T07:49:09Z</time>
      </trkpt>
      <trkpt lat="45.44815" lon="5.68822">
        <ele>784.6</ele>
        <time>2013-06-23T07:49:12Z</time>
      </trkpt>
      <trkpt lat="45.44812" lon="5.6883">
        <ele>785.3</ele>
        <time>2013-06-23T07:49:16Z</time>
      </trkpt>
      <trkpt lat="45.44809" lon="5.68837">
        <ele>785.6</ele>
        <time>2013-06-23T07:49:18Z</time>
      </trkpt>
      <trkpt lat="45.44805" lon="5.68845">
        <ele>785.8</ele>
        <time>2013-06-23T07:49:20Z</time>
      </trkpt>
      <trkpt lat="45.44802" lon="5.68853">
        <ele>786</ele>
        <time>2013-06-23T07:49:22Z</time>
      </trkpt>
      <trkpt lat="45.44798" lon="5.6886">
        <ele>786.3</ele>
        <time>2013-06-23T07:49:24Z</time>
      </trkpt>
      <trkpt lat="45.44794" lon="5.68868">
        <ele>785.5</ele>
        <time>2013-06-23T07:49:26Z</time>
      </trkpt>
      <trkpt lat="45.44792" lon="5.68879">
        <ele>785.4</ele>
        <time>2013-06-23T07:49:28Z</time>
      </trkpt>
      <trkpt lat="45.44791" lon="5.68888">
        <ele>785.6</ele>
        <time>2013-06-23T07:49:30Z</time>
      </trkpt>
      <trkpt lat="45.44793" lon="5.68899">
        <ele>784.6</ele>
        <time>2013-06-23T07:49:33Z</time>
      </trkpt>
      <trkpt lat="45.44795" lon="5.68911">
        <ele>785.9</ele>
        <time>2013-06-23T07:49:38Z</time>
      </trkpt>
      <trkpt lat="45.44793" lon="5.68921">
        <ele>786.1</ele>
        <time>2013-06-23T07:49:42Z</time>
      </trkpt>
      <trkpt lat="45.44791" lon="5.68931">
        <ele>787.5</ele>
        <time>2013-06-23T07:49:46Z</time>
      </trkpt>
      <trkpt lat="45.44789" lon="5.68942">
        <ele>787.8</ele>
        <time>2013-06-23T07:49:50Z</time>
      </trkpt>
      <trkpt lat="45.44787" lon="5.68953">
        <ele>788.5</ele>
        <time>2013-06-23T07:49:55Z</time>
      </trkpt>
      <trkpt lat="45.44789" lon="5.68964">
        <ele>788.5</ele>
        <time>2013-06-23T07:49:59Z</time>
      </trkpt>
      <trkpt lat="45.44789" lon="5.68975">
        <ele>788.7</ele>
        <time>2013-06-23T07:50:03Z</time>
      </trkpt>
      <trkpt lat="45.44789" lon="5.68978">
        <ele>789</ele>
        <time>2013-06-23T07:50:04Z</time>
      </trkpt>
      <trkpt lat="45.44794" lon="5.68996">
        <ele>790.4</ele>
        <time>2013-06-23T07:50:11Z</time>
      </trkpt>
      <trkpt lat="45.44799" lon="5.69005">
        <ele>790.9</ele>
        <time>2013-06-23T07:50:15Z</time>
      </trkpt>
      <trkpt lat="45.44806" lon="5.6901">
        <ele>794.2</ele>
        <time>2013-06-23T07:50:35Z</time>
      </trkpt>
      <trkpt lat="45.44812" lon="5.69016">
        <ele>794.3</ele>
        <time>2013-06-23T07:50:37Z</time>
      </trkpt>
      <trkpt lat="45.44817" lon="5.69022">
        <ele>795.2</ele>
        <time>2013-06-23T07:50:39Z</time>
      </trkpt>
      <trkpt lat="45.44824" lon="5.6903">
        <ele>796.1</ele>
        <time>2013-06-23T07:50:42Z</time>
      </trkpt>
      <trkpt lat="45.4483" lon="5.69037">
        <ele>796.6</ele>
        <time>2013-06-23T07:50:45Z</time>
      </trkpt>
      <trkpt lat="45.44837" lon="5.69046">
        <ele>796.2</ele>
        <time>2013-06-23T07:50:52Z</time>
      </trkpt>
      <trkpt lat="45.44842" lon="5.69054">
        <ele>796.7</ele>
        <time>2013-06-23T07:50:55Z</time>
      </trkpt>
      <trkpt lat="45.44848" lon="5.69062">
        <ele>797.6</ele>
        <time>2013-06-23T07:50:58Z</time>
      </trkpt>
      <trkpt lat="45.44854" lon="5.6907">
        <ele>797.6</ele>
        <time>2013-06-23T07:51:01Z</time>
      </trkpt>
      <trkpt lat="45.44858" lon="5.69076">
        <ele>797.2</ele>
        <time>2013-06-23T07:51:03Z</time>
      </trkpt>
      <trkpt lat="45.44863" lon="5.69083">
        <ele>797.2</ele>
        <time>2013-06-23T07:51:05Z</time>
      </trkpt>
      <trkpt lat="45.44866" lon="5.69087">
        <ele>797.2</ele>
        <time>2013-06-23T07:51:06Z</time>
      </trkpt>
      <trkpt lat="45.44873" lon="5.69097">
        <ele>796.8</ele>
        <time>2013-06-23T07:51:09Z</time>
      </trkpt>
      <trkpt lat="45.44878" lon="5.69103">
        <ele>796.7</ele>
        <time>2013-06-23T07:51:11Z</time>
      </trkpt>
      <trkpt lat="45.44883" lon="5.6911">
        <ele>796.7</ele>
        <time>2013-06-23T07:51:13Z</time>
      </trkpt>
      <trkpt lat="45.44887" lon="5.69117">
        <ele>796.7</ele>
        <time>2013-06-23T07:51:15Z</time>
      </trkpt>
      <trkpt lat="45.44892" lon="5.69124">
        <ele>796.2</ele>
        <time>2013-06-23T07:51:17Z</time>
      </trkpt>
      <trkpt lat="45.44897" lon="5.6913">
        <ele>795.6</ele>
        <time>2013-06-23T07:51:19Z</time>
      </trkpt>
      <trkpt lat="45.44901" lon="5.69137">
        <ele>795.6</ele>
        <time>2013-06-23T07:51:21Z</time>
      </trkpt>
      <trkpt lat="45.44907" lon="5.69144">
        <ele>796</ele>
        <time>2013-06-23T07:51:23Z</time>
      </trkpt>
      <trkpt lat="45.44912" lon="5.69152">
        <ele>796.6</ele>
        <time>2013-06-23T07:51:25Z</time>
      </trkpt>
      <trkpt lat="45.44918" lon="5.6916">
        <ele>796.8</ele>
        <time>2013-06-23T07:51:27Z</time>
      </trkpt>
      <trkpt lat="45.44925" lon="5.69168">
        <ele>797.3</ele>
        <time>2013-06-23T07:51:29Z</time>
      </trkpt>
      <trkpt lat="45.4493" lon="5.69175">
        <ele>797.8</ele>
        <time>2013-06-23T07:51:31Z</time>
      </trkpt>
      <trkpt lat="45.44936" lon="5.69183">
        <ele>797.6</ele>
        <time>2013-06-23T07:51:33Z</time>
      </trkpt>
      <trkpt lat="45.44941" lon="5.69191">
        <ele>797.1</ele>
        <time>2013-06-23T07:51:35Z</time>
      </trkpt>
      <trkpt lat="45.44947" lon="5.692">
        <ele>796.4</ele>
        <time>2013-06-23T07:51:37Z</time>
      </trkpt>
      <trkpt lat="45.44953" lon="5.69208">
        <ele>796.1</ele>
        <time>2013-06-23T07:51:39Z</time>
      </trkpt>
      <trkpt lat="45.44959" lon="5.69215">
        <ele>796.1</ele>
        <time>2013-06-23T07:51:41Z</time>
      </trkpt>
      <trkpt lat="45.44964" lon="5.69221">
        <ele>796.1</ele>
        <time>2013-06-23T07:51:43Z</time>
      </trkpt>
      <trkpt lat="45.44971" lon="5.69224">
        <ele>796.1</ele>
        <time>2013-06-23T07:51:47Z</time>
      </trkpt>
      <trkpt lat="45.44976" lon="5.69231">
        <ele>796.3</ele>
        <time>2013-06-23T07:51:51Z</time>
      </trkpt>
      <trkpt lat="45.4498" lon="5.69236">
        <ele>796.4</ele>
        <time>2013-06-23T07:51:53Z</time>
      </trkpt>
      <trkpt lat="45.44986" lon="5.69246">
        <ele>796.7</ele>
        <time>2013-06-23T07:51:56Z</time>
      </trkpt>
      <trkpt lat="45.44991" lon="5.69253">
        <ele>796.7</ele>
        <time>2013-06-23T07:51:58Z</time>
      </trkpt>
      <trkpt lat="45.44995" lon="5.69257">
        <ele>796.7</ele>
        <time>2013-06-23T07:51:59Z</time>
      </trkpt>
      <trkpt lat="45.44998" lon="5.69262">
        <ele>796.6</ele>
        <time>2013-06-23T07:52:00Z</time>
      </trkpt>
      <trkpt lat="45.45002" lon="5.69267">
        <ele>796.8</ele>
        <time>2013-06-23T07:52:01Z</time>
      </trkpt>
      <trkpt lat="45.45006" lon="5.69271">
        <ele>796.9</ele>
        <time>2013-06-23T07:52:02Z</time>
      </trkpt>
      <trkpt lat="45.4501" lon="5.69276">
        <ele>797</ele>
        <time>2013-06-23T07:52:03Z</time>
      </trkpt>
      <trkpt lat="45.45017" lon="5.69284">
        <ele>796.9</ele>
        <time>2013-06-23T07:52:05Z</time>
      </trkpt>
      <trkpt lat="45.45022" lon="5.6929">
        <ele>796.9</ele>
        <time>2013-06-23T07:52:07Z</time>
      </trkpt>
      <trkpt lat="45.45024" lon="5.69292">
        <ele>796.9</ele>
        <time>2013-06-23T07:52:08Z</time>
      </trkpt>
      <trkpt lat="45.45035" lon="5.69301">
        <ele>796.5</ele>
        <time>2013-06-23T07:52:13Z</time>
      </trkpt>
      <trkpt lat="45.45042" lon="5.69306">
        <ele>797.8</ele>
        <time>2013-06-23T07:52:17Z</time>
      </trkpt>
      <trkpt lat="45.4505" lon="5.6931">
        <ele>797.9</ele>
        <time>2013-06-23T07:52:22Z</time>
      </trkpt>
      <trkpt lat="45.45057" lon="5.69314">
        <ele>802.5</ele>
        <time>2013-06-23T07:52:36Z</time>
      </trkpt>
      <trkpt lat="45.45063" lon="5.69319">
        <ele>803.4</ele>
        <time>2013-06-23T07:52:39Z</time>
      </trkpt>
      <trkpt lat="45.45069" lon="5.69328">
        <ele>803.6</ele>
        <time>2013-06-23T07:52:43Z</time>
      </trkpt>
      <trkpt lat="45.45075" lon="5.69335">
        <ele>806.4</ele>
        <time>2013-06-23T07:52:53Z</time>
      </trkpt>
      <trkpt lat="45.45081" lon="5.69341">
        <ele>807.4</ele>
        <time>2013-06-23T07:52:56Z</time>
      </trkpt>
      <trkpt lat="45.45089" lon="5.69348">
        <ele>808.7</ele>
        <time>2013-06-23T07:53:00Z</time>
      </trkpt>
      <trkpt lat="45.45096" lon="5.69353">
        <ele>808.4</ele>
        <time>2013-06-23T07:53:04Z</time>
      </trkpt>
      <trkpt lat="45.45103" lon="5.69356">
        <ele>809</ele>
        <time>2013-06-23T07:53:08Z</time>
      </trkpt>
      <trkpt lat="45.4511" lon="5.69359">
        <ele>809.5</ele>
        <time>2013-06-23T07:53:11Z</time>
      </trkpt>
      <trkpt lat="45.45112" lon="5.69359">
        <ele>809.9</ele>
        <time>2013-06-23T07:53:12Z</time>
      </trkpt>
      <trkpt lat="45.45126" lon="5.69364">
        <ele>810.9</ele>
        <time>2013-06-23T07:53:19Z</time>
      </trkpt>
      <trkpt lat="45.45134" lon="5.69369">
        <ele>809.8</ele>
        <time>2013-06-23T07:53:23Z</time>
      </trkpt>
      <trkpt lat="45.45141" lon="5.69373">
        <ele>810</ele>
        <time>2013-06-23T07:53:27Z</time>
      </trkpt>
      <trkpt lat="45.45148" lon="5.69377">
        <ele>811.6</ele>
        <time>2013-06-23T07:53:31Z</time>
      </trkpt>
      <trkpt lat="45.45156" lon="5.69381">
        <ele>811.9</ele>
        <time>2013-06-23T07:53:35Z</time>
      </trkpt>
      <trkpt lat="45.45163" lon="5.69384">
        <ele>811.3</ele>
        <time>2013-06-23T07:53:38Z</time>
      </trkpt>
      <trkpt lat="45.4517" lon="5.69386">
        <ele>811</ele>
        <time>2013-06-23T07:53:41Z</time>
      </trkpt>
      <trkpt lat="45.45177" lon="5.69388">
        <ele>811.9</ele>
        <time>2013-06-23T07:53:44Z</time>
      </trkpt>
      <trkpt lat="45.45185" lon="5.6939">
        <ele>812.1</ele>
        <time>2013-06-23T07:53:48Z</time>
      </trkpt>
      <trkpt lat="45.45192" lon="5.69391">
        <ele>812.1</ele>
        <time>2013-06-23T07:53:52Z</time>
      </trkpt>
      <trkpt lat="45.452" lon="5.69393">
        <ele>812.9</ele>
        <time>2013-06-23T07:53:57Z</time>
      </trkpt>
      <trkpt lat="45.45207" lon="5.69397">
        <ele>814.3</ele>
        <time>2013-06-23T07:54:06Z</time>
      </trkpt>
      <trkpt lat="45.45215" lon="5.69403">
        <ele>819.4</ele>
        <time>2013-06-23T07:54:31Z</time>
      </trkpt>
      <trkpt lat="45.45219" lon="5.69404">
        <ele>819.3</ele>
        <time>2013-06-23T07:54:32Z</time>
      </trkpt>
      <trkpt lat="45.45228" lon="5.69403">
        <ele>818.9</ele>
        <time>2013-06-23T07:54:34Z</time>
      </trkpt>
      <trkpt lat="45.45234" lon="5.69401">
        <ele>818.6</ele>
        <time>2013-06-23T07:54:35Z</time>
      </trkpt>
      <trkpt lat="45.4524" lon="5.694">
        <ele>818.4</ele>
        <time>2013-06-23T07:54:36Z</time>
      </trkpt>
      <trkpt lat="45.45245" lon="5.69399">
        <ele>818.2</ele>
        <time>2013-06-23T07:54:37Z</time>
      </trkpt>
      <trkpt lat="45.4525" lon="5.69397">
        <ele>817.7</ele>
        <time>2013-06-23T07:54:38Z</time>
      </trkpt>
      <trkpt lat="45.45259" lon="5.69396">
        <ele>817.1</ele>
        <time>2013-06-23T07:54:40Z</time>
      </trkpt>
      <trkpt lat="45.45267" lon="5.69395">
        <ele>816.5</ele>
        <time>2013-06-23T07:54:42Z</time>
      </trkpt>
      <trkpt lat="45.45272" lon="5.69395">
        <ele>816.3</ele>
        <time>2013-06-23T07:54:43Z</time>
      </trkpt>
      <trkpt lat="45.45277" lon="5.69395">
        <ele>816.2</ele>
        <time>2013-06-23T07:54:44Z</time>
      </trkpt>
      <trkpt lat="45.45282" lon="5.69396">
        <ele>816.1</ele>
        <time>2013-06-23T07:54:45Z</time>
      </trkpt>
      <trkpt lat="45.45291" lon="5.69397">
        <ele>816.2</ele>
        <time>2013-06-23T07:54:47Z</time>
      </trkpt>
      <trkpt lat="45.45298" lon="5.69397">
        <ele>816.2</ele>
        <time>2013-06-23T07:54:49Z</time>
      </trkpt>
      <trkpt lat="45.45307" lon="5.69397">
        <ele>817</ele>
        <time>2013-06-23T07:54:52Z</time>
      </trkpt>
      <trkpt lat="45.45313" lon="5.69397">
        <ele>817.2</ele>
        <time>2013-06-23T07:54:54Z</time>
      </trkpt>
      <trkpt lat="45.45319" lon="5.69397">
        <ele>817.2</ele>
        <time>2013-06-23T07:54:56Z</time>
      </trkpt>
      <trkpt lat="45.45327" lon="5.69398">
        <ele>817.3</ele>
        <time>2013-06-23T07:54:58Z</time>
      </trkpt>
      <trkpt lat="45.45334" lon="5.69398">
        <ele>817.1</ele>
        <time>2013-06-23T07:55:00Z</time>
      </trkpt>
      <trkpt lat="45.45341" lon="5.69398">
        <ele>816.8</ele>
        <time>2013-06-23T07:55:02Z</time>
      </trkpt>
      <trkpt lat="45.45349" lon="5.69398">
        <ele>817.8</ele>
        <time>2013-06-23T07:55:05Z</time>
      </trkpt>
      <trkpt lat="45.45355" lon="5.69397">
        <ele>817.6</ele>
        <time>2013-06-23T07:55:07Z</time>
      </trkpt>
      <trkpt lat="45.45364" lon="5.69395">
        <ele>817.3</ele>
        <time>2013-06-23T07:55:10Z</time>
      </trkpt>
      <trkpt lat="45.4537" lon="5.69393">
        <ele>816.4</ele>
        <time>2013-06-23T07:55:13Z</time>
      </trkpt>
      <trkpt lat="45.45376" lon="5.69393">
        <ele>815.5</ele>
        <time>2013-06-23T07:55:15Z</time>
      </trkpt>
      <trkpt lat="45.45384" lon="5.69392">
        <ele>816</ele>
        <time>2013-06-23T07:55:17Z</time>
      </trkpt>
      <trkpt lat="45.45389" lon="5.69393">
        <ele>816.1</ele>
        <time>2013-06-23T07:55:18Z</time>
      </trkpt>
      <trkpt lat="45.45394" lon="5.69393">
        <ele>815.6</ele>
        <time>2013-06-23T07:55:19Z</time>
      </trkpt>
      <trkpt lat="45.45398" lon="5.69395">
        <ele>815.3</ele>
        <time>2013-06-23T07:55:20Z</time>
      </trkpt>
      <trkpt lat="45.45403" lon="5.69397">
        <ele>815</ele>
        <time>2013-06-23T07:55:21Z</time>
      </trkpt>
      <trkpt lat="45.45408" lon="5.69396">
        <ele>814.2</ele>
        <time>2013-06-23T07:55:22Z</time>
      </trkpt>
      <trkpt lat="45.45414" lon="5.69396">
        <ele>813.5</ele>
        <time>2013-06-23T07:55:23Z</time>
      </trkpt>
      <trkpt lat="45.45418" lon="5.69395">
        <ele>813</ele>
        <time>2013-06-23T07:55:24Z</time>
      </trkpt>
      <trkpt lat="45.45422" lon="5.69392">
        <ele>812.7</ele>
        <time>2013-06-23T07:55:25Z</time>
      </trkpt>
      <trkpt lat="45.45428" lon="5.69389">
        <ele>812.6</ele>
        <time>2013-06-23T07:55:26Z</time>
      </trkpt>
      <trkpt lat="45.45435" lon="5.69385">
        <ele>812.5</ele>
        <time>2013-06-23T07:55:27Z</time>
      </trkpt>
      <trkpt lat="45.45441" lon="5.69384">
        <ele>812.4</ele>
        <time>2013-06-23T07:55:28Z</time>
      </trkpt>
      <trkpt lat="45.45447" lon="5.69383">
        <ele>811.6</ele>
        <time>2013-06-23T07:55:29Z</time>
      </trkpt>
      <trkpt lat="45.45452" lon="5.69383">
        <ele>811</ele>
        <time>2013-06-23T07:55:30Z</time>
      </trkpt>
      <trkpt lat="45.45461" lon="5.69381">
        <ele>809.3</ele>
        <time>2013-06-23T07:55:32Z</time>
      </trkpt>
      <trkpt lat="45.45465" lon="5.69379">
        <ele>808.3</ele>
        <time>2013-06-23T07:55:33Z</time>
      </trkpt>
      <trkpt lat="45.45477" lon="5.69379">
        <ele>806.1</ele>
        <time>2013-06-23T07:55:36Z</time>
      </trkpt>
      <trkpt lat="45.45485" lon="5.6938">
        <ele>805.4</ele>
        <time>2013-06-23T07:55:39Z</time>
      </trkpt>
      <trkpt lat="45.45493" lon="5.69382">
        <ele>804.5</ele>
        <time>2013-06-23T07:55:43Z</time>
      </trkpt>
      <trkpt lat="45.455" lon="5.69383">
        <ele>808.7</ele>
        <time>2013-06-23T07:56:09Z</time>
      </trkpt>
      <trkpt lat="45.45507" lon="5.69384">
        <ele>808.5</ele>
        <time>2013-06-23T07:56:11Z</time>
      </trkpt>
      <trkpt lat="45.45513" lon="5.69385">
        <ele>808.6</ele>
        <time>2013-06-23T07:56:13Z</time>
      </trkpt>
      <trkpt lat="45.45521" lon="5.69386">
        <ele>808.7</ele>
        <time>2013-06-23T07:56:16Z</time>
      </trkpt>
      <trkpt lat="45.45529" lon="5.69386">
        <ele>808.6</ele>
        <time>2013-06-23T07:56:19Z</time>
      </trkpt>
      <trkpt lat="45.45537" lon="5.69385">
        <ele>809.4</ele>
        <time>2013-06-23T07:56:22Z</time>
      </trkpt>
      <trkpt lat="45.45544" lon="5.69384">
        <ele>809.3</ele>
        <time>2013-06-23T07:56:25Z</time>
      </trkpt>
      <trkpt lat="45.45552" lon="5.69385">
        <ele>808.9</ele>
        <time>2013-06-23T07:56:28Z</time>
      </trkpt>
      <trkpt lat="45.4556" lon="5.69384">
        <ele>808.5</ele>
        <time>2013-06-23T07:56:31Z</time>
      </trkpt>
      <trkpt lat="45.45568" lon="5.69383">
        <ele>809</ele>
        <time>2013-06-23T07:56:34Z</time>
      </trkpt>
      <trkpt lat="45.4557" lon="5.69383">
        <ele>809.2</ele>
        <time>2013-06-23T07:56:35Z</time>
      </trkpt>
      <trkpt lat="45.45584" lon="5.69383">
        <ele>809.7</ele>
        <time>2013-06-23T07:56:40Z</time>
      </trkpt>
      <trkpt lat="45.4559" lon="5.69384">
        <ele>809.4</ele>
        <time>2013-06-23T07:56:42Z</time>
      </trkpt>
      <trkpt lat="45.45597" lon="5.69385">
        <ele>809.1</ele>
        <time>2013-06-23T07:56:44Z</time>
      </trkpt>
      <trkpt lat="45.45605" lon="5.69385">
        <ele>807.9</ele>
        <time>2013-06-23T07:56:46Z</time>
      </trkpt>
      <trkpt lat="45.45612" lon="5.69384">
        <ele>807.2</ele>
        <time>2013-06-23T07:56:48Z</time>
      </trkpt>
      <trkpt lat="45.45618" lon="5.69384">
        <ele>807.4</ele>
        <time>2013-06-23T07:56:50Z</time>
      </trkpt>
      <trkpt lat="45.45626" lon="5.69384">
        <ele>807.2</ele>
        <time>2013-06-23T07:56:53Z</time>
      </trkpt>
      <trkpt lat="45.45634" lon="5.69384">
        <ele>807.7</ele>
        <time>2013-06-23T07:56:56Z</time>
      </trkpt>
      <trkpt lat="45.45641" lon="5.69385">
        <ele>808.4</ele>
        <time>2013-06-23T07:56:59Z</time>
      </trkpt>
      <trkpt lat="45.45649" lon="5.69384">
        <ele>808</ele>
        <time>2013-06-23T07:57:03Z</time>
      </trkpt>
      <trkpt lat="45.45657" lon="5.69385">
        <ele>808.3</ele>
        <time>2013-06-23T07:57:06Z</time>
      </trkpt>
      <trkpt lat="45.45664" lon="5.69386">
        <ele>808.6</ele>
        <time>2013-06-23T07:57:19Z</time>
      </trkpt>
      <trkpt lat="45.45673" lon="5.69384">
        <ele>808.7</ele>
        <time>2013-06-23T07:57:21Z</time>
      </trkpt>
      <trkpt lat="45.4568" lon="5.69385">
        <ele>808.9</ele>
        <time>2013-06-23T07:57:23Z</time>
      </trkpt>
      <trkpt lat="45.45687" lon="5.69385">
        <ele>808.3</ele>
        <time>2013-06-23T07:57:29Z</time>
      </trkpt>
      <trkpt lat="45.45694" lon="5.69383">
        <ele>808.4</ele>
        <time>2013-06-23T07:57:31Z</time>
      </trkpt>
      <trkpt lat="45.45702" lon="5.69378">
        <ele>807.6</ele>
        <time>2013-06-23T07:57:34Z</time>
      </trkpt>
      <trkpt lat="45.45708" lon="5.69372">
        <ele>806.8</ele>
        <time>2013-06-23T07:57:36Z</time>
      </trkpt>
      <trkpt lat="45.4571" lon="5.6937">
        <ele>806.5</ele>
        <time>2013-06-23T07:57:37Z</time>
      </trkpt>
      <trkpt lat="45.45718" lon="5.69364">
        <ele>804.7</ele>
        <time>2013-06-23T07:57:40Z</time>
      </trkpt>
      <trkpt lat="45.45726" lon="5.69362">
        <ele>802.5</ele>
        <time>2013-06-23T07:57:43Z</time>
      </trkpt>
      <trkpt lat="45.45734" lon="5.6936">
        <ele>802.1</ele>
        <time>2013-06-23T07:57:46Z</time>
      </trkpt>
      <trkpt lat="45.45742" lon="5.6936">
        <ele>801.9</ele>
        <time>2013-06-23T07:57:49Z</time>
      </trkpt>
      <trkpt lat="45.45751" lon="5.69359">
        <ele>801.5</ele>
        <time>2013-06-23T07:57:52Z</time>
      </trkpt>
      <trkpt lat="45.45758" lon="5.69358">
        <ele>801.4</ele>
        <time>2013-06-23T07:57:55Z</time>
      </trkpt>
      <trkpt lat="45.45767" lon="5.69358">
        <ele>802.1</ele>
        <time>2013-06-23T07:57:59Z</time>
      </trkpt>
      <trkpt lat="45.45775" lon="5.69357">
        <ele>802.7</ele>
        <time>2013-06-23T07:58:03Z</time>
      </trkpt>
      <trkpt lat="45.45784" lon="5.69358">
        <ele>802.3</ele>
        <time>2013-06-23T07:58:06Z</time>
      </trkpt>
      <trkpt lat="45.4579" lon="5.69359">
        <ele>802.3</ele>
        <time>2013-06-23T07:58:08Z</time>
      </trkpt>
      <trkpt lat="45.45798" lon="5.69363">
        <ele>802.5</ele>
        <time>2013-06-23T07:58:11Z</time>
      </trkpt>
      <trkpt lat="45.45804" lon="5.69366">
        <ele>802.2</ele>
        <time>2013-06-23T07:58:14Z</time>
      </trkpt>
      <trkpt lat="45.45811" lon="5.69371">
        <ele>803.1</ele>
        <time>2013-06-23T07:58:18Z</time>
      </trkpt>
      <trkpt lat="45.4582" lon="5.69375">
        <ele>806.9</ele>
        <time>2013-06-23T07:58:25Z</time>
      </trkpt>
      <trkpt lat="45.45826" lon="5.69379">
        <ele>807.6</ele>
        <time>2013-06-23T07:58:28Z</time>
      </trkpt>
      <trkpt lat="45.45835" lon="5.69383">
        <ele>809.2</ele>
        <time>2013-06-23T07:58:32Z</time>
      </trkpt>
      <trkpt lat="45.45843" lon="5.69388">
        <ele>810.1</ele>
        <time>2013-06-23T07:58:36Z</time>
      </trkpt>
      <trkpt lat="45.45849" lon="5.69394">
        <ele>810.5</ele>
        <time>2013-06-23T07:58:40Z</time>
      </trkpt>
      <trkpt lat="45.4585" lon="5.69396">
        <ele>810.8</ele>
        <time>2013-06-23T07:58:41Z</time>
      </trkpt>
      <trkpt lat="45.45847" lon="5.69414">
        <ele>819.5</ele>
        <time>2013-06-23T07:59:36Z</time>
      </trkpt>
      <trkpt lat="45.45842" lon="5.69422">
        <ele>819.3</ele>
        <time>2013-06-23T07:59:38Z</time>
      </trkpt>
      <trkpt lat="45.45837" lon="5.69428">
        <ele>820</ele>
        <time>2013-06-23T07:59:43Z</time>
      </trkpt>
      <trkpt lat="45.45835" lon="5.69433">
        <ele>820</ele>
        <time>2013-06-23T07:59:44Z</time>
      </trkpt>
      <trkpt lat="45.45828" lon="5.69444">
        <ele>820.3</ele>
        <time>2013-06-23T07:59:47Z</time>
      </trkpt>
      <trkpt lat="45.45823" lon="5.69455">
        <ele>820.8</ele>
        <time>2013-06-23T07:59:50Z</time>
      </trkpt>
      <trkpt lat="45.45821" lon="5.69465">
        <ele>821</ele>
        <time>2013-06-23T07:59:53Z</time>
      </trkpt>
      <trkpt lat="45.4582" lon="5.69476">
        <ele>826.3</ele>
        <time>2013-06-23T08:00:19Z</time>
      </trkpt>
      <trkpt lat="45.45822" lon="5.69488">
        <ele>826.3</ele>
        <time>2013-06-23T08:00:21Z</time>
      </trkpt>
      <trkpt lat="45.45823" lon="5.69498">
        <ele>826.4</ele>
        <time>2013-06-23T08:00:23Z</time>
      </trkpt>
      <trkpt lat="45.45825" lon="5.69507">
        <ele>826.4</ele>
        <time>2013-06-23T08:00:25Z</time>
      </trkpt>
      <trkpt lat="45.45828" lon="5.69519">
        <ele>827.5</ele>
        <time>2013-06-23T08:00:28Z</time>
      </trkpt>
      <trkpt lat="45.45831" lon="5.6953">
        <ele>827.6</ele>
        <time>2013-06-23T08:00:31Z</time>
      </trkpt>
      <trkpt lat="45.45836" lon="5.6954">
        <ele>827.8</ele>
        <time>2013-06-23T08:00:34Z</time>
      </trkpt>
      <trkpt lat="45.4584" lon="5.69551">
        <ele>828.4</ele>
        <time>2013-06-23T08:00:37Z</time>
      </trkpt>
      <trkpt lat="45.45844" lon="5.69561">
        <ele>828</ele>
        <time>2013-06-23T08:00:41Z</time>
      </trkpt>
      <trkpt lat="45.45848" lon="5.69569">
        <ele>828.6</ele>
        <time>2013-06-23T08:00:44Z</time>
      </trkpt>
      <trkpt lat="45.45853" lon="5.69577">
        <ele>828.9</ele>
        <time>2013-06-23T08:00:47Z</time>
      </trkpt>
      <trkpt lat="45.45855" lon="5.69579">
        <ele>828.8</ele>
        <time>2013-06-23T08:00:48Z</time>
      </trkpt>
      <trkpt lat="45.45863" lon="5.69593">
        <ele>828.7</ele>
        <time>2013-06-23T08:00:53Z</time>
      </trkpt>
      <trkpt lat="45.45867" lon="5.69601">
        <ele>828.4</ele>
        <time>2013-06-23T08:00:56Z</time>
      </trkpt>
      <trkpt lat="45.45872" lon="5.69611">
        <ele>829.7</ele>
        <time>2013-06-23T08:01:00Z</time>
      </trkpt>
      <trkpt lat="45.45877" lon="5.69621">
        <ele>829.4</ele>
        <time>2013-06-23T08:01:04Z</time>
      </trkpt>
      <trkpt lat="45.45882" lon="5.69631">
        <ele>829.8</ele>
        <time>2013-06-23T08:01:08Z</time>
      </trkpt>
      <trkpt lat="45.45885" lon="5.69642">
        <ele>830.6</ele>
        <time>2013-06-23T08:01:12Z</time>
      </trkpt>
      <trkpt lat="45.45888" lon="5.69653">
        <ele>829.8</ele>
        <time>2013-06-23T08:01:16Z</time>
      </trkpt>
      <trkpt lat="45.45888" lon="5.69665">
        <ele>830.9</ele>
        <time>2013-06-23T08:01:20Z</time>
      </trkpt>
      <trkpt lat="45.45887" lon="5.69677">
        <ele>830.9</ele>
        <time>2013-06-23T08:01:24Z</time>
      </trkpt>
      <trkpt lat="45.45886" lon="5.69686">
        <ele>830.7</ele>
        <time>2013-06-23T08:01:27Z</time>
      </trkpt>
      <trkpt lat="45.45884" lon="5.69696">
        <ele>830.2</ele>
        <time>2013-06-23T08:01:30Z</time>
      </trkpt>
      <trkpt lat="45.4588" lon="5.69707">
        <ele>830</ele>
        <time>2013-06-23T08:01:34Z</time>
      </trkpt>
      <trkpt lat="45.45876" lon="5.69718">
        <ele>830.6</ele>
        <time>2013-06-23T08:01:38Z</time>
      </trkpt>
      <trkpt lat="45.45873" lon="5.69729">
        <ele>829.5</ele>
        <time>2013-06-23T08:01:42Z</time>
      </trkpt>
      <trkpt lat="45.45869" lon="5.69739">
        <ele>829.5</ele>
        <time>2013-06-23T08:01:45Z</time>
      </trkpt>
      <trkpt lat="45.45867" lon="5.69747">
        <ele>829.3</ele>
        <time>2013-06-23T08:01:47Z</time>
      </trkpt>
      <trkpt lat="45.45863" lon="5.69756">
        <ele>828.9</ele>
        <time>2013-06-23T08:01:49Z</time>
      </trkpt>
      <trkpt lat="45.45861" lon="5.69761">
        <ele>828.6</ele>
        <time>2013-06-23T08:01:50Z</time>
      </trkpt>
      <trkpt lat="45.45854" lon="5.69775">
        <ele>827.6</ele>
        <time>2013-06-23T08:01:53Z</time>
      </trkpt>
      <trkpt lat="45.45847" lon="5.69783">
        <ele>827.3</ele>
        <time>2013-06-23T08:01:55Z</time>
      </trkpt>
      <trkpt lat="45.45842" lon="5.6979">
        <ele>827.3</ele>
        <time>2013-06-23T08:01:57Z</time>
      </trkpt>
      <trkpt lat="45.45834" lon="5.69794">
        <ele>827.7</ele>
        <time>2013-06-23T08:01:59Z</time>
      </trkpt>
      <trkpt lat="45.45827" lon="5.69798">
        <ele>827.3</ele>
        <time>2013-06-23T08:02:01Z</time>
      </trkpt>
      <trkpt lat="45.4582" lon="5.69803">
        <ele>826.7</ele>
        <time>2013-06-23T08:02:03Z</time>
      </trkpt>
      <trkpt lat="45.45812" lon="5.69806">
        <ele>826.2</ele>
        <time>2013-06-23T08:02:05Z</time>
      </trkpt>
      <trkpt lat="45.45806" lon="5.69809">
        <ele>825.8</ele>
        <time>2013-06-23T08:02:07Z</time>
      </trkpt>
      <trkpt lat="45.45799" lon="5.69802">
        <ele>824.1</ele>
        <time>2013-06-23T08:02:13Z</time>
      </trkpt>
      <trkpt lat="45.45796" lon="5.69791">
        <ele>824.7</ele>
        <time>2013-06-23T08:02:26Z</time>
      </trkpt>
      <trkpt lat="45.45792" lon="5.69783">
        <ele>826.9</ele>
        <time>2013-06-23T08:02:29Z</time>
      </trkpt>
      <trkpt lat="45.45789" lon="5.69774">
        <ele>826.7</ele>
        <time>2013-06-23T08:02:32Z</time>
      </trkpt>
      <trkpt lat="45.45787" lon="5.69765">
        <ele>826.9</ele>
        <time>2013-06-23T08:02:35Z</time>
      </trkpt>
      <trkpt lat="45.45784" lon="5.69755">
        <ele>827</ele>
        <time>2013-06-23T08:02:38Z</time>
      </trkpt>
      <trkpt lat="45.45782" lon="5.69744">
        <ele>826.3</ele>
        <time>2013-06-23T08:02:42Z</time>
      </trkpt>
      <trkpt lat="45.4578" lon="5.69734">
        <ele>825.9</ele>
        <time>2013-06-23T08:02:45Z</time>
      </trkpt>
      <trkpt lat="45.45779" lon="5.69725">
        <ele>826.3</ele>
        <time>2013-06-23T08:02:48Z</time>
      </trkpt>
      <trkpt lat="45.45778" lon="5.69714">
        <ele>827.2</ele>
        <time>2013-06-23T08:02:51Z</time>
      </trkpt>
      <trkpt lat="45.45777" lon="5.69711">
        <ele>827.4</ele>
        <time>2013-06-23T08:02:52Z</time>
      </trkpt>
      <trkpt lat="45.45776" lon="5.69695">
        <ele>827.6</ele>
        <time>2013-06-23T08:02:57Z</time>
      </trkpt>
      <trkpt lat="45.45776" lon="5.69683">
        <ele>828.4</ele>
        <time>2013-06-23T08:03:01Z</time>
      </trkpt>
      <trkpt lat="45.45777" lon="5.69672">
        <ele>829.7</ele>
        <time>2013-06-23T08:03:05Z</time>
      </trkpt>
      <trkpt lat="45.45777" lon="5.69662">
        <ele>829.3</ele>
        <time>2013-06-23T08:03:10Z</time>
      </trkpt>
      <trkpt lat="45.45776" lon="5.69651">
        <ele>830.4</ele>
        <time>2013-06-23T08:03:14Z</time>
      </trkpt>
      <trkpt lat="45.45774" lon="5.69639">
        <ele>831.3</ele>
        <time>2013-06-23T08:03:17Z</time>
      </trkpt>
      <trkpt lat="45.4577" lon="5.69629">
        <ele>831.3</ele>
        <time>2013-06-23T08:03:20Z</time>
      </trkpt>
      <trkpt lat="45.45766" lon="5.69621">
        <ele>830.6</ele>
        <time>2013-06-23T08:03:23Z</time>
      </trkpt>
      <trkpt lat="45.4576" lon="5.69612">
        <ele>831</ele>
        <time>2013-06-23T08:03:26Z</time>
      </trkpt>
      <trkpt lat="45.45753" lon="5.69605">
        <ele>830.5</ele>
        <time>2013-06-23T08:03:29Z</time>
      </trkpt>
      <trkpt lat="45.45746" lon="5.69598">
        <ele>831.5</ele>
        <time>2013-06-23T08:03:32Z</time>
      </trkpt>
      <trkpt lat="45.4574" lon="5.69591">
        <ele>832.4</ele>
        <time>2013-06-23T08:03:35Z</time>
      </trkpt>
      <trkpt lat="45.45734" lon="5.69584">
        <ele>832.9</ele>
        <time>2013-06-23T08:03:38Z</time>
      </trkpt>
      <trkpt lat="45.45728" lon="5.69577">
        <ele>833.2</ele>
        <time>2013-06-23T08:03:41Z</time>
      </trkpt>
      <trkpt lat="45.4572" lon="5.69574">
        <ele>832.9</ele>
        <time>2013-06-23T08:03:44Z</time>
      </trkpt>
      <trkpt lat="45.45713" lon="5.69571">
        <ele>832.8</ele>
        <time>2013-06-23T08:03:47Z</time>
      </trkpt>
      <trkpt lat="45.45706" lon="5.69566">
        <ele>833.4</ele>
        <time>2013-06-23T08:03:50Z</time>
      </trkpt>
      <trkpt lat="45.45698" lon="5.69559">
        <ele>833.2</ele>
        <time>2013-06-23T08:03:53Z</time>
      </trkpt>
      <trkpt lat="45.45695" lon="5.69558">
        <ele>833.1</ele>
        <time>2013-06-23T08:03:54Z</time>
      </trkpt>
      <trkpt lat="45.45685" lon="5.69554">
        <ele>832.8</ele>
        <time>2013-06-23T08:03:58Z</time>
      </trkpt>
      <trkpt lat="45.45681" lon="5.69548">
        <ele>832.8</ele>
        <time>2013-06-23T08:04:00Z</time>
      </trkpt>
      <trkpt lat="45.45676" lon="5.69538">
        <ele>832.6</ele>
        <time>2013-06-23T08:04:03Z</time>
      </trkpt>
      <trkpt lat="45.45667" lon="5.69542">
        <ele>831.3</ele>
        <time>2013-06-23T08:04:07Z</time>
      </trkpt>
      <trkpt lat="45.4566" lon="5.69548">
        <ele>831</ele>
        <time>2013-06-23T08:04:10Z</time>
      </trkpt>
      <trkpt lat="45.45654" lon="5.6955">
        <ele>831.5</ele>
        <time>2013-06-23T08:04:12Z</time>
      </trkpt>
      <trkpt lat="45.45648" lon="5.69551">
        <ele>832.1</ele>
        <time>2013-06-23T08:04:14Z</time>
      </trkpt>
      <trkpt lat="45.45641" lon="5.69554">
        <ele>831.9</ele>
        <time>2013-06-23T08:04:16Z</time>
      </trkpt>
      <trkpt lat="45.45635" lon="5.69557">
        <ele>831.3</ele>
        <time>2013-06-23T08:04:18Z</time>
      </trkpt>
      <trkpt lat="45.45629" lon="5.69561">
        <ele>831.5</ele>
        <time>2013-06-23T08:04:20Z</time>
      </trkpt>
      <trkpt lat="45.45622" lon="5.69562">
        <ele>830.9</ele>
        <time>2013-06-23T08:04:22Z</time>
      </trkpt>
      <trkpt lat="45.45615" lon="5.69562">
        <ele>829.5</ele>
        <time>2013-06-23T08:04:25Z</time>
      </trkpt>
      <trkpt lat="45.45608" lon="5.69561">
        <ele>829</ele>
        <time>2013-06-23T08:04:27Z</time>
      </trkpt>
      <trkpt lat="45.45601" lon="5.6956">
        <ele>828.8</ele>
        <time>2013-06-23T08:04:29Z</time>
      </trkpt>
      <trkpt lat="45.45594" lon="5.69557">
        <ele>829.7</ele>
        <time>2013-06-23T08:04:32Z</time>
      </trkpt>
      <trkpt lat="45.45587" lon="5.69551">
        <ele>830.3</ele>
        <time>2013-06-23T08:04:35Z</time>
      </trkpt>
      <trkpt lat="45.45581" lon="5.69544">
        <ele>830.5</ele>
        <time>2013-06-23T08:04:38Z</time>
      </trkpt>
      <trkpt lat="45.45573" lon="5.69542">
        <ele>830.6</ele>
        <time>2013-06-23T08:04:41Z</time>
      </trkpt>
      <trkpt lat="45.45564" lon="5.69544">
        <ele>830.2</ele>
        <time>2013-06-23T08:04:44Z</time>
      </trkpt>
      <trkpt lat="45.45556" lon="5.69547">
        <ele>829.8</ele>
        <time>2013-06-23T08:04:47Z</time>
      </trkpt>
      <trkpt lat="45.45549" lon="5.69547">
        <ele>829.8</ele>
        <time>2013-06-23T08:04:49Z</time>
      </trkpt>
      <trkpt lat="45.45542" lon="5.69544">
        <ele>830</ele>
        <time>2013-06-23T08:04:51Z</time>
      </trkpt>
      <trkpt lat="45.45534" lon="5.69541">
        <ele>830.3</ele>
        <time>2013-06-23T08:04:54Z</time>
      </trkpt>
      <trkpt lat="45.45527" lon="5.69538">
        <ele>830.1</ele>
        <time>2013-06-23T08:04:57Z</time>
      </trkpt>
      <trkpt lat="45.45524" lon="5.69537">
        <ele>829.9</ele>
        <time>2013-06-23T08:04:58Z</time>
      </trkpt>
      <trkpt lat="45.45513" lon="5.69528">
        <ele>830.4</ele>
        <time>2013-06-23T08:05:02Z</time>
      </trkpt>
      <trkpt lat="45.45508" lon="5.69523">
        <ele>830.8</ele>
        <time>2013-06-23T08:05:04Z</time>
      </trkpt>
      <trkpt lat="45.45501" lon="5.69521">
        <ele>831.1</ele>
        <time>2013-06-23T08:05:06Z</time>
      </trkpt>
      <trkpt lat="45.45493" lon="5.69522">
        <ele>830.3</ele>
        <time>2013-06-23T08:05:09Z</time>
      </trkpt>
      <trkpt lat="45.45486" lon="5.69527">
        <ele>830.4</ele>
        <time>2013-06-23T08:05:12Z</time>
      </trkpt>
      <trkpt lat="45.45479" lon="5.69532">
        <ele>828.9</ele>
        <time>2013-06-23T08:05:15Z</time>
      </trkpt>
      <trkpt lat="45.45473" lon="5.69534">
        <ele>829</ele>
        <time>2013-06-23T08:05:17Z</time>
      </trkpt>
      <trkpt lat="45.45467" lon="5.69537">
        <ele>829.2</ele>
        <time>2013-06-23T08:05:19Z</time>
      </trkpt>
      <trkpt lat="45.45462" lon="5.69541">
        <ele>829.4</ele>
        <time>2013-06-23T08:05:21Z</time>
      </trkpt>
      <trkpt lat="45.45456" lon="5.69546">
        <ele>829.8</ele>
        <time>2013-06-23T08:05:23Z</time>
      </trkpt>
      <trkpt lat="45.45451" lon="5.69551">
        <ele>830.1</ele>
        <time>2013-06-23T08:05:25Z</time>
      </trkpt>
      <trkpt lat="45.45445" lon="5.69556">
        <ele>830.3</ele>
        <time>2013-06-23T08:05:27Z</time>
      </trkpt>
      <trkpt lat="45.45437" lon="5.69559">
        <ele>829.5</ele>
        <time>2013-06-23T08:05:29Z</time>
      </trkpt>
      <trkpt lat="45.4543" lon="5.69563">
        <ele>828.2</ele>
        <time>2013-06-23T08:05:31Z</time>
      </trkpt>
      <trkpt lat="45.45424" lon="5.69562">
        <ele>829.3</ele>
        <time>2013-06-23T08:05:33Z</time>
      </trkpt>
      <trkpt lat="45.45418" lon="5.69559">
        <ele>829.3</ele>
        <time>2013-06-23T08:05:35Z</time>
      </trkpt>
      <trkpt lat="45.4541" lon="5.69554">
        <ele>828.7</ele>
        <time>2013-06-23T08:05:38Z</time>
      </trkpt>
      <trkpt lat="45.45405" lon="5.69551">
        <ele>828.1</ele>
        <time>2013-06-23T08:05:40Z</time>
      </trkpt>
      <trkpt lat="45.45397" lon="5.69546">
        <ele>827.3</ele>
        <time>2013-06-23T08:05:42Z</time>
      </trkpt>
      <trkpt lat="45.45392" lon="5.69543">
        <ele>826.8</ele>
        <time>2013-06-23T08:05:43Z</time>
      </trkpt>
      <trkpt lat="45.45388" lon="5.6954">
        <ele>826.4</ele>
        <time>2013-06-23T08:05:44Z</time>
      </trkpt>
      <trkpt lat="45.45383" lon="5.69537">
        <ele>826.1</ele>
        <time>2013-06-23T08:05:45Z</time>
      </trkpt>
      <trkpt lat="45.45376" lon="5.69533">
        <ele>825.7</ele>
        <time>2013-06-23T08:05:47Z</time>
      </trkpt>
      <trkpt lat="45.4537" lon="5.69535">
        <ele>824.2</ele>
        <time>2013-06-23T08:05:52Z</time>
      </trkpt>
      <trkpt lat="45.45364" lon="5.69541">
        <ele>824.3</ele>
        <time>2013-06-23T08:05:55Z</time>
      </trkpt>
      <trkpt lat="45.45359" lon="5.69547">
        <ele>825</ele>
        <time>2013-06-23T08:05:58Z</time>
      </trkpt>
      <trkpt lat="45.45357" lon="5.69549">
        <ele>825.4</ele>
        <time>2013-06-23T08:05:59Z</time>
      </trkpt>
      <trkpt lat="45.45346" lon="5.69551">
        <ele>826</ele>
        <time>2013-06-23T08:06:03Z</time>
      </trkpt>
      <trkpt lat="45.45339" lon="5.69547">
        <ele>826.3</ele>
        <time>2013-06-23T08:06:05Z</time>
      </trkpt>
      <trkpt lat="45.45331" lon="5.69542">
        <ele>825.7</ele>
        <time>2013-06-23T08:06:07Z</time>
      </trkpt>
      <trkpt lat="45.45327" lon="5.69539">
        <ele>825.2</ele>
        <time>2013-06-23T08:06:08Z</time>
      </trkpt>
      <trkpt lat="45.45323" lon="5.69536">
        <ele>824.9</ele>
        <time>2013-06-23T08:06:09Z</time>
      </trkpt>
      <trkpt lat="45.45319" lon="5.69533">
        <ele>824.6</ele>
        <time>2013-06-23T08:06:10Z</time>
      </trkpt>
      <trkpt lat="45.45314" lon="5.69529">
        <ele>824.3</ele>
        <time>2013-06-23T08:06:11Z</time>
      </trkpt>
      <trkpt lat="45.4531" lon="5.69525">
        <ele>824</ele>
        <time>2013-06-23T08:06:12Z</time>
      </trkpt>
      <trkpt lat="45.45304" lon="5.69522">
        <ele>823.8</ele>
        <time>2013-06-23T08:06:13Z</time>
      </trkpt>
      <trkpt lat="45.45299" lon="5.6952">
        <ele>823.2</ele>
        <time>2013-06-23T08:06:14Z</time>
      </trkpt>
      <trkpt lat="45.45294" lon="5.69519">
        <ele>822.8</ele>
        <time>2013-06-23T08:06:15Z</time>
      </trkpt>
      <trkpt lat="45.45288" lon="5.69516">
        <ele>822.5</ele>
        <time>2013-06-23T08:06:16Z</time>
      </trkpt>
      <trkpt lat="45.45283" lon="5.69513">
        <ele>822.3</ele>
        <time>2013-06-23T08:06:17Z</time>
      </trkpt>
      <trkpt lat="45.45279" lon="5.69509">
        <ele>822.1</ele>
        <time>2013-06-23T08:06:18Z</time>
      </trkpt>
      <trkpt lat="45.45272" lon="5.69505">
        <ele>821.7</ele>
        <time>2013-06-23T08:06:20Z</time>
      </trkpt>
      <trkpt lat="45.45265" lon="5.69509">
        <ele>821.5</ele>
        <time>2013-06-23T08:06:22Z</time>
      </trkpt>
      <trkpt lat="45.45258" lon="5.69517">
        <ele>820.5</ele>
        <time>2013-06-23T08:06:24Z</time>
      </trkpt>
      <trkpt lat="45.45252" lon="5.69525">
        <ele>819.7</ele>
        <time>2013-06-23T08:06:26Z</time>
      </trkpt>
      <trkpt lat="45.45247" lon="5.69533">
        <ele>819.1</ele>
        <time>2013-06-23T08:06:28Z</time>
      </trkpt>
      <trkpt lat="45.45243" lon="5.6954">
        <ele>818.6</ele>
        <time>2013-06-23T08:06:30Z</time>
      </trkpt>
      <trkpt lat="45.45239" lon="5.69547">
        <ele>818.2</ele>
        <time>2013-06-23T08:06:32Z</time>
      </trkpt>
      <trkpt lat="45.45234" lon="5.69557">
        <ele>818.7</ele>
        <time>2013-06-23T08:06:35Z</time>
      </trkpt>
      <trkpt lat="45.45229" lon="5.69567">
        <ele>819.7</ele>
        <time>2013-06-23T08:06:38Z</time>
      </trkpt>
      <trkpt lat="45.45224" lon="5.69577">
        <ele>820.1</ele>
        <time>2013-06-23T08:06:41Z</time>
      </trkpt>
      <trkpt lat="45.4522" lon="5.69586">
        <ele>820.3</ele>
        <time>2013-06-23T08:06:44Z</time>
      </trkpt>
      <trkpt lat="45.45215" lon="5.69594">
        <ele>820.2</ele>
        <time>2013-06-23T08:06:47Z</time>
      </trkpt>
      <trkpt lat="45.45209" lon="5.69604">
        <ele>820.3</ele>
        <time>2013-06-23T08:06:50Z</time>
      </trkpt>
      <trkpt lat="45.45204" lon="5.69609">
        <ele>819.9</ele>
        <time>2013-06-23T08:06:52Z</time>
      </trkpt>
      <trkpt lat="45.45198" lon="5.69613">
        <ele>819.3</ele>
        <time>2013-06-23T08:06:54Z</time>
      </trkpt>
      <trkpt lat="45.45191" lon="5.69614">
        <ele>819.7</ele>
        <time>2013-06-23T08:06:56Z</time>
      </trkpt>
      <trkpt lat="45.45183" lon="5.69613">
        <ele>819.5</ele>
        <time>2013-06-23T08:06:58Z</time>
      </trkpt>
      <trkpt lat="45.45174" lon="5.69611">
        <ele>819.2</ele>
        <time>2013-06-23T08:07:00Z</time>
      </trkpt>
      <trkpt lat="45.4517" lon="5.6961">
        <ele>819.4</ele>
        <time>2013-06-23T08:07:01Z</time>
      </trkpt>
      <trkpt lat="45.45165" lon="5.69608">
        <ele>819.5</ele>
        <time>2013-06-23T08:07:02Z</time>
      </trkpt>
      <trkpt lat="45.4516" lon="5.69609">
        <ele>819.6</ele>
        <time>2013-06-23T08:07:03Z</time>
      </trkpt>
      <trkpt lat="45.45154" lon="5.69611">
        <ele>819.7</ele>
        <time>2013-06-23T08:07:04Z</time>
      </trkpt>
      <trkpt lat="45.45149" lon="5.69615">
        <ele>819.2</ele>
        <time>2013-06-23T08:07:05Z</time>
      </trkpt>
      <trkpt lat="45.45144" lon="5.69619">
        <ele>818.9</ele>
        <time>2013-06-23T08:07:06Z</time>
      </trkpt>
      <trkpt lat="45.45139" lon="5.69623">
        <ele>818.6</ele>
        <time>2013-06-23T08:07:07Z</time>
      </trkpt>
      <trkpt lat="45.45134" lon="5.69626">
        <ele>817.9</ele>
        <time>2013-06-23T08:07:08Z</time>
      </trkpt>
      <trkpt lat="45.45129" lon="5.69629">
        <ele>817.4</ele>
        <time>2013-06-23T08:07:09Z</time>
      </trkpt>
      <trkpt lat="45.45124" lon="5.69632">
        <ele>817.1</ele>
        <time>2013-06-23T08:07:10Z</time>
      </trkpt>
      <trkpt lat="45.45117" lon="5.69636">
        <ele>815.6</ele>
        <time>2013-06-23T08:07:12Z</time>
      </trkpt>
      <trkpt lat="45.45112" lon="5.69639">
        <ele>815.1</ele>
        <time>2013-06-23T08:07:13Z</time>
      </trkpt>
      <trkpt lat="45.45107" lon="5.69644">
        <ele>813.9</ele>
        <time>2013-06-23T08:07:14Z</time>
      </trkpt>
      <trkpt lat="45.45101" lon="5.69649">
        <ele>813</ele>
        <time>2013-06-23T08:07:15Z</time>
      </trkpt>
      <trkpt lat="45.45094" lon="5.69656">
        <ele>812.4</ele>
        <time>2013-06-23T08:07:16Z</time>
      </trkpt>
      <trkpt lat="45.45087" lon="5.69664">
        <ele>811.2</ele>
        <time>2013-06-23T08:07:17Z</time>
      </trkpt>
      <trkpt lat="45.45081" lon="5.69672">
        <ele>810.3</ele>
        <time>2013-06-23T08:07:18Z</time>
      </trkpt>
      <trkpt lat="45.45074" lon="5.6968">
        <ele>809.7</ele>
        <time>2013-06-23T08:07:19Z</time>
      </trkpt>
      <trkpt lat="45.45066" lon="5.69685">
        <ele>809.2</ele>
        <time>2013-06-23T08:07:20Z</time>
      </trkpt>
      <trkpt lat="45.45058" lon="5.69688">
        <ele>807.6</ele>
        <time>2013-06-23T08:07:21Z</time>
      </trkpt>
      <trkpt lat="45.45049" lon="5.69689">
        <ele>806.4</ele>
        <time>2013-06-23T08:07:22Z</time>
      </trkpt>
      <trkpt lat="45.45039" lon="5.69689">
        <ele>805.4</ele>
        <time>2013-06-23T08:07:23Z</time>
      </trkpt>
      <trkpt lat="45.4503" lon="5.69687">
        <ele>804.3</ele>
        <time>2013-06-23T08:07:24Z</time>
      </trkpt>
      <trkpt lat="45.4502" lon="5.69683">
        <ele>803.4</ele>
        <time>2013-06-23T08:07:25Z</time>
      </trkpt>
      <trkpt lat="45.45012" lon="5.69676">
        <ele>802.7</ele>
        <time>2013-06-23T08:07:26Z</time>
      </trkpt>
      <trkpt lat="45.45004" lon="5.69667">
        <ele>801.5</ele>
        <time>2013-06-23T08:07:27Z</time>
      </trkpt>
      <trkpt lat="45.44997" lon="5.69658">
        <ele>800.6</ele>
        <time>2013-06-23T08:07:28Z</time>
      </trkpt>
      <trkpt lat="45.44989" lon="5.69651">
        <ele>800</ele>
        <time>2013-06-23T08:07:29Z</time>
      </trkpt>
      <trkpt lat="45.44981" lon="5.69644">
        <ele>799.7</ele>
        <time>2013-06-23T08:07:30Z</time>
      </trkpt>
      <trkpt lat="45.44974" lon="5.69638">
        <ele>799.5</ele>
        <time>2013-06-23T08:07:31Z</time>
      </trkpt>
      <trkpt lat="45.44967" lon="5.69631">
        <ele>799.4</ele>
        <time>2013-06-23T08:07:32Z</time>
      </trkpt>
      <trkpt lat="45.44962" lon="5.69623">
        <ele>798.5</ele>
        <time>2013-06-23T08:07:33Z</time>
      </trkpt>
      <trkpt lat="45.44957" lon="5.69615">
        <ele>797.9</ele>
        <time>2013-06-23T08:07:34Z</time>
      </trkpt>
      <trkpt lat="45.44953" lon="5.69606">
        <ele>797.4</ele>
        <time>2013-06-23T08:07:35Z</time>
      </trkpt>
      <trkpt lat="45.44949" lon="5.69598">
        <ele>797.1</ele>
        <time>2013-06-23T08:07:36Z</time>
      </trkpt>
      <trkpt lat="45.44945" lon="5.69589">
        <ele>797.7</ele>
        <time>2013-06-23T08:07:37Z</time>
      </trkpt>
      <trkpt lat="45.44941" lon="5.69581">
        <ele>798.1</ele>
        <time>2013-06-23T08:07:38Z</time>
      </trkpt>
      <trkpt lat="45.44937" lon="5.69574">
        <ele>798.4</ele>
        <time>2013-06-23T08:07:39Z</time>
      </trkpt>
      <trkpt lat="45.44933" lon="5.69567">
        <ele>798.3</ele>
        <time>2013-06-23T08:07:40Z</time>
      </trkpt>
      <trkpt lat="45.44929" lon="5.69561">
        <ele>798.2</ele>
        <time>2013-06-23T08:07:41Z</time>
      </trkpt>
      <trkpt lat="45.44924" lon="5.69554">
        <ele>798.1</ele>
        <time>2013-06-23T08:07:42Z</time>
      </trkpt>
      <trkpt lat="45.44919" lon="5.69548">
        <ele>798.2</ele>
        <time>2013-06-23T08:07:43Z</time>
      </trkpt>
      <trkpt lat="45.44915" lon="5.69541">
        <ele>798.3</ele>
        <time>2013-06-23T08:07:44Z</time>
      </trkpt>
      <trkpt lat="45.44911" lon="5.69534">
        <ele>798.4</ele>
        <time>2013-06-23T08:07:45Z</time>
      </trkpt>
      <trkpt lat="45.44907" lon="5.69527">
        <ele>798.3</ele>
        <time>2013-06-23T08:07:46Z</time>
      </trkpt>
      <trkpt lat="45.44903" lon="5.6952">
        <ele>798.3</ele>
        <time>2013-06-23T08:07:47Z</time>
      </trkpt>
      <trkpt lat="45.44899" lon="5.69513">
        <ele>798.3</ele>
        <time>2013-06-23T08:07:48Z</time>
      </trkpt>
      <trkpt lat="45.44894" lon="5.69507">
        <ele>798</ele>
        <time>2013-06-23T08:07:49Z</time>
      </trkpt>
      <trkpt lat="45.4489" lon="5.69501">
        <ele>797.8</ele>
        <time>2013-06-23T08:07:50Z</time>
      </trkpt>
      <trkpt lat="45.44886" lon="5.69494">
        <ele>797.7</ele>
        <time>2013-06-23T08:07:51Z</time>
      </trkpt>
      <trkpt lat="45.44882" lon="5.69487">
        <ele>797.5</ele>
        <time>2013-06-23T08:07:52Z</time>
      </trkpt>
      <trkpt lat="45.44877" lon="5.6948">
        <ele>797.4</ele>
        <time>2013-06-23T08:07:53Z</time>
      </trkpt>
      <trkpt lat="45.44873" lon="5.69474">
        <ele>797.3</ele>
        <time>2013-06-23T08:07:54Z</time>
      </trkpt>
      <trkpt lat="45.44868" lon="5.69466">
        <ele>797.2</ele>
        <time>2013-06-23T08:07:55Z</time>
      </trkpt>
      <trkpt lat="45.44863" lon="5.69459">
        <ele>797</ele>
        <time>2013-06-23T08:07:56Z</time>
      </trkpt>
      <trkpt lat="45.44859" lon="5.6945">
        <ele>796.8</ele>
        <time>2013-06-23T08:07:57Z</time>
      </trkpt>
      <trkpt lat="45.44855" lon="5.69441">
        <ele>796.7</ele>
        <time>2013-06-23T08:07:58Z</time>
      </trkpt>
      <trkpt lat="45.44852" lon="5.69431">
        <ele>796.4</ele>
        <time>2013-06-23T08:07:59Z</time>
      </trkpt>
      <trkpt lat="45.44848" lon="5.6942">
        <ele>796.2</ele>
        <time>2013-06-23T08:08:00Z</time>
      </trkpt>
      <trkpt lat="45.44844" lon="5.69409">
        <ele>796</ele>
        <time>2013-06-23T08:08:01Z</time>
      </trkpt>
      <trkpt lat="45.4484" lon="5.69399">
        <ele>794.9</ele>
        <time>2013-06-23T08:08:02Z</time>
      </trkpt>
      <trkpt lat="45.44835" lon="5.69393">
        <ele>794</ele>
        <time>2013-06-23T08:08:03Z</time>
      </trkpt>
      <trkpt lat="45.4483" lon="5.6939">
        <ele>793.3</ele>
        <time>2013-06-23T08:08:04Z</time>
      </trkpt>
      <trkpt lat="45.44825" lon="5.69389">
        <ele>792.3</ele>
        <time>2013-06-23T08:08:05Z</time>
      </trkpt>
      <trkpt lat="45.44819" lon="5.6939">
        <ele>791.5</ele>
        <time>2013-06-23T08:08:06Z</time>
      </trkpt>
      <trkpt lat="45.44814" lon="5.69391">
        <ele>790.9</ele>
        <time>2013-06-23T08:08:07Z</time>
      </trkpt>
      <trkpt lat="45.44809" lon="5.69395">
        <ele>790.5</ele>
        <time>2013-06-23T08:08:08Z</time>
      </trkpt>
      <trkpt lat="45.44805" lon="5.69401">
        <ele>789.9</ele>
        <time>2013-06-23T08:08:09Z</time>
      </trkpt>
      <trkpt lat="45.448" lon="5.69407">
        <ele>789.5</ele>
        <time>2013-06-23T08:08:10Z</time>
      </trkpt>
      <trkpt lat="45.44796" lon="5.69416">
        <ele>789.2</ele>
        <time>2013-06-23T08:08:11Z</time>
      </trkpt>
      <trkpt lat="45.44793" lon="5.69426">
        <ele>788.3</ele>
        <time>2013-06-23T08:08:12Z</time>
      </trkpt>
      <trkpt lat="45.4479" lon="5.69437">
        <ele>787.6</ele>
        <time>2013-06-23T08:08:13Z</time>
      </trkpt>
      <trkpt lat="45.44787" lon="5.69448">
        <ele>787</ele>
        <time>2013-06-23T08:08:14Z</time>
      </trkpt>
      <trkpt lat="45.44783" lon="5.69458">
        <ele>785.9</ele>
        <time>2013-06-23T08:08:15Z</time>
      </trkpt>
      <trkpt lat="45.4478" lon="5.69467">
        <ele>785.1</ele>
        <time>2013-06-23T08:08:16Z</time>
      </trkpt>
      <trkpt lat="45.44776" lon="5.69475">
        <ele>784.5</ele>
        <time>2013-06-23T08:08:17Z</time>
      </trkpt>
      <trkpt lat="45.44772" lon="5.69481">
        <ele>783.2</ele>
        <time>2013-06-23T08:08:18Z</time>
      </trkpt>
      <trkpt lat="45.44769" lon="5.69487">
        <ele>782.2</ele>
        <time>2013-06-23T08:08:19Z</time>
      </trkpt>
      <trkpt lat="45.44765" lon="5.69493">
        <ele>781.5</ele>
        <time>2013-06-23T08:08:20Z</time>
      </trkpt>
      <trkpt lat="45.44759" lon="5.69501">
        <ele>777.9</ele>
        <time>2013-06-23T08:08:22Z</time>
      </trkpt>
      <trkpt lat="45.4475" lon="5.69498">
        <ele>775</ele>
        <time>2013-06-23T08:08:25Z</time>
      </trkpt>
      <trkpt lat="45.44747" lon="5.69489">
        <ele>774.1</ele>
        <time>2013-06-23T08:08:28Z</time>
      </trkpt>
      <trkpt lat="45.44744" lon="5.69479">
        <ele>773.8</ele>
        <time>2013-06-23T08:08:31Z</time>
      </trkpt>
      <trkpt lat="45.44739" lon="5.69469">
        <ele>773.5</ele>
        <time>2013-06-23T08:08:34Z</time>
      </trkpt>
      <trkpt lat="45.44733" lon="5.6946">
        <ele>774</ele>
        <time>2013-06-23T08:08:37Z</time>
      </trkpt>
      <trkpt lat="45.44728" lon="5.69455">
        <ele>774</ele>
        <time>2013-06-23T08:08:39Z</time>
      </trkpt>
      <trkpt lat="45.44721" lon="5.69454">
        <ele>773.6</ele>
        <time>2013-06-23T08:08:41Z</time>
      </trkpt>
      <trkpt lat="45.44714" lon="5.69454">
        <ele>773.4</ele>
        <time>2013-06-23T08:08:43Z</time>
      </trkpt>
      <trkpt lat="45.44707" lon="5.69452">
        <ele>773.4</ele>
        <time>2013-06-23T08:08:45Z</time>
      </trkpt>
      <trkpt lat="45.44701" lon="5.6945">
        <ele>773.6</ele>
        <time>2013-06-23T08:08:47Z</time>
      </trkpt>
      <trkpt lat="45.44693" lon="5.69445">
        <ele>774.3</ele>
        <time>2013-06-23T08:08:50Z</time>
      </trkpt>
      <trkpt lat="45.44687" lon="5.6944">
        <ele>775.7</ele>
        <time>2013-06-23T08:08:53Z</time>
      </trkpt>
      <trkpt lat="45.44681" lon="5.69433">
        <ele>776</ele>
        <time>2013-06-23T08:08:57Z</time>
      </trkpt>
      <trkpt lat="45.44675" lon="5.69424">
        <ele>776.2</ele>
        <time>2013-06-23T08:09:02Z</time>
      </trkpt>
      <trkpt lat="45.44674" lon="5.69422">
        <ele>776.3</ele>
        <time>2013-06-23T08:09:03Z</time>
      </trkpt>
      <trkpt lat="45.44663" lon="5.69407">
        <ele>780.2</ele>
        <time>2013-06-23T08:09:12Z</time>
      </trkpt>
      <trkpt lat="45.44656" lon="5.69399">
        <ele>780.8</ele>
        <time>2013-06-23T08:09:17Z</time>
      </trkpt>
      <trkpt lat="45.44649" lon="5.69391">
        <ele>780.6</ele>
        <time>2013-06-23T08:09:22Z</time>
      </trkpt>
      <trkpt lat="45.44643" lon="5.69384">
        <ele>781.4</ele>
        <time>2013-06-23T08:09:27Z</time>
      </trkpt>
      <trkpt lat="45.44637" lon="5.69374">
        <ele>782</ele>
        <time>2013-06-23T08:09:33Z</time>
      </trkpt>
      <trkpt lat="45.44635" lon="5.69367">
        <ele>791.3</ele>
        <time>2013-06-23T08:10:06Z</time>
      </trkpt>
      <trkpt lat="45.44633" lon="5.69362">
        <ele>791.5</ele>
        <time>2013-06-23T08:10:07Z</time>
      </trkpt>
      <trkpt lat="45.44627" lon="5.69348">
        <ele>795</ele>
        <time>2013-06-23T08:10:17Z</time>
      </trkpt>
      <trkpt lat="45.44622" lon="5.69339">
        <ele>795.9</ele>
        <time>2013-06-23T08:10:19Z</time>
      </trkpt>
      <trkpt lat="45.44618" lon="5.69332">
        <ele>796.2</ele>
        <time>2013-06-23T08:10:29Z</time>
      </trkpt>
      <trkpt lat="45.44617" lon="5.69322">
        <ele>796.3</ele>
        <time>2013-06-23T08:10:31Z</time>
      </trkpt>
      <trkpt lat="45.44622" lon="5.69312">
        <ele>797.5</ele>
        <time>2013-06-23T08:10:34Z</time>
      </trkpt>
      <trkpt lat="45.44629" lon="5.69306">
        <ele>797.7</ele>
        <time>2013-06-23T08:10:37Z</time>
      </trkpt>
      <trkpt lat="45.44635" lon="5.69297">
        <ele>798</ele>
        <time>2013-06-23T08:10:40Z</time>
      </trkpt>
      <trkpt lat="45.44639" lon="5.69291">
        <ele>798.1</ele>
        <time>2013-06-23T08:10:42Z</time>
      </trkpt>
      <trkpt lat="45.44642" lon="5.69283">
        <ele>798.1</ele>
        <time>2013-06-23T08:10:44Z</time>
      </trkpt>
      <trkpt lat="45.44647" lon="5.69277">
        <ele>797.6</ele>
        <time>2013-06-23T08:10:46Z</time>
      </trkpt>
      <trkpt lat="45.44652" lon="5.6927">
        <ele>796.7</ele>
        <time>2013-06-23T08:10:48Z</time>
      </trkpt>
      <trkpt lat="45.44657" lon="5.69263">
        <ele>795.7</ele>
        <time>2013-06-23T08:10:50Z</time>
      </trkpt>
      <trkpt lat="45.44664" lon="5.69255">
        <ele>795.1</ele>
        <time>2013-06-23T08:10:52Z</time>
      </trkpt>
      <trkpt lat="45.44667" lon="5.6925">
        <ele>794.8</ele>
        <time>2013-06-23T08:10:53Z</time>
      </trkpt>
      <trkpt lat="45.4467" lon="5.69246">
        <ele>794.7</ele>
        <time>2013-06-23T08:10:54Z</time>
      </trkpt>
      <trkpt lat="45.44674" lon="5.69242">
        <ele>794.5</ele>
        <time>2013-06-23T08:10:55Z</time>
      </trkpt>
      <trkpt lat="45.44678" lon="5.69237">
        <ele>794.4</ele>
        <time>2013-06-23T08:10:56Z</time>
      </trkpt>
      <trkpt lat="45.44681" lon="5.69232">
        <ele>794.4</ele>
        <time>2013-06-23T08:10:57Z</time>
      </trkpt>
      <trkpt lat="45.44687" lon="5.69224">
        <ele>793.8</ele>
        <time>2013-06-23T08:10:59Z</time>
      </trkpt>
      <trkpt lat="45.44693" lon="5.69215">
        <ele>793.4</ele>
        <time>2013-06-23T08:11:01Z</time>
      </trkpt>
      <trkpt lat="45.44697" lon="5.69207">
        <ele>793</ele>
        <time>2013-06-23T08:11:03Z</time>
      </trkpt>
      <trkpt lat="45.44701" lon="5.692">
        <ele>792.8</ele>
        <time>2013-06-23T08:11:05Z</time>
      </trkpt>
      <trkpt lat="45.44706" lon="5.69191">
        <ele>793.3</ele>
        <time>2013-06-23T08:11:08Z</time>
      </trkpt>
      <trkpt lat="45.44707" lon="5.69188">
        <ele>793.5</ele>
        <time>2013-06-23T08:11:09Z</time>
      </trkpt>
      <trkpt lat="45.44715" lon="5.69174">
        <ele>793.2</ele>
        <time>2013-06-23T08:11:14Z</time>
      </trkpt>
      <trkpt lat="45.4472" lon="5.69165">
        <ele>793.4</ele>
        <time>2013-06-23T08:11:17Z</time>
      </trkpt>
      <trkpt lat="45.44725" lon="5.69155">
        <ele>793.2</ele>
        <time>2013-06-23T08:11:20Z</time>
      </trkpt>
      <trkpt lat="45.44729" lon="5.69147">
        <ele>792.9</ele>
        <time>2013-06-23T08:11:23Z</time>
      </trkpt>
      <trkpt lat="45.44734" lon="5.69139">
        <ele>792.3</ele>
        <time>2013-06-23T08:11:26Z</time>
      </trkpt>
      <trkpt lat="45.44738" lon="5.6913">
        <ele>792.2</ele>
        <time>2013-06-23T08:11:29Z</time>
      </trkpt>
      <trkpt lat="45.44744" lon="5.69121">
        <ele>792.2</ele>
        <time>2013-06-23T08:11:32Z</time>
      </trkpt>
      <trkpt lat="45.44749" lon="5.69112">
        <ele>792.7</ele>
        <time>2013-06-23T08:11:35Z</time>
      </trkpt>
      <trkpt lat="45.4476" lon="5.69094">
        <ele>793</ele>
        <time>2013-06-23T08:11:40Z</time>
      </trkpt>
      <trkpt lat="45.44768" lon="5.6908">
        <ele>792</ele>
        <time>2013-06-23T08:11:44Z</time>
      </trkpt>
      <trkpt lat="45.44775" lon="5.69068">
        <ele>792</ele>
        <time>2013-06-23T08:11:48Z</time>
      </trkpt>
      <trkpt lat="45.44782" lon="5.69056">
        <ele>792</ele>
        <time>2013-06-23T08:11:52Z</time>
      </trkpt>
      <trkpt lat="45.44789" lon="5.69046">
        <ele>791</ele>
        <time>2013-06-23T08:11:56Z</time>
      </trkpt>
      <trkpt lat="45.44794" lon="5.69032">
        <ele>791</ele>
        <time>2013-06-23T08:12:04Z</time>
      </trkpt>
      <trkpt lat="45.44779" lon="5.69027">
        <ele>792</ele>
        <time>2013-06-23T08:12:16Z</time>
      </trkpt>
      <trkpt lat="45.44776" lon="5.69026">
        <ele>792.9</ele>
        <time>2013-06-23T08:12:18Z</time>
      </trkpt>
      <trkpt lat="45.44762" lon="5.69025">
        <ele>794.8</ele>
        <time>2013-06-23T08:12:25Z</time>
      </trkpt>
      <trkpt lat="45.44756" lon="5.69024">
        <ele>795.3</ele>
        <time>2013-06-23T08:12:28Z</time>
      </trkpt>
      <trkpt lat="45.44749" lon="5.69023">
        <ele>794.9</ele>
        <time>2013-06-23T08:12:31Z</time>
      </trkpt>
      <trkpt lat="45.4474" lon="5.6902">
        <ele>794.8</ele>
        <time>2013-06-23T08:12:35Z</time>
      </trkpt>
      <trkpt lat="45.44732" lon="5.69019">
        <ele>796</ele>
        <time>2013-06-23T08:12:39Z</time>
      </trkpt>
      <trkpt lat="45.44725" lon="5.69017">
        <ele>797.3</ele>
        <time>2013-06-23T08:12:43Z</time>
      </trkpt>
      <trkpt lat="45.44716" lon="5.69014">
        <ele>798.1</ele>
        <time>2013-06-23T08:12:48Z</time>
      </trkpt>
      <trkpt lat="45.4471" lon="5.6901">
        <ele>797.8</ele>
        <time>2013-06-23T08:12:52Z</time>
      </trkpt>
      <trkpt lat="45.44699" lon="5.69005">
        <ele>797</ele>
        <time>2013-06-23T08:12:57Z</time>
      </trkpt>
      <trkpt lat="45.44692" lon="5.68999">
        <ele>799.4</ele>
        <time>2013-06-23T08:13:02Z</time>
      </trkpt>
      <trkpt lat="45.44684" lon="5.68995">
        <ele>800.9</ele>
        <time>2013-06-23T08:13:07Z</time>
      </trkpt>
      <trkpt lat="45.44675" lon="5.68994">
        <ele>801.8</ele>
        <time>2013-06-23T08:13:12Z</time>
      </trkpt>
      <trkpt lat="45.44668" lon="5.68993">
        <ele>801.5</ele>
        <time>2013-06-23T08:13:16Z</time>
      </trkpt>
      <trkpt lat="45.44661" lon="5.68993">
        <ele>802.7</ele>
        <time>2013-06-23T08:13:20Z</time>
      </trkpt>
      <trkpt lat="45.44659" lon="5.68993">
        <ele>802.7</ele>
        <time>2013-06-23T08:13:21Z</time>
      </trkpt>
      <trkpt lat="45.44646" lon="5.68992">
        <ele>802.8</ele>
        <time>2013-06-23T08:13:28Z</time>
      </trkpt>
      <trkpt lat="45.44638" lon="5.68992">
        <ele>803</ele>
        <time>2013-06-23T08:13:32Z</time>
      </trkpt>
      <trkpt lat="45.44631" lon="5.68992">
        <ele>804.5</ele>
        <time>2013-06-23T08:13:36Z</time>
      </trkpt>
      <trkpt lat="45.44623" lon="5.68992">
        <ele>804.2</ele>
        <time>2013-06-23T08:13:40Z</time>
      </trkpt>
      <trkpt lat="45.44615" lon="5.68992">
        <ele>804.1</ele>
        <time>2013-06-23T08:13:44Z</time>
      </trkpt>
      <trkpt lat="45.44607" lon="5.68992">
        <ele>804.4</ele>
        <time>2013-06-23T08:13:48Z</time>
      </trkpt>
      <trkpt lat="45.44599" lon="5.68993">
        <ele>804.6</ele>
        <time>2013-06-23T08:13:52Z</time>
      </trkpt>
      <trkpt lat="45.44591" lon="5.68991">
        <ele>805.9</ele>
        <time>2013-06-23T08:13:56Z</time>
      </trkpt>
      <trkpt lat="45.44582" lon="5.6899">
        <ele>806.5</ele>
        <time>2013-06-23T08:14:00Z</time>
      </trkpt>
      <trkpt lat="45.44574" lon="5.68989">
        <ele>806</ele>
        <time>2013-06-23T08:14:04Z</time>
      </trkpt>
      <trkpt lat="45.44565" lon="5.68988">
        <ele>804.9</ele>
        <time>2013-06-23T08:14:08Z</time>
      </trkpt>
      <trkpt lat="45.44557" lon="5.68987">
        <ele>806.1</ele>
        <time>2013-06-23T08:14:12Z</time>
      </trkpt>
      <trkpt lat="45.44548" lon="5.68986">
        <ele>806.5</ele>
        <time>2013-06-23T08:14:16Z</time>
      </trkpt>
      <trkpt lat="45.44539" lon="5.68984">
        <ele>807</ele>
        <time>2013-06-23T08:14:20Z</time>
      </trkpt>
      <trkpt lat="45.44531" lon="5.68983">
        <ele>808</ele>
        <time>2013-06-23T08:14:24Z</time>
      </trkpt>
      <trkpt lat="45.44528" lon="5.68982">
        <ele>807.9</ele>
        <time>2013-06-23T08:14:25Z</time>
      </trkpt>
      <trkpt lat="45.44517" lon="5.68981">
        <ele>808.7</ele>
        <time>2013-06-23T08:14:30Z</time>
      </trkpt>
      <trkpt lat="45.4451" lon="5.6898">
        <ele>809.1</ele>
        <time>2013-06-23T08:14:33Z</time>
      </trkpt>
      <trkpt lat="45.44501" lon="5.68979">
        <ele>808.7</ele>
        <time>2013-06-23T08:14:36Z</time>
      </trkpt>
      <trkpt lat="45.44495" lon="5.68978">
        <ele>808.6</ele>
        <time>2013-06-23T08:14:38Z</time>
      </trkpt>
      <trkpt lat="45.44489" lon="5.68978">
        <ele>808.7</ele>
        <time>2013-06-23T08:14:40Z</time>
      </trkpt>
      <trkpt lat="45.44483" lon="5.68977">
        <ele>809.3</ele>
        <time>2013-06-23T08:14:42Z</time>
      </trkpt>
      <trkpt lat="45.44477" lon="5.68976">
        <ele>809.3</ele>
        <time>2013-06-23T08:14:44Z</time>
      </trkpt>
      <trkpt lat="45.4447" lon="5.68975">
        <ele>809.1</ele>
        <time>2013-06-23T08:14:46Z</time>
      </trkpt>
      <trkpt lat="45.44462" lon="5.68973">
        <ele>808.9</ele>
        <time>2013-06-23T08:14:49Z</time>
      </trkpt>
      <trkpt lat="45.44455" lon="5.68975">
        <ele>809.7</ele>
        <time>2013-06-23T08:14:52Z</time>
      </trkpt>
      <trkpt lat="45.44452" lon="5.68986">
        <ele>810.2</ele>
        <time>2013-06-23T08:14:55Z</time>
      </trkpt>
      <trkpt lat="45.44451" lon="5.68995">
        <ele>810.2</ele>
        <time>2013-06-23T08:14:57Z</time>
      </trkpt>
      <trkpt lat="45.4445" lon="5.69006">
        <ele>810.1</ele>
        <time>2013-06-23T08:14:59Z</time>
      </trkpt>
      <trkpt lat="45.44448" lon="5.69017">
        <ele>809.2</ele>
        <time>2013-06-23T08:15:01Z</time>
      </trkpt>
      <trkpt lat="45.44446" lon="5.69029">
        <ele>808.9</ele>
        <time>2013-06-23T08:15:03Z</time>
      </trkpt>
      <trkpt lat="45.44442" lon="5.69039">
        <ele>808.9</ele>
        <time>2013-06-23T08:15:05Z</time>
      </trkpt>
      <trkpt lat="45.44436" lon="5.69042">
        <ele>808.9</ele>
        <time>2013-06-23T08:15:07Z</time>
      </trkpt>
      <trkpt lat="45.44427" lon="5.6904">
        <ele>809</ele>
        <time>2013-06-23T08:15:10Z</time>
      </trkpt>
      <trkpt lat="45.4442" lon="5.69036">
        <ele>808.6</ele>
        <time>2013-06-23T08:15:13Z</time>
      </trkpt>
      <trkpt lat="45.44412" lon="5.69035">
        <ele>808.4</ele>
        <time>2013-06-23T08:15:16Z</time>
      </trkpt>
      <trkpt lat="45.44404" lon="5.69033">
        <ele>808.6</ele>
        <time>2013-06-23T08:15:19Z</time>
      </trkpt>
      <trkpt lat="45.44396" lon="5.69031">
        <ele>808.5</ele>
        <time>2013-06-23T08:15:22Z</time>
      </trkpt>
      <trkpt lat="45.44389" lon="5.69028">
        <ele>809.6</ele>
        <time>2013-06-23T08:15:25Z</time>
      </trkpt>
      <trkpt lat="45.44386" lon="5.69027">
        <ele>809.8</ele>
        <time>2013-06-23T08:15:26Z</time>
      </trkpt>
      <trkpt lat="45.44374" lon="5.69024">
        <ele>809.3</ele>
        <time>2013-06-23T08:15:31Z</time>
      </trkpt>
      <trkpt lat="45.44366" lon="5.69022">
        <ele>809.9</ele>
        <time>2013-06-23T08:15:34Z</time>
      </trkpt>
      <trkpt lat="45.44358" lon="5.69021">
        <ele>811</ele>
        <time>2013-06-23T08:15:37Z</time>
      </trkpt>
      <trkpt lat="45.44349" lon="5.69022">
        <ele>811.5</ele>
        <time>2013-06-23T08:15:40Z</time>
      </trkpt>
      <trkpt lat="45.44341" lon="5.69023">
        <ele>812.3</ele>
        <time>2013-06-23T08:15:43Z</time>
      </trkpt>
      <trkpt lat="45.44333" lon="5.69026">
        <ele>812.9</ele>
        <time>2013-06-23T08:15:46Z</time>
      </trkpt>
      <trkpt lat="45.44325" lon="5.69028">
        <ele>813.3</ele>
        <time>2013-06-23T08:15:49Z</time>
      </trkpt>
      <trkpt lat="45.44317" lon="5.69028">
        <ele>813.6</ele>
        <time>2013-06-23T08:15:52Z</time>
      </trkpt>
      <trkpt lat="45.44309" lon="5.69027">
        <ele>814.1</ele>
        <time>2013-06-23T08:15:55Z</time>
      </trkpt>
      <trkpt lat="45.44301" lon="5.69025">
        <ele>814.7</ele>
        <time>2013-06-23T08:15:58Z</time>
      </trkpt>
      <trkpt lat="45.44293" lon="5.69023">
        <ele>815.2</ele>
        <time>2013-06-23T08:16:01Z</time>
      </trkpt>
      <trkpt lat="45.44285" lon="5.6902">
        <ele>815.6</ele>
        <time>2013-06-23T08:16:04Z</time>
      </trkpt>
      <trkpt lat="45.44277" lon="5.69016">
        <ele>815.5</ele>
        <time>2013-06-23T08:16:07Z</time>
      </trkpt>
      <trkpt lat="45.44269" lon="5.69013">
        <ele>815.5</ele>
        <time>2013-06-23T08:16:10Z</time>
      </trkpt>
      <trkpt lat="45.44262" lon="5.69009">
        <ele>816.2</ele>
        <time>2013-06-23T08:16:13Z</time>
      </trkpt>
      <trkpt lat="45.44254" lon="5.69007">
        <ele>816.3</ele>
        <time>2013-06-23T08:16:16Z</time>
      </trkpt>
      <trkpt lat="45.44246" lon="5.69003">
        <ele>818</ele>
        <time>2013-06-23T08:16:19Z</time>
      </trkpt>
      <trkpt lat="45.44239" lon="5.69001">
        <ele>818.5</ele>
        <time>2013-06-23T08:16:21Z</time>
      </trkpt>
      <trkpt lat="45.44233" lon="5.68999">
        <ele>818.6</ele>
        <time>2013-06-23T08:16:23Z</time>
      </trkpt>
      <trkpt lat="45.44225" lon="5.68997">
        <ele>818.5</ele>
        <time>2013-06-23T08:16:25Z</time>
      </trkpt>
      <trkpt lat="45.44218" lon="5.68995">
        <ele>818.2</ele>
        <time>2013-06-23T08:16:27Z</time>
      </trkpt>
      <trkpt lat="45.44214" lon="5.68994">
        <ele>817.9</ele>
        <time>2013-06-23T08:16:28Z</time>
      </trkpt>
      <trkpt lat="45.44204" lon="5.68991">
        <ele>818.3</ele>
        <time>2013-06-23T08:16:31Z</time>
      </trkpt>
      <trkpt lat="45.44196" lon="5.68989">
        <ele>818</ele>
        <time>2013-06-23T08:16:33Z</time>
      </trkpt>
      <trkpt lat="45.44189" lon="5.68987">
        <ele>817.5</ele>
        <time>2013-06-23T08:16:35Z</time>
      </trkpt>
      <trkpt lat="45.44182" lon="5.68985">
        <ele>817.2</ele>
        <time>2013-06-23T08:16:37Z</time>
      </trkpt>
      <trkpt lat="45.44174" lon="5.68984">
        <ele>817.6</ele>
        <time>2013-06-23T08:16:39Z</time>
      </trkpt>
      <trkpt lat="45.44166" lon="5.68982">
        <ele>818.2</ele>
        <time>2013-06-23T08:16:41Z</time>
      </trkpt>
      <trkpt lat="45.44159" lon="5.6898">
        <ele>817.8</ele>
        <time>2013-06-23T08:16:43Z</time>
      </trkpt>
      <trkpt lat="45.44152" lon="5.68978">
        <ele>817.5</ele>
        <time>2013-06-23T08:16:45Z</time>
      </trkpt>
      <trkpt lat="45.44145" lon="5.68976">
        <ele>818.2</ele>
        <time>2013-06-23T08:16:47Z</time>
      </trkpt>
      <trkpt lat="45.44139" lon="5.68975">
        <ele>818.3</ele>
        <time>2013-06-23T08:16:49Z</time>
      </trkpt>
      <trkpt lat="45.44132" lon="5.68972">
        <ele>818.1</ele>
        <time>2013-06-23T08:16:51Z</time>
      </trkpt>
      <trkpt lat="45.44125" lon="5.68969">
        <ele>818</ele>
        <time>2013-06-23T08:16:53Z</time>
      </trkpt>
      <trkpt lat="45.44116" lon="5.68965">
        <ele>818.1</ele>
        <time>2013-06-23T08:16:55Z</time>
      </trkpt>
      <trkpt lat="45.44112" lon="5.68962">
        <ele>818.1</ele>
        <time>2013-06-23T08:16:56Z</time>
      </trkpt>
      <trkpt lat="45.44108" lon="5.68959">
        <ele>818.1</ele>
        <time>2013-06-23T08:16:57Z</time>
      </trkpt>
      <trkpt lat="45.44103" lon="5.68956">
        <ele>818.3</ele>
        <time>2013-06-23T08:16:58Z</time>
      </trkpt>
      <trkpt lat="45.44098" lon="5.68953">
        <ele>818.4</ele>
        <time>2013-06-23T08:16:59Z</time>
      </trkpt>
      <trkpt lat="45.44094" lon="5.68951">
        <ele>818.5</ele>
        <time>2013-06-23T08:17:00Z</time>
      </trkpt>
      <trkpt lat="45.4409" lon="5.68948">
        <ele>818.6</ele>
        <time>2013-06-23T08:17:01Z</time>
      </trkpt>
      <trkpt lat="45.44085" lon="5.68946">
        <ele>817.9</ele>
        <time>2013-06-23T08:17:02Z</time>
      </trkpt>
      <trkpt lat="45.44081" lon="5.68943">
        <ele>817.4</ele>
        <time>2013-06-23T08:17:03Z</time>
      </trkpt>
      <trkpt lat="45.44077" lon="5.68941">
        <ele>817</ele>
        <time>2013-06-23T08:17:04Z</time>
      </trkpt>
      <trkpt lat="45.44072" lon="5.68939">
        <ele>817.3</ele>
        <time>2013-06-23T08:17:05Z</time>
      </trkpt>
      <trkpt lat="45.44068" lon="5.68937">
        <ele>817.5</ele>
        <time>2013-06-23T08:17:06Z</time>
      </trkpt>
      <trkpt lat="45.44063" lon="5.68935">
        <ele>817.7</ele>
        <time>2013-06-23T08:17:07Z</time>
      </trkpt>
      <trkpt lat="45.44058" lon="5.68933">
        <ele>817.4</ele>
        <time>2013-06-23T08:17:08Z</time>
      </trkpt>
      <trkpt lat="45.44054" lon="5.68932">
        <ele>817.2</ele>
        <time>2013-06-23T08:17:09Z</time>
      </trkpt>
      <trkpt lat="45.44049" lon="5.6893">
        <ele>817</ele>
        <time>2013-06-23T08:17:10Z</time>
      </trkpt>
      <trkpt lat="45.44044" lon="5.68929">
        <ele>816.8</ele>
        <time>2013-06-23T08:17:11Z</time>
      </trkpt>
      <trkpt lat="45.4404" lon="5.68927">
        <ele>816.6</ele>
        <time>2013-06-23T08:17:12Z</time>
      </trkpt>
      <trkpt lat="45.44035" lon="5.68926">
        <ele>816.5</ele>
        <time>2013-06-23T08:17:13Z</time>
      </trkpt>
      <trkpt lat="45.44027" lon="5.68924">
        <ele>816.6</ele>
        <time>2013-06-23T08:17:15Z</time>
      </trkpt>
      <trkpt lat="45.44019" lon="5.68923">
        <ele>816.6</ele>
        <time>2013-06-23T08:17:17Z</time>
      </trkpt>
      <trkpt lat="45.44012" lon="5.68922">
        <ele>816.9</ele>
        <time>2013-06-23T08:17:19Z</time>
      </trkpt>
      <trkpt lat="45.44003" lon="5.6892">
        <ele>816.9</ele>
        <time>2013-06-23T08:17:21Z</time>
      </trkpt>
      <trkpt lat="45.43999" lon="5.68919">
        <ele>816.8</ele>
        <time>2013-06-23T08:17:22Z</time>
      </trkpt>
      <trkpt lat="45.43994" lon="5.68918">
        <ele>816.8</ele>
        <time>2013-06-23T08:17:23Z</time>
      </trkpt>
      <trkpt lat="45.43989" lon="5.68917">
        <ele>817</ele>
        <time>2013-06-23T08:17:24Z</time>
      </trkpt>
      <trkpt lat="45.43984" lon="5.68916">
        <ele>817.2</ele>
        <time>2013-06-23T08:17:25Z</time>
      </trkpt>
      <trkpt lat="45.43978" lon="5.68916">
        <ele>817.3</ele>
        <time>2013-06-23T08:17:26Z</time>
      </trkpt>
      <trkpt lat="45.43972" lon="5.68915">
        <ele>816.8</ele>
        <time>2013-06-23T08:17:27Z</time>
      </trkpt>
      <trkpt lat="45.43966" lon="5.68915">
        <ele>816.5</ele>
        <time>2013-06-23T08:17:28Z</time>
      </trkpt>
      <trkpt lat="45.4396" lon="5.68916">
        <ele>816.2</ele>
        <time>2013-06-23T08:17:29Z</time>
      </trkpt>
      <trkpt lat="45.43954" lon="5.68918">
        <ele>815.8</ele>
        <time>2013-06-23T08:17:30Z</time>
      </trkpt>
      <trkpt lat="45.43948" lon="5.68917">
        <ele>815.4</ele>
        <time>2013-06-23T08:17:31Z</time>
      </trkpt>
      <trkpt lat="45.43943" lon="5.68909">
        <ele>815</ele>
        <time>2013-06-23T08:17:33Z</time>
      </trkpt>
      <trkpt lat="45.43946" lon="5.68898">
        <ele>814.5</ele>
        <time>2013-06-23T08:17:35Z</time>
      </trkpt>
      <trkpt lat="45.4395" lon="5.68894">
        <ele>814.3</ele>
        <time>2013-06-23T08:17:36Z</time>
      </trkpt>
      <trkpt lat="45.43953" lon="5.68889">
        <ele>814.1</ele>
        <time>2013-06-23T08:17:37Z</time>
      </trkpt>
      <trkpt lat="45.43956" lon="5.68885">
        <ele>813.9</ele>
        <time>2013-06-23T08:17:38Z</time>
      </trkpt>
      <trkpt lat="45.4396" lon="5.6888">
        <ele>813.8</ele>
        <time>2013-06-23T08:17:39Z</time>
      </trkpt>
      <trkpt lat="45.43964" lon="5.6887">
        <ele>813.3</ele>
        <time>2013-06-23T08:17:41Z</time>
      </trkpt>
      <trkpt lat="45.43959" lon="5.68863">
        <ele>812.3</ele>
        <time>2013-06-23T08:17:44Z</time>
      </trkpt>
      <trkpt lat="45.43951" lon="5.68865">
        <ele>811.9</ele>
        <time>2013-06-23T08:17:46Z</time>
      </trkpt>
      <trkpt lat="45.43943" lon="5.6887">
        <ele>811.6</ele>
        <time>2013-06-23T08:17:48Z</time>
      </trkpt>
      <trkpt lat="45.43935" lon="5.68874">
        <ele>811.3</ele>
        <time>2013-06-23T08:17:50Z</time>
      </trkpt>
      <trkpt lat="45.4393" lon="5.68876">
        <ele>811.2</ele>
        <time>2013-06-23T08:17:51Z</time>
      </trkpt>
      <trkpt lat="45.43926" lon="5.68878">
        <ele>811.1</ele>
        <time>2013-06-23T08:17:52Z</time>
      </trkpt>
      <trkpt lat="45.43922" lon="5.6888">
        <ele>810.5</ele>
        <time>2013-06-23T08:17:53Z</time>
      </trkpt>
      <trkpt lat="45.43917" lon="5.68882">
        <ele>810.1</ele>
        <time>2013-06-23T08:17:54Z</time>
      </trkpt>
      <trkpt lat="45.43913" lon="5.68884">
        <ele>809.8</ele>
        <time>2013-06-23T08:17:55Z</time>
      </trkpt>
      <trkpt lat="45.43909" lon="5.68886">
        <ele>809.8</ele>
        <time>2013-06-23T08:17:56Z</time>
      </trkpt>
      <trkpt lat="45.43904" lon="5.68888">
        <ele>809.8</ele>
        <time>2013-06-23T08:17:57Z</time>
      </trkpt>
      <trkpt lat="45.43899" lon="5.6889">
        <ele>809.8</ele>
        <time>2013-06-23T08:17:58Z</time>
      </trkpt>
      <trkpt lat="45.43895" lon="5.68893">
        <ele>810.2</ele>
        <time>2013-06-23T08:17:59Z</time>
      </trkpt>
      <trkpt lat="45.43891" lon="5.68895">
        <ele>810.4</ele>
        <time>2013-06-23T08:18:00Z</time>
      </trkpt>
      <trkpt lat="45.43886" lon="5.68897">
        <ele>810.6</ele>
        <time>2013-06-23T08:18:01Z</time>
      </trkpt>
      <trkpt lat="45.43882" lon="5.68899">
        <ele>810</ele>
        <time>2013-06-23T08:18:02Z</time>
      </trkpt>
      <trkpt lat="45.43877" lon="5.68901">
        <ele>809.6</ele>
        <time>2013-06-23T08:18:03Z</time>
      </trkpt>
      <trkpt lat="45.43873" lon="5.68904">
        <ele>809.3</ele>
        <time>2013-06-23T08:18:04Z</time>
      </trkpt>
      <trkpt lat="45.43868" lon="5.68907">
        <ele>808.8</ele>
        <time>2013-06-23T08:18:05Z</time>
      </trkpt>
      <trkpt lat="45.43864" lon="5.6891">
        <ele>808.4</ele>
        <time>2013-06-23T08:18:06Z</time>
      </trkpt>
      <trkpt lat="45.43861" lon="5.68914">
        <ele>808.1</ele>
        <time>2013-06-23T08:18:07Z</time>
      </trkpt>
      <trkpt lat="45.43857" lon="5.68919">
        <ele>807.9</ele>
        <time>2013-06-23T08:18:08Z</time>
      </trkpt>
      <trkpt lat="45.43854" lon="5.68924">
        <ele>808.3</ele>
        <time>2013-06-23T08:18:09Z</time>
      </trkpt>
      <trkpt lat="45.43851" lon="5.68929">
        <ele>808.6</ele>
        <time>2013-06-23T08:18:10Z</time>
      </trkpt>
      <trkpt lat="45.43848" lon="5.68936">
        <ele>808.8</ele>
        <time>2013-06-23T08:18:11Z</time>
      </trkpt>
      <trkpt lat="45.43846" lon="5.68942">
        <ele>808.9</ele>
        <time>2013-06-23T08:18:12Z</time>
      </trkpt>
      <trkpt lat="45.43844" lon="5.6895">
        <ele>809</ele>
        <time>2013-06-23T08:18:13Z</time>
      </trkpt>
      <trkpt lat="45.43842" lon="5.68958">
        <ele>809.1</ele>
        <time>2013-06-23T08:18:14Z</time>
      </trkpt>
      <trkpt lat="45.43841" lon="5.68967">
        <ele>808.4</ele>
        <time>2013-06-23T08:18:15Z</time>
      </trkpt>
      <trkpt lat="45.4384" lon="5.68976">
        <ele>807.9</ele>
        <time>2013-06-23T08:18:16Z</time>
      </trkpt>
      <trkpt lat="45.43839" lon="5.68985">
        <ele>807.5</ele>
        <time>2013-06-23T08:18:17Z</time>
      </trkpt>
      <trkpt lat="45.43838" lon="5.68995">
        <ele>806.8</ele>
        <time>2013-06-23T08:18:18Z</time>
      </trkpt>
      <trkpt lat="45.43837" lon="5.69004">
        <ele>806.2</ele>
        <time>2013-06-23T08:18:19Z</time>
      </trkpt>
      <trkpt lat="45.43836" lon="5.69014">
        <ele>805.8</ele>
        <time>2013-06-23T08:18:20Z</time>
      </trkpt>
      <trkpt lat="45.43835" lon="5.69025">
        <ele>805.2</ele>
        <time>2013-06-23T08:18:21Z</time>
      </trkpt>
      <trkpt lat="45.43834" lon="5.69035">
        <ele>804.7</ele>
        <time>2013-06-23T08:18:22Z</time>
      </trkpt>
      <trkpt lat="45.43833" lon="5.69046">
        <ele>804.4</ele>
        <time>2013-06-23T08:18:23Z</time>
      </trkpt>
      <trkpt lat="45.43832" lon="5.69056">
        <ele>804.1</ele>
        <time>2013-06-23T08:18:24Z</time>
      </trkpt>
      <trkpt lat="45.43831" lon="5.69067">
        <ele>803.8</ele>
        <time>2013-06-23T08:18:25Z</time>
      </trkpt>
      <trkpt lat="45.4383" lon="5.69078">
        <ele>803.5</ele>
        <time>2013-06-23T08:18:26Z</time>
      </trkpt>
      <trkpt lat="45.43829" lon="5.6909">
        <ele>803.4</ele>
        <time>2013-06-23T08:18:27Z</time>
      </trkpt>
      <trkpt lat="45.43827" lon="5.69101">
        <ele>802.9</ele>
        <time>2013-06-23T08:18:28Z</time>
      </trkpt>
      <trkpt lat="45.43826" lon="5.69113">
        <ele>802.5</ele>
        <time>2013-06-23T08:18:29Z</time>
      </trkpt>
      <trkpt lat="45.43825" lon="5.69124">
        <ele>802.3</ele>
        <time>2013-06-23T08:18:30Z</time>
      </trkpt>
      <trkpt lat="45.43824" lon="5.69136">
        <ele>801.5</ele>
        <time>2013-06-23T08:18:31Z</time>
      </trkpt>
      <trkpt lat="45.43822" lon="5.69148">
        <ele>801</ele>
        <time>2013-06-23T08:18:32Z</time>
      </trkpt>
      <trkpt lat="45.43821" lon="5.69161">
        <ele>800.6</ele>
        <time>2013-06-23T08:18:33Z</time>
      </trkpt>
      <trkpt lat="45.4382" lon="5.69173">
        <ele>799.4</ele>
        <time>2013-06-23T08:18:34Z</time>
      </trkpt>
      <trkpt lat="45.43818" lon="5.69185">
        <ele>798.5</ele>
        <time>2013-06-23T08:18:35Z</time>
      </trkpt>
      <trkpt lat="45.43817" lon="5.69198">
        <ele>797.9</ele>
        <time>2013-06-23T08:18:36Z</time>
      </trkpt>
      <trkpt lat="45.43817" lon="5.6921">
        <ele>797.9</ele>
        <time>2013-06-23T08:18:37Z</time>
      </trkpt>
      <trkpt lat="45.43815" lon="5.69222">
        <ele>797.9</ele>
        <time>2013-06-23T08:18:38Z</time>
      </trkpt>
      <trkpt lat="45.43814" lon="5.69234">
        <ele>797.9</ele>
        <time>2013-06-23T08:18:39Z</time>
      </trkpt>
      <trkpt lat="45.43813" lon="5.69245">
        <ele>797.9</ele>
        <time>2013-06-23T08:18:40Z</time>
      </trkpt>
      <trkpt lat="45.43812" lon="5.69256">
        <ele>797.5</ele>
        <time>2013-06-23T08:18:41Z</time>
      </trkpt>
      <trkpt lat="45.43811" lon="5.69266">
        <ele>797.2</ele>
        <time>2013-06-23T08:18:42Z</time>
      </trkpt>
      <trkpt lat="45.43811" lon="5.69275">
        <ele>797</ele>
        <time>2013-06-23T08:18:43Z</time>
      </trkpt>
      <trkpt lat="45.4381" lon="5.69282">
        <ele>796.6</ele>
        <time>2013-06-23T08:18:44Z</time>
      </trkpt>
      <trkpt lat="45.43808" lon="5.69293">
        <ele>796.1</ele>
        <time>2013-06-23T08:18:46Z</time>
      </trkpt>
      <trkpt lat="45.43802" lon="5.69301">
        <ele>795.2</ele>
        <time>2013-06-23T08:18:51Z</time>
      </trkpt>
      <trkpt lat="45.43793" lon="5.69301">
        <ele>794.5</ele>
        <time>2013-06-23T08:18:55Z</time>
      </trkpt>
      <trkpt lat="45.43785" lon="5.693">
        <ele>794.3</ele>
        <time>2013-06-23T08:18:58Z</time>
      </trkpt>
      <trkpt lat="45.43776" lon="5.69299">
        <ele>794.6</ele>
        <time>2013-06-23T08:19:01Z</time>
      </trkpt>
      <trkpt lat="45.4377" lon="5.69299">
        <ele>794.2</ele>
        <time>2013-06-23T08:19:03Z</time>
      </trkpt>
      <trkpt lat="45.43761" lon="5.693">
        <ele>793.8</ele>
        <time>2013-06-23T08:19:06Z</time>
      </trkpt>
      <trkpt lat="45.43754" lon="5.69303">
        <ele>794.1</ele>
        <time>2013-06-23T08:19:09Z</time>
      </trkpt>
      <trkpt lat="45.43748" lon="5.69307">
        <ele>793.9</ele>
        <time>2013-06-23T08:19:11Z</time>
      </trkpt>
      <trkpt lat="45.43743" lon="5.69311">
        <ele>793.6</ele>
        <time>2013-06-23T08:19:13Z</time>
      </trkpt>
      <trkpt lat="45.43736" lon="5.69315">
        <ele>793.1</ele>
        <time>2013-06-23T08:19:15Z</time>
      </trkpt>
      <trkpt lat="45.43729" lon="5.69319">
        <ele>793</ele>
        <time>2013-06-23T08:19:17Z</time>
      </trkpt>
      <trkpt lat="45.43721" lon="5.69323">
        <ele>792.8</ele>
        <time>2013-06-23T08:19:19Z</time>
      </trkpt>
      <trkpt lat="45.43715" lon="5.69326">
        <ele>792.5</ele>
        <time>2013-06-23T08:19:21Z</time>
      </trkpt>
      <trkpt lat="45.43709" lon="5.69329">
        <ele>792.4</ele>
        <time>2013-06-23T08:19:23Z</time>
      </trkpt>
      <trkpt lat="45.43702" lon="5.69332">
        <ele>792.2</ele>
        <time>2013-06-23T08:19:25Z</time>
      </trkpt>
      <trkpt lat="45.43696" lon="5.69334">
        <ele>792</ele>
        <time>2013-06-23T08:19:27Z</time>
      </trkpt>
      <trkpt lat="45.43689" lon="5.69336">
        <ele>792.1</ele>
        <time>2013-06-23T08:19:29Z</time>
      </trkpt>
      <trkpt lat="45.43682" lon="5.69338">
        <ele>792.2</ele>
        <time>2013-06-23T08:19:31Z</time>
      </trkpt>
      <trkpt lat="45.43679" lon="5.69338">
        <ele>792.4</ele>
        <time>2013-06-23T08:19:32Z</time>
      </trkpt>
      <trkpt lat="45.43669" lon="5.6934">
        <ele>792.1</ele>
        <time>2013-06-23T08:19:35Z</time>
      </trkpt>
      <trkpt lat="45.43662" lon="5.69341">
        <ele>791.5</ele>
        <time>2013-06-23T08:19:37Z</time>
      </trkpt>
      <trkpt lat="45.43655" lon="5.69342">
        <ele>791.4</ele>
        <time>2013-06-23T08:19:39Z</time>
      </trkpt>
      <trkpt lat="45.43648" lon="5.69344">
        <ele>791.9</ele>
        <time>2013-06-23T08:19:41Z</time>
      </trkpt>
      <trkpt lat="45.43642" lon="5.69347">
        <ele>793</ele>
        <time>2013-06-23T08:19:44Z</time>
      </trkpt>
      <trkpt lat="45.43634" lon="5.69352">
        <ele>793.9</ele>
        <time>2013-06-23T08:19:49Z</time>
      </trkpt>
      <trkpt lat="45.43626" lon="5.69358">
        <ele>794</ele>
        <time>2013-06-23T08:19:54Z</time>
      </trkpt>
      <trkpt lat="45.43618" lon="5.69358">
        <ele>793.8</ele>
        <time>2013-06-23T08:19:58Z</time>
      </trkpt>
      <trkpt lat="45.4361" lon="5.69362">
        <ele>793.7</ele>
        <time>2013-06-23T08:20:03Z</time>
      </trkpt>
      <trkpt lat="45.43602" lon="5.69364">
        <ele>793.2</ele>
        <time>2013-06-23T08:20:07Z</time>
      </trkpt>
      <trkpt lat="45.43594" lon="5.69367">
        <ele>792</ele>
        <time>2013-06-23T08:20:10Z</time>
      </trkpt>
      <trkpt lat="45.43587" lon="5.69373">
        <ele>790.9</ele>
        <time>2013-06-23T08:20:14Z</time>
      </trkpt>
      <trkpt lat="45.43581" lon="5.69375">
        <ele>790.9</ele>
        <time>2013-06-23T08:20:17Z</time>
      </trkpt>
      <trkpt lat="45.43573" lon="5.69379">
        <ele>789.8</ele>
        <time>2013-06-23T08:20:20Z</time>
      </trkpt>
      <trkpt lat="45.43564" lon="5.6938">
        <ele>786.4</ele>
        <time>2013-06-23T08:20:25Z</time>
      </trkpt>
      <trkpt lat="45.43557" lon="5.6938">
        <ele>785.1</ele>
        <time>2013-06-23T08:20:29Z</time>
      </trkpt>
      <trkpt lat="45.43551" lon="5.69385">
        <ele>785</ele>
        <time>2013-06-23T08:20:32Z</time>
      </trkpt>
      <trkpt lat="45.43549" lon="5.69386">
        <ele>785.3</ele>
        <time>2013-06-23T08:20:33Z</time>
      </trkpt>
      <trkpt lat="45.43541" lon="5.694">
        <ele>784.8</ele>
        <time>2013-06-23T08:20:39Z</time>
      </trkpt>
      <trkpt lat="45.43536" lon="5.69407">
        <ele>785</ele>
        <time>2013-06-23T08:20:41Z</time>
      </trkpt>
      <trkpt lat="45.43529" lon="5.69411">
        <ele>784.7</ele>
        <time>2013-06-23T08:20:43Z</time>
      </trkpt>
      <trkpt lat="45.43521" lon="5.69416">
        <ele>784.3</ele>
        <time>2013-06-23T08:20:46Z</time>
      </trkpt>
      <trkpt lat="45.43515" lon="5.69424">
        <ele>783.6</ele>
        <time>2013-06-23T08:20:49Z</time>
      </trkpt>
      <trkpt lat="45.43509" lon="5.69433">
        <ele>783.4</ele>
        <time>2013-06-23T08:20:52Z</time>
      </trkpt>
      <trkpt lat="45.43505" lon="5.6944">
        <ele>783.5</ele>
        <time>2013-06-23T08:20:54Z</time>
      </trkpt>
      <trkpt lat="45.43499" lon="5.69447">
        <ele>783</ele>
        <time>2013-06-23T08:20:56Z</time>
      </trkpt>
      <trkpt lat="45.43496" lon="5.69451">
        <ele>782.8</ele>
        <time>2013-06-23T08:20:57Z</time>
      </trkpt>
      <trkpt lat="45.43492" lon="5.69455">
        <ele>782.9</ele>
        <time>2013-06-23T08:20:58Z</time>
      </trkpt>
      <trkpt lat="45.43488" lon="5.69459">
        <ele>783</ele>
        <time>2013-06-23T08:20:59Z</time>
      </trkpt>
      <trkpt lat="45.43485" lon="5.69465">
        <ele>783</ele>
        <time>2013-06-23T08:21:00Z</time>
      </trkpt>
      <trkpt lat="45.43481" lon="5.69471">
        <ele>782.8</ele>
        <time>2013-06-23T08:21:01Z</time>
      </trkpt>
      <trkpt lat="45.43479" lon="5.69477">
        <ele>782.7</ele>
        <time>2013-06-23T08:21:02Z</time>
      </trkpt>
      <trkpt lat="45.43476" lon="5.69483">
        <ele>782.6</ele>
        <time>2013-06-23T08:21:03Z</time>
      </trkpt>
      <trkpt lat="45.4347" lon="5.69492">
        <ele>781.8</ele>
        <time>2013-06-23T08:21:05Z</time>
      </trkpt>
      <trkpt lat="45.43465" lon="5.69499">
        <ele>781.1</ele>
        <time>2013-06-23T08:21:07Z</time>
      </trkpt>
      <trkpt lat="45.43459" lon="5.69505">
        <ele>780.4</ele>
        <time>2013-06-23T08:21:10Z</time>
      </trkpt>
      <trkpt lat="45.43452" lon="5.69509">
        <ele>780.6</ele>
        <time>2013-06-23T08:21:13Z</time>
      </trkpt>
      <trkpt lat="45.43446" lon="5.69514">
        <ele>780.7</ele>
        <time>2013-06-23T08:21:16Z</time>
      </trkpt>
      <trkpt lat="45.43444" lon="5.69525">
        <ele>779.1</ele>
        <time>2013-06-23T08:21:19Z</time>
      </trkpt>
      <trkpt lat="45.43445" lon="5.69535">
        <ele>779.9</ele>
        <time>2013-06-23T08:21:22Z</time>
      </trkpt>
      <trkpt lat="45.4345" lon="5.69542">
        <ele>779.2</ele>
        <time>2013-06-23T08:21:25Z</time>
      </trkpt>
      <trkpt lat="45.43454" lon="5.69548">
        <ele>778.8</ele>
        <time>2013-06-23T08:21:27Z</time>
      </trkpt>
      <trkpt lat="45.43462" lon="5.69556">
        <ele>778.1</ele>
        <time>2013-06-23T08:21:30Z</time>
      </trkpt>
      <trkpt lat="45.43468" lon="5.69564">
        <ele>777.4</ele>
        <time>2013-06-23T08:21:33Z</time>
      </trkpt>
      <trkpt lat="45.4347" lon="5.69567">
        <ele>777.3</ele>
        <time>2013-06-23T08:21:34Z</time>
      </trkpt>
      <trkpt lat="45.43478" lon="5.69574">
        <ele>776.2</ele>
        <time>2013-06-23T08:21:37Z</time>
      </trkpt>
      <trkpt lat="45.43483" lon="5.69578">
        <ele>775.9</ele>
        <time>2013-06-23T08:21:39Z</time>
      </trkpt>
      <trkpt lat="45.4349" lon="5.69585">
        <ele>776</ele>
        <time>2013-06-23T08:21:42Z</time>
      </trkpt>
      <trkpt lat="45.43491" lon="5.69596">
        <ele>774.3</ele>
        <time>2013-06-23T08:22:37Z</time>
      </trkpt>
      <trkpt lat="45.4349" lon="5.69598">
        <ele>774.3</ele>
        <time>2013-06-23T08:22:38Z</time>
      </trkpt>
      <trkpt lat="45.43479" lon="5.69607">
        <ele>775.2</ele>
        <time>2013-06-23T08:22:43Z</time>
      </trkpt>
      <trkpt lat="45.43472" lon="5.69609">
        <ele>775.4</ele>
        <time>2013-06-23T08:22:45Z</time>
      </trkpt>
      <trkpt lat="45.43465" lon="5.6961">
        <ele>773.7</ele>
        <time>2013-06-23T08:22:47Z</time>
      </trkpt>
      <trkpt lat="45.43458" lon="5.69613">
        <ele>772.7</ele>
        <time>2013-06-23T08:22:49Z</time>
      </trkpt>
      <trkpt lat="45.43452" lon="5.69616">
        <ele>771.3</ele>
        <time>2013-06-23T08:22:51Z</time>
      </trkpt>
      <trkpt lat="45.43445" lon="5.69621">
        <ele>770.2</ele>
        <time>2013-06-23T08:22:53Z</time>
      </trkpt>
      <trkpt lat="45.4344" lon="5.69626">
        <ele>769.3</ele>
        <time>2013-06-23T08:22:55Z</time>
      </trkpt>
      <trkpt lat="45.43433" lon="5.69633">
        <ele>768.8</ele>
        <time>2013-06-23T08:22:57Z</time>
      </trkpt>
      <trkpt lat="45.4343" lon="5.69638">
        <ele>768.7</ele>
        <time>2013-06-23T08:22:58Z</time>
      </trkpt>
      <trkpt lat="45.43426" lon="5.69645">
        <ele>767.4</ele>
        <time>2013-06-23T08:22:59Z</time>
      </trkpt>
      <trkpt lat="45.43421" lon="5.69651">
        <ele>766.5</ele>
        <time>2013-06-23T08:23:00Z</time>
      </trkpt>
      <trkpt lat="45.43416" lon="5.69661">
        <ele>764.6</ele>
        <time>2013-06-23T08:23:02Z</time>
      </trkpt>
      <trkpt lat="45.43416" lon="5.69673">
        <ele>762.4</ele>
        <time>2013-06-23T08:23:05Z</time>
      </trkpt>
      <trkpt lat="45.43416" lon="5.69685">
        <ele>761.6</ele>
        <time>2013-06-23T08:23:08Z</time>
      </trkpt>
      <trkpt lat="45.43417" lon="5.69698">
        <ele>759.9</ele>
        <time>2013-06-23T08:23:11Z</time>
      </trkpt>
      <trkpt lat="45.43415" lon="5.69706">
        <ele>759.3</ele>
        <time>2013-06-23T08:23:13Z</time>
      </trkpt>
      <trkpt lat="45.43412" lon="5.69712">
        <ele>759.1</ele>
        <time>2013-06-23T08:23:14Z</time>
      </trkpt>
      <trkpt lat="45.4341" lon="5.69718">
        <ele>757.9</ele>
        <time>2013-06-23T08:23:15Z</time>
      </trkpt>
      <trkpt lat="45.43407" lon="5.69724">
        <ele>756.9</ele>
        <time>2013-06-23T08:23:16Z</time>
      </trkpt>
      <trkpt lat="45.43403" lon="5.69733">
        <ele>755.8</ele>
        <time>2013-06-23T08:23:18Z</time>
      </trkpt>
      <trkpt lat="45.43402" lon="5.69742">
        <ele>755</ele>
        <time>2013-06-23T08:23:21Z</time>
      </trkpt>
      <trkpt lat="45.43403" lon="5.69754">
        <ele>753.3</ele>
        <time>2013-06-23T08:23:24Z</time>
      </trkpt>
      <trkpt lat="45.43405" lon="5.69762">
        <ele>752.3</ele>
        <time>2013-06-23T08:23:26Z</time>
      </trkpt>
      <trkpt lat="45.43408" lon="5.69771">
        <ele>751.7</ele>
        <time>2013-06-23T08:23:28Z</time>
      </trkpt>
      <trkpt lat="45.43413" lon="5.69781">
        <ele>751.4</ele>
        <time>2013-06-23T08:23:30Z</time>
      </trkpt>
      <trkpt lat="45.43418" lon="5.69789">
        <ele>750.8</ele>
        <time>2013-06-23T08:23:32Z</time>
      </trkpt>
      <trkpt lat="45.43421" lon="5.69798">
        <ele>750.1</ele>
        <time>2013-06-23T08:23:34Z</time>
      </trkpt>
      <trkpt lat="45.43426" lon="5.69808">
        <ele>749.4</ele>
        <time>2013-06-23T08:23:36Z</time>
      </trkpt>
      <trkpt lat="45.43429" lon="5.69813">
        <ele>749.1</ele>
        <time>2013-06-23T08:23:37Z</time>
      </trkpt>
      <trkpt lat="45.43435" lon="5.69821">
        <ele>749</ele>
        <time>2013-06-23T08:23:39Z</time>
      </trkpt>
      <trkpt lat="45.43439" lon="5.69826">
        <ele>749</ele>
        <time>2013-06-23T08:23:40Z</time>
      </trkpt>
      <trkpt lat="45.43443" lon="5.69831">
        <ele>748.1</ele>
        <time>2013-06-23T08:23:41Z</time>
      </trkpt>
      <trkpt lat="45.43445" lon="5.69836">
        <ele>747.5</ele>
        <time>2013-06-23T08:23:42Z</time>
      </trkpt>
      <trkpt lat="45.43449" lon="5.69848">
        <ele>746.6</ele>
        <time>2013-06-23T08:23:44Z</time>
      </trkpt>
      <trkpt lat="45.43455" lon="5.69854">
        <ele>746.1</ele>
        <time>2013-06-23T08:23:46Z</time>
      </trkpt>
      <trkpt lat="45.43462" lon="5.69858">
        <ele>745.6</ele>
        <time>2013-06-23T08:23:48Z</time>
      </trkpt>
      <trkpt lat="45.4347" lon="5.69863">
        <ele>744.9</ele>
        <time>2013-06-23T08:23:50Z</time>
      </trkpt>
      <trkpt lat="45.43473" lon="5.69868">
        <ele>744.5</ele>
        <time>2013-06-23T08:23:51Z</time>
      </trkpt>
      <trkpt lat="45.43478" lon="5.69877">
        <ele>743.9</ele>
        <time>2013-06-23T08:23:53Z</time>
      </trkpt>
      <trkpt lat="45.43483" lon="5.69885">
        <ele>743.6</ele>
        <time>2013-06-23T08:23:55Z</time>
      </trkpt>
      <trkpt lat="45.43487" lon="5.69894">
        <ele>743.5</ele>
        <time>2013-06-23T08:23:57Z</time>
      </trkpt>
      <trkpt lat="45.43489" lon="5.69904">
        <ele>743.4</ele>
        <time>2013-06-23T08:23:59Z</time>
      </trkpt>
      <trkpt lat="45.43491" lon="5.69915">
        <ele>742.1</ele>
        <time>2013-06-23T08:24:01Z</time>
      </trkpt>
      <trkpt lat="45.43494" lon="5.69924">
        <ele>740.3</ele>
        <time>2013-06-23T08:24:03Z</time>
      </trkpt>
      <trkpt lat="45.43491" lon="5.69936">
        <ele>733.9</ele>
        <time>2013-06-23T08:24:15Z</time>
      </trkpt>
      <trkpt lat="45.43483" lon="5.6994">
        <ele>732.5</ele>
        <time>2013-06-23T08:24:20Z</time>
      </trkpt>
      <trkpt lat="45.43475" lon="5.69939">
        <ele>731.9</ele>
        <time>2013-06-23T08:24:23Z</time>
      </trkpt>
      <trkpt lat="45.43467" lon="5.69938">
        <ele>731.5</ele>
        <time>2013-06-23T08:24:26Z</time>
      </trkpt>
      <trkpt lat="45.43461" lon="5.69937">
        <ele>731.3</ele>
        <time>2013-06-23T08:24:28Z</time>
      </trkpt>
      <trkpt lat="45.43455" lon="5.69937">
        <ele>731.5</ele>
        <time>2013-06-23T08:24:30Z</time>
      </trkpt>
      <trkpt lat="45.43446" lon="5.69938">
        <ele>732.4</ele>
        <time>2013-06-23T08:24:33Z</time>
      </trkpt>
      <trkpt lat="45.43438" lon="5.6994">
        <ele>732.6</ele>
        <time>2013-06-23T08:24:36Z</time>
      </trkpt>
      <trkpt lat="45.43431" lon="5.69941">
        <ele>733.1</ele>
        <time>2013-06-23T08:24:39Z</time>
      </trkpt>
      <trkpt lat="45.43422" lon="5.69941">
        <ele>733.8</ele>
        <time>2013-06-23T08:24:42Z</time>
      </trkpt>
      <trkpt lat="45.43419" lon="5.6994">
        <ele>734</ele>
        <time>2013-06-23T08:24:43Z</time>
      </trkpt>
      <trkpt lat="45.43409" lon="5.69937">
        <ele>733.8</ele>
        <time>2013-06-23T08:24:46Z</time>
      </trkpt>
      <trkpt lat="45.43401" lon="5.69935">
        <ele>733.2</ele>
        <time>2013-06-23T08:24:49Z</time>
      </trkpt>
      <trkpt lat="45.43394" lon="5.69934">
        <ele>732.8</ele>
        <time>2013-06-23T08:24:51Z</time>
      </trkpt>
      <trkpt lat="45.43387" lon="5.69933">
        <ele>732.5</ele>
        <time>2013-06-23T08:24:53Z</time>
      </trkpt>
      <trkpt lat="45.43378" lon="5.69933">
        <ele>732.3</ele>
        <time>2013-06-23T08:24:55Z</time>
      </trkpt>
      <trkpt lat="45.43374" lon="5.69933">
        <ele>732.2</ele>
        <time>2013-06-23T08:24:56Z</time>
      </trkpt>
      <trkpt lat="45.43369" lon="5.69932">
        <ele>732</ele>
        <time>2013-06-23T08:24:57Z</time>
      </trkpt>
      <trkpt lat="45.43364" lon="5.69932">
        <ele>731.8</ele>
        <time>2013-06-23T08:24:58Z</time>
      </trkpt>
      <trkpt lat="45.43356" lon="5.69931">
        <ele>731.6</ele>
        <time>2013-06-23T08:25:00Z</time>
      </trkpt>
      <trkpt lat="45.43347" lon="5.69929">
        <ele>731.6</ele>
        <time>2013-06-23T08:25:02Z</time>
      </trkpt>
      <trkpt lat="45.43339" lon="5.69925">
        <ele>731.5</ele>
        <time>2013-06-23T08:25:04Z</time>
      </trkpt>
      <trkpt lat="45.43333" lon="5.69919">
        <ele>731.3</ele>
        <time>2013-06-23T08:25:06Z</time>
      </trkpt>
      <trkpt lat="45.43328" lon="5.69911">
        <ele>730.8</ele>
        <time>2013-06-23T08:25:08Z</time>
      </trkpt>
      <trkpt lat="45.43324" lon="5.69904">
        <ele>730.5</ele>
        <time>2013-06-23T08:25:10Z</time>
      </trkpt>
      <trkpt lat="45.4332" lon="5.69897">
        <ele>730.4</ele>
        <time>2013-06-23T08:25:12Z</time>
      </trkpt>
      <trkpt lat="45.43315" lon="5.6989">
        <ele>730.6</ele>
        <time>2013-06-23T08:25:14Z</time>
      </trkpt>
      <trkpt lat="45.4331" lon="5.6988">
        <ele>731</ele>
        <time>2013-06-23T08:25:17Z</time>
      </trkpt>
      <trkpt lat="45.43305" lon="5.69872">
        <ele>731.7</ele>
        <time>2013-06-23T08:25:20Z</time>
      </trkpt>
      <trkpt lat="45.43302" lon="5.6986">
        <ele>731.6</ele>
        <time>2013-06-23T08:25:25Z</time>
      </trkpt>
      <trkpt lat="45.433" lon="5.69849">
        <ele>733.2</ele>
        <time>2013-06-23T08:25:30Z</time>
      </trkpt>
      <trkpt lat="45.43294" lon="5.69842">
        <ele>733.9</ele>
        <time>2013-06-23T08:25:35Z</time>
      </trkpt>
      <trkpt lat="45.43287" lon="5.69835">
        <ele>736.6</ele>
        <time>2013-06-23T08:25:40Z</time>
      </trkpt>
      <trkpt lat="45.43282" lon="5.69829">
        <ele>736.5</ele>
        <time>2013-06-23T08:25:43Z</time>
      </trkpt>
      <trkpt lat="45.4328" lon="5.69827">
        <ele>736.4</ele>
        <time>2013-06-23T08:25:44Z</time>
      </trkpt>
      <trkpt lat="45.43272" lon="5.6981">
        <ele>737.6</ele>
        <time>2013-06-23T08:25:52Z</time>
      </trkpt>
      <trkpt lat="45.43268" lon="5.69799">
        <ele>738.8</ele>
        <time>2013-06-23T08:26:00Z</time>
      </trkpt>
      <trkpt lat="45.43265" lon="5.69789">
        <ele>739.8</ele>
        <time>2013-06-23T08:26:07Z</time>
      </trkpt>
      <trkpt lat="45.43262" lon="5.6978">
        <ele>740.3</ele>
        <time>2013-06-23T08:26:10Z</time>
      </trkpt>
      <trkpt lat="45.43258" lon="5.69772">
        <ele>743.5</ele>
        <time>2013-06-23T08:26:26Z</time>
      </trkpt>
      <trkpt lat="45.43254" lon="5.69765">
        <ele>744.1</ele>
        <time>2013-06-23T08:26:28Z</time>
      </trkpt>
      <trkpt lat="45.43252" lon="5.69753">
        <ele>747.9</ele>
        <time>2013-06-23T08:26:42Z</time>
      </trkpt>
      <trkpt lat="45.43253" lon="5.69743">
        <ele>749</ele>
        <time>2013-06-23T08:27:03Z</time>
      </trkpt>
      <trkpt lat="45.43256" lon="5.69738">
        <ele>749</ele>
        <time>2013-06-23T08:27:05Z</time>
      </trkpt>
      <trkpt lat="45.43267" lon="5.69735">
        <ele>750.1</ele>
        <time>2013-06-23T08:27:10Z</time>
      </trkpt>
      <trkpt lat="45.43275" lon="5.69736">
        <ele>748.5</ele>
        <time>2013-06-23T08:27:14Z</time>
      </trkpt>
      <trkpt lat="45.43281" lon="5.69739">
        <ele>747.3</ele>
        <time>2013-06-23T08:27:17Z</time>
      </trkpt>
      <trkpt lat="45.43289" lon="5.69744">
        <ele>747.4</ele>
        <time>2013-06-23T08:27:21Z</time>
      </trkpt>
      <trkpt lat="45.43295" lon="5.69743">
        <ele>751.1</ele>
        <time>2013-06-23T08:27:42Z</time>
      </trkpt>
      <trkpt lat="45.433" lon="5.69737">
        <ele>752</ele>
        <time>2013-06-23T08:27:44Z</time>
      </trkpt>
      <trkpt lat="45.43306" lon="5.69728">
        <ele>753.6</ele>
        <time>2013-06-23T08:27:56Z</time>
      </trkpt>
      <trkpt lat="45.4331" lon="5.6972">
        <ele>753.6</ele>
        <time>2013-06-23T08:27:58Z</time>
      </trkpt>
      <trkpt lat="45.43314" lon="5.69712">
        <ele>755.7</ele>
        <time>2013-06-23T08:28:07Z</time>
      </trkpt>
      <trkpt lat="45.43315" lon="5.69708">
        <ele>755.8</ele>
        <time>2013-06-23T08:28:08Z</time>
      </trkpt>
      <trkpt lat="45.43319" lon="5.69695">
        <ele>757.9</ele>
        <time>2013-06-23T08:28:17Z</time>
      </trkpt>
      <trkpt lat="45.43322" lon="5.69687">
        <ele>758.2</ele>
        <time>2013-06-23T08:28:19Z</time>
      </trkpt>
      <trkpt lat="45.43323" lon="5.69679">
        <ele>759.5</ele>
        <time>2013-06-23T08:28:27Z</time>
      </trkpt>
      <trkpt lat="45.43324" lon="5.6967">
        <ele>758.9</ele>
        <time>2013-06-23T08:28:29Z</time>
      </trkpt>
      <trkpt lat="45.43325" lon="5.6966">
        <ele>760</ele>
        <time>2013-06-23T08:28:37Z</time>
      </trkpt>
      <trkpt lat="45.43327" lon="5.69651">
        <ele>760.5</ele>
        <time>2013-06-23T08:28:39Z</time>
      </trkpt>
      <trkpt lat="45.43327" lon="5.6964">
        <ele>760.2</ele>
        <time>2013-06-23T08:28:45Z</time>
      </trkpt>
      <trkpt lat="45.43327" lon="5.69629">
        <ele>760.8</ele>
        <time>2013-06-23T08:28:47Z</time>
      </trkpt>
      <trkpt lat="45.43328" lon="5.6962">
        <ele>762.7</ele>
        <time>2013-06-23T08:28:56Z</time>
      </trkpt>
      <trkpt lat="45.43328" lon="5.6961">
        <ele>762.7</ele>
        <time>2013-06-23T08:28:58Z</time>
      </trkpt>
      <trkpt lat="45.43327" lon="5.69601">
        <ele>763.3</ele>
        <time>2013-06-23T08:29:07Z</time>
      </trkpt>
      <trkpt lat="45.43326" lon="5.6959">
        <ele>763.4</ele>
        <time>2013-06-23T08:29:09Z</time>
      </trkpt>
      <trkpt lat="45.43325" lon="5.69586">
        <ele>764</ele>
        <time>2013-06-23T08:29:10Z</time>
      </trkpt>
      <trkpt lat="45.43323" lon="5.69571">
        <ele>766.6</ele>
        <time>2013-06-23T08:29:19Z</time>
      </trkpt>
      <trkpt lat="45.43322" lon="5.69563">
        <ele>769.5</ele>
        <time>2013-06-23T08:29:29Z</time>
      </trkpt>
      <trkpt lat="45.43321" lon="5.69553">
        <ele>770</ele>
        <time>2013-06-23T08:29:31Z</time>
      </trkpt>
      <trkpt lat="45.43319" lon="5.69541">
        <ele>771</ele>
        <time>2013-06-23T08:29:44Z</time>
      </trkpt>
      <trkpt lat="45.43316" lon="5.6953">
        <ele>774.4</ele>
        <time>2013-06-23T08:30:00Z</time>
      </trkpt>
      <trkpt lat="45.43315" lon="5.69517">
        <ele>775</ele>
        <time>2013-06-23T08:30:03Z</time>
      </trkpt>
      <trkpt lat="45.43316" lon="5.69505">
        <ele>778.9</ele>
        <time>2013-06-23T08:30:25Z</time>
      </trkpt>
      <trkpt lat="45.43317" lon="5.69501">
        <ele>779.1</ele>
        <time>2013-06-23T08:30:26Z</time>
      </trkpt>
      <trkpt lat="45.43321" lon="5.69489">
        <ele>781.3</ele>
        <time>2013-06-23T08:30:42Z</time>
      </trkpt>
      <trkpt lat="45.43324" lon="5.6948">
        <ele>782.4</ele>
        <time>2013-06-23T08:30:51Z</time>
      </trkpt>
      <trkpt lat="45.43327" lon="5.69472">
        <ele>783.3</ele>
        <time>2013-06-23T08:30:53Z</time>
      </trkpt>
      <trkpt lat="45.43331" lon="5.69464">
        <ele>784.4</ele>
        <time>2013-06-23T08:31:02Z</time>
      </trkpt>
      <trkpt lat="45.43335" lon="5.69455">
        <ele>784.8</ele>
        <time>2013-06-23T08:31:04Z</time>
      </trkpt>
      <trkpt lat="45.43338" lon="5.69447">
        <ele>785.3</ele>
        <time>2013-06-23T08:31:14Z</time>
      </trkpt>
      <trkpt lat="45.43341" lon="5.69438">
        <ele>785.6</ele>
        <time>2013-06-23T08:31:16Z</time>
      </trkpt>
      <trkpt lat="45.43342" lon="5.69427">
        <ele>787.5</ele>
        <time>2013-06-23T08:31:28Z</time>
      </trkpt>
      <trkpt lat="45.43341" lon="5.69424">
        <ele>788.2</ele>
        <time>2013-06-23T08:31:29Z</time>
      </trkpt>
      <trkpt lat="45.43331" lon="5.6941">
        <ele>787.7</ele>
        <time>2013-06-23T08:31:35Z</time>
      </trkpt>
      <trkpt lat="45.43325" lon="5.69402">
        <ele>787.9</ele>
        <time>2013-06-23T08:31:38Z</time>
      </trkpt>
      <trkpt lat="45.43319" lon="5.69394">
        <ele>788.1</ele>
        <time>2013-06-23T08:31:41Z</time>
      </trkpt>
      <trkpt lat="45.43313" lon="5.69388">
        <ele>787.9</ele>
        <time>2013-06-23T08:31:45Z</time>
      </trkpt>
      <trkpt lat="45.43306" lon="5.69384">
        <ele>787.5</ele>
        <time>2013-06-23T08:31:48Z</time>
      </trkpt>
      <trkpt lat="45.43298" lon="5.69379">
        <ele>787.3</ele>
        <time>2013-06-23T08:31:51Z</time>
      </trkpt>
      <trkpt lat="45.4329" lon="5.69374">
        <ele>787.1</ele>
        <time>2013-06-23T08:31:54Z</time>
      </trkpt>
      <trkpt lat="45.43284" lon="5.6937">
        <ele>787.2</ele>
        <time>2013-06-23T08:31:57Z</time>
      </trkpt>
      <trkpt lat="45.43275" lon="5.69367">
        <ele>788.2</ele>
        <time>2013-06-23T08:32:00Z</time>
      </trkpt>
      <trkpt lat="45.43269" lon="5.69366">
        <ele>788.2</ele>
        <time>2013-06-23T08:32:02Z</time>
      </trkpt>
      <trkpt lat="45.43261" lon="5.69363">
        <ele>787.7</ele>
        <time>2013-06-23T08:32:04Z</time>
      </trkpt>
      <trkpt lat="45.43257" lon="5.69362">
        <ele>787.3</ele>
        <time>2013-06-23T08:32:05Z</time>
      </trkpt>
      <trkpt lat="45.43248" lon="5.69361">
        <ele>786.7</ele>
        <time>2013-06-23T08:32:07Z</time>
      </trkpt>
      <trkpt lat="45.43239" lon="5.6936">
        <ele>786.4</ele>
        <time>2013-06-23T08:32:09Z</time>
      </trkpt>
      <trkpt lat="45.43232" lon="5.69358">
        <ele>786.2</ele>
        <time>2013-06-23T08:32:11Z</time>
      </trkpt>
      <trkpt lat="45.43226" lon="5.69358">
        <ele>785.9</ele>
        <time>2013-06-23T08:32:13Z</time>
      </trkpt>
      <trkpt lat="45.43219" lon="5.69358">
        <ele>785.7</ele>
        <time>2013-06-23T08:32:15Z</time>
      </trkpt>
      <trkpt lat="45.43213" lon="5.69357">
        <ele>785.5</ele>
        <time>2013-06-23T08:32:17Z</time>
      </trkpt>
      <trkpt lat="45.43207" lon="5.69356">
        <ele>786.4</ele>
        <time>2013-06-23T08:32:19Z</time>
      </trkpt>
      <trkpt lat="45.43201" lon="5.69354">
        <ele>786.1</ele>
        <time>2013-06-23T08:32:21Z</time>
      </trkpt>
      <trkpt lat="45.43193" lon="5.69352">
        <ele>785.5</ele>
        <time>2013-06-23T08:32:24Z</time>
      </trkpt>
      <trkpt lat="45.43193" lon="5.69341">
        <ele>786</ele>
        <time>2013-06-23T08:32:36Z</time>
      </trkpt>
      <trkpt lat="45.43193" lon="5.69338">
        <ele>786.5</ele>
        <time>2013-06-23T08:32:37Z</time>
      </trkpt>
      <trkpt lat="45.43192" lon="5.69318">
        <ele>788</ele>
        <time>2013-06-23T08:32:44Z</time>
      </trkpt>
      <trkpt lat="45.43189" lon="5.69307">
        <ele>788.7</ele>
        <time>2013-06-23T08:32:47Z</time>
      </trkpt>
      <trkpt lat="45.43189" lon="5.69294">
        <ele>788.3</ele>
        <time>2013-06-23T08:32:51Z</time>
      </trkpt>
      <trkpt lat="45.43188" lon="5.69286">
        <ele>788.1</ele>
        <time>2013-06-23T08:32:53Z</time>
      </trkpt>
      <trkpt lat="45.43186" lon="5.69277">
        <ele>788.2</ele>
        <time>2013-06-23T08:32:55Z</time>
      </trkpt>
      <trkpt lat="45.43186" lon="5.69266">
        <ele>787.1</ele>
        <time>2013-06-23T08:32:58Z</time>
      </trkpt>
      <trkpt lat="45.43184" lon="5.69256">
        <ele>787.5</ele>
        <time>2013-06-23T08:33:01Z</time>
      </trkpt>
      <trkpt lat="45.43182" lon="5.69247">
        <ele>787.8</ele>
        <time>2013-06-23T08:33:03Z</time>
      </trkpt>
      <trkpt lat="45.43183" lon="5.69235">
        <ele>788.3</ele>
        <time>2013-06-23T08:33:06Z</time>
      </trkpt>
      <trkpt lat="45.43183" lon="5.69224">
        <ele>788.6</ele>
        <time>2013-06-23T08:33:09Z</time>
      </trkpt>
      <trkpt lat="45.4318" lon="5.69213">
        <ele>789.1</ele>
        <time>2013-06-23T08:33:12Z</time>
      </trkpt>
      <trkpt lat="45.43177" lon="5.69205">
        <ele>789.3</ele>
        <time>2013-06-23T08:33:14Z</time>
      </trkpt>
      <trkpt lat="45.43174" lon="5.69195">
        <ele>787.6</ele>
        <time>2013-06-23T08:33:17Z</time>
      </trkpt>
      <trkpt lat="45.43173" lon="5.69183">
        <ele>787.4</ele>
        <time>2013-06-23T08:33:20Z</time>
      </trkpt>
      <trkpt lat="45.4317" lon="5.69173">
        <ele>787.6</ele>
        <time>2013-06-23T08:33:23Z</time>
      </trkpt>
      <trkpt lat="45.43168" lon="5.69165">
        <ele>787.8</ele>
        <time>2013-06-23T08:33:25Z</time>
      </trkpt>
      <trkpt lat="45.43164" lon="5.69158">
        <ele>787.9</ele>
        <time>2013-06-23T08:33:27Z</time>
      </trkpt>
      <trkpt lat="45.43162" lon="5.69149">
        <ele>788.4</ele>
        <time>2013-06-23T08:33:29Z</time>
      </trkpt>
      <trkpt lat="45.43161" lon="5.69138">
        <ele>789.4</ele>
        <time>2013-06-23T08:33:32Z</time>
      </trkpt>
      <trkpt lat="45.43157" lon="5.6913">
        <ele>790.4</ele>
        <time>2013-06-23T08:33:35Z</time>
      </trkpt>
      <trkpt lat="45.43153" lon="5.69121">
        <ele>791.1</ele>
        <time>2013-06-23T08:33:39Z</time>
      </trkpt>
      <trkpt lat="45.43152" lon="5.69118">
        <ele>791.2</ele>
        <time>2013-06-23T08:33:40Z</time>
      </trkpt>
      <trkpt lat="45.43155" lon="5.69101">
        <ele>790.9</ele>
        <time>2013-06-23T08:33:48Z</time>
      </trkpt>
      <trkpt lat="45.43155" lon="5.69092">
        <ele>790.8</ele>
        <time>2013-06-23T08:33:50Z</time>
      </trkpt>
      <trkpt lat="45.43155" lon="5.69082">
        <ele>790.7</ele>
        <time>2013-06-23T08:33:52Z</time>
      </trkpt>
      <trkpt lat="45.43157" lon="5.69073">
        <ele>791</ele>
        <time>2013-06-23T08:33:54Z</time>
      </trkpt>
      <trkpt lat="45.43159" lon="5.69061">
        <ele>791.1</ele>
        <time>2013-06-23T08:33:58Z</time>
      </trkpt>
      <trkpt lat="45.43161" lon="5.69051">
        <ele>791.2</ele>
        <time>2013-06-23T08:34:01Z</time>
      </trkpt>
      <trkpt lat="45.43164" lon="5.69041">
        <ele>791.9</ele>
        <time>2013-06-23T08:34:04Z</time>
      </trkpt>
      <trkpt lat="45.43166" lon="5.69028">
        <ele>791.1</ele>
        <time>2013-06-23T08:34:08Z</time>
      </trkpt>
      <trkpt lat="45.43165" lon="5.69017">
        <ele>790.8</ele>
        <time>2013-06-23T08:34:11Z</time>
      </trkpt>
      <trkpt lat="45.43162" lon="5.69006">
        <ele>790.5</ele>
        <time>2013-06-23T08:34:13Z</time>
      </trkpt>
      <trkpt lat="45.4316" lon="5.68997">
        <ele>790.2</ele>
        <time>2013-06-23T08:34:15Z</time>
      </trkpt>
      <trkpt lat="45.43155" lon="5.68989">
        <ele>789.5</ele>
        <time>2013-06-23T08:34:18Z</time>
      </trkpt>
      <trkpt lat="45.43147" lon="5.68987">
        <ele>789</ele>
        <time>2013-06-23T08:34:21Z</time>
      </trkpt>
      <trkpt lat="45.43141" lon="5.6899">
        <ele>788.3</ele>
        <time>2013-06-23T08:34:23Z</time>
      </trkpt>
      <trkpt lat="45.43135" lon="5.68993">
        <ele>787.8</ele>
        <time>2013-06-23T08:34:25Z</time>
      </trkpt>
      <trkpt lat="45.43128" lon="5.68994">
        <ele>786.5</ele>
        <time>2013-06-23T08:34:28Z</time>
      </trkpt>
      <trkpt lat="45.43121" lon="5.68996">
        <ele>786.8</ele>
        <time>2013-06-23T08:34:31Z</time>
      </trkpt>
      <trkpt lat="45.43114" lon="5.69001">
        <ele>786.2</ele>
        <time>2013-06-23T08:34:34Z</time>
      </trkpt>
      <trkpt lat="45.43108" lon="5.69006">
        <ele>785.8</ele>
        <time>2013-06-23T08:34:37Z</time>
      </trkpt>
      <trkpt lat="45.43103" lon="5.69011">
        <ele>785.9</ele>
        <time>2013-06-23T08:34:39Z</time>
      </trkpt>
      <trkpt lat="45.43097" lon="5.69018">
        <ele>785.6</ele>
        <time>2013-06-23T08:34:42Z</time>
      </trkpt>
      <trkpt lat="45.43096" lon="5.69018">
        <ele>785.2</ele>
        <time>2013-06-23T08:34:43Z</time>
      </trkpt>
      <trkpt lat="45.43084" lon="5.69028">
        <ele>784.2</ele>
        <time>2013-06-23T08:34:50Z</time>
      </trkpt>
      <trkpt lat="45.43079" lon="5.69033">
        <ele>783.8</ele>
        <time>2013-06-23T08:34:52Z</time>
      </trkpt>
      <trkpt lat="45.43071" lon="5.69036">
        <ele>782.5</ele>
        <time>2013-06-23T08:34:55Z</time>
      </trkpt>
      <trkpt lat="45.43063" lon="5.69038">
        <ele>781.8</ele>
        <time>2013-06-23T08:34:57Z</time>
      </trkpt>
      <trkpt lat="45.43056" lon="5.69038">
        <ele>781.1</ele>
        <time>2013-06-23T08:34:59Z</time>
      </trkpt>
      <trkpt lat="45.43047" lon="5.69038">
        <ele>780.5</ele>
        <time>2013-06-23T08:35:01Z</time>
      </trkpt>
      <trkpt lat="45.4304" lon="5.69039">
        <ele>780.1</ele>
        <time>2013-06-23T08:35:03Z</time>
      </trkpt>
      <trkpt lat="45.43032" lon="5.69039">
        <ele>779.6</ele>
        <time>2013-06-23T08:35:06Z</time>
      </trkpt>
      <trkpt lat="45.43023" lon="5.69039">
        <ele>778.9</ele>
        <time>2013-06-23T08:35:09Z</time>
      </trkpt>
      <trkpt lat="45.43016" lon="5.69036">
        <ele>778.2</ele>
        <time>2013-06-23T08:35:11Z</time>
      </trkpt>
      <trkpt lat="45.43009" lon="5.69036">
        <ele>777.9</ele>
        <time>2013-06-23T08:35:13Z</time>
      </trkpt>
      <trkpt lat="45.43002" lon="5.69034">
        <ele>776.4</ele>
        <time>2013-06-23T08:35:15Z</time>
      </trkpt>
      <trkpt lat="45.42994" lon="5.69034">
        <ele>774.3</ele>
        <time>2013-06-23T08:35:18Z</time>
      </trkpt>
      <trkpt lat="45.42986" lon="5.69031">
        <ele>772.5</ele>
        <time>2013-06-23T08:35:22Z</time>
      </trkpt>
      <trkpt lat="45.42981" lon="5.69032">
        <ele>771.6</ele>
        <time>2013-06-23T08:35:24Z</time>
      </trkpt>
      <trkpt lat="45.42973" lon="5.69034">
        <ele>770.4</ele>
        <time>2013-06-23T08:35:26Z</time>
      </trkpt>
      <trkpt lat="45.42965" lon="5.69034">
        <ele>769.1</ele>
        <time>2013-06-23T08:35:28Z</time>
      </trkpt>
      <trkpt lat="45.42959" lon="5.69037">
        <ele>768</ele>
        <time>2013-06-23T08:35:30Z</time>
      </trkpt>
      <trkpt lat="45.42952" lon="5.69042">
        <ele>767.2</ele>
        <time>2013-06-23T08:35:32Z</time>
      </trkpt>
      <trkpt lat="45.42944" lon="5.69046">
        <ele>766.7</ele>
        <time>2013-06-23T08:35:35Z</time>
      </trkpt>
      <trkpt lat="45.42937" lon="5.69055">
        <ele>764.7</ele>
        <time>2013-06-23T08:35:40Z</time>
      </trkpt>
      <trkpt lat="45.4293" lon="5.69059">
        <ele>764.4</ele>
        <time>2013-06-23T08:35:43Z</time>
      </trkpt>
      <trkpt lat="45.42928" lon="5.69061">
        <ele>764.3</ele>
        <time>2013-06-23T08:35:44Z</time>
      </trkpt>
      <trkpt lat="45.42918" lon="5.69067">
        <ele>764.1</ele>
        <time>2013-06-23T08:35:47Z</time>
      </trkpt>
      <trkpt lat="45.42913" lon="5.69069">
        <ele>764</ele>
        <time>2013-06-23T08:35:48Z</time>
      </trkpt>
      <trkpt lat="45.42905" lon="5.69072">
        <ele>762.6</ele>
        <time>2013-06-23T08:35:50Z</time>
      </trkpt>
      <trkpt lat="45.42897" lon="5.69075">
        <ele>761.7</ele>
        <time>2013-06-23T08:35:52Z</time>
      </trkpt>
      <trkpt lat="45.42891" lon="5.69079">
        <ele>761.3</ele>
        <time>2013-06-23T08:35:54Z</time>
      </trkpt>
      <trkpt lat="45.42883" lon="5.69083">
        <ele>759.8</ele>
        <time>2013-06-23T08:35:56Z</time>
      </trkpt>
      <trkpt lat="45.42875" lon="5.69087">
        <ele>758.4</ele>
        <time>2013-06-23T08:35:58Z</time>
      </trkpt>
      <trkpt lat="45.42868" lon="5.69088">
        <ele>757.1</ele>
        <time>2013-06-23T08:36:00Z</time>
      </trkpt>
      <trkpt lat="45.4286" lon="5.69091">
        <ele>757.3</ele>
        <time>2013-06-23T08:36:02Z</time>
      </trkpt>
      <trkpt lat="45.42852" lon="5.69094">
        <ele>757.4</ele>
        <time>2013-06-23T08:36:04Z</time>
      </trkpt>
      <trkpt lat="45.42844" lon="5.69099">
        <ele>757</ele>
        <time>2013-06-23T08:36:06Z</time>
      </trkpt>
      <trkpt lat="45.42839" lon="5.69101">
        <ele>756.9</ele>
        <time>2013-06-23T08:36:07Z</time>
      </trkpt>
      <trkpt lat="45.42834" lon="5.69103">
        <ele>756.1</ele>
        <time>2013-06-23T08:36:08Z</time>
      </trkpt>
      <trkpt lat="45.4283" lon="5.69105">
        <ele>755.5</ele>
        <time>2013-06-23T08:36:09Z</time>
      </trkpt>
      <trkpt lat="45.42825" lon="5.69106">
        <ele>755</ele>
        <time>2013-06-23T08:36:10Z</time>
      </trkpt>
      <trkpt lat="45.4282" lon="5.69108">
        <ele>754.6</ele>
        <time>2013-06-23T08:36:11Z</time>
      </trkpt>
      <trkpt lat="45.42815" lon="5.6911">
        <ele>754.3</ele>
        <time>2013-06-23T08:36:12Z</time>
      </trkpt>
      <trkpt lat="45.4281" lon="5.69112">
        <ele>754</ele>
        <time>2013-06-23T08:36:13Z</time>
      </trkpt>
      <trkpt lat="45.42804" lon="5.69115">
        <ele>753.4</ele>
        <time>2013-06-23T08:36:14Z</time>
      </trkpt>
      <trkpt lat="45.42795" lon="5.69117">
        <ele>752.6</ele>
        <time>2013-06-23T08:36:16Z</time>
      </trkpt>
      <trkpt lat="45.42789" lon="5.6912">
        <ele>752.1</ele>
        <time>2013-06-23T08:36:18Z</time>
      </trkpt>
      <trkpt lat="45.42784" lon="5.69123">
        <ele>751.9</ele>
        <time>2013-06-23T08:36:19Z</time>
      </trkpt>
      <trkpt lat="45.42776" lon="5.69127">
        <ele>751.2</ele>
        <time>2013-06-23T08:36:21Z</time>
      </trkpt>
      <trkpt lat="45.42768" lon="5.6913">
        <ele>750.4</ele>
        <time>2013-06-23T08:36:23Z</time>
      </trkpt>
      <trkpt lat="45.42761" lon="5.69136">
        <ele>749.5</ele>
        <time>2013-06-23T08:36:26Z</time>
      </trkpt>
      <trkpt lat="45.42761" lon="5.69147">
        <ele>749.3</ele>
        <time>2013-06-23T08:36:33Z</time>
      </trkpt>
      <trkpt lat="45.42765" lon="5.69155">
        <ele>753.5</ele>
        <time>2013-06-23T08:36:50Z</time>
      </trkpt>
      <trkpt lat="45.42767" lon="5.69157">
        <ele>753.7</ele>
        <time>2013-06-23T08:36:51Z</time>
      </trkpt>
      <trkpt lat="45.42775" lon="5.6917">
        <ele>753.1</ele>
        <time>2013-06-23T08:36:56Z</time>
      </trkpt>
      <trkpt lat="45.42781" lon="5.69179">
        <ele>754.2</ele>
        <time>2013-06-23T08:37:00Z</time>
      </trkpt>
      <trkpt lat="45.42788" lon="5.69186">
        <ele>755</ele>
        <time>2013-06-23T08:37:04Z</time>
      </trkpt>
      <trkpt lat="45.42794" lon="5.69193">
        <ele>755.9</ele>
        <time>2013-06-23T08:37:08Z</time>
      </trkpt>
      <trkpt lat="45.42799" lon="5.692">
        <ele>758.6</ele>
        <time>2013-06-23T08:37:23Z</time>
      </trkpt>
      <trkpt lat="45.42804" lon="5.69209">
        <ele>759.3</ele>
        <time>2013-06-23T08:37:26Z</time>
      </trkpt>
      <trkpt lat="45.42809" lon="5.69215">
        <ele>760.4</ele>
        <time>2013-06-23T08:37:37Z</time>
      </trkpt>
      <trkpt lat="45.42816" lon="5.69222">
        <ele>760</ele>
        <time>2013-06-23T08:37:39Z</time>
      </trkpt>
      <trkpt lat="45.42822" lon="5.69227">
        <ele>761.6</ele>
        <time>2013-06-23T08:37:41Z</time>
      </trkpt>
      <trkpt lat="45.42828" lon="5.69232">
        <ele>762.5</ele>
        <time>2013-06-23T08:37:43Z</time>
      </trkpt>
      <trkpt lat="45.42835" lon="5.69239">
        <ele>762.1</ele>
        <time>2013-06-23T08:37:46Z</time>
      </trkpt>
      <trkpt lat="45.42843" lon="5.69242">
        <ele>762.4</ele>
        <time>2013-06-23T08:37:50Z</time>
      </trkpt>
      <trkpt lat="45.4285" lon="5.69247">
        <ele>762.9</ele>
        <time>2013-06-23T08:37:53Z</time>
      </trkpt>
      <trkpt lat="45.42852" lon="5.69247">
        <ele>763</ele>
        <time>2013-06-23T08:37:54Z</time>
      </trkpt>
      <trkpt lat="45.42863" lon="5.69251">
        <ele>766.1</ele>
        <time>2013-06-23T08:38:15Z</time>
      </trkpt>
      <trkpt lat="45.4287" lon="5.69253">
        <ele>767.1</ele>
        <time>2013-06-23T08:38:22Z</time>
      </trkpt>
      <trkpt lat="45.42877" lon="5.69257">
        <ele>767.9</ele>
        <time>2013-06-23T08:38:24Z</time>
      </trkpt>
      <trkpt lat="45.42884" lon="5.6926">
        <ele>768.7</ele>
        <time>2013-06-23T08:38:27Z</time>
      </trkpt>
      <trkpt lat="45.42891" lon="5.69263">
        <ele>767.7</ele>
        <time>2013-06-23T08:38:29Z</time>
      </trkpt>
      <trkpt lat="45.42898" lon="5.69269">
        <ele>767.5</ele>
        <time>2013-06-23T08:38:32Z</time>
      </trkpt>
      <trkpt lat="45.42904" lon="5.69277">
        <ele>769.5</ele>
        <time>2013-06-23T08:38:40Z</time>
      </trkpt>
      <trkpt lat="45.4291" lon="5.69284">
        <ele>770.1</ele>
        <time>2013-06-23T08:38:43Z</time>
      </trkpt>
      <trkpt lat="45.42917" lon="5.69285">
        <ele>771.1</ele>
        <time>2013-06-23T08:38:46Z</time>
      </trkpt>
      <trkpt lat="45.42925" lon="5.69288">
        <ele>772.2</ele>
        <time>2013-06-23T08:38:54Z</time>
      </trkpt>
      <trkpt lat="45.42928" lon="5.69289">
        <ele>772.4</ele>
        <time>2013-06-23T08:38:55Z</time>
      </trkpt>
      <trkpt lat="45.42939" lon="5.69294">
        <ele>773</ele>
        <time>2013-06-23T08:38:59Z</time>
      </trkpt>
      <trkpt lat="45.42946" lon="5.69297">
        <ele>772.8</ele>
        <time>2013-06-23T08:39:02Z</time>
      </trkpt>
      <trkpt lat="45.42954" lon="5.69302">
        <ele>774.6</ele>
        <time>2013-06-23T08:39:15Z</time>
      </trkpt>
      <trkpt lat="45.4296" lon="5.69304">
        <ele>775</ele>
        <time>2013-06-23T08:39:17Z</time>
      </trkpt>
      <trkpt lat="45.42968" lon="5.69308">
        <ele>775.8</ele>
        <time>2013-06-23T08:39:20Z</time>
      </trkpt>
      <trkpt lat="45.42974" lon="5.69312">
        <ele>777.9</ele>
        <time>2013-06-23T08:39:33Z</time>
      </trkpt>
      <trkpt lat="45.4298" lon="5.69317">
        <ele>778.4</ele>
        <time>2013-06-23T08:39:35Z</time>
      </trkpt>
      <trkpt lat="45.42986" lon="5.6932">
        <ele>778.9</ele>
        <time>2013-06-23T08:39:41Z</time>
      </trkpt>
      <trkpt lat="45.42993" lon="5.69323">
        <ele>778.7</ele>
        <time>2013-06-23T08:39:43Z</time>
      </trkpt>
      <trkpt lat="45.43" lon="5.69325">
        <ele>779.4</ele>
        <time>2013-06-23T08:39:48Z</time>
      </trkpt>
      <trkpt lat="45.43008" lon="5.69327">
        <ele>779.7</ele>
        <time>2013-06-23T08:39:50Z</time>
      </trkpt>
      <trkpt lat="45.43015" lon="5.69329">
        <ele>779.9</ele>
        <time>2013-06-23T08:39:52Z</time>
      </trkpt>
      <trkpt lat="45.43022" lon="5.69333">
        <ele>780.1</ele>
        <time>2013-06-23T08:39:54Z</time>
      </trkpt>
      <trkpt lat="45.43028" lon="5.69336">
        <ele>780.7</ele>
        <time>2013-06-23T08:39:56Z</time>
      </trkpt>
      <trkpt lat="45.43031" lon="5.69337">
        <ele>781</ele>
        <time>2013-06-23T08:39:57Z</time>
      </trkpt>
      <trkpt lat="45.43041" lon="5.69342">
        <ele>781.3</ele>
        <time>2013-06-23T08:40:01Z</time>
      </trkpt>
      <trkpt lat="45.43047" lon="5.69344">
        <ele>781.8</ele>
        <time>2013-06-23T08:40:09Z</time>
      </trkpt>
      <trkpt lat="45.43053" lon="5.69346">
        <ele>782.7</ele>
        <time>2013-06-23T08:40:11Z</time>
      </trkpt>
      <trkpt lat="45.43061" lon="5.69351">
        <ele>783.7</ele>
        <time>2013-06-23T08:40:29Z</time>
      </trkpt>
      <trkpt lat="45.43067" lon="5.69356">
        <ele>784.2</ele>
        <time>2013-06-23T08:40:31Z</time>
      </trkpt>
      <trkpt lat="45.43074" lon="5.69361">
        <ele>784.3</ele>
        <time>2013-06-23T08:40:33Z</time>
      </trkpt>
      <trkpt lat="45.43079" lon="5.69367">
        <ele>784.2</ele>
        <time>2013-06-23T08:40:35Z</time>
      </trkpt>
      <trkpt lat="45.43083" lon="5.69373">
        <ele>782.9</ele>
        <time>2013-06-23T08:40:37Z</time>
      </trkpt>
      <trkpt lat="45.43085" lon="5.69383">
        <ele>781.9</ele>
        <time>2013-06-23T08:40:39Z</time>
      </trkpt>
      <trkpt lat="45.43089" lon="5.69391">
        <ele>781.2</ele>
        <time>2013-06-23T08:40:41Z</time>
      </trkpt>
      <trkpt lat="45.43091" lon="5.69402">
        <ele>778.5</ele>
        <time>2013-06-23T08:40:45Z</time>
      </trkpt>
      <trkpt lat="45.43094" lon="5.69413">
        <ele>777.5</ele>
        <time>2013-06-23T08:40:50Z</time>
      </trkpt>
      <trkpt lat="45.43095" lon="5.69424">
        <ele>775.6</ele>
        <time>2013-06-23T08:40:53Z</time>
      </trkpt>
      <trkpt lat="45.43091" lon="5.69433">
        <ele>773.8</ele>
        <time>2013-06-23T08:40:57Z</time>
      </trkpt>
      <trkpt lat="45.43091" lon="5.69436">
        <ele>773.3</ele>
        <time>2013-06-23T08:40:58Z</time>
      </trkpt>
      <trkpt lat="45.43081" lon="5.69451">
        <ele>768.4</ele>
        <time>2013-06-23T08:41:11Z</time>
      </trkpt>
      <trkpt lat="45.43073" lon="5.69455">
        <ele>766.8</ele>
        <time>2013-06-23T08:41:14Z</time>
      </trkpt>
      <trkpt lat="45.43069" lon="5.69464">
        <ele>764.4</ele>
        <time>2013-06-23T08:41:17Z</time>
      </trkpt>
      <trkpt lat="45.43065" lon="5.69474">
        <ele>763</ele>
        <time>2013-06-23T08:41:19Z</time>
      </trkpt>
      <trkpt lat="45.43061" lon="5.69482">
        <ele>761.7</ele>
        <time>2013-06-23T08:41:21Z</time>
      </trkpt>
      <trkpt lat="45.43058" lon="5.69489">
        <ele>755.9</ele>
        <time>2013-06-23T08:41:44Z</time>
      </trkpt>
      <trkpt lat="45.43051" lon="5.69497">
        <ele>755.3</ele>
        <time>2013-06-23T08:41:46Z</time>
      </trkpt>
      <trkpt lat="45.43046" lon="5.69505">
        <ele>754.6</ele>
        <time>2013-06-23T08:41:48Z</time>
      </trkpt>
      <trkpt lat="45.43042" lon="5.69514">
        <ele>754.2</ele>
        <time>2013-06-23T08:41:50Z</time>
      </trkpt>
      <trkpt lat="45.43037" lon="5.69519">
        <ele>754</ele>
        <time>2013-06-23T08:41:52Z</time>
      </trkpt>
      <trkpt lat="45.43032" lon="5.69526">
        <ele>752.6</ele>
        <time>2013-06-23T08:41:54Z</time>
      </trkpt>
      <trkpt lat="45.43027" lon="5.69533">
        <ele>751.6</ele>
        <time>2013-06-23T08:41:56Z</time>
      </trkpt>
      <trkpt lat="45.4302" lon="5.69536">
        <ele>751</ele>
        <time>2013-06-23T08:41:58Z</time>
      </trkpt>
      <trkpt lat="45.43016" lon="5.69539">
        <ele>750.2</ele>
        <time>2013-06-23T08:41:59Z</time>
      </trkpt>
      <trkpt lat="45.43006" lon="5.69547">
        <ele>748.9</ele>
        <time>2013-06-23T08:42:02Z</time>
      </trkpt>
      <trkpt lat="45.43003" lon="5.69551">
        <ele>748.7</ele>
        <time>2013-06-23T08:42:03Z</time>
      </trkpt>
      <trkpt lat="45.43" lon="5.69556">
        <ele>748.6</ele>
        <time>2013-06-23T08:42:04Z</time>
      </trkpt>
      <trkpt lat="45.42996" lon="5.6956">
        <ele>747.5</ele>
        <time>2013-06-23T08:42:05Z</time>
      </trkpt>
      <trkpt lat="45.42991" lon="5.69564">
        <ele>746.8</ele>
        <time>2013-06-23T08:42:06Z</time>
      </trkpt>
      <trkpt lat="45.42984" lon="5.69568">
        <ele>745.7</ele>
        <time>2013-06-23T08:42:08Z</time>
      </trkpt>
      <trkpt lat="45.42975" lon="5.69572">
        <ele>744.4</ele>
        <time>2013-06-23T08:42:10Z</time>
      </trkpt>
      <trkpt lat="45.42968" lon="5.69577">
        <ele>743.7</ele>
        <time>2013-06-23T08:42:12Z</time>
      </trkpt>
      <trkpt lat="45.42963" lon="5.69583">
        <ele>740.8</ele>
        <time>2013-06-23T08:42:24Z</time>
      </trkpt>
      <trkpt lat="45.4296" lon="5.69586">
        <ele>739.9</ele>
        <time>2013-06-23T08:42:25Z</time>
      </trkpt>
      <trkpt lat="45.42956" lon="5.6959">
        <ele>739.3</ele>
        <time>2013-06-23T08:42:26Z</time>
      </trkpt>
      <trkpt lat="45.42952" lon="5.69595">
        <ele>738.9</ele>
        <time>2013-06-23T08:42:27Z</time>
      </trkpt>
      <trkpt lat="45.42947" lon="5.696">
        <ele>738.7</ele>
        <time>2013-06-23T08:42:28Z</time>
      </trkpt>
      <trkpt lat="45.42943" lon="5.69603">
        <ele>738.6</ele>
        <time>2013-06-23T08:42:29Z</time>
      </trkpt>
      <trkpt lat="45.42937" lon="5.69611">
        <ele>737.7</ele>
        <time>2013-06-23T08:42:31Z</time>
      </trkpt>
      <trkpt lat="45.4293" lon="5.69618">
        <ele>736.5</ele>
        <time>2013-06-23T08:42:33Z</time>
      </trkpt>
      <trkpt lat="45.42924" lon="5.69626">
        <ele>733.8</ele>
        <time>2013-06-23T08:42:35Z</time>
      </trkpt>
      <trkpt lat="45.42918" lon="5.69632">
        <ele>732.2</ele>
        <time>2013-06-23T08:42:37Z</time>
      </trkpt>
      <trkpt lat="45.42914" lon="5.69642">
        <ele>731</ele>
        <time>2013-06-23T08:42:40Z</time>
      </trkpt>
      <trkpt lat="45.42911" lon="5.69651">
        <ele>730.7</ele>
        <time>2013-06-23T08:42:42Z</time>
      </trkpt>
      <trkpt lat="45.42908" lon="5.69662">
        <ele>729.9</ele>
        <time>2013-06-23T08:42:44Z</time>
      </trkpt>
      <trkpt lat="45.42904" lon="5.69672">
        <ele>729</ele>
        <time>2013-06-23T08:42:46Z</time>
      </trkpt>
      <trkpt lat="45.42902" lon="5.69678">
        <ele>727.9</ele>
        <time>2013-06-23T08:42:47Z</time>
      </trkpt>
      <trkpt lat="45.429" lon="5.69684">
        <ele>727.1</ele>
        <time>2013-06-23T08:42:48Z</time>
      </trkpt>
      <trkpt lat="45.42897" lon="5.69696">
        <ele>725.9</ele>
        <time>2013-06-23T08:42:50Z</time>
      </trkpt>
      <trkpt lat="45.42893" lon="5.69703">
        <ele>725.1</ele>
        <time>2013-06-23T08:42:52Z</time>
      </trkpt>
      <trkpt lat="45.42887" lon="5.6971">
        <ele>723.9</ele>
        <time>2013-06-23T08:42:55Z</time>
      </trkpt>
      <trkpt lat="45.42879" lon="5.69714">
        <ele>723.1</ele>
        <time>2013-06-23T08:42:58Z</time>
      </trkpt>
      <trkpt lat="45.42872" lon="5.69718">
        <ele>722.3</ele>
        <time>2013-06-23T08:43:01Z</time>
      </trkpt>
      <trkpt lat="45.4287" lon="5.69719">
        <ele>722.1</ele>
        <time>2013-06-23T08:43:02Z</time>
      </trkpt>
      <trkpt lat="45.42856" lon="5.69722">
        <ele>726.4</ele>
        <time>2013-06-23T08:43:18Z</time>
      </trkpt>
      <trkpt lat="45.42848" lon="5.69719">
        <ele>726.8</ele>
        <time>2013-06-23T08:43:21Z</time>
      </trkpt>
      <trkpt lat="45.42842" lon="5.69713">
        <ele>725.6</ele>
        <time>2013-06-23T08:43:25Z</time>
      </trkpt>
      <trkpt lat="45.42834" lon="5.69713">
        <ele>724.5</ele>
        <time>2013-06-23T08:43:33Z</time>
      </trkpt>
      <trkpt lat="45.42828" lon="5.69714">
        <ele>723.6</ele>
        <time>2013-06-23T08:43:38Z</time>
      </trkpt>
      <trkpt lat="45.42821" lon="5.69721">
        <ele>721.8</ele>
        <time>2013-06-23T08:43:41Z</time>
      </trkpt>
      <trkpt lat="45.42815" lon="5.69726">
        <ele>720</ele>
        <time>2013-06-23T08:43:43Z</time>
      </trkpt>
      <trkpt lat="45.42809" lon="5.69731">
        <ele>717.8</ele>
        <time>2013-06-23T08:43:45Z</time>
      </trkpt>
      <trkpt lat="45.42801" lon="5.69737">
        <ele>716.1</ele>
        <time>2013-06-23T08:43:48Z</time>
      </trkpt>
      <trkpt lat="45.42797" lon="5.69746">
        <ele>716.2</ele>
        <time>2013-06-23T08:43:58Z</time>
      </trkpt>
      <trkpt lat="45.42794" lon="5.69755">
        <ele>715.6</ele>
        <time>2013-06-23T08:44:00Z</time>
      </trkpt>
      <trkpt lat="45.42791" lon="5.69764">
        <ele>715.6</ele>
        <time>2013-06-23T08:44:04Z</time>
      </trkpt>
      <trkpt lat="45.42789" lon="5.69769">
        <ele>715.8</ele>
        <time>2013-06-23T08:44:05Z</time>
      </trkpt>
      <trkpt lat="45.42785" lon="5.69783">
        <ele>715.9</ele>
        <time>2013-06-23T08:44:09Z</time>
      </trkpt>
      <trkpt lat="45.42784" lon="5.69792">
        <ele>714.7</ele>
        <time>2013-06-23T08:44:11Z</time>
      </trkpt>
      <trkpt lat="45.42782" lon="5.69801">
        <ele>713.4</ele>
        <time>2013-06-23T08:44:14Z</time>
      </trkpt>
      <trkpt lat="45.4278" lon="5.69813">
        <ele>713.9</ele>
        <time>2013-06-23T08:44:18Z</time>
      </trkpt>
      <trkpt lat="45.42779" lon="5.69822">
        <ele>711.4</ele>
        <time>2013-06-23T08:44:23Z</time>
      </trkpt>
      <trkpt lat="45.42779" lon="5.69832">
        <ele>710.5</ele>
        <time>2013-06-23T08:44:26Z</time>
      </trkpt>
      <trkpt lat="45.42777" lon="5.69841">
        <ele>709.2</ele>
        <time>2013-06-23T08:44:29Z</time>
      </trkpt>
      <trkpt lat="45.42775" lon="5.69851">
        <ele>706.8</ele>
        <time>2013-06-23T08:44:32Z</time>
      </trkpt>
      <trkpt lat="45.42775" lon="5.69859">
        <ele>705.7</ele>
        <time>2013-06-23T08:44:34Z</time>
      </trkpt>
      <trkpt lat="45.42772" lon="5.69871">
        <ele>703.2</ele>
        <time>2013-06-23T08:44:37Z</time>
      </trkpt>
      <trkpt lat="45.42768" lon="5.69881">
        <ele>701.1</ele>
        <time>2013-06-23T08:44:40Z</time>
      </trkpt>
      <trkpt lat="45.4276" lon="5.69881">
        <ele>699.2</ele>
        <time>2013-06-23T08:44:44Z</time>
      </trkpt>
      <trkpt lat="45.42752" lon="5.69876">
        <ele>698.6</ele>
        <time>2013-06-23T08:44:48Z</time>
      </trkpt>
      <trkpt lat="45.42744" lon="5.69874">
        <ele>698.5</ele>
        <time>2013-06-23T08:44:51Z</time>
      </trkpt>
      <trkpt lat="45.42736" lon="5.69871">
        <ele>698.1</ele>
        <time>2013-06-23T08:44:54Z</time>
      </trkpt>
      <trkpt lat="45.4273" lon="5.69866">
        <ele>699.5</ele>
        <time>2013-06-23T08:44:57Z</time>
      </trkpt>
      <trkpt lat="45.42723" lon="5.69858">
        <ele>699.6</ele>
        <time>2013-06-23T08:45:00Z</time>
      </trkpt>
      <trkpt lat="45.42719" lon="5.69852">
        <ele>699.6</ele>
        <time>2013-06-23T08:45:02Z</time>
      </trkpt>
      <trkpt lat="45.42715" lon="5.69844">
        <ele>699.7</ele>
        <time>2013-06-23T08:45:04Z</time>
      </trkpt>
      <trkpt lat="45.42711" lon="5.69834">
        <ele>699.9</ele>
        <time>2013-06-23T08:45:06Z</time>
      </trkpt>
      <trkpt lat="45.42708" lon="5.69828">
        <ele>699.9</ele>
        <time>2013-06-23T08:45:07Z</time>
      </trkpt>
      <trkpt lat="45.42706" lon="5.69822">
        <ele>700</ele>
        <time>2013-06-23T08:45:08Z</time>
      </trkpt>
      <trkpt lat="45.42704" lon="5.69816">
        <ele>700</ele>
        <time>2013-06-23T08:45:09Z</time>
      </trkpt>
      <trkpt lat="45.42702" lon="5.69809">
        <ele>700</ele>
        <time>2013-06-23T08:45:10Z</time>
      </trkpt>
      <trkpt lat="45.427" lon="5.69803">
        <ele>700.3</ele>
        <time>2013-06-23T08:45:11Z</time>
      </trkpt>
      <trkpt lat="45.42698" lon="5.69797">
        <ele>700.5</ele>
        <time>2013-06-23T08:45:12Z</time>
      </trkpt>
      <trkpt lat="45.42694" lon="5.69786">
        <ele>700.7</ele>
        <time>2013-06-23T08:45:14Z</time>
      </trkpt>
      <trkpt lat="45.4269" lon="5.69775">
        <ele>700.8</ele>
        <time>2013-06-23T08:45:16Z</time>
      </trkpt>
      <trkpt lat="45.42687" lon="5.69765">
        <ele>700.9</ele>
        <time>2013-06-23T08:45:18Z</time>
      </trkpt>
      <trkpt lat="45.42684" lon="5.69756">
        <ele>701.4</ele>
        <time>2013-06-23T08:45:20Z</time>
      </trkpt>
      <trkpt lat="45.42681" lon="5.69747">
        <ele>702.1</ele>
        <time>2013-06-23T08:45:22Z</time>
      </trkpt>
      <trkpt lat="45.42677" lon="5.69737">
        <ele>702</ele>
        <time>2013-06-23T08:45:24Z</time>
      </trkpt>
      <trkpt lat="45.42674" lon="5.69728">
        <ele>702</ele>
        <time>2013-06-23T08:45:26Z</time>
      </trkpt>
      <trkpt lat="45.42669" lon="5.69719">
        <ele>703.4</ele>
        <time>2013-06-23T08:45:28Z</time>
      </trkpt>
      <trkpt lat="45.42665" lon="5.6971">
        <ele>704</ele>
        <time>2013-06-23T08:45:30Z</time>
      </trkpt>
      <trkpt lat="45.42661" lon="5.69702">
        <ele>704</ele>
        <time>2013-06-23T08:45:32Z</time>
      </trkpt>
      <trkpt lat="45.42658" lon="5.69692">
        <ele>703.8</ele>
        <time>2013-06-23T08:45:34Z</time>
      </trkpt>
      <trkpt lat="45.42654" lon="5.69683">
        <ele>703.8</ele>
        <time>2013-06-23T08:45:36Z</time>
      </trkpt>
      <trkpt lat="45.4265" lon="5.69673">
        <ele>703.9</ele>
        <time>2013-06-23T08:45:38Z</time>
      </trkpt>
      <trkpt lat="45.42646" lon="5.69663">
        <ele>703.8</ele>
        <time>2013-06-23T08:45:40Z</time>
      </trkpt>
      <trkpt lat="45.42643" lon="5.69653">
        <ele>703.4</ele>
        <time>2013-06-23T08:45:42Z</time>
      </trkpt>
      <trkpt lat="45.42639" lon="5.69645">
        <ele>702.9</ele>
        <time>2013-06-23T08:45:44Z</time>
      </trkpt>
      <trkpt lat="45.42634" lon="5.69634">
        <ele>704.1</ele>
        <time>2013-06-23T08:45:47Z</time>
      </trkpt>
      <trkpt lat="45.4263" lon="5.69624">
        <ele>705</ele>
        <time>2013-06-23T08:45:50Z</time>
      </trkpt>
      <trkpt lat="45.42626" lon="5.69616">
        <ele>706.1</ele>
        <time>2013-06-23T08:45:53Z</time>
      </trkpt>
      <trkpt lat="45.42622" lon="5.69607">
        <ele>707.6</ele>
        <time>2013-06-23T08:45:56Z</time>
      </trkpt>
      <trkpt lat="45.42619" lon="5.69597">
        <ele>708</ele>
        <time>2013-06-23T08:45:59Z</time>
      </trkpt>
      <trkpt lat="45.42614" lon="5.69588">
        <ele>708.1</ele>
        <time>2013-06-23T08:46:02Z</time>
      </trkpt>
      <trkpt lat="45.42612" lon="5.69578">
        <ele>708.5</ele>
        <time>2013-06-23T08:46:05Z</time>
      </trkpt>
      <trkpt lat="45.42609" lon="5.69568">
        <ele>709</ele>
        <time>2013-06-23T08:46:08Z</time>
      </trkpt>
      <trkpt lat="45.42608" lon="5.69564">
        <ele>709.1</ele>
        <time>2013-06-23T08:46:09Z</time>
      </trkpt>
      <trkpt lat="45.42603" lon="5.69547">
        <ele>710</ele>
        <time>2013-06-23T08:46:14Z</time>
      </trkpt>
      <trkpt lat="45.42598" lon="5.69537">
        <ele>710.5</ele>
        <time>2013-06-23T08:46:17Z</time>
      </trkpt>
      <trkpt lat="45.42594" lon="5.69529">
        <ele>711</ele>
        <time>2013-06-23T08:46:20Z</time>
      </trkpt>
      <trkpt lat="45.4259" lon="5.69518">
        <ele>711.7</ele>
        <time>2013-06-23T08:46:24Z</time>
      </trkpt>
      <trkpt lat="45.42586" lon="5.69507">
        <ele>713.3</ele>
        <time>2013-06-23T08:46:28Z</time>
      </trkpt>
      <trkpt lat="45.42582" lon="5.69497">
        <ele>714</ele>
        <time>2013-06-23T08:46:32Z</time>
      </trkpt>
      <trkpt lat="45.42579" lon="5.69487">
        <ele>714.4</ele>
        <time>2013-06-23T08:46:36Z</time>
      </trkpt>
      <trkpt lat="45.42576" lon="5.69477">
        <ele>714.7</ele>
        <time>2013-06-23T08:46:40Z</time>
      </trkpt>
      <trkpt lat="45.42573" lon="5.69466">
        <ele>716</ele>
        <time>2013-06-23T08:46:45Z</time>
      </trkpt>
      <trkpt lat="45.4257" lon="5.69456">
        <ele>717</ele>
        <time>2013-06-23T08:46:50Z</time>
      </trkpt>
      <trkpt lat="45.4257" lon="5.69445">
        <ele>718.2</ele>
        <time>2013-06-23T08:46:55Z</time>
      </trkpt>
      <trkpt lat="45.42573" lon="5.69433">
        <ele>719.8</ele>
        <time>2013-06-23T08:47:01Z</time>
      </trkpt>
      <trkpt lat="45.42577" lon="5.69422">
        <ele>720.4</ele>
        <time>2013-06-23T08:47:07Z</time>
      </trkpt>
      <trkpt lat="45.4258" lon="5.69416">
        <ele>726.4</ele>
        <time>2013-06-23T08:47:35Z</time>
      </trkpt>
      <trkpt lat="45.42581" lon="5.6941">
        <ele>726.5</ele>
        <time>2013-06-23T08:47:36Z</time>
      </trkpt>
      <trkpt lat="45.42585" lon="5.69395">
        <ele>727.1</ele>
        <time>2013-06-23T08:47:45Z</time>
      </trkpt>
      <trkpt lat="45.42587" lon="5.69384">
        <ele>727.6</ele>
        <time>2013-06-23T08:47:47Z</time>
      </trkpt>
      <trkpt lat="45.4259" lon="5.69373">
        <ele>728.6</ele>
        <time>2013-06-23T08:47:49Z</time>
      </trkpt>
      <trkpt lat="45.42592" lon="5.69363">
        <ele>729</ele>
        <time>2013-06-23T08:47:51Z</time>
      </trkpt>
      <trkpt lat="45.42594" lon="5.69354">
        <ele>729.2</ele>
        <time>2013-06-23T08:47:53Z</time>
      </trkpt>
      <trkpt lat="45.42595" lon="5.69346">
        <ele>729.4</ele>
        <time>2013-06-23T08:47:55Z</time>
      </trkpt>
      <trkpt lat="45.42598" lon="5.69334">
        <ele>729.1</ele>
        <time>2013-06-23T08:47:58Z</time>
      </trkpt>
      <trkpt lat="45.42601" lon="5.69324">
        <ele>730.2</ele>
        <time>2013-06-23T08:48:01Z</time>
      </trkpt>
      <trkpt lat="45.42603" lon="5.69313">
        <ele>730.7</ele>
        <time>2013-06-23T08:48:04Z</time>
      </trkpt>
      <trkpt lat="45.42604" lon="5.69304">
        <ele>731.1</ele>
        <time>2013-06-23T08:48:06Z</time>
      </trkpt>
      <trkpt lat="45.42603" lon="5.69294">
        <ele>731.6</ele>
        <time>2013-06-23T08:48:08Z</time>
      </trkpt>
      <trkpt lat="45.42598" lon="5.69287">
        <ele>731</ele>
        <time>2013-06-23T08:48:10Z</time>
      </trkpt>
      <trkpt lat="45.42591" lon="5.69281">
        <ele>730.5</ele>
        <time>2013-06-23T08:48:12Z</time>
      </trkpt>
      <trkpt lat="45.42587" lon="5.69278">
        <ele>730.3</ele>
        <time>2013-06-23T08:48:13Z</time>
      </trkpt>
      <trkpt lat="45.42582" lon="5.69275">
        <ele>730.1</ele>
        <time>2013-06-23T08:48:14Z</time>
      </trkpt>
      <trkpt lat="45.42577" lon="5.69273">
        <ele>730</ele>
        <time>2013-06-23T08:48:15Z</time>
      </trkpt>
      <trkpt lat="45.42572" lon="5.69271">
        <ele>729.6</ele>
        <time>2013-06-23T08:48:16Z</time>
      </trkpt>
      <trkpt lat="45.42566" lon="5.69269">
        <ele>729.3</ele>
        <time>2013-06-23T08:48:17Z</time>
      </trkpt>
      <trkpt lat="45.42561" lon="5.69267">
        <ele>729</ele>
        <time>2013-06-23T08:48:18Z</time>
      </trkpt>
      <trkpt lat="45.42555" lon="5.69263">
        <ele>728.7</ele>
        <time>2013-06-23T08:48:19Z</time>
      </trkpt>
      <trkpt lat="45.4255" lon="5.69258">
        <ele>728.4</ele>
        <time>2013-06-23T08:48:20Z</time>
      </trkpt>
      <trkpt lat="45.42544" lon="5.69253">
        <ele>728.3</ele>
        <time>2013-06-23T08:48:21Z</time>
      </trkpt>
      <trkpt lat="45.42538" lon="5.69248">
        <ele>727.6</ele>
        <time>2013-06-23T08:48:22Z</time>
      </trkpt>
      <trkpt lat="45.42532" lon="5.69245">
        <ele>727</ele>
        <time>2013-06-23T08:48:23Z</time>
      </trkpt>
      <trkpt lat="45.42526" lon="5.69242">
        <ele>726.6</ele>
        <time>2013-06-23T08:48:24Z</time>
      </trkpt>
      <trkpt lat="45.4252" lon="5.69238">
        <ele>726</ele>
        <time>2013-06-23T08:48:25Z</time>
      </trkpt>
      <trkpt lat="45.42514" lon="5.69235">
        <ele>725.4</ele>
        <time>2013-06-23T08:48:26Z</time>
      </trkpt>
      <trkpt lat="45.42509" lon="5.69232">
        <ele>725.1</ele>
        <time>2013-06-23T08:48:27Z</time>
      </trkpt>
      <trkpt lat="45.42503" lon="5.69227">
        <ele>724.6</ele>
        <time>2013-06-23T08:48:28Z</time>
      </trkpt>
      <trkpt lat="45.42498" lon="5.69224">
        <ele>724.3</ele>
        <time>2013-06-23T08:48:29Z</time>
      </trkpt>
      <trkpt lat="45.42493" lon="5.6922">
        <ele>724</ele>
        <time>2013-06-23T08:48:30Z</time>
      </trkpt>
      <trkpt lat="45.42489" lon="5.69218">
        <ele>723.8</ele>
        <time>2013-06-23T08:48:31Z</time>
      </trkpt>
      <trkpt lat="45.42484" lon="5.69214">
        <ele>723.6</ele>
        <time>2013-06-23T08:48:32Z</time>
      </trkpt>
      <trkpt lat="45.4248" lon="5.6921">
        <ele>723.4</ele>
        <time>2013-06-23T08:48:33Z</time>
      </trkpt>
      <trkpt lat="45.42477" lon="5.69206">
        <ele>723.3</ele>
        <time>2013-06-23T08:48:34Z</time>
      </trkpt>
      <trkpt lat="45.42473" lon="5.69202">
        <ele>723</ele>
        <time>2013-06-23T08:48:35Z</time>
      </trkpt>
      <trkpt lat="45.42466" lon="5.69195">
        <ele>722.7</ele>
        <time>2013-06-23T08:48:37Z</time>
      </trkpt>
      <trkpt lat="45.42464" lon="5.69193">
        <ele>723</ele>
        <time>2013-06-23T08:48:38Z</time>
      </trkpt>
      <trkpt lat="45.42456" lon="5.69177">
        <ele>723.1</ele>
        <time>2013-06-23T08:48:44Z</time>
      </trkpt>
      <trkpt lat="45.42452" lon="5.69167">
        <ele>723.5</ele>
        <time>2013-06-23T08:48:46Z</time>
      </trkpt>
      <trkpt lat="45.42448" lon="5.69162">
        <ele>723.6</ele>
        <time>2013-06-23T08:48:47Z</time>
      </trkpt>
      <trkpt lat="45.42444" lon="5.69158">
        <ele>723.1</ele>
        <time>2013-06-23T08:48:48Z</time>
      </trkpt>
      <trkpt lat="45.42436" lon="5.69152">
        <ele>722.5</ele>
        <time>2013-06-23T08:48:50Z</time>
      </trkpt>
      <trkpt lat="45.42428" lon="5.69151">
        <ele>720.4</ele>
        <time>2013-06-23T08:48:52Z</time>
      </trkpt>
      <trkpt lat="45.42419" lon="5.69153">
        <ele>719</ele>
        <time>2013-06-23T08:48:54Z</time>
      </trkpt>
      <trkpt lat="45.42414" lon="5.69155">
        <ele>718.4</ele>
        <time>2013-06-23T08:48:55Z</time>
      </trkpt>
      <trkpt lat="45.42409" lon="5.69155">
        <ele>718</ele>
        <time>2013-06-23T08:48:56Z</time>
      </trkpt>
      <trkpt lat="45.42404" lon="5.69155">
        <ele>716.8</ele>
        <time>2013-06-23T08:48:57Z</time>
      </trkpt>
      <trkpt lat="45.42398" lon="5.69153">
        <ele>715.8</ele>
        <time>2013-06-23T08:48:58Z</time>
      </trkpt>
      <trkpt lat="45.42393" lon="5.69149">
        <ele>715.2</ele>
        <time>2013-06-23T08:48:59Z</time>
      </trkpt>
      <trkpt lat="45.42389" lon="5.69144">
        <ele>715.2</ele>
        <time>2013-06-23T08:49:00Z</time>
      </trkpt>
      <trkpt lat="45.42385" lon="5.69139">
        <ele>715.2</ele>
        <time>2013-06-23T08:49:01Z</time>
      </trkpt>
      <trkpt lat="45.42381" lon="5.69133">
        <ele>715.3</ele>
        <time>2013-06-23T08:49:02Z</time>
      </trkpt>
      <trkpt lat="45.42375" lon="5.69129">
        <ele>715.3</ele>
        <time>2013-06-23T08:49:03Z</time>
      </trkpt>
      <trkpt lat="45.4237" lon="5.69125">
        <ele>714</ele>
        <time>2013-06-23T08:49:04Z</time>
      </trkpt>
      <trkpt lat="45.42365" lon="5.69121">
        <ele>713.1</ele>
        <time>2013-06-23T08:49:05Z</time>
      </trkpt>
      <trkpt lat="45.42359" lon="5.69112">
        <ele>712.4</ele>
        <time>2013-06-23T08:49:07Z</time>
      </trkpt>
      <trkpt lat="45.42358" lon="5.69102">
        <ele>711.2</ele>
        <time>2013-06-23T08:49:11Z</time>
      </trkpt>
      <trkpt lat="45.42355" lon="5.6909">
        <ele>711.9</ele>
        <time>2013-06-23T08:49:16Z</time>
      </trkpt>
      <trkpt lat="45.42357" lon="5.69079">
        <ele>713.9</ele>
        <time>2013-06-23T08:49:21Z</time>
      </trkpt>
      <trkpt lat="45.42359" lon="5.69069">
        <ele>713.3</ele>
        <time>2013-06-23T08:49:24Z</time>
      </trkpt>
      <trkpt lat="45.4236" lon="5.69057">
        <ele>712.8</ele>
        <time>2013-06-23T08:49:27Z</time>
      </trkpt>
      <trkpt lat="45.42357" lon="5.69046">
        <ele>712.9</ele>
        <time>2013-06-23T08:49:31Z</time>
      </trkpt>
      <trkpt lat="45.42355" lon="5.69035">
        <ele>712.2</ele>
        <time>2013-06-23T08:49:34Z</time>
      </trkpt>
      <trkpt lat="45.4235" lon="5.69028">
        <ele>712.5</ele>
        <time>2013-06-23T08:49:37Z</time>
      </trkpt>
      <trkpt lat="45.42344" lon="5.69022">
        <ele>712.1</ele>
        <time>2013-06-23T08:49:39Z</time>
      </trkpt>
      <trkpt lat="45.42341" lon="5.69018">
        <ele>711.7</ele>
        <time>2013-06-23T08:49:40Z</time>
      </trkpt>
      <trkpt lat="45.42332" lon="5.69008">
        <ele>711.5</ele>
        <time>2013-06-23T08:49:43Z</time>
      </trkpt>
      <trkpt lat="45.42325" lon="5.69001">
        <ele>711.1</ele>
        <time>2013-06-23T08:49:45Z</time>
      </trkpt>
      <trkpt lat="45.4232" lon="5.68995">
        <ele>710.5</ele>
        <time>2013-06-23T08:49:47Z</time>
      </trkpt>
      <trkpt lat="45.42315" lon="5.68987">
        <ele>709.3</ele>
        <time>2013-06-23T08:49:49Z</time>
      </trkpt>
      <trkpt lat="45.4231" lon="5.6898">
        <ele>708.8</ele>
        <time>2013-06-23T08:49:51Z</time>
      </trkpt>
      <trkpt lat="45.42305" lon="5.68971">
        <ele>708.7</ele>
        <time>2013-06-23T08:49:53Z</time>
      </trkpt>
      <trkpt lat="45.42302" lon="5.68963">
        <ele>707.6</ele>
        <time>2013-06-23T08:49:55Z</time>
      </trkpt>
      <trkpt lat="45.42299" lon="5.68954">
        <ele>706.1</ele>
        <time>2013-06-23T08:49:57Z</time>
      </trkpt>
      <trkpt lat="45.42293" lon="5.68946">
        <ele>704.6</ele>
        <time>2013-06-23T08:49:59Z</time>
      </trkpt>
      <trkpt lat="45.42288" lon="5.68944">
        <ele>704.1</ele>
        <time>2013-06-23T08:50:00Z</time>
      </trkpt>
      <trkpt lat="45.42283" lon="5.6894">
        <ele>703.1</ele>
        <time>2013-06-23T08:50:01Z</time>
      </trkpt>
      <trkpt lat="45.42278" lon="5.68936">
        <ele>702.3</ele>
        <time>2013-06-23T08:50:02Z</time>
      </trkpt>
      <trkpt lat="45.42274" lon="5.68932">
        <ele>701.7</ele>
        <time>2013-06-23T08:50:03Z</time>
      </trkpt>
      <trkpt lat="45.42269" lon="5.68927">
        <ele>701.1</ele>
        <time>2013-06-23T08:50:04Z</time>
      </trkpt>
      <trkpt lat="45.42264" lon="5.68922">
        <ele>700.6</ele>
        <time>2013-06-23T08:50:05Z</time>
      </trkpt>
      <trkpt lat="45.42259" lon="5.68917">
        <ele>700.2</ele>
        <time>2013-06-23T08:50:06Z</time>
      </trkpt>
      <trkpt lat="45.42253" lon="5.68912">
        <ele>699.7</ele>
        <time>2013-06-23T08:50:07Z</time>
      </trkpt>
      <trkpt lat="45.42246" lon="5.68908">
        <ele>699.4</ele>
        <time>2013-06-23T08:50:08Z</time>
      </trkpt>
      <trkpt lat="45.4224" lon="5.68905">
        <ele>699.1</ele>
        <time>2013-06-23T08:50:09Z</time>
      </trkpt>
      <trkpt lat="45.42233" lon="5.68898">
        <ele>699</ele>
        <time>2013-06-23T08:50:11Z</time>
      </trkpt>
      <trkpt lat="45.42232" lon="5.68886">
        <ele>699.1</ele>
        <time>2013-06-23T08:50:15Z</time>
      </trkpt>
      <trkpt lat="45.42233" lon="5.68874">
        <ele>698.5</ele>
        <time>2013-06-23T08:50:19Z</time>
      </trkpt>
      <trkpt lat="45.42233" lon="5.68865">
        <ele>705.4</ele>
        <time>2013-06-23T08:50:46Z</time>
      </trkpt>
      <trkpt lat="45.42234" lon="5.68861">
        <ele>705.3</ele>
        <time>2013-06-23T08:50:47Z</time>
      </trkpt>
      <trkpt lat="45.42237" lon="5.6884">
        <ele>707.2</ele>
        <time>2013-06-23T08:50:58Z</time>
      </trkpt>
      <trkpt lat="45.42238" lon="5.68828">
        <ele>708.6</ele>
        <time>2013-06-23T08:51:09Z</time>
      </trkpt>
      <trkpt lat="45.42239" lon="5.68817">
        <ele>711.5</ele>
        <time>2013-06-23T08:51:19Z</time>
      </trkpt>
      <trkpt lat="45.42242" lon="5.68805">
        <ele>713.8</ele>
        <time>2013-06-23T08:51:33Z</time>
      </trkpt>
      <trkpt lat="45.42245" lon="5.68797">
        <ele>713.7</ele>
        <time>2013-06-23T08:51:35Z</time>
      </trkpt>
      <trkpt lat="45.42249" lon="5.6879">
        <ele>713.9</ele>
        <time>2013-06-23T08:51:39Z</time>
      </trkpt>
      <trkpt lat="45.42253" lon="5.68782">
        <ele>714.1</ele>
        <time>2013-06-23T08:51:41Z</time>
      </trkpt>
      <trkpt lat="45.42257" lon="5.68776">
        <ele>715.8</ele>
        <time>2013-06-23T08:51:56Z</time>
      </trkpt>
      <trkpt lat="45.42259" lon="5.68771">
        <ele>715.7</ele>
        <time>2013-06-23T08:51:57Z</time>
      </trkpt>
      <trkpt lat="45.42267" lon="5.68758">
        <ele>718.1</ele>
        <time>2013-06-23T08:52:07Z</time>
      </trkpt>
      <trkpt lat="45.42272" lon="5.68751">
        <ele>718.7</ele>
        <time>2013-06-23T08:52:09Z</time>
      </trkpt>
      <trkpt lat="45.42277" lon="5.68746">
        <ele>719.3</ele>
        <time>2013-06-23T08:52:19Z</time>
      </trkpt>
      <trkpt lat="45.42283" lon="5.68742">
        <ele>719.2</ele>
        <time>2013-06-23T08:52:21Z</time>
      </trkpt>
      <trkpt lat="45.42288" lon="5.68736">
        <ele>721.1</ele>
        <time>2013-06-23T08:52:29Z</time>
      </trkpt>
      <trkpt lat="45.42295" lon="5.68729">
        <ele>722.3</ele>
        <time>2013-06-23T08:52:38Z</time>
      </trkpt>
      <trkpt lat="45.42302" lon="5.68723">
        <ele>721.9</ele>
        <time>2013-06-23T08:52:40Z</time>
      </trkpt>
      <trkpt lat="45.42308" lon="5.68718">
        <ele>724.2</ele>
        <time>2013-06-23T08:52:48Z</time>
      </trkpt>
      <trkpt lat="45.42314" lon="5.68713">
        <ele>724.5</ele>
        <time>2013-06-23T08:52:50Z</time>
      </trkpt>
      <trkpt lat="45.4232" lon="5.68707">
        <ele>726.4</ele>
        <time>2013-06-23T08:52:58Z</time>
      </trkpt>
      <trkpt lat="45.42323" lon="5.68704">
        <ele>726.8</ele>
        <time>2013-06-23T08:52:59Z</time>
      </trkpt>
      <trkpt lat="45.42331" lon="5.68697">
        <ele>728.9</ele>
        <time>2013-06-23T08:53:08Z</time>
      </trkpt>
      <trkpt lat="45.42337" lon="5.68691">
        <ele>729.1</ele>
        <time>2013-06-23T08:53:10Z</time>
      </trkpt>
      <trkpt lat="45.42343" lon="5.68686">
        <ele>730.3</ele>
        <time>2013-06-23T08:53:18Z</time>
      </trkpt>
      <trkpt lat="45.4235" lon="5.68683">
        <ele>729.8</ele>
        <time>2013-06-23T08:53:20Z</time>
      </trkpt>
      <trkpt lat="45.42356" lon="5.68681">
        <ele>730.6</ele>
        <time>2013-06-23T08:53:22Z</time>
      </trkpt>
      <trkpt lat="45.42362" lon="5.68679">
        <ele>731.8</ele>
        <time>2013-06-23T08:53:24Z</time>
      </trkpt>
      <trkpt lat="45.4237" lon="5.68677">
        <ele>732.5</ele>
        <time>2013-06-23T08:53:27Z</time>
      </trkpt>
      <trkpt lat="45.42378" lon="5.68676">
        <ele>733.1</ele>
        <time>2013-06-23T08:53:30Z</time>
      </trkpt>
      <trkpt lat="45.42387" lon="5.68675">
        <ele>733.5</ele>
        <time>2013-06-23T08:53:34Z</time>
      </trkpt>
      <trkpt lat="45.42395" lon="5.68675">
        <ele>733.7</ele>
        <time>2013-06-23T08:53:43Z</time>
      </trkpt>
      <trkpt lat="45.42402" lon="5.68677">
        <ele>734.7</ele>
        <time>2013-06-23T08:53:46Z</time>
      </trkpt>
      <trkpt lat="45.42411" lon="5.68678">
        <ele>737.4</ele>
        <time>2013-06-23T08:54:03Z</time>
      </trkpt>
      <trkpt lat="45.42415" lon="5.68681">
        <ele>737.2</ele>
        <time>2013-06-23T08:54:04Z</time>
      </trkpt>
      <trkpt lat="45.42426" lon="5.68689">
        <ele>737</ele>
        <time>2013-06-23T08:54:07Z</time>
      </trkpt>
      <trkpt lat="45.42433" lon="5.68694">
        <ele>737</ele>
        <time>2013-06-23T08:54:09Z</time>
      </trkpt>
      <trkpt lat="45.42439" lon="5.68699">
        <ele>737.6</ele>
        <time>2013-06-23T08:54:11Z</time>
      </trkpt>
      <trkpt lat="45.42444" lon="5.68705">
        <ele>738.1</ele>
        <time>2013-06-23T08:54:13Z</time>
      </trkpt>
      <trkpt lat="45.4245" lon="5.68712">
        <ele>738.7</ele>
        <time>2013-06-23T08:54:16Z</time>
      </trkpt>
      <trkpt lat="45.42457" lon="5.6872">
        <ele>739</ele>
        <time>2013-06-23T08:54:19Z</time>
      </trkpt>
      <trkpt lat="45.42461" lon="5.68726">
        <ele>739.2</ele>
        <time>2013-06-23T08:54:21Z</time>
      </trkpt>
      <trkpt lat="45.42467" lon="5.68734">
        <ele>739.2</ele>
        <time>2013-06-23T08:54:24Z</time>
      </trkpt>
      <trkpt lat="45.42472" lon="5.68743">
        <ele>739.5</ele>
        <time>2013-06-23T08:54:27Z</time>
      </trkpt>
      <trkpt lat="45.42478" lon="5.68753">
        <ele>739.8</ele>
        <time>2013-06-23T08:54:30Z</time>
      </trkpt>
      <trkpt lat="45.42482" lon="5.68761">
        <ele>740.6</ele>
        <time>2013-06-23T08:54:33Z</time>
      </trkpt>
      <trkpt lat="45.42488" lon="5.68769">
        <ele>741</ele>
        <time>2013-06-23T08:54:36Z</time>
      </trkpt>
      <trkpt lat="45.42494" lon="5.68777">
        <ele>740.8</ele>
        <time>2013-06-23T08:54:39Z</time>
      </trkpt>
      <trkpt lat="45.42499" lon="5.68786">
        <ele>740.9</ele>
        <time>2013-06-23T08:54:42Z</time>
      </trkpt>
      <trkpt lat="45.42503" lon="5.68794">
        <ele>741.6</ele>
        <time>2013-06-23T08:54:45Z</time>
      </trkpt>
      <trkpt lat="45.42508" lon="5.68802">
        <ele>742</ele>
        <time>2013-06-23T08:54:48Z</time>
      </trkpt>
      <trkpt lat="45.42513" lon="5.68811">
        <ele>742.6</ele>
        <time>2013-06-23T08:54:51Z</time>
      </trkpt>
      <trkpt lat="45.4252" lon="5.68819">
        <ele>743.8</ele>
        <time>2013-06-23T08:54:54Z</time>
      </trkpt>
      <trkpt lat="45.42526" lon="5.68827">
        <ele>742.7</ele>
        <time>2013-06-23T08:54:57Z</time>
      </trkpt>
      <trkpt lat="45.42531" lon="5.68836">
        <ele>743.2</ele>
        <time>2013-06-23T08:55:00Z</time>
      </trkpt>
      <trkpt lat="45.42537" lon="5.68842">
        <ele>743.5</ele>
        <time>2013-06-23T08:55:02Z</time>
      </trkpt>
      <trkpt lat="45.42542" lon="5.6885">
        <ele>743.7</ele>
        <time>2013-06-23T08:55:04Z</time>
      </trkpt>
      <trkpt lat="45.42545" lon="5.68855">
        <ele>743.8</ele>
        <time>2013-06-23T08:55:05Z</time>
      </trkpt>
      <trkpt lat="45.42554" lon="5.68868">
        <ele>744.3</ele>
        <time>2013-06-23T08:55:08Z</time>
      </trkpt>
      <trkpt lat="45.42559" lon="5.68878">
        <ele>744.7</ele>
        <time>2013-06-23T08:55:10Z</time>
      </trkpt>
      <trkpt lat="45.42564" lon="5.68888">
        <ele>743.5</ele>
        <time>2013-06-23T08:55:12Z</time>
      </trkpt>
      <trkpt lat="45.42569" lon="5.68896">
        <ele>743.8</ele>
        <time>2013-06-23T08:55:14Z</time>
      </trkpt>
      <trkpt lat="45.42574" lon="5.68906">
        <ele>744.7</ele>
        <time>2013-06-23T08:55:16Z</time>
      </trkpt>
      <trkpt lat="45.42579" lon="5.68914">
        <ele>744.3</ele>
        <time>2013-06-23T08:55:18Z</time>
      </trkpt>
      <trkpt lat="45.42584" lon="5.68922">
        <ele>743.9</ele>
        <time>2013-06-23T08:55:20Z</time>
      </trkpt>
      <trkpt lat="45.42589" lon="5.6893">
        <ele>743.6</ele>
        <time>2013-06-23T08:55:22Z</time>
      </trkpt>
      <trkpt lat="45.42595" lon="5.68936">
        <ele>743.5</ele>
        <time>2013-06-23T08:55:24Z</time>
      </trkpt>
      <trkpt lat="45.42601" lon="5.68943">
        <ele>743.5</ele>
        <time>2013-06-23T08:55:26Z</time>
      </trkpt>
      <trkpt lat="45.42606" lon="5.6895">
        <ele>743.8</ele>
        <time>2013-06-23T08:55:28Z</time>
      </trkpt>
      <trkpt lat="45.42612" lon="5.68957">
        <ele>743.7</ele>
        <time>2013-06-23T08:55:30Z</time>
      </trkpt>
      <trkpt lat="45.42617" lon="5.68964">
        <ele>743.4</ele>
        <time>2013-06-23T08:55:32Z</time>
      </trkpt>
      <trkpt lat="45.42623" lon="5.68971">
        <ele>744.6</ele>
        <time>2013-06-23T08:55:34Z</time>
      </trkpt>
      <trkpt lat="45.42628" lon="5.68979">
        <ele>744.8</ele>
        <time>2013-06-23T08:55:36Z</time>
      </trkpt>
      <trkpt lat="45.42632" lon="5.68987">
        <ele>744.5</ele>
        <time>2013-06-23T08:55:38Z</time>
      </trkpt>
      <trkpt lat="45.42637" lon="5.68996">
        <ele>744.7</ele>
        <time>2013-06-23T08:55:41Z</time>
      </trkpt>
      <trkpt lat="45.42645" lon="5.68998">
        <ele>744.9</ele>
        <time>2013-06-23T08:55:45Z</time>
      </trkpt>
      <trkpt lat="45.42652" lon="5.6899">
        <ele>745.2</ele>
        <time>2013-06-23T08:55:49Z</time>
      </trkpt>
      <trkpt lat="45.42655" lon="5.6898">
        <ele>745.2</ele>
        <time>2013-06-23T08:55:53Z</time>
      </trkpt>
      <trkpt lat="45.42661" lon="5.6897">
        <ele>744.9</ele>
        <time>2013-06-23T08:55:57Z</time>
      </trkpt>
      <trkpt lat="45.42666" lon="5.6896">
        <ele>746</ele>
        <time>2013-06-23T08:56:01Z</time>
      </trkpt>
      <trkpt lat="45.4267" lon="5.6895">
        <ele>745.6</ele>
        <time>2013-06-23T08:56:06Z</time>
      </trkpt>
      <trkpt lat="45.42672" lon="5.68948">
        <ele>745.4</ele>
        <time>2013-06-23T08:56:07Z</time>
      </trkpt>
      <trkpt lat="45.42678" lon="5.68929">
        <ele>746.8</ele>
        <time>2013-06-23T08:56:16Z</time>
      </trkpt>
      <trkpt lat="45.42681" lon="5.68917">
        <ele>749.7</ele>
        <time>2013-06-23T08:56:37Z</time>
      </trkpt>
      <trkpt lat="45.42681" lon="5.68907">
        <ele>750</ele>
        <time>2013-06-23T08:56:39Z</time>
      </trkpt>
      <trkpt lat="45.42681" lon="5.68897">
        <ele>750.2</ele>
        <time>2013-06-23T08:56:45Z</time>
      </trkpt>
      <trkpt lat="45.42681" lon="5.68888">
        <ele>750.8</ele>
        <time>2013-06-23T08:56:47Z</time>
      </trkpt>
      <trkpt lat="45.42681" lon="5.68878">
        <ele>752.6</ele>
        <time>2013-06-23T08:56:53Z</time>
      </trkpt>
      <trkpt lat="45.4268" lon="5.68868">
        <ele>753.3</ele>
        <time>2013-06-23T08:56:55Z</time>
      </trkpt>
      <trkpt lat="45.4268" lon="5.68859">
        <ele>754.1</ele>
        <time>2013-06-23T08:57:02Z</time>
      </trkpt>
      <trkpt lat="45.4268" lon="5.68849">
        <ele>755.1</ele>
        <time>2013-06-23T08:57:04Z</time>
      </trkpt>
      <trkpt lat="45.42679" lon="5.6884">
        <ele>757.3</ele>
        <time>2013-06-23T08:57:12Z</time>
      </trkpt>
      <trkpt lat="45.42678" lon="5.68835">
        <ele>757.8</ele>
        <time>2013-06-23T08:57:13Z</time>
      </trkpt>
      <trkpt lat="45.42676" lon="5.68822">
        <ele>758.9</ele>
        <time>2013-06-23T08:57:21Z</time>
      </trkpt>
      <trkpt lat="45.42674" lon="5.68813">
        <ele>759.1</ele>
        <time>2013-06-23T08:57:23Z</time>
      </trkpt>
      <trkpt lat="45.42672" lon="5.68805">
        <ele>761.6</ele>
        <time>2013-06-23T08:57:31Z</time>
      </trkpt>
      <trkpt lat="45.4267" lon="5.68795">
        <ele>761.3</ele>
        <time>2013-06-23T08:57:33Z</time>
      </trkpt>
      <trkpt lat="45.42668" lon="5.68786">
        <ele>763.9</ele>
        <time>2013-06-23T08:57:41Z</time>
      </trkpt>
      <trkpt lat="45.42665" lon="5.68775">
        <ele>764.1</ele>
        <time>2013-06-23T08:57:43Z</time>
      </trkpt>
      <trkpt lat="45.42664" lon="5.68765">
        <ele>763.8</ele>
        <time>2013-06-23T08:57:45Z</time>
      </trkpt>
      <trkpt lat="45.42663" lon="5.68756">
        <ele>763.8</ele>
        <time>2013-06-23T08:57:47Z</time>
      </trkpt>
      <trkpt lat="45.42661" lon="5.68747">
        <ele>764</ele>
        <time>2013-06-23T08:57:50Z</time>
      </trkpt>
      <trkpt lat="45.42658" lon="5.68739">
        <ele>764</ele>
        <time>2013-06-23T08:57:52Z</time>
      </trkpt>
      <trkpt lat="45.42656" lon="5.68731">
        <ele>763.8</ele>
        <time>2013-06-23T08:57:54Z</time>
      </trkpt>
      <trkpt lat="45.42653" lon="5.68723">
        <ele>763.5</ele>
        <time>2013-06-23T08:57:56Z</time>
      </trkpt>
      <trkpt lat="45.42649" lon="5.68712">
        <ele>763.1</ele>
        <time>2013-06-23T08:57:59Z</time>
      </trkpt>
      <trkpt lat="45.42645" lon="5.68703">
        <ele>763.5</ele>
        <time>2013-06-23T08:58:02Z</time>
      </trkpt>
      <trkpt lat="45.42639" lon="5.68695">
        <ele>764.5</ele>
        <time>2013-06-23T08:58:05Z</time>
      </trkpt>
      <trkpt lat="45.42633" lon="5.68688">
        <ele>764</ele>
        <time>2013-06-23T08:58:08Z</time>
      </trkpt>
      <trkpt lat="45.4263" lon="5.68677">
        <ele>763.8</ele>
        <time>2013-06-23T08:58:11Z</time>
      </trkpt>
      <trkpt lat="45.42628" lon="5.68668">
        <ele>763.5</ele>
        <time>2013-06-23T08:58:14Z</time>
      </trkpt>
      <trkpt lat="45.42627" lon="5.68665">
        <ele>763.4</ele>
        <time>2013-06-23T08:58:15Z</time>
      </trkpt>
      <trkpt lat="45.42625" lon="5.68647">
        <ele>763.1</ele>
        <time>2013-06-23T08:58:20Z</time>
      </trkpt>
      <trkpt lat="45.42622" lon="5.68638">
        <ele>763.4</ele>
        <time>2013-06-23T08:58:22Z</time>
      </trkpt>
      <trkpt lat="45.42616" lon="5.68629">
        <ele>764</ele>
        <time>2013-06-23T08:58:24Z</time>
      </trkpt>
      <trkpt lat="45.42611" lon="5.68619">
        <ele>763.8</ele>
        <time>2013-06-23T08:58:27Z</time>
      </trkpt>
      <trkpt lat="45.42606" lon="5.6861">
        <ele>763.9</ele>
        <time>2013-06-23T08:58:30Z</time>
      </trkpt>
      <trkpt lat="45.42603" lon="5.68601">
        <ele>763.6</ele>
        <time>2013-06-23T08:58:33Z</time>
      </trkpt>
      <trkpt lat="45.42597" lon="5.68591">
        <ele>763.8</ele>
        <time>2013-06-23T08:58:36Z</time>
      </trkpt>
      <trkpt lat="45.42591" lon="5.68586">
        <ele>764.4</ele>
        <time>2013-06-23T08:58:38Z</time>
      </trkpt>
      <trkpt lat="45.42584" lon="5.6858">
        <ele>765.1</ele>
        <time>2013-06-23T08:58:40Z</time>
      </trkpt>
      <trkpt lat="45.42578" lon="5.68574">
        <ele>764.8</ele>
        <time>2013-06-23T08:58:42Z</time>
      </trkpt>
      <trkpt lat="45.42574" lon="5.68568">
        <ele>764.6</ele>
        <time>2013-06-23T08:58:44Z</time>
      </trkpt>
      <trkpt lat="45.42566" lon="5.68563">
        <ele>763.6</ele>
        <time>2013-06-23T08:58:46Z</time>
      </trkpt>
      <trkpt lat="45.4256" lon="5.68558">
        <ele>763</ele>
        <time>2013-06-23T08:58:48Z</time>
      </trkpt>
      <trkpt lat="45.42552" lon="5.68551">
        <ele>763.2</ele>
        <time>2013-06-23T08:58:51Z</time>
      </trkpt>
      <trkpt lat="45.42547" lon="5.68546">
        <ele>764.2</ele>
        <time>2013-06-23T08:58:58Z</time>
      </trkpt>
      <trkpt lat="45.42539" lon="5.6854">
        <ele>764.3</ele>
        <time>2013-06-23T08:59:00Z</time>
      </trkpt>
      <trkpt lat="45.42535" lon="5.68537">
        <ele>764.6</ele>
        <time>2013-06-23T08:59:01Z</time>
      </trkpt>
      <trkpt lat="45.42527" lon="5.68531">
        <ele>765</ele>
        <time>2013-06-23T08:59:03Z</time>
      </trkpt>
      <trkpt lat="45.42523" lon="5.68528">
        <ele>765.3</ele>
        <time>2013-06-23T08:59:04Z</time>
      </trkpt>
      <trkpt lat="45.42515" lon="5.68522">
        <ele>765.6</ele>
        <time>2013-06-23T08:59:06Z</time>
      </trkpt>
      <trkpt lat="45.42507" lon="5.68517">
        <ele>766.1</ele>
        <time>2013-06-23T08:59:08Z</time>
      </trkpt>
      <trkpt lat="45.42503" lon="5.68513">
        <ele>766.2</ele>
        <time>2013-06-23T08:59:09Z</time>
      </trkpt>
      <trkpt lat="45.42499" lon="5.68511">
        <ele>766.2</ele>
        <time>2013-06-23T08:59:10Z</time>
      </trkpt>
      <trkpt lat="45.42495" lon="5.68508">
        <ele>766.1</ele>
        <time>2013-06-23T08:59:11Z</time>
      </trkpt>
      <trkpt lat="45.42491" lon="5.68505">
        <ele>766.1</ele>
        <time>2013-06-23T08:59:12Z</time>
      </trkpt>
      <trkpt lat="45.42487" lon="5.685">
        <ele>765.7</ele>
        <time>2013-06-23T08:59:13Z</time>
      </trkpt>
      <trkpt lat="45.42482" lon="5.68496">
        <ele>765.4</ele>
        <time>2013-06-23T08:59:14Z</time>
      </trkpt>
      <trkpt lat="45.42478" lon="5.6849">
        <ele>765.1</ele>
        <time>2013-06-23T08:59:15Z</time>
      </trkpt>
      <trkpt lat="45.42473" lon="5.68484">
        <ele>765</ele>
        <time>2013-06-23T08:59:16Z</time>
      </trkpt>
      <trkpt lat="45.4247" lon="5.68478">
        <ele>764.3</ele>
        <time>2013-06-23T08:59:17Z</time>
      </trkpt>
      <trkpt lat="45.42466" lon="5.68472">
        <ele>763.8</ele>
        <time>2013-06-23T08:59:18Z</time>
      </trkpt>
      <trkpt lat="45.4246" lon="5.68466">
        <ele>763.5</ele>
        <time>2013-06-23T08:59:19Z</time>
      </trkpt>
      <trkpt lat="45.42455" lon="5.68461">
        <ele>762.9</ele>
        <time>2013-06-23T08:59:20Z</time>
      </trkpt>
      <trkpt lat="45.42451" lon="5.68456">
        <ele>762.5</ele>
        <time>2013-06-23T08:59:21Z</time>
      </trkpt>
      <trkpt lat="45.42445" lon="5.68454">
        <ele>762.2</ele>
        <time>2013-06-23T08:59:22Z</time>
      </trkpt>
      <trkpt lat="45.42439" lon="5.68452">
        <ele>761.2</ele>
        <time>2013-06-23T08:59:23Z</time>
      </trkpt>
      <trkpt lat="45.42433" lon="5.68451">
        <ele>760.5</ele>
        <time>2013-06-23T08:59:24Z</time>
      </trkpt>
      <trkpt lat="45.42428" lon="5.68449">
        <ele>760</ele>
        <time>2013-06-23T08:59:25Z</time>
      </trkpt>
      <trkpt lat="45.42423" lon="5.68447">
        <ele>759.5</ele>
        <time>2013-06-23T08:59:26Z</time>
      </trkpt>
      <trkpt lat="45.42417" lon="5.68444">
        <ele>759.1</ele>
        <time>2013-06-23T08:59:27Z</time>
      </trkpt>
      <trkpt lat="45.42411" lon="5.68442">
        <ele>758.9</ele>
        <time>2013-06-23T08:59:28Z</time>
      </trkpt>
      <trkpt lat="45.42405" lon="5.68441">
        <ele>758.4</ele>
        <time>2013-06-23T08:59:29Z</time>
      </trkpt>
      <trkpt lat="45.42399" lon="5.6844">
        <ele>758.1</ele>
        <time>2013-06-23T08:59:30Z</time>
      </trkpt>
      <trkpt lat="45.42395" lon="5.68437">
        <ele>757.8</ele>
        <time>2013-06-23T08:59:31Z</time>
      </trkpt>
      <trkpt lat="45.4239" lon="5.68436">
        <ele>757.7</ele>
        <time>2013-06-23T08:59:32Z</time>
      </trkpt>
      <trkpt lat="45.42382" lon="5.68431">
        <ele>757.2</ele>
        <time>2013-06-23T08:59:34Z</time>
      </trkpt>
      <trkpt lat="45.42379" lon="5.68421">
        <ele>757.3</ele>
        <time>2013-06-23T08:59:36Z</time>
      </trkpt>
      <trkpt lat="45.42375" lon="5.68413">
        <ele>757.6</ele>
        <time>2013-06-23T08:59:38Z</time>
      </trkpt>
      <trkpt lat="45.42369" lon="5.68405">
        <ele>758.3</ele>
        <time>2013-06-23T08:59:41Z</time>
      </trkpt>
      <trkpt lat="45.42364" lon="5.68397">
        <ele>757.8</ele>
        <time>2013-06-23T08:59:44Z</time>
      </trkpt>
      <trkpt lat="45.42358" lon="5.68388">
        <ele>757.6</ele>
        <time>2013-06-23T08:59:47Z</time>
      </trkpt>
      <trkpt lat="45.42351" lon="5.68384">
        <ele>757.3</ele>
        <time>2013-06-23T08:59:49Z</time>
      </trkpt>
      <trkpt lat="45.42343" lon="5.68379">
        <ele>757.1</ele>
        <time>2013-06-23T08:59:51Z</time>
      </trkpt>
      <trkpt lat="45.42338" lon="5.68376">
        <ele>756.8</ele>
        <time>2013-06-23T08:59:52Z</time>
      </trkpt>
      <trkpt lat="45.42331" lon="5.6837">
        <ele>756.4</ele>
        <time>2013-06-23T08:59:54Z</time>
      </trkpt>
      <trkpt lat="45.42325" lon="5.68365">
        <ele>756.3</ele>
        <time>2013-06-23T08:59:56Z</time>
      </trkpt>
      <trkpt lat="45.42321" lon="5.68357">
        <ele>756</ele>
        <time>2013-06-23T08:59:58Z</time>
      </trkpt>
      <trkpt lat="45.42317" lon="5.68349">
        <ele>755.6</ele>
        <time>2013-06-23T09:00:00Z</time>
      </trkpt>
      <trkpt lat="45.42314" lon="5.68339">
        <ele>755.5</ele>
        <time>2013-06-23T09:00:03Z</time>
      </trkpt>
      <trkpt lat="45.42311" lon="5.68328">
        <ele>757.3</ele>
        <time>2013-06-23T09:00:07Z</time>
      </trkpt>
      <trkpt lat="45.42305" lon="5.68322">
        <ele>757.9</ele>
        <time>2013-06-23T09:00:10Z</time>
      </trkpt>
      <trkpt lat="45.42301" lon="5.68312">
        <ele>757.3</ele>
        <time>2013-06-23T09:00:13Z</time>
      </trkpt>
      <trkpt lat="45.42298" lon="5.68304">
        <ele>756.7</ele>
        <time>2013-06-23T09:00:15Z</time>
      </trkpt>
      <trkpt lat="45.42293" lon="5.68295">
        <ele>756.3</ele>
        <time>2013-06-23T09:00:17Z</time>
      </trkpt>
      <trkpt lat="45.4229" lon="5.6829">
        <ele>756.1</ele>
        <time>2013-06-23T09:00:18Z</time>
      </trkpt>
      <trkpt lat="45.42284" lon="5.68278">
        <ele>756.1</ele>
        <time>2013-06-23T09:00:21Z</time>
      </trkpt>
      <trkpt lat="45.42282" lon="5.68268">
        <ele>756.5</ele>
        <time>2013-06-23T09:00:24Z</time>
      </trkpt>
      <trkpt lat="45.42281" lon="5.68258">
        <ele>757.4</ele>
        <time>2013-06-23T09:00:27Z</time>
      </trkpt>
      <trkpt lat="45.42278" lon="5.68248">
        <ele>758</ele>
        <time>2013-06-23T09:00:30Z</time>
      </trkpt>
      <trkpt lat="45.42275" lon="5.6824">
        <ele>758.6</ele>
        <time>2013-06-23T09:00:33Z</time>
      </trkpt>
      <trkpt lat="45.4227" lon="5.68231">
        <ele>759.2</ele>
        <time>2013-06-23T09:00:36Z</time>
      </trkpt>
      <trkpt lat="45.42266" lon="5.68222">
        <ele>759.3</ele>
        <time>2013-06-23T09:00:39Z</time>
      </trkpt>
      <trkpt lat="45.42262" lon="5.68213">
        <ele>758.7</ele>
        <time>2013-06-23T09:00:42Z</time>
      </trkpt>
      <trkpt lat="45.42256" lon="5.68205">
        <ele>759.4</ele>
        <time>2013-06-23T09:00:45Z</time>
      </trkpt>
      <trkpt lat="45.42249" lon="5.68199">
        <ele>759.3</ele>
        <time>2013-06-23T09:00:47Z</time>
      </trkpt>
      <trkpt lat="45.42244" lon="5.68195">
        <ele>759.3</ele>
        <time>2013-06-23T09:00:48Z</time>
      </trkpt>
      <trkpt lat="45.42239" lon="5.6819">
        <ele>758.8</ele>
        <time>2013-06-23T09:00:49Z</time>
      </trkpt>
      <trkpt lat="45.42234" lon="5.68184">
        <ele>758.4</ele>
        <time>2013-06-23T09:00:50Z</time>
      </trkpt>
      <trkpt lat="45.4223" lon="5.6818">
        <ele>758.2</ele>
        <time>2013-06-23T09:00:51Z</time>
      </trkpt>
      <trkpt lat="45.42225" lon="5.68173">
        <ele>755.4</ele>
        <time>2013-06-23T09:00:53Z</time>
      </trkpt>
      <trkpt lat="45.4222" lon="5.68162">
        <ele>753.1</ele>
        <time>2013-06-23T09:00:58Z</time>
      </trkpt>
      <trkpt lat="45.42214" lon="5.68155">
        <ele>752.7</ele>
        <time>2013-06-23T09:01:00Z</time>
      </trkpt>
      <trkpt lat="45.4221" lon="5.68151">
        <ele>752.6</ele>
        <time>2013-06-23T09:01:01Z</time>
      </trkpt>
      <trkpt lat="45.42205" lon="5.68148">
        <ele>752.3</ele>
        <time>2013-06-23T09:01:02Z</time>
      </trkpt>
      <trkpt lat="45.422" lon="5.68144">
        <ele>752</ele>
        <time>2013-06-23T09:01:03Z</time>
      </trkpt>
      <trkpt lat="45.42195" lon="5.6814">
        <ele>751.9</ele>
        <time>2013-06-23T09:01:04Z</time>
      </trkpt>
      <trkpt lat="45.4219" lon="5.68136">
        <ele>751.5</ele>
        <time>2013-06-23T09:01:05Z</time>
      </trkpt>
      <trkpt lat="45.42186" lon="5.68133">
        <ele>751.3</ele>
        <time>2013-06-23T09:01:06Z</time>
      </trkpt>
      <trkpt lat="45.42182" lon="5.6813">
        <ele>751.1</ele>
        <time>2013-06-23T09:01:07Z</time>
      </trkpt>
      <trkpt lat="45.42176" lon="5.68127">
        <ele>750</ele>
        <time>2013-06-23T09:01:08Z</time>
      </trkpt>
      <trkpt lat="45.4217" lon="5.68124">
        <ele>749.2</ele>
        <time>2013-06-23T09:01:09Z</time>
      </trkpt>
      <trkpt lat="45.42165" lon="5.68122">
        <ele>748.6</ele>
        <time>2013-06-23T09:01:10Z</time>
      </trkpt>
      <trkpt lat="45.42156" lon="5.68121">
        <ele>747.2</ele>
        <time>2013-06-23T09:01:12Z</time>
      </trkpt>
      <trkpt lat="45.42148" lon="5.68123">
        <ele>746</ele>
        <time>2013-06-23T09:01:14Z</time>
      </trkpt>
      <trkpt lat="45.42143" lon="5.68122">
        <ele>745.1</ele>
        <time>2013-06-23T09:01:15Z</time>
      </trkpt>
      <trkpt lat="45.42135" lon="5.68118">
        <ele>743.9</ele>
        <time>2013-06-23T09:01:17Z</time>
      </trkpt>
      <trkpt lat="45.42128" lon="5.68118">
        <ele>741.1</ele>
        <time>2013-06-23T09:01:19Z</time>
      </trkpt>
      <trkpt lat="45.42125" lon="5.68116">
        <ele>740.2</ele>
        <time>2013-06-23T09:01:20Z</time>
      </trkpt>
      <trkpt lat="45.42118" lon="5.68105">
        <ele>737.8</ele>
        <time>2013-06-23T09:01:24Z</time>
      </trkpt>
      <trkpt lat="45.42113" lon="5.68095">
        <ele>737.5</ele>
        <time>2013-06-23T09:01:27Z</time>
      </trkpt>
      <trkpt lat="45.42108" lon="5.68088">
        <ele>737.8</ele>
        <time>2013-06-23T09:01:30Z</time>
      </trkpt>
      <trkpt lat="45.42102" lon="5.6808">
        <ele>737.7</ele>
        <time>2013-06-23T09:01:34Z</time>
      </trkpt>
      <trkpt lat="45.42099" lon="5.68072">
        <ele>737.8</ele>
        <time>2013-06-23T09:01:36Z</time>
      </trkpt>
      <trkpt lat="45.42095" lon="5.68065">
        <ele>736.8</ele>
        <time>2013-06-23T09:01:38Z</time>
      </trkpt>
      <trkpt lat="45.42091" lon="5.68057">
        <ele>735.9</ele>
        <time>2013-06-23T09:01:40Z</time>
      </trkpt>
      <trkpt lat="45.42088" lon="5.68053">
        <ele>735.4</ele>
        <time>2013-06-23T09:01:41Z</time>
      </trkpt>
      <trkpt lat="45.42082" lon="5.68045">
        <ele>734.6</ele>
        <time>2013-06-23T09:01:43Z</time>
      </trkpt>
      <trkpt lat="45.42077" lon="5.68039">
        <ele>734</ele>
        <time>2013-06-23T09:01:45Z</time>
      </trkpt>
      <trkpt lat="45.4207" lon="5.68034">
        <ele>732.9</ele>
        <time>2013-06-23T09:01:47Z</time>
      </trkpt>
      <trkpt lat="45.42063" lon="5.68029">
        <ele>731.8</ele>
        <time>2013-06-23T09:01:49Z</time>
      </trkpt>
      <trkpt lat="45.42057" lon="5.68024">
        <ele>730.1</ele>
        <time>2013-06-23T09:01:51Z</time>
      </trkpt>
      <trkpt lat="45.4205" lon="5.6802">
        <ele>728.3</ele>
        <time>2013-06-23T09:01:53Z</time>
      </trkpt>
      <trkpt lat="45.42044" lon="5.68017">
        <ele>727.5</ele>
        <time>2013-06-23T09:01:54Z</time>
      </trkpt>
      <trkpt lat="45.42039" lon="5.68014">
        <ele>726.8</ele>
        <time>2013-06-23T09:01:55Z</time>
      </trkpt>
      <trkpt lat="45.42033" lon="5.6801">
        <ele>725.6</ele>
        <time>2013-06-23T09:01:56Z</time>
      </trkpt>
      <trkpt lat="45.42028" lon="5.68006">
        <ele>724.7</ele>
        <time>2013-06-23T09:01:57Z</time>
      </trkpt>
      <trkpt lat="45.42023" lon="5.68002">
        <ele>724</ele>
        <time>2013-06-23T09:01:58Z</time>
      </trkpt>
      <trkpt lat="45.42018" lon="5.67994">
        <ele>722.2</ele>
        <time>2013-06-23T09:02:00Z</time>
      </trkpt>
      <trkpt lat="45.42009" lon="5.67993">
        <ele>719.8</ele>
        <time>2013-06-23T09:02:04Z</time>
      </trkpt>
      <trkpt lat="45.42004" lon="5.68002">
        <ele>719.2</ele>
        <time>2013-06-23T09:02:08Z</time>
      </trkpt>
      <trkpt lat="45.42" lon="5.68012">
        <ele>718.7</ele>
        <time>2013-06-23T09:02:12Z</time>
      </trkpt>
      <trkpt lat="45.41997" lon="5.68021">
        <ele>719.7</ele>
        <time>2013-06-23T09:02:16Z</time>
      </trkpt>
      <trkpt lat="45.41997" lon="5.6803">
        <ele>720.1</ele>
        <time>2013-06-23T09:02:18Z</time>
      </trkpt>
      <trkpt lat="45.42" lon="5.6804">
        <ele>719</ele>
        <time>2013-06-23T09:02:20Z</time>
      </trkpt>
      <trkpt lat="45.42003" lon="5.68046">
        <ele>718.6</ele>
        <time>2013-06-23T09:02:21Z</time>
      </trkpt>
      <trkpt lat="45.42009" lon="5.68061">
        <ele>716.9</ele>
        <time>2013-06-23T09:02:25Z</time>
      </trkpt>
      <trkpt lat="45.42009" lon="5.68071">
        <ele>715.4</ele>
        <time>2013-06-23T09:02:28Z</time>
      </trkpt>
      <trkpt lat="45.4201" lon="5.68082">
        <ele>713.9</ele>
        <time>2013-06-23T09:02:31Z</time>
      </trkpt>
      <trkpt lat="45.42011" lon="5.68094">
        <ele>714</ele>
        <time>2013-06-23T09:02:34Z</time>
      </trkpt>
      <trkpt lat="45.42014" lon="5.68105">
        <ele>712.9</ele>
        <time>2013-06-23T09:02:38Z</time>
      </trkpt>
      <trkpt lat="45.42016" lon="5.68115">
        <ele>713.4</ele>
        <time>2013-06-23T09:02:41Z</time>
      </trkpt>
      <trkpt lat="45.42016" lon="5.68127">
        <ele>713.8</ele>
        <time>2013-06-23T09:02:45Z</time>
      </trkpt>
      <trkpt lat="45.42016" lon="5.6814">
        <ele>715</ele>
        <time>2013-06-23T09:02:49Z</time>
      </trkpt>
      <trkpt lat="45.42014" lon="5.68152">
        <ele>715.9</ele>
        <time>2013-06-23T09:02:52Z</time>
      </trkpt>
      <trkpt lat="45.42017" lon="5.68163">
        <ele>715.6</ele>
        <time>2013-06-23T09:02:55Z</time>
      </trkpt>
      <trkpt lat="45.4202" lon="5.68174">
        <ele>715.4</ele>
        <time>2013-06-23T09:02:59Z</time>
      </trkpt>
      <trkpt lat="45.42025" lon="5.68184">
        <ele>715.7</ele>
        <time>2013-06-23T09:03:04Z</time>
      </trkpt>
      <trkpt lat="45.42032" lon="5.68191">
        <ele>722.5</ele>
        <time>2013-06-23T09:03:29Z</time>
      </trkpt>
      <trkpt lat="45.42034" lon="5.68193">
        <ele>722.7</ele>
        <time>2013-06-23T09:03:30Z</time>
      </trkpt>
      <trkpt lat="45.42044" lon="5.68202">
        <ele>724.7</ele>
        <time>2013-06-23T09:03:37Z</time>
      </trkpt>
      <trkpt lat="45.4205" lon="5.68207">
        <ele>724.5</ele>
        <time>2013-06-23T09:03:39Z</time>
      </trkpt>
      <trkpt lat="45.42057" lon="5.68211">
        <ele>724.4</ele>
        <time>2013-06-23T09:03:41Z</time>
      </trkpt>
      <trkpt lat="45.42064" lon="5.68219">
        <ele>724.8</ele>
        <time>2013-06-23T09:03:44Z</time>
      </trkpt>
      <trkpt lat="45.42071" lon="5.68227">
        <ele>725.4</ele>
        <time>2013-06-23T09:03:47Z</time>
      </trkpt>
      <trkpt lat="45.42075" lon="5.68238">
        <ele>726.5</ele>
        <time>2013-06-23T09:03:51Z</time>
      </trkpt>
      <trkpt lat="45.42076" lon="5.6825">
        <ele>725.1</ele>
        <time>2013-06-23T09:03:56Z</time>
      </trkpt>
      <trkpt lat="45.42078" lon="5.68262">
        <ele>724</ele>
        <time>2013-06-23T09:04:02Z</time>
      </trkpt>
      <trkpt lat="45.42076" lon="5.68272">
        <ele>722.6</ele>
        <time>2013-06-23T09:04:06Z</time>
      </trkpt>
      <trkpt lat="45.42074" lon="5.68281">
        <ele>721.2</ele>
        <time>2013-06-23T09:04:09Z</time>
      </trkpt>
      <trkpt lat="45.42071" lon="5.68292">
        <ele>718.3</ele>
        <time>2013-06-23T09:04:12Z</time>
      </trkpt>
      <trkpt lat="45.42069" lon="5.68302">
        <ele>717.2</ele>
        <time>2013-06-23T09:04:14Z</time>
      </trkpt>
      <trkpt lat="45.42065" lon="5.68312">
        <ele>715.5</ele>
        <time>2013-06-23T09:04:17Z</time>
      </trkpt>
      <trkpt lat="45.42061" lon="5.68319">
        <ele>710.1</ele>
        <time>2013-06-23T09:04:26Z</time>
      </trkpt>
      <trkpt lat="45.42058" lon="5.68325">
        <ele>709.4</ele>
        <time>2013-06-23T09:04:27Z</time>
      </trkpt>
      <trkpt lat="45.42055" lon="5.6833">
        <ele>708.9</ele>
        <time>2013-06-23T09:04:28Z</time>
      </trkpt>
      <trkpt lat="45.42051" lon="5.68335">
        <ele>708.5</ele>
        <time>2013-06-23T09:04:29Z</time>
      </trkpt>
      <trkpt lat="45.42048" lon="5.68343">
        <ele>707.5</ele>
        <time>2013-06-23T09:04:30Z</time>
      </trkpt>
      <trkpt lat="45.42044" lon="5.68349">
        <ele>706.6</ele>
        <time>2013-06-23T09:04:31Z</time>
      </trkpt>
      <trkpt lat="45.42042" lon="5.68355">
        <ele>706</ele>
        <time>2013-06-23T09:04:32Z</time>
      </trkpt>
      <trkpt lat="45.42039" lon="5.68362">
        <ele>705.5</ele>
        <time>2013-06-23T09:04:33Z</time>
      </trkpt>
      <trkpt lat="45.42036" lon="5.68369">
        <ele>705.2</ele>
        <time>2013-06-23T09:04:34Z</time>
      </trkpt>
      <trkpt lat="45.42032" lon="5.68375">
        <ele>704.9</ele>
        <time>2013-06-23T09:04:35Z</time>
      </trkpt>
      <trkpt lat="45.42028" lon="5.68384">
        <ele>704.2</ele>
        <time>2013-06-23T09:04:37Z</time>
      </trkpt>
      <trkpt lat="45.42021" lon="5.68388">
        <ele>701.3</ele>
        <time>2013-06-23T09:04:40Z</time>
      </trkpt>
      <trkpt lat="45.42015" lon="5.68392">
        <ele>700.3</ele>
        <time>2013-06-23T09:04:43Z</time>
      </trkpt>
      <trkpt lat="45.42009" lon="5.68395">
        <ele>695</ele>
        <time>2013-06-23T09:04:50Z</time>
      </trkpt>
      <trkpt lat="45.42004" lon="5.68399">
        <ele>693.1</ele>
        <time>2013-06-23T09:04:52Z</time>
      </trkpt>
      <trkpt lat="45.41997" lon="5.68402">
        <ele>691.3</ele>
        <time>2013-06-23T09:04:54Z</time>
      </trkpt>
      <trkpt lat="45.4199" lon="5.68403">
        <ele>689</ele>
        <time>2013-06-23T09:04:56Z</time>
      </trkpt>
      <trkpt lat="45.41983" lon="5.68407">
        <ele>686.5</ele>
        <time>2013-06-23T09:04:59Z</time>
      </trkpt>
      <trkpt lat="45.41979" lon="5.68412">
        <ele>681.6</ele>
        <time>2013-06-23T09:05:05Z</time>
      </trkpt>
      <trkpt lat="45.41972" lon="5.68419">
        <ele>680.4</ele>
        <time>2013-06-23T09:05:07Z</time>
      </trkpt>
      <trkpt lat="45.41966" lon="5.68424">
        <ele>678.6</ele>
        <time>2013-06-23T09:05:09Z</time>
      </trkpt>
      <trkpt lat="45.4196" lon="5.68428">
        <ele>676.9</ele>
        <time>2013-06-23T09:05:11Z</time>
      </trkpt>
      <trkpt lat="45.41953" lon="5.68429">
        <ele>675.5</ele>
        <time>2013-06-23T09:05:13Z</time>
      </trkpt>
      <trkpt lat="45.41944" lon="5.6843">
        <ele>673.3</ele>
        <time>2013-06-23T09:05:15Z</time>
      </trkpt>
      <trkpt lat="45.41936" lon="5.6843">
        <ele>671.5</ele>
        <time>2013-06-23T09:05:17Z</time>
      </trkpt>
      <trkpt lat="45.41929" lon="5.68433">
        <ele>670</ele>
        <time>2013-06-23T09:05:19Z</time>
      </trkpt>
      <trkpt lat="45.41924" lon="5.68437">
        <ele>668.6</ele>
        <time>2013-06-23T09:05:21Z</time>
      </trkpt>
      <trkpt lat="45.41918" lon="5.68442">
        <ele>667.5</ele>
        <time>2013-06-23T09:05:23Z</time>
      </trkpt>
      <trkpt lat="45.41911" lon="5.68447">
        <ele>665.9</ele>
        <time>2013-06-23T09:05:26Z</time>
      </trkpt>
      <trkpt lat="45.41906" lon="5.68455">
        <ele>663.6</ele>
        <time>2013-06-23T09:05:29Z</time>
      </trkpt>
      <trkpt lat="45.419" lon="5.68464">
        <ele>662.2</ele>
        <time>2013-06-23T09:05:32Z</time>
      </trkpt>
      <trkpt lat="45.41899" lon="5.68467">
        <ele>661</ele>
        <time>2013-06-23T09:05:33Z</time>
      </trkpt>
      <trkpt lat="45.41889" lon="5.6848">
        <ele>657.1</ele>
        <time>2013-06-23T09:05:38Z</time>
      </trkpt>
      <trkpt lat="45.41883" lon="5.68488">
        <ele>655</ele>
        <time>2013-06-23T09:05:41Z</time>
      </trkpt>
      <trkpt lat="45.41878" lon="5.68496">
        <ele>646.9</ele>
        <time>2013-06-23T09:05:52Z</time>
      </trkpt>
      <trkpt lat="45.41872" lon="5.68502">
        <ele>645.3</ele>
        <time>2013-06-23T09:05:54Z</time>
      </trkpt>
      <trkpt lat="45.41866" lon="5.68508">
        <ele>643</ele>
        <time>2013-06-23T09:05:57Z</time>
      </trkpt>
      <trkpt lat="45.4186" lon="5.68514">
        <ele>639.3</ele>
        <time>2013-06-23T09:06:02Z</time>
      </trkpt>
      <trkpt lat="45.41855" lon="5.6852">
        <ele>638.5</ele>
        <time>2013-06-23T09:06:04Z</time>
      </trkpt>
      <trkpt lat="45.4185" lon="5.68528">
        <ele>636.8</ele>
        <time>2013-06-23T09:06:06Z</time>
      </trkpt>
      <trkpt lat="45.41842" lon="5.68534">
        <ele>634.3</ele>
        <time>2013-06-23T09:06:09Z</time>
      </trkpt>
      <trkpt lat="45.41834" lon="5.68535">
        <ele>633</ele>
        <time>2013-06-23T09:06:15Z</time>
      </trkpt>
      <trkpt lat="45.41829" lon="5.68529">
        <ele>633.1</ele>
        <time>2013-06-23T09:06:18Z</time>
      </trkpt>
      <trkpt lat="45.41824" lon="5.68521">
        <ele>633.1</ele>
        <time>2013-06-23T09:06:21Z</time>
      </trkpt>
      <trkpt lat="45.41818" lon="5.68511">
        <ele>633.9</ele>
        <time>2013-06-23T09:06:25Z</time>
      </trkpt>
      <trkpt lat="45.41814" lon="5.68504">
        <ele>633.6</ele>
        <time>2013-06-23T09:06:28Z</time>
      </trkpt>
      <trkpt lat="45.41808" lon="5.68496">
        <ele>632.6</ele>
        <time>2013-06-23T09:06:31Z</time>
      </trkpt>
      <trkpt lat="45.41803" lon="5.68487">
        <ele>631.7</ele>
        <time>2013-06-23T09:06:34Z</time>
      </trkpt>
      <trkpt lat="45.41801" lon="5.68484">
        <ele>631.5</ele>
        <time>2013-06-23T09:06:35Z</time>
      </trkpt>
      <trkpt lat="45.41792" lon="5.68472">
        <ele>631.1</ele>
        <time>2013-06-23T09:06:38Z</time>
      </trkpt>
      <trkpt lat="45.41788" lon="5.68464">
        <ele>630.9</ele>
        <time>2013-06-23T09:06:40Z</time>
      </trkpt>
      <trkpt lat="45.41782" lon="5.68458">
        <ele>630.8</ele>
        <time>2013-06-23T09:06:46Z</time>
      </trkpt>
      <trkpt lat="45.41776" lon="5.68452">
        <ele>629.1</ele>
        <time>2013-06-23T09:06:49Z</time>
      </trkpt>
      <trkpt lat="45.4177" lon="5.68446">
        <ele>628.5</ele>
        <time>2013-06-23T09:06:52Z</time>
      </trkpt>
      <trkpt lat="45.41763" lon="5.68438">
        <ele>627.7</ele>
        <time>2013-06-23T09:06:56Z</time>
      </trkpt>
      <trkpt lat="45.41757" lon="5.68433">
        <ele>627</ele>
        <time>2013-06-23T09:06:59Z</time>
      </trkpt>
      <trkpt lat="45.4175" lon="5.68425">
        <ele>625.5</ele>
        <time>2013-06-23T09:07:02Z</time>
      </trkpt>
      <trkpt lat="45.41743" lon="5.68417">
        <ele>623.5</ele>
        <time>2013-06-23T09:07:05Z</time>
      </trkpt>
      <trkpt lat="45.41737" lon="5.6841">
        <ele>620.4</ele>
        <time>2013-06-23T09:07:11Z</time>
      </trkpt>
      <trkpt lat="45.41732" lon="5.68402">
        <ele>619.1</ele>
        <time>2013-06-23T09:07:14Z</time>
      </trkpt>
      <trkpt lat="45.41727" lon="5.68396">
        <ele>618.8</ele>
        <time>2013-06-23T09:07:16Z</time>
      </trkpt>
      <trkpt lat="45.41718" lon="5.68398">
        <ele>618.2</ele>
        <time>2013-06-23T09:07:19Z</time>
      </trkpt>
      <trkpt lat="45.41711" lon="5.68402">
        <ele>615.7</ele>
        <time>2013-06-23T09:07:23Z</time>
      </trkpt>
      <trkpt lat="45.41703" lon="5.68399">
        <ele>613.6</ele>
        <time>2013-06-23T09:07:26Z</time>
      </trkpt>
      <trkpt lat="45.41699" lon="5.68394">
        <ele>610.7</ele>
        <time>2013-06-23T09:07:35Z</time>
      </trkpt>
      <trkpt lat="45.41696" lon="5.68391">
        <ele>610.5</ele>
        <time>2013-06-23T09:07:36Z</time>
      </trkpt>
      <trkpt lat="45.41687" lon="5.68384">
        <ele>609.4</ele>
        <time>2013-06-23T09:07:39Z</time>
      </trkpt>
      <trkpt lat="45.4168" lon="5.68379">
        <ele>608.8</ele>
        <time>2013-06-23T09:07:41Z</time>
      </trkpt>
      <trkpt lat="45.41673" lon="5.68372">
        <ele>608</ele>
        <time>2013-06-23T09:07:44Z</time>
      </trkpt>
      <trkpt lat="45.41666" lon="5.68367">
        <ele>607.3</ele>
        <time>2013-06-23T09:07:46Z</time>
      </trkpt>
      <trkpt lat="45.41661" lon="5.68364">
        <ele>606.7</ele>
        <time>2013-06-23T09:07:47Z</time>
      </trkpt>
      <trkpt lat="45.41653" lon="5.68363">
        <ele>606</ele>
        <time>2013-06-23T09:07:49Z</time>
      </trkpt>
      <trkpt lat="45.41648" lon="5.68362">
        <ele>605.7</ele>
        <time>2013-06-23T09:07:50Z</time>
      </trkpt>
      <trkpt lat="45.41643" lon="5.68363">
        <ele>605.6</ele>
        <time>2013-06-23T09:07:51Z</time>
      </trkpt>
      <trkpt lat="45.41636" lon="5.68366">
        <ele>605.5</ele>
        <time>2013-06-23T09:07:53Z</time>
      </trkpt>
      <trkpt lat="45.41628" lon="5.6837">
        <ele>604.8</ele>
        <time>2013-06-23T09:07:56Z</time>
      </trkpt>
      <trkpt lat="45.4162" lon="5.68371">
        <ele>605.7</ele>
        <time>2013-06-23T09:07:59Z</time>
      </trkpt>
      <trkpt lat="45.41614" lon="5.68378">
        <ele>605.6</ele>
        <time>2013-06-23T09:08:02Z</time>
      </trkpt>
      <trkpt lat="45.4161" lon="5.68388">
        <ele>604.8</ele>
        <time>2013-06-23T09:08:04Z</time>
      </trkpt>
      <trkpt lat="45.41606" lon="5.68398">
        <ele>604.3</ele>
        <time>2013-06-23T09:08:06Z</time>
      </trkpt>
      <trkpt lat="45.41603" lon="5.68402">
        <ele>603.7</ele>
        <time>2013-06-23T09:08:07Z</time>
      </trkpt>
      <trkpt lat="45.41599" lon="5.68408">
        <ele>603.3</ele>
        <time>2013-06-23T09:08:08Z</time>
      </trkpt>
      <trkpt lat="45.41594" lon="5.68414">
        <ele>603</ele>
        <time>2013-06-23T09:08:09Z</time>
      </trkpt>
      <trkpt lat="45.41588" lon="5.68424">
        <ele>602.9</ele>
        <time>2013-06-23T09:08:11Z</time>
      </trkpt>
      <trkpt lat="45.41585" lon="5.68429">
        <ele>602.9</ele>
        <time>2013-06-23T09:08:12Z</time>
      </trkpt>
      <trkpt lat="45.4158" lon="5.68439">
        <ele>601.8</ele>
        <time>2013-06-23T09:08:14Z</time>
      </trkpt>
      <trkpt lat="45.41578" lon="5.68448">
        <ele>600.3</ele>
        <time>2013-06-23T09:08:16Z</time>
      </trkpt>
      <trkpt lat="45.41576" lon="5.68455">
        <ele>599.5</ele>
        <time>2013-06-23T09:08:17Z</time>
      </trkpt>
      <trkpt lat="45.41574" lon="5.68466">
        <ele>598.4</ele>
        <time>2013-06-23T09:08:19Z</time>
      </trkpt>
      <trkpt lat="45.41574" lon="5.68477">
        <ele>597.8</ele>
        <time>2013-06-23T09:08:21Z</time>
      </trkpt>
      <trkpt lat="45.41573" lon="5.68483">
        <ele>597.6</ele>
        <time>2013-06-23T09:08:22Z</time>
      </trkpt>
      <trkpt lat="45.41572" lon="5.68495">
        <ele>596</ele>
        <time>2013-06-23T09:08:24Z</time>
      </trkpt>
      <trkpt lat="45.41575" lon="5.68505">
        <ele>594.2</ele>
        <time>2013-06-23T09:08:28Z</time>
      </trkpt>
      <trkpt lat="45.41577" lon="5.68516">
        <ele>592.6</ele>
        <time>2013-06-23T09:08:31Z</time>
      </trkpt>
      <trkpt lat="45.41573" lon="5.68524">
        <ele>591.1</ele>
        <time>2013-06-23T09:08:34Z</time>
      </trkpt>
      <trkpt lat="45.41569" lon="5.68535">
        <ele>590.6</ele>
        <time>2013-06-23T09:08:37Z</time>
      </trkpt>
      <trkpt lat="45.41567" lon="5.68537">
        <ele>589.8</ele>
        <time>2013-06-23T09:08:38Z</time>
      </trkpt>
      <trkpt lat="45.4157" lon="5.68549">
        <ele>588.7</ele>
        <time>2013-06-23T09:10:31Z</time>
      </trkpt>
      <trkpt lat="45.41573" lon="5.68563">
        <ele>588.5</ele>
        <time>2013-06-23T09:10:34Z</time>
      </trkpt>
      <trkpt lat="45.41573" lon="5.68571">
        <ele>588.4</ele>
        <time>2013-06-23T09:10:36Z</time>
      </trkpt>
      <trkpt lat="45.41573" lon="5.68584">
        <ele>588.5</ele>
        <time>2013-06-23T09:10:39Z</time>
      </trkpt>
      <trkpt lat="45.41571" lon="5.68594">
        <ele>588</ele>
        <time>2013-06-23T09:10:42Z</time>
      </trkpt>
      <trkpt lat="45.41569" lon="5.68605">
        <ele>587.8</ele>
        <time>2013-06-23T09:10:46Z</time>
      </trkpt>
      <trkpt lat="45.41568" lon="5.68615">
        <ele>587.8</ele>
        <time>2013-06-23T09:10:49Z</time>
      </trkpt>
      <trkpt lat="45.41566" lon="5.68625">
        <ele>588.4</ele>
        <time>2013-06-23T09:10:52Z</time>
      </trkpt>
      <trkpt lat="45.41564" lon="5.68635">
        <ele>588.7</ele>
        <time>2013-06-23T09:10:55Z</time>
      </trkpt>
      <trkpt lat="45.41562" lon="5.68647">
        <ele>589.6</ele>
        <time>2013-06-23T09:10:58Z</time>
      </trkpt>
      <trkpt lat="45.4156" lon="5.68655">
        <ele>589</ele>
        <time>2013-06-23T09:11:00Z</time>
      </trkpt>
      <trkpt lat="45.41558" lon="5.68664">
        <ele>588.4</ele>
        <time>2013-06-23T09:11:02Z</time>
      </trkpt>
      <trkpt lat="45.41556" lon="5.68676">
        <ele>588.3</ele>
        <time>2013-06-23T09:11:05Z</time>
      </trkpt>
      <trkpt lat="45.41553" lon="5.68686">
        <ele>588.9</ele>
        <time>2013-06-23T09:11:08Z</time>
      </trkpt>
      <trkpt lat="45.41551" lon="5.68697">
        <ele>588.3</ele>
        <time>2013-06-23T09:11:11Z</time>
      </trkpt>
      <trkpt lat="45.41548" lon="5.68708">
        <ele>588</ele>
        <time>2013-06-23T09:11:14Z</time>
      </trkpt>
      <trkpt lat="45.41543" lon="5.68719">
        <ele>588.8</ele>
        <time>2013-06-23T09:11:17Z</time>
      </trkpt>
      <trkpt lat="45.4154" lon="5.68726">
        <ele>588.7</ele>
        <time>2013-06-23T09:11:19Z</time>
      </trkpt>
      <trkpt lat="45.41537" lon="5.68734">
        <ele>589.1</ele>
        <time>2013-06-23T09:11:21Z</time>
      </trkpt>
      <trkpt lat="45.41533" lon="5.68741">
        <ele>589.6</ele>
        <time>2013-06-23T09:11:23Z</time>
      </trkpt>
      <trkpt lat="45.41529" lon="5.68748">
        <ele>589.3</ele>
        <time>2013-06-23T09:11:25Z</time>
      </trkpt>
      <trkpt lat="45.41524" lon="5.68754">
        <ele>588.5</ele>
        <time>2013-06-23T09:11:27Z</time>
      </trkpt>
      <trkpt lat="45.4152" lon="5.68761">
        <ele>588.9</ele>
        <time>2013-06-23T09:11:29Z</time>
      </trkpt>
      <trkpt lat="45.41515" lon="5.68768">
        <ele>589.2</ele>
        <time>2013-06-23T09:11:31Z</time>
      </trkpt>
      <trkpt lat="45.41512" lon="5.68771">
        <ele>589.3</ele>
        <time>2013-06-23T09:11:32Z</time>
      </trkpt>
      <trkpt lat="45.41505" lon="5.68781">
        <ele>589.4</ele>
        <time>2013-06-23T09:11:35Z</time>
      </trkpt>
      <trkpt lat="45.41499" lon="5.68787">
        <ele>589.7</ele>
        <time>2013-06-23T09:11:37Z</time>
      </trkpt>
      <trkpt lat="45.41494" lon="5.68794">
        <ele>590.2</ele>
        <time>2013-06-23T09:11:39Z</time>
      </trkpt>
      <trkpt lat="45.4149" lon="5.688">
        <ele>590.4</ele>
        <time>2013-06-23T09:11:41Z</time>
      </trkpt>
      <trkpt lat="45.41484" lon="5.68809">
        <ele>590.3</ele>
        <time>2013-06-23T09:11:44Z</time>
      </trkpt>
      <trkpt lat="45.4148" lon="5.68816">
        <ele>590.1</ele>
        <time>2013-06-23T09:11:46Z</time>
      </trkpt>
      <trkpt lat="45.41476" lon="5.68824">
        <ele>591.2</ele>
        <time>2013-06-23T09:11:48Z</time>
      </trkpt>
      <trkpt lat="45.41472" lon="5.68832">
        <ele>591.4</ele>
        <time>2013-06-23T09:11:50Z</time>
      </trkpt>
      <trkpt lat="45.41469" lon="5.6884">
        <ele>591.1</ele>
        <time>2013-06-23T09:11:52Z</time>
      </trkpt>
      <trkpt lat="45.41465" lon="5.68848">
        <ele>591.4</ele>
        <time>2013-06-23T09:11:54Z</time>
      </trkpt>
      <trkpt lat="45.41461" lon="5.68857">
        <ele>591.7</ele>
        <time>2013-06-23T09:11:56Z</time>
      </trkpt>
      <trkpt lat="45.41457" lon="5.68865">
        <ele>591.9</ele>
        <time>2013-06-23T09:11:58Z</time>
      </trkpt>
      <trkpt lat="45.41454" lon="5.68874">
        <ele>591.7</ele>
        <time>2013-06-23T09:12:00Z</time>
      </trkpt>
      <trkpt lat="45.41451" lon="5.68883">
        <ele>591.3</ele>
        <time>2013-06-23T09:12:02Z</time>
      </trkpt>
      <trkpt lat="45.41447" lon="5.68892">
        <ele>591.7</ele>
        <time>2013-06-23T09:12:04Z</time>
      </trkpt>
      <trkpt lat="45.41443" lon="5.68901">
        <ele>592.4</ele>
        <time>2013-06-23T09:12:06Z</time>
      </trkpt>
      <trkpt lat="45.41439" lon="5.6891">
        <ele>593.1</ele>
        <time>2013-06-23T09:12:08Z</time>
      </trkpt>
      <trkpt lat="45.41435" lon="5.68918">
        <ele>593.1</ele>
        <time>2013-06-23T09:12:10Z</time>
      </trkpt>
      <trkpt lat="45.41431" lon="5.68927">
        <ele>593.3</ele>
        <time>2013-06-23T09:12:12Z</time>
      </trkpt>
      <trkpt lat="45.41427" lon="5.68935">
        <ele>593.6</ele>
        <time>2013-06-23T09:12:14Z</time>
      </trkpt>
      <trkpt lat="45.41422" lon="5.68945">
        <ele>593.6</ele>
        <time>2013-06-23T09:12:16Z</time>
      </trkpt>
      <trkpt lat="45.41418" lon="5.68956">
        <ele>593.5</ele>
        <time>2013-06-23T09:12:18Z</time>
      </trkpt>
      <trkpt lat="45.41416" lon="5.68962">
        <ele>593.3</ele>
        <time>2013-06-23T09:12:19Z</time>
      </trkpt>
      <trkpt lat="45.41414" lon="5.68968">
        <ele>593.1</ele>
        <time>2013-06-23T09:12:20Z</time>
      </trkpt>
      <trkpt lat="45.41413" lon="5.68974">
        <ele>593</ele>
        <time>2013-06-23T09:12:21Z</time>
      </trkpt>
      <trkpt lat="45.41411" lon="5.6898">
        <ele>592.7</ele>
        <time>2013-06-23T09:12:22Z</time>
      </trkpt>
      <trkpt lat="45.41409" lon="5.68987">
        <ele>592.4</ele>
        <time>2013-06-23T09:12:23Z</time>
      </trkpt>
      <trkpt lat="45.41407" lon="5.68993">
        <ele>592.3</ele>
        <time>2013-06-23T09:12:24Z</time>
      </trkpt>
      <trkpt lat="45.41405" lon="5.68999">
        <ele>592.8</ele>
        <time>2013-06-23T09:12:25Z</time>
      </trkpt>
      <trkpt lat="45.41404" lon="5.69006">
        <ele>593.2</ele>
        <time>2013-06-23T09:12:26Z</time>
      </trkpt>
      <trkpt lat="45.41402" lon="5.69012">
        <ele>593.5</ele>
        <time>2013-06-23T09:12:27Z</time>
      </trkpt>
      <trkpt lat="45.414" lon="5.69019">
        <ele>593.1</ele>
        <time>2013-06-23T09:12:28Z</time>
      </trkpt>
      <trkpt lat="45.41398" lon="5.69025">
        <ele>592.9</ele>
        <time>2013-06-23T09:12:29Z</time>
      </trkpt>
      <trkpt lat="45.41397" lon="5.69031">
        <ele>592.7</ele>
        <time>2013-06-23T09:12:30Z</time>
      </trkpt>
      <trkpt lat="45.41394" lon="5.69043">
        <ele>592.3</ele>
        <time>2013-06-23T09:12:32Z</time>
      </trkpt>
      <trkpt lat="45.41393" lon="5.69049">
        <ele>592.2</ele>
        <time>2013-06-23T09:12:33Z</time>
      </trkpt>
      <trkpt lat="45.41389" lon="5.69064">
        <ele>592.5</ele>
        <time>2013-06-23T09:12:36Z</time>
      </trkpt>
      <trkpt lat="45.41385" lon="5.69074">
        <ele>592.3</ele>
        <time>2013-06-23T09:12:38Z</time>
      </trkpt>
      <trkpt lat="45.41383" lon="5.69085">
        <ele>591.9</ele>
        <time>2013-06-23T09:12:40Z</time>
      </trkpt>
      <trkpt lat="45.4138" lon="5.69096">
        <ele>591.4</ele>
        <time>2013-06-23T09:12:42Z</time>
      </trkpt>
      <trkpt lat="45.41378" lon="5.69106">
        <ele>591.7</ele>
        <time>2013-06-23T09:12:44Z</time>
      </trkpt>
      <trkpt lat="45.41377" lon="5.69115">
        <ele>592.2</ele>
        <time>2013-06-23T09:12:46Z</time>
      </trkpt>
      <trkpt lat="45.41375" lon="5.69128">
        <ele>592</ele>
        <time>2013-06-23T09:12:49Z</time>
      </trkpt>
      <trkpt lat="45.4138" lon="5.69134">
        <ele>592.7</ele>
        <time>2013-06-23T09:12:52Z</time>
      </trkpt>
      <trkpt lat="45.41387" lon="5.69139">
        <ele>592.8</ele>
        <time>2013-06-23T09:12:55Z</time>
      </trkpt>
      <trkpt lat="45.41394" lon="5.69142">
        <ele>593</ele>
        <time>2013-06-23T09:12:58Z</time>
      </trkpt>
      <trkpt lat="45.41401" lon="5.69145">
        <ele>592.7</ele>
        <time>2013-06-23T09:13:01Z</time>
      </trkpt>
      <trkpt lat="45.41407" lon="5.69148">
        <ele>593.2</ele>
        <time>2013-06-23T09:13:04Z</time>
      </trkpt>
      <trkpt lat="45.41414" lon="5.6915">
        <ele>593.8</ele>
        <time>2013-06-23T09:13:07Z</time>
      </trkpt>
      <trkpt lat="45.41422" lon="5.69153">
        <ele>594</ele>
        <time>2013-06-23T09:13:11Z</time>
      </trkpt>
      <trkpt lat="45.4143" lon="5.69155">
        <ele>593.5</ele>
        <time>2013-06-23T09:13:15Z</time>
      </trkpt>
      <trkpt lat="45.41438" lon="5.69157">
        <ele>595.1</ele>
        <time>2013-06-23T09:13:20Z</time>
      </trkpt>
      <trkpt lat="45.41444" lon="5.69165">
        <ele>595.7</ele>
        <time>2013-06-23T09:13:24Z</time>
      </trkpt>
      <trkpt lat="45.4145" lon="5.6917">
        <ele>595.5</ele>
        <time>2013-06-23T09:13:28Z</time>
      </trkpt>
      <trkpt lat="45.41458" lon="5.69174">
        <ele>596.3</ele>
        <time>2013-06-23T09:13:32Z</time>
      </trkpt>
      <trkpt lat="45.41464" lon="5.69179">
        <ele>596.9</ele>
        <time>2013-06-23T09:13:35Z</time>
      </trkpt>
      <trkpt lat="45.41466" lon="5.69181">
        <ele>597.3</ele>
        <time>2013-06-23T09:13:36Z</time>
      </trkpt>
      <trkpt lat="45.41477" lon="5.6919">
        <ele>597.8</ele>
        <time>2013-06-23T09:13:41Z</time>
      </trkpt>
      <trkpt lat="45.41484" lon="5.69194">
        <ele>598.2</ele>
        <time>2013-06-23T09:13:44Z</time>
      </trkpt>
      <trkpt lat="45.4149" lon="5.69196">
        <ele>597.2</ele>
        <time>2013-06-23T09:13:47Z</time>
      </trkpt>
      <trkpt lat="45.41499" lon="5.69198">
        <ele>598.9</ele>
        <time>2013-06-23T09:13:51Z</time>
      </trkpt>
      <trkpt lat="45.41507" lon="5.69195">
        <ele>599.7</ele>
        <time>2013-06-23T09:13:55Z</time>
      </trkpt>
      <trkpt lat="45.41514" lon="5.69192">
        <ele>606.8</ele>
        <time>2013-06-23T09:15:36Z</time>
      </trkpt>
      <trkpt lat="45.41518" lon="5.69192">
        <ele>606.8</ele>
        <time>2013-06-23T09:15:37Z</time>
      </trkpt>
      <trkpt lat="45.4153" lon="5.69191">
        <ele>607</ele>
        <time>2013-06-23T09:15:40Z</time>
      </trkpt>
      <trkpt lat="45.41536" lon="5.6919">
        <ele>607.2</ele>
        <time>2013-06-23T09:15:42Z</time>
      </trkpt>
      <trkpt lat="45.41543" lon="5.69191">
        <ele>610</ele>
        <time>2013-06-23T09:15:50Z</time>
      </trkpt>
      <trkpt lat="45.41552" lon="5.69192">
        <ele>611</ele>
        <time>2013-06-23T09:16:10Z</time>
      </trkpt>
      <trkpt lat="45.4156" lon="5.69193">
        <ele>611</ele>
        <time>2013-06-23T09:16:12Z</time>
      </trkpt>
      <trkpt lat="45.41567" lon="5.69193">
        <ele>611</ele>
        <time>2013-06-23T09:16:14Z</time>
      </trkpt>
      <trkpt lat="45.41573" lon="5.69192">
        <ele>615.2</ele>
        <time>2013-06-23T09:16:30Z</time>
      </trkpt>
      <trkpt lat="45.41579" lon="5.69192">
        <ele>615.4</ele>
        <time>2013-06-23T09:16:32Z</time>
      </trkpt>
      <trkpt lat="45.41586" lon="5.69191">
        <ele>616.4</ele>
        <time>2013-06-23T09:16:42Z</time>
      </trkpt>
      <trkpt lat="45.41589" lon="5.69191">
        <ele>616.5</ele>
        <time>2013-06-23T09:16:43Z</time>
      </trkpt>
      <trkpt lat="45.41599" lon="5.69191">
        <ele>618.8</ele>
        <time>2013-06-23T09:16:59Z</time>
      </trkpt>
      <trkpt lat="45.41608" lon="5.69193">
        <ele>618.2</ele>
        <time>2013-06-23T09:17:02Z</time>
      </trkpt>
      <trkpt lat="45.41614" lon="5.69192">
        <ele>622.6</ele>
        <time>2013-06-23T09:17:19Z</time>
      </trkpt>
      <trkpt lat="45.41622" lon="5.69189">
        <ele>624.6</ele>
        <time>2013-06-23T09:17:39Z</time>
      </trkpt>
      <trkpt lat="45.41629" lon="5.69183">
        <ele>625.4</ele>
        <time>2013-06-23T09:17:41Z</time>
      </trkpt>
      <trkpt lat="45.41635" lon="5.69178">
        <ele>625.6</ele>
        <time>2013-06-23T09:17:46Z</time>
      </trkpt>
      <trkpt lat="45.41638" lon="5.69175">
        <ele>625.4</ele>
        <time>2013-06-23T09:17:47Z</time>
      </trkpt>
      <trkpt lat="45.41645" lon="5.69165">
        <ele>626</ele>
        <time>2013-06-23T09:17:50Z</time>
      </trkpt>
      <trkpt lat="45.4165" lon="5.69159">
        <ele>626.4</ele>
        <time>2013-06-23T09:17:52Z</time>
      </trkpt>
      <trkpt lat="45.41656" lon="5.6915">
        <ele>626.2</ele>
        <time>2013-06-23T09:17:55Z</time>
      </trkpt>
      <trkpt lat="45.41661" lon="5.69141">
        <ele>626.5</ele>
        <time>2013-06-23T09:17:58Z</time>
      </trkpt>
      <trkpt lat="45.41665" lon="5.69132">
        <ele>627.1</ele>
        <time>2013-06-23T09:18:01Z</time>
      </trkpt>
      <trkpt lat="45.41669" lon="5.69121">
        <ele>627.4</ele>
        <time>2013-06-23T09:18:05Z</time>
      </trkpt>
      <trkpt lat="45.41671" lon="5.6911">
        <ele>627.5</ele>
        <time>2013-06-23T09:18:09Z</time>
      </trkpt>
      <trkpt lat="45.41671" lon="5.69098">
        <ele>629.8</ele>
        <time>2013-06-23T09:18:14Z</time>
      </trkpt>
      <trkpt lat="45.41665" lon="5.69091">
        <ele>630.2</ele>
        <time>2013-06-23T09:18:19Z</time>
      </trkpt>
      <trkpt lat="45.41658" lon="5.69088">
        <ele>629.8</ele>
        <time>2013-06-23T09:18:23Z</time>
      </trkpt>
      <trkpt lat="45.41651" lon="5.69085">
        <ele>630.8</ele>
        <time>2013-06-23T09:18:27Z</time>
      </trkpt>
      <trkpt lat="45.41642" lon="5.69085">
        <ele>630.6</ele>
        <time>2013-06-23T09:18:32Z</time>
      </trkpt>
      <trkpt lat="45.41635" lon="5.69085">
        <ele>631.2</ele>
        <time>2013-06-23T09:18:36Z</time>
      </trkpt>
      <trkpt lat="45.41627" lon="5.69083">
        <ele>632.3</ele>
        <time>2013-06-23T09:18:41Z</time>
      </trkpt>
      <trkpt lat="45.41619" lon="5.69082">
        <ele>633.1</ele>
        <time>2013-06-23T09:18:46Z</time>
      </trkpt>
      <trkpt lat="45.41612" lon="5.69079">
        <ele>634.3</ele>
        <time>2013-06-23T09:18:51Z</time>
      </trkpt>
      <trkpt lat="45.4161" lon="5.69079">
        <ele>634.5</ele>
        <time>2013-06-23T09:18:52Z</time>
      </trkpt>
      <trkpt lat="45.41596" lon="5.69077">
        <ele>636.4</ele>
        <time>2013-06-23T09:19:00Z</time>
      </trkpt>
      <trkpt lat="45.41588" lon="5.69075">
        <ele>637</ele>
        <time>2013-06-23T09:19:04Z</time>
      </trkpt>
      <trkpt lat="45.4158" lon="5.69073">
        <ele>636.5</ele>
        <time>2013-06-23T09:19:07Z</time>
      </trkpt>
      <trkpt lat="45.41573" lon="5.69074">
        <ele>635.7</ele>
        <time>2013-06-23T09:19:09Z</time>
      </trkpt>
      <trkpt lat="45.41564" lon="5.69073">
        <ele>634.3</ele>
        <time>2013-06-23T09:19:11Z</time>
      </trkpt>
      <trkpt lat="45.41559" lon="5.69072">
        <ele>633.5</ele>
        <time>2013-06-23T09:19:12Z</time>
      </trkpt>
      <trkpt lat="45.41551" lon="5.69069">
        <ele>631.7</ele>
        <time>2013-06-23T09:19:14Z</time>
      </trkpt>
      <trkpt lat="45.41546" lon="5.69069">
        <ele>630.8</ele>
        <time>2013-06-23T09:19:15Z</time>
      </trkpt>
      <trkpt lat="45.41539" lon="5.69065">
        <ele>629.3</ele>
        <time>2013-06-23T09:19:17Z</time>
      </trkpt>
      <trkpt lat="45.41532" lon="5.69057">
        <ele>627.7</ele>
        <time>2013-06-23T09:19:20Z</time>
      </trkpt>
      <trkpt lat="45.4153" lon="5.6905">
        <ele>627.2</ele>
        <time>2013-06-23T09:19:22Z</time>
      </trkpt>
      <trkpt lat="45.41527" lon="5.6904">
        <ele>626.9</ele>
        <time>2013-06-23T09:19:24Z</time>
      </trkpt>
      <trkpt lat="45.41527" lon="5.6903">
        <ele>625.9</ele>
        <time>2013-06-23T09:19:27Z</time>
      </trkpt>
      <trkpt lat="45.4153" lon="5.6902">
        <ele>631.4</ele>
        <time>2013-06-23T09:20:19Z</time>
      </trkpt>
      <trkpt lat="45.41533" lon="5.69018">
        <ele>631.6</ele>
        <time>2013-06-23T09:20:20Z</time>
      </trkpt>
      <trkpt lat="45.41543" lon="5.69017">
        <ele>632.1</ele>
        <time>2013-06-23T09:20:29Z</time>
      </trkpt>
      <trkpt lat="45.4155" lon="5.69016">
        <ele>632.9</ele>
        <time>2013-06-23T09:20:31Z</time>
      </trkpt>
      <trkpt lat="45.41556" lon="5.69017">
        <ele>633.3</ele>
        <time>2013-06-23T09:20:33Z</time>
      </trkpt>
      <trkpt lat="45.41565" lon="5.69018">
        <ele>633.3</ele>
        <time>2013-06-23T09:20:36Z</time>
      </trkpt>
      <trkpt lat="45.41572" lon="5.69019">
        <ele>633.6</ele>
        <time>2013-06-23T09:20:39Z</time>
      </trkpt>
      <trkpt lat="45.41579" lon="5.6902">
        <ele>634.1</ele>
        <time>2013-06-23T09:20:43Z</time>
      </trkpt>
      <trkpt lat="45.41587" lon="5.69021">
        <ele>634.4</ele>
        <time>2013-06-23T09:20:45Z</time>
      </trkpt>
      <trkpt lat="45.41595" lon="5.69023">
        <ele>633.5</ele>
        <time>2013-06-23T09:20:47Z</time>
      </trkpt>
      <trkpt lat="45.41603" lon="5.69023">
        <ele>632.9</ele>
        <time>2013-06-23T09:20:49Z</time>
      </trkpt>
      <trkpt lat="45.41609" lon="5.69019">
        <ele>632.9</ele>
        <time>2013-06-23T09:20:51Z</time>
      </trkpt>
      <trkpt lat="45.41614" lon="5.6901">
        <ele>632.6</ele>
        <time>2013-06-23T09:20:54Z</time>
      </trkpt>
      <trkpt lat="45.41619" lon="5.69002">
        <ele>632.1</ele>
        <time>2013-06-23T09:20:58Z</time>
      </trkpt>
      <trkpt lat="45.41623" lon="5.68993">
        <ele>632</ele>
        <time>2013-06-23T09:21:02Z</time>
      </trkpt>
      <trkpt lat="45.41626" lon="5.68982">
        <ele>634.5</ele>
        <time>2013-06-23T09:21:17Z</time>
      </trkpt>
      <trkpt lat="45.41628" lon="5.68972">
        <ele>635</ele>
        <time>2013-06-23T09:21:24Z</time>
      </trkpt>
      <trkpt lat="45.41629" lon="5.68969">
        <ele>635.1</ele>
        <time>2013-06-23T09:21:25Z</time>
      </trkpt>
      <trkpt lat="45.41633" lon="5.68949">
        <ele>633.8</ele>
        <time>2013-06-23T09:21:33Z</time>
      </trkpt>
      <trkpt lat="45.41625" lon="5.68945">
        <ele>631.9</ele>
        <time>2013-06-23T09:21:37Z</time>
      </trkpt>
      <trkpt lat="45.41617" lon="5.68941">
        <ele>629</ele>
        <time>2013-06-23T09:21:41Z</time>
      </trkpt>
      <trkpt lat="45.4161" lon="5.68934">
        <ele>624.8</ele>
        <time>2013-06-23T09:21:45Z</time>
      </trkpt>
      <trkpt lat="45.41606" lon="5.68924">
        <ele>620.1</ele>
        <time>2013-06-23T09:21:49Z</time>
      </trkpt>
      <trkpt lat="45.41601" lon="5.68919">
        <ele>617.6</ele>
        <time>2013-06-23T09:21:51Z</time>
      </trkpt>
      <trkpt lat="45.41596" lon="5.68913">
        <ele>615.1</ele>
        <time>2013-06-23T09:21:53Z</time>
      </trkpt>
      <trkpt lat="45.41592" lon="5.68909">
        <ele>613.7</ele>
        <time>2013-06-23T09:21:54Z</time>
      </trkpt>
      <trkpt lat="45.41585" lon="5.68901">
        <ele>612</ele>
        <time>2013-06-23T09:21:56Z</time>
      </trkpt>
      <trkpt lat="45.4158" lon="5.68893">
        <ele>610.5</ele>
        <time>2013-06-23T09:21:58Z</time>
      </trkpt>
      <trkpt lat="45.41574" lon="5.68887">
        <ele>609.1</ele>
        <time>2013-06-23T09:22:00Z</time>
      </trkpt>
      <trkpt lat="45.41571" lon="5.68883">
        <ele>608.4</ele>
        <time>2013-06-23T09:22:01Z</time>
      </trkpt>
      <trkpt lat="45.41566" lon="5.68879">
        <ele>607.9</ele>
        <time>2013-06-23T09:22:02Z</time>
      </trkpt>
      <trkpt lat="45.41561" lon="5.68872">
        <ele>606.2</ele>
        <time>2013-06-23T09:22:04Z</time>
      </trkpt>
      <trkpt lat="45.41565" lon="5.68862">
        <ele>603.3</ele>
        <time>2013-06-23T09:22:09Z</time>
      </trkpt>
      <trkpt lat="45.41571" lon="5.68853">
        <ele>602.5</ele>
        <time>2013-06-23T09:22:13Z</time>
      </trkpt>
      <trkpt lat="45.41575" lon="5.68843">
        <ele>602.1</ele>
        <time>2013-06-23T09:22:17Z</time>
      </trkpt>
      <trkpt lat="45.4158" lon="5.68833">
        <ele>602.3</ele>
        <time>2013-06-23T09:22:20Z</time>
      </trkpt>
      <trkpt lat="45.41584" lon="5.68826">
        <ele>602.4</ele>
        <time>2013-06-23T09:22:22Z</time>
      </trkpt>
      <trkpt lat="45.41589" lon="5.68821">
        <ele>602.5</ele>
        <time>2013-06-23T09:22:24Z</time>
      </trkpt>
      <trkpt lat="45.41597" lon="5.68815">
        <ele>602.6</ele>
        <time>2013-06-23T09:22:27Z</time>
      </trkpt>
      <trkpt lat="45.41599" lon="5.68813">
        <ele>602.6</ele>
        <time>2013-06-23T09:22:28Z</time>
      </trkpt>
      <trkpt lat="45.41609" lon="5.68808">
        <ele>602.7</ele>
        <time>2013-06-23T09:22:33Z</time>
      </trkpt>
      <trkpt lat="45.41616" lon="5.68805">
        <ele>603.1</ele>
        <time>2013-06-23T09:22:36Z</time>
      </trkpt>
      <trkpt lat="45.41623" lon="5.68802">
        <ele>603.4</ele>
        <time>2013-06-23T09:22:39Z</time>
      </trkpt>
      <trkpt lat="45.41631" lon="5.688">
        <ele>603.3</ele>
        <time>2013-06-23T09:22:42Z</time>
      </trkpt>
      <trkpt lat="45.41639" lon="5.688">
        <ele>603.4</ele>
        <time>2013-06-23T09:22:45Z</time>
      </trkpt>
      <trkpt lat="45.41648" lon="5.68798">
        <ele>603.9</ele>
        <time>2013-06-23T09:22:49Z</time>
      </trkpt>
      <trkpt lat="45.41655" lon="5.688">
        <ele>607.7</ele>
        <time>2013-06-23T09:23:02Z</time>
      </trkpt>
      <trkpt lat="45.41662" lon="5.68808">
        <ele>608.8</ele>
        <time>2013-06-23T09:23:06Z</time>
      </trkpt>
      <trkpt lat="45.41668" lon="5.68813">
        <ele>610.7</ele>
        <time>2013-06-23T09:23:26Z</time>
      </trkpt>
      <trkpt lat="45.41675" lon="5.68818">
        <ele>610.4</ele>
        <time>2013-06-23T09:23:28Z</time>
      </trkpt>
      <trkpt lat="45.41678" lon="5.68821">
        <ele>610.6</ele>
        <time>2013-06-23T09:23:29Z</time>
      </trkpt>
      <trkpt lat="45.41687" lon="5.6883">
        <ele>613.7</ele>
        <time>2013-06-23T09:23:38Z</time>
      </trkpt>
      <trkpt lat="45.41692" lon="5.68836">
        <ele>617.8</ele>
        <time>2013-06-23T09:23:59Z</time>
      </trkpt>
      <trkpt lat="45.41698" lon="5.68841">
        <ele>617.6</ele>
        <time>2013-06-23T09:24:01Z</time>
      </trkpt>
      <trkpt lat="45.41705" lon="5.68848">
        <ele>620.4</ele>
        <time>2013-06-23T09:24:17Z</time>
      </trkpt>
      <trkpt lat="45.41712" lon="5.68855">
        <ele>623</ele>
        <time>2013-06-23T09:24:36Z</time>
      </trkpt>
      <trkpt lat="45.41714" lon="5.68858">
        <ele>623.3</ele>
        <time>2013-06-23T09:24:37Z</time>
      </trkpt>
      <trkpt lat="45.41723" lon="5.68868">
        <ele>623.6</ele>
        <time>2013-06-23T09:24:50Z</time>
      </trkpt>
      <trkpt lat="45.41727" lon="5.68874">
        <ele>623.8</ele>
        <time>2013-06-23T09:24:52Z</time>
      </trkpt>
      <trkpt lat="45.41732" lon="5.6888">
        <ele>625.3</ele>
        <time>2013-06-23T09:25:03Z</time>
      </trkpt>
      <trkpt lat="45.4174" lon="5.68887">
        <ele>629.1</ele>
        <time>2013-06-23T09:25:18Z</time>
      </trkpt>
      <trkpt lat="45.41745" lon="5.68892">
        <ele>630.3</ele>
        <time>2013-06-23T09:25:20Z</time>
      </trkpt>
      <trkpt lat="45.4175" lon="5.68896">
        <ele>631.3</ele>
        <time>2013-06-23T09:25:29Z</time>
      </trkpt>
      <trkpt lat="45.41757" lon="5.68902">
        <ele>631.3</ele>
        <time>2013-06-23T09:25:31Z</time>
      </trkpt>
      <trkpt lat="45.41762" lon="5.68907">
        <ele>632</ele>
        <time>2013-06-23T09:25:38Z</time>
      </trkpt>
      <trkpt lat="45.41765" lon="5.68909">
        <ele>632.4</ele>
        <time>2013-06-23T09:25:39Z</time>
      </trkpt>
      <trkpt lat="45.41773" lon="5.68915">
        <ele>632.2</ele>
        <time>2013-06-23T09:25:51Z</time>
      </trkpt>
      <trkpt lat="45.41779" lon="5.6892">
        <ele>632.6</ele>
        <time>2013-06-23T09:25:53Z</time>
      </trkpt>
      <trkpt lat="45.41785" lon="5.68924">
        <ele>635.4</ele>
        <time>2013-06-23T09:26:01Z</time>
      </trkpt>
      <trkpt lat="45.41792" lon="5.68928">
        <ele>635.7</ele>
        <time>2013-06-23T09:26:03Z</time>
      </trkpt>
      <trkpt lat="45.41798" lon="5.68932">
        <ele>636.5</ele>
        <time>2013-06-23T09:26:08Z</time>
      </trkpt>
      <trkpt lat="45.41805" lon="5.68933">
        <ele>635.8</ele>
        <time>2013-06-23T09:26:10Z</time>
      </trkpt>
      <trkpt lat="45.41813" lon="5.68935">
        <ele>639.3</ele>
        <time>2013-06-23T09:26:23Z</time>
      </trkpt>
      <trkpt lat="45.4182" lon="5.68935">
        <ele>639.6</ele>
        <time>2013-06-23T09:26:25Z</time>
      </trkpt>
      <trkpt lat="45.41829" lon="5.68937">
        <ele>641</ele>
        <time>2013-06-23T09:26:35Z</time>
      </trkpt>
      <trkpt lat="45.41835" lon="5.68939">
        <ele>641</ele>
        <time>2013-06-23T09:26:37Z</time>
      </trkpt>
      <trkpt lat="45.41844" lon="5.68943">
        <ele>643.7</ele>
        <time>2013-06-23T09:26:52Z</time>
      </trkpt>
      <trkpt lat="45.41847" lon="5.68945">
        <ele>643.6</ele>
        <time>2013-06-23T09:26:53Z</time>
      </trkpt>
      <trkpt lat="45.41858" lon="5.68955">
        <ele>652.3</ele>
        <time>2013-06-23T09:28:15Z</time>
      </trkpt>
      <trkpt lat="45.4186" lon="5.68957">
        <ele>652.1</ele>
        <time>2013-06-23T09:28:16Z</time>
      </trkpt>
      <trkpt lat="45.41863" lon="5.68974">
        <ele>652.1</ele>
        <time>2013-06-23T09:28:57Z</time>
      </trkpt>
      <trkpt lat="45.41861" lon="5.68984">
        <ele>653.7</ele>
        <time>2013-06-23T09:29:01Z</time>
      </trkpt>
      <trkpt lat="45.41856" lon="5.68993">
        <ele>652.7</ele>
        <time>2013-06-23T09:29:07Z</time>
      </trkpt>
      <trkpt lat="45.41849" lon="5.69">
        <ele>654.5</ele>
        <time>2013-06-23T09:29:12Z</time>
      </trkpt>
      <trkpt lat="45.41843" lon="5.69002">
        <ele>654.8</ele>
        <time>2013-06-23T09:29:14Z</time>
      </trkpt>
      <trkpt lat="45.41839" lon="5.69006">
        <ele>655</ele>
        <time>2013-06-23T09:29:15Z</time>
      </trkpt>
      <trkpt lat="45.41835" lon="5.6901">
        <ele>655.1</ele>
        <time>2013-06-23T09:29:16Z</time>
      </trkpt>
      <trkpt lat="45.41831" lon="5.69013">
        <ele>654.3</ele>
        <time>2013-06-23T09:29:17Z</time>
      </trkpt>
      <trkpt lat="45.41828" lon="5.69028">
        <ele>653.8</ele>
        <time>2013-06-23T09:29:35Z</time>
      </trkpt>
      <trkpt lat="45.41832" lon="5.69035">
        <ele>656.7</ele>
        <time>2013-06-23T09:29:45Z</time>
      </trkpt>
      <trkpt lat="45.41837" lon="5.69042">
        <ele>657</ele>
        <time>2013-06-23T09:29:47Z</time>
      </trkpt>
      <trkpt lat="45.41841" lon="5.6905">
        <ele>657.7</ele>
        <time>2013-06-23T09:29:50Z</time>
      </trkpt>
      <trkpt lat="45.41845" lon="5.69057">
        <ele>661.1</ele>
        <time>2013-06-23T09:30:08Z</time>
      </trkpt>
      <trkpt lat="45.41849" lon="5.69066">
        <ele>661.5</ele>
        <time>2013-06-23T09:30:10Z</time>
      </trkpt>
      <trkpt lat="45.41854" lon="5.69075">
        <ele>662.7</ele>
        <time>2013-06-23T09:30:18Z</time>
      </trkpt>
      <trkpt lat="45.41856" lon="5.69079">
        <ele>662.6</ele>
        <time>2013-06-23T09:30:19Z</time>
      </trkpt>
      <trkpt lat="45.41863" lon="5.6909">
        <ele>665.4</ele>
        <time>2013-06-23T09:30:30Z</time>
      </trkpt>
      <trkpt lat="45.41867" lon="5.69099">
        <ele>666.2</ele>
        <time>2013-06-23T09:30:32Z</time>
      </trkpt>
      <trkpt lat="45.41872" lon="5.69105">
        <ele>667.6</ele>
        <time>2013-06-23T09:30:42Z</time>
      </trkpt>
      <trkpt lat="45.41876" lon="5.69114">
        <ele>668.1</ele>
        <time>2013-06-23T09:30:44Z</time>
      </trkpt>
      <trkpt lat="45.4188" lon="5.69122">
        <ele>669.1</ele>
        <time>2013-06-23T09:30:52Z</time>
      </trkpt>
      <trkpt lat="45.41883" lon="5.69131">
        <ele>670.3</ele>
        <time>2013-06-23T09:30:54Z</time>
      </trkpt>
      <trkpt lat="45.41887" lon="5.69139">
        <ele>674.6</ele>
        <time>2013-06-23T09:31:07Z</time>
      </trkpt>
      <trkpt lat="45.4189" lon="5.69148">
        <ele>675</ele>
        <time>2013-06-23T09:31:09Z</time>
      </trkpt>
      <trkpt lat="45.41892" lon="5.69155">
        <ele>677.7</ele>
        <time>2013-06-23T09:31:20Z</time>
      </trkpt>
      <trkpt lat="45.41894" lon="5.69159">
        <ele>678</ele>
        <time>2013-06-23T09:31:21Z</time>
      </trkpt>
      <trkpt lat="45.41898" lon="5.69176">
        <ele>678.7</ele>
        <time>2013-06-23T09:31:26Z</time>
      </trkpt>
      <trkpt lat="45.41899" lon="5.69188">
        <ele>678.8</ele>
        <time>2013-06-23T09:31:28Z</time>
      </trkpt>
      <trkpt lat="45.41899" lon="5.69195">
        <ele>678.7</ele>
        <time>2013-06-23T09:31:29Z</time>
      </trkpt>
      <trkpt lat="45.41899" lon="5.69203">
        <ele>678.7</ele>
        <time>2013-06-23T09:31:30Z</time>
      </trkpt>
      <trkpt lat="45.41899" lon="5.69215">
        <ele>677.8</ele>
        <time>2013-06-23T09:31:32Z</time>
      </trkpt>
      <trkpt lat="45.41904" lon="5.69225">
        <ele>679.5</ele>
        <time>2013-06-23T09:32:13Z</time>
      </trkpt>
      <trkpt lat="45.41911" lon="5.69223">
        <ele>679.7</ele>
        <time>2013-06-23T09:32:15Z</time>
      </trkpt>
      <trkpt lat="45.41918" lon="5.69221">
        <ele>680.7</ele>
        <time>2013-06-23T09:32:17Z</time>
      </trkpt>
      <trkpt lat="45.41923" lon="5.69219">
        <ele>682.2</ele>
        <time>2013-06-23T09:32:30Z</time>
      </trkpt>
      <trkpt lat="45.41926" lon="5.69217">
        <ele>682.4</ele>
        <time>2013-06-23T09:32:31Z</time>
      </trkpt>
      <trkpt lat="45.41936" lon="5.69211">
        <ele>684.6</ele>
        <time>2013-06-23T09:32:42Z</time>
      </trkpt>
      <trkpt lat="45.41942" lon="5.69206">
        <ele>684.4</ele>
        <time>2013-06-23T09:32:44Z</time>
      </trkpt>
      <trkpt lat="45.41946" lon="5.692">
        <ele>683.5</ele>
        <time>2013-06-23T09:32:51Z</time>
      </trkpt>
      <trkpt lat="45.4195" lon="5.69192">
        <ele>682.6</ele>
        <time>2013-06-23T09:32:53Z</time>
      </trkpt>
      <trkpt lat="45.41952" lon="5.69181">
        <ele>680.6</ele>
        <time>2013-06-23T09:32:56Z</time>
      </trkpt>
      <trkpt lat="45.41954" lon="5.69169">
        <ele>679.1</ele>
        <time>2013-06-23T09:32:59Z</time>
      </trkpt>
      <trkpt lat="45.41956" lon="5.6916">
        <ele>678.3</ele>
        <time>2013-06-23T09:33:01Z</time>
      </trkpt>
      <trkpt lat="45.41957" lon="5.69148">
        <ele>677.7</ele>
        <time>2013-06-23T09:33:04Z</time>
      </trkpt>
      <trkpt lat="45.41956" lon="5.69137">
        <ele>677.3</ele>
        <time>2013-06-23T09:33:08Z</time>
      </trkpt>
      <trkpt lat="45.41953" lon="5.69126">
        <ele>676.8</ele>
        <time>2013-06-23T09:33:17Z</time>
      </trkpt>
      <trkpt lat="45.41953" lon="5.69116">
        <ele>676.9</ele>
        <time>2013-06-23T09:33:19Z</time>
      </trkpt>
      <trkpt lat="45.41953" lon="5.69104">
        <ele>676.5</ele>
        <time>2013-06-23T09:33:22Z</time>
      </trkpt>
      <trkpt lat="45.41953" lon="5.69095">
        <ele>675.6</ele>
        <time>2013-06-23T09:33:24Z</time>
      </trkpt>
      <trkpt lat="45.41954" lon="5.69087">
        <ele>675.2</ele>
        <time>2013-06-23T09:33:26Z</time>
      </trkpt>
      <trkpt lat="45.41954" lon="5.69076">
        <ele>675</ele>
        <time>2013-06-23T09:33:28Z</time>
      </trkpt>
      <trkpt lat="45.41952" lon="5.69065">
        <ele>674</ele>
        <time>2013-06-23T09:33:30Z</time>
      </trkpt>
      <trkpt lat="45.41948" lon="5.69056">
        <ele>672.9</ele>
        <time>2013-06-23T09:33:33Z</time>
      </trkpt>
      <trkpt lat="45.41945" lon="5.69054">
        <ele>672.4</ele>
        <time>2013-06-23T09:33:34Z</time>
      </trkpt>
      <trkpt lat="45.41933" lon="5.69046">
        <ele>670.2</ele>
        <time>2013-06-23T09:33:39Z</time>
      </trkpt>
      <trkpt lat="45.41929" lon="5.69037">
        <ele>666.8</ele>
        <time>2013-06-23T09:33:43Z</time>
      </trkpt>
      <trkpt lat="45.41926" lon="5.6903">
        <ele>664.1</ele>
        <time>2013-06-23T09:33:45Z</time>
      </trkpt>
      <trkpt lat="45.41921" lon="5.69021">
        <ele>661.5</ele>
        <time>2013-06-23T09:33:47Z</time>
      </trkpt>
      <trkpt lat="45.41917" lon="5.69012">
        <ele>659.4</ele>
        <time>2013-06-23T09:33:50Z</time>
      </trkpt>
      <trkpt lat="45.41917" lon="5.68999">
        <ele>659.3</ele>
        <time>2013-06-23T09:34:04Z</time>
      </trkpt>
      <trkpt lat="45.41921" lon="5.68989">
        <ele>666.9</ele>
        <time>2013-06-23T09:34:21Z</time>
      </trkpt>
      <trkpt lat="45.41925" lon="5.68979">
        <ele>666.7</ele>
        <time>2013-06-23T09:34:24Z</time>
      </trkpt>
      <trkpt lat="45.4193" lon="5.68969">
        <ele>676.8</ele>
        <time>2013-06-23T09:35:09Z</time>
      </trkpt>
      <trkpt lat="45.41933" lon="5.68971">
        <ele>677.1</ele>
        <time>2013-06-23T09:35:10Z</time>
      </trkpt>
      <trkpt lat="45.41943" lon="5.68976">
        <ele>677.2</ele>
        <time>2013-06-23T09:35:21Z</time>
      </trkpt>
      <trkpt lat="45.41949" lon="5.6898">
        <ele>676.9</ele>
        <time>2013-06-23T09:35:23Z</time>
      </trkpt>
      <trkpt lat="45.41954" lon="5.68982">
        <ele>679.4</ele>
        <time>2013-06-23T09:35:32Z</time>
      </trkpt>
      <trkpt lat="45.41961" lon="5.68988">
        <ele>679.6</ele>
        <time>2013-06-23T09:35:34Z</time>
      </trkpt>
      <trkpt lat="45.41967" lon="5.68993">
        <ele>682</ele>
        <time>2013-06-23T09:35:42Z</time>
      </trkpt>
      <trkpt lat="45.41973" lon="5.68999">
        <ele>682.4</ele>
        <time>2013-06-23T09:35:44Z</time>
      </trkpt>
      <trkpt lat="45.41979" lon="5.69004">
        <ele>682.7</ele>
        <time>2013-06-23T09:35:49Z</time>
      </trkpt>
      <trkpt lat="45.41985" lon="5.6901">
        <ele>682.9</ele>
        <time>2013-06-23T09:35:51Z</time>
      </trkpt>
      <trkpt lat="45.41991" lon="5.69015">
        <ele>682.8</ele>
        <time>2013-06-23T09:35:53Z</time>
      </trkpt>
      <trkpt lat="45.41996" lon="5.69021">
        <ele>682.5</ele>
        <time>2013-06-23T09:35:55Z</time>
      </trkpt>
      <trkpt lat="45.42003" lon="5.69028">
        <ele>683.3</ele>
        <time>2013-06-23T09:35:58Z</time>
      </trkpt>
      <trkpt lat="45.42009" lon="5.69036">
        <ele>683.5</ele>
        <time>2013-06-23T09:36:01Z</time>
      </trkpt>
      <trkpt lat="45.42014" lon="5.69044">
        <ele>683.1</ele>
        <time>2013-06-23T09:36:04Z</time>
      </trkpt>
      <trkpt lat="45.42019" lon="5.69051">
        <ele>683.4</ele>
        <time>2013-06-23T09:36:07Z</time>
      </trkpt>
      <trkpt lat="45.42024" lon="5.69058">
        <ele>683.3</ele>
        <time>2013-06-23T09:36:10Z</time>
      </trkpt>
      <trkpt lat="45.42026" lon="5.6906">
        <ele>683.2</ele>
        <time>2013-06-23T09:36:11Z</time>
      </trkpt>
      <trkpt lat="45.42034" lon="5.69078">
        <ele>686</ele>
        <time>2013-06-23T09:36:26Z</time>
      </trkpt>
      <trkpt lat="45.42039" lon="5.69089">
        <ele>686</ele>
        <time>2013-06-23T09:36:29Z</time>
      </trkpt>
      <trkpt lat="45.42044" lon="5.69099">
        <ele>686.2</ele>
        <time>2013-06-23T09:36:32Z</time>
      </trkpt>
      <trkpt lat="45.4205" lon="5.69108">
        <ele>686.4</ele>
        <time>2013-06-23T09:36:35Z</time>
      </trkpt>
      <trkpt lat="45.42053" lon="5.69118">
        <ele>686.8</ele>
        <time>2013-06-23T09:36:38Z</time>
      </trkpt>
      <trkpt lat="45.42055" lon="5.69127">
        <ele>687.2</ele>
        <time>2013-06-23T09:36:41Z</time>
      </trkpt>
      <trkpt lat="45.42057" lon="5.69137">
        <ele>686.6</ele>
        <time>2013-06-23T09:36:44Z</time>
      </trkpt>
      <trkpt lat="45.4206" lon="5.69147">
        <ele>686.3</ele>
        <time>2013-06-23T09:36:48Z</time>
      </trkpt>
      <trkpt lat="45.42063" lon="5.69157">
        <ele>687.2</ele>
        <time>2013-06-23T09:36:52Z</time>
      </trkpt>
      <trkpt lat="45.42067" lon="5.69166">
        <ele>687.6</ele>
        <time>2013-06-23T09:36:56Z</time>
      </trkpt>
      <trkpt lat="45.4207" lon="5.69175">
        <ele>688.1</ele>
        <time>2013-06-23T09:37:01Z</time>
      </trkpt>
      <trkpt lat="45.42074" lon="5.69185">
        <ele>688.1</ele>
        <time>2013-06-23T09:37:05Z</time>
      </trkpt>
      <trkpt lat="45.42079" lon="5.69195">
        <ele>688.7</ele>
        <time>2013-06-23T09:37:11Z</time>
      </trkpt>
      <trkpt lat="45.42081" lon="5.69198">
        <ele>688.9</ele>
        <time>2013-06-23T09:37:12Z</time>
      </trkpt>
      <trkpt lat="45.4209" lon="5.6921">
        <ele>689.9</ele>
        <time>2013-06-23T09:37:17Z</time>
      </trkpt>
      <trkpt lat="45.42096" lon="5.69216">
        <ele>690.1</ele>
        <time>2013-06-23T09:37:20Z</time>
      </trkpt>
      <trkpt lat="45.42101" lon="5.69224">
        <ele>691.9</ele>
        <time>2013-06-23T09:37:25Z</time>
      </trkpt>
      <trkpt lat="45.42105" lon="5.69234">
        <ele>691.8</ele>
        <time>2013-06-23T09:37:29Z</time>
      </trkpt>
      <trkpt lat="45.42109" lon="5.69243">
        <ele>694.6</ele>
        <time>2013-06-23T09:37:42Z</time>
      </trkpt>
      <trkpt lat="45.42112" lon="5.69251">
        <ele>694.9</ele>
        <time>2013-06-23T09:37:44Z</time>
      </trkpt>
      <trkpt lat="45.42117" lon="5.69261">
        <ele>694.9</ele>
        <time>2013-06-23T09:37:47Z</time>
      </trkpt>
      <trkpt lat="45.42122" lon="5.69267">
        <ele>694.9</ele>
        <time>2013-06-23T09:37:49Z</time>
      </trkpt>
      <trkpt lat="45.42129" lon="5.69273">
        <ele>695</ele>
        <time>2013-06-23T09:37:52Z</time>
      </trkpt>
      <trkpt lat="45.42134" lon="5.69281">
        <ele>695.1</ele>
        <time>2013-06-23T09:37:55Z</time>
      </trkpt>
      <trkpt lat="45.4214" lon="5.69289">
        <ele>695.8</ele>
        <time>2013-06-23T09:37:58Z</time>
      </trkpt>
      <trkpt lat="45.42147" lon="5.69297">
        <ele>695.3</ele>
        <time>2013-06-23T09:38:04Z</time>
      </trkpt>
      <trkpt lat="45.42153" lon="5.69303">
        <ele>695.1</ele>
        <time>2013-06-23T09:38:07Z</time>
      </trkpt>
      <trkpt lat="45.4216" lon="5.6931">
        <ele>695.4</ele>
        <time>2013-06-23T09:38:10Z</time>
      </trkpt>
      <trkpt lat="45.42166" lon="5.69316">
        <ele>695.9</ele>
        <time>2013-06-23T09:38:13Z</time>
      </trkpt>
      <trkpt lat="45.42167" lon="5.69318">
        <ele>696.3</ele>
        <time>2013-06-23T09:38:14Z</time>
      </trkpt>
      <trkpt lat="45.42176" lon="5.69332">
        <ele>701.4</ele>
        <time>2013-06-23T09:38:43Z</time>
      </trkpt>
      <trkpt lat="45.42182" lon="5.69336">
        <ele>701.4</ele>
        <time>2013-06-23T09:38:45Z</time>
      </trkpt>
      <trkpt lat="45.4219" lon="5.69342">
        <ele>702.4</ele>
        <time>2013-06-23T09:38:53Z</time>
      </trkpt>
      <trkpt lat="45.42197" lon="5.69347">
        <ele>703.8</ele>
        <time>2013-06-23T09:39:08Z</time>
      </trkpt>
      <trkpt lat="45.42204" lon="5.69352">
        <ele>704.7</ele>
        <time>2013-06-23T09:39:11Z</time>
      </trkpt>
      <trkpt lat="45.42211" lon="5.69358">
        <ele>709.1</ele>
        <time>2013-06-23T09:39:44Z</time>
      </trkpt>
      <trkpt lat="45.42213" lon="5.69359">
        <ele>709.2</ele>
        <time>2013-06-23T09:39:45Z</time>
      </trkpt>
      <trkpt lat="45.42225" lon="5.69366">
        <ele>718.8</ele>
        <time>2013-06-23T09:40:33Z</time>
      </trkpt>
      <trkpt lat="45.42233" lon="5.69372">
        <ele>718.3</ele>
        <time>2013-06-23T09:40:36Z</time>
      </trkpt>
      <trkpt lat="45.42238" lon="5.69378">
        <ele>720</ele>
        <time>2013-06-23T09:40:56Z</time>
      </trkpt>
      <trkpt lat="45.4224" lon="5.69381">
        <ele>720.2</ele>
        <time>2013-06-23T09:40:57Z</time>
      </trkpt>
      <trkpt lat="45.42246" lon="5.69393">
        <ele>720.9</ele>
        <time>2013-06-23T09:41:08Z</time>
      </trkpt>
      <trkpt lat="45.4225" lon="5.69402">
        <ele>721.1</ele>
        <time>2013-06-23T09:41:10Z</time>
      </trkpt>
      <trkpt lat="45.42253" lon="5.69407">
        <ele>721.1</ele>
        <time>2013-06-23T09:41:11Z</time>
      </trkpt>
      <trkpt lat="45.42256" lon="5.69413">
        <ele>721</ele>
        <time>2013-06-23T09:41:12Z</time>
      </trkpt>
      <trkpt lat="45.42259" lon="5.69418">
        <ele>721</ele>
        <time>2013-06-23T09:41:13Z</time>
      </trkpt>
      <trkpt lat="45.42263" lon="5.69425">
        <ele>720.9</ele>
        <time>2013-06-23T09:41:14Z</time>
      </trkpt>
      <trkpt lat="45.42268" lon="5.69432">
        <ele>719.7</ele>
        <time>2013-06-23T09:41:15Z</time>
      </trkpt>
      <trkpt lat="45.42272" lon="5.69438">
        <ele>718.7</ele>
        <time>2013-06-23T09:41:16Z</time>
      </trkpt>
      <trkpt lat="45.42278" lon="5.69448">
        <ele>717.5</ele>
        <time>2013-06-23T09:41:18Z</time>
      </trkpt>
      <trkpt lat="45.42284" lon="5.69452">
        <ele>719.9</ele>
        <time>2013-06-23T09:41:36Z</time>
      </trkpt>
      <trkpt lat="45.4229" lon="5.69455">
        <ele>720.4</ele>
        <time>2013-06-23T09:41:38Z</time>
      </trkpt>
      <trkpt lat="45.42295" lon="5.69458">
        <ele>720.8</ele>
        <time>2013-06-23T09:41:46Z</time>
      </trkpt>
      <trkpt lat="45.42302" lon="5.69461">
        <ele>721.4</ele>
        <time>2013-06-23T09:41:48Z</time>
      </trkpt>
      <trkpt lat="45.42308" lon="5.69464">
        <ele>722</ele>
        <time>2013-06-23T09:41:55Z</time>
      </trkpt>
      <trkpt lat="45.42314" lon="5.6947">
        <ele>722.4</ele>
        <time>2013-06-23T09:41:57Z</time>
      </trkpt>
      <trkpt lat="45.42317" lon="5.69473">
        <ele>722.7</ele>
        <time>2013-06-23T09:41:58Z</time>
      </trkpt>
      <trkpt lat="45.42324" lon="5.69484">
        <ele>722.6</ele>
        <time>2013-06-23T09:42:06Z</time>
      </trkpt>
      <trkpt lat="45.42327" lon="5.69493">
        <ele>722.2</ele>
        <time>2013-06-23T09:42:08Z</time>
      </trkpt>
      <trkpt lat="45.42329" lon="5.69502">
        <ele>722</ele>
        <time>2013-06-23T09:42:10Z</time>
      </trkpt>
      <trkpt lat="45.42333" lon="5.6951">
        <ele>722</ele>
        <time>2013-06-23T09:42:12Z</time>
      </trkpt>
      <trkpt lat="45.42341" lon="5.69517">
        <ele>720.1</ele>
        <time>2013-06-23T09:42:14Z</time>
      </trkpt>
      <trkpt lat="45.42348" lon="5.69522">
        <ele>718.6</ele>
        <time>2013-06-23T09:42:17Z</time>
      </trkpt>
      <trkpt lat="45.42355" lon="5.69528">
        <ele>719.3</ele>
        <time>2013-06-23T09:42:21Z</time>
      </trkpt>
      <trkpt lat="45.42362" lon="5.69532">
        <ele>720.7</ele>
        <time>2013-06-23T09:42:35Z</time>
      </trkpt>
      <trkpt lat="45.42369" lon="5.69537">
        <ele>721.2</ele>
        <time>2013-06-23T09:42:37Z</time>
      </trkpt>
      <trkpt lat="45.42375" lon="5.69541">
        <ele>722.4</ele>
        <time>2013-06-23T09:42:43Z</time>
      </trkpt>
      <trkpt lat="45.42382" lon="5.69545">
        <ele>722.8</ele>
        <time>2013-06-23T09:42:45Z</time>
      </trkpt>
      <trkpt lat="45.42389" lon="5.69548">
        <ele>723</ele>
        <time>2013-06-23T09:42:47Z</time>
      </trkpt>
      <trkpt lat="45.42395" lon="5.69551">
        <ele>723.7</ele>
        <time>2013-06-23T09:42:56Z</time>
      </trkpt>
      <trkpt lat="45.42402" lon="5.69554">
        <ele>723.9</ele>
        <time>2013-06-23T09:42:58Z</time>
      </trkpt>
      <trkpt lat="45.42405" lon="5.69556">
        <ele>724</ele>
        <time>2013-06-23T09:42:59Z</time>
      </trkpt>
      <trkpt lat="45.42415" lon="5.69559">
        <ele>724.9</ele>
        <time>2013-06-23T09:43:07Z</time>
      </trkpt>
      <trkpt lat="45.4242" lon="5.69561">
        <ele>725.1</ele>
        <time>2013-06-23T09:43:14Z</time>
      </trkpt>
      <trkpt lat="45.42427" lon="5.69563">
        <ele>726.5</ele>
        <time>2013-06-23T09:43:16Z</time>
      </trkpt>
      <trkpt lat="45.42434" lon="5.69565">
        <ele>728.2</ele>
        <time>2013-06-23T09:43:22Z</time>
      </trkpt>
      <trkpt lat="45.42441" lon="5.69567">
        <ele>728.2</ele>
        <time>2013-06-23T09:43:24Z</time>
      </trkpt>
      <trkpt lat="45.42448" lon="5.69568">
        <ele>729.4</ele>
        <time>2013-06-23T09:43:32Z</time>
      </trkpt>
      <trkpt lat="45.42456" lon="5.69571">
        <ele>729.5</ele>
        <time>2013-06-23T09:43:34Z</time>
      </trkpt>
      <trkpt lat="45.42462" lon="5.69572">
        <ele>729.5</ele>
        <time>2013-06-23T09:43:36Z</time>
      </trkpt>
      <trkpt lat="45.42469" lon="5.69574">
        <ele>730.3</ele>
        <time>2013-06-23T09:43:44Z</time>
      </trkpt>
      <trkpt lat="45.42477" lon="5.69577">
        <ele>730.3</ele>
        <time>2013-06-23T09:43:46Z</time>
      </trkpt>
      <trkpt lat="45.42484" lon="5.6958">
        <ele>730.3</ele>
        <time>2013-06-23T09:43:48Z</time>
      </trkpt>
      <trkpt lat="45.42489" lon="5.69584">
        <ele>729.8</ele>
        <time>2013-06-23T09:43:55Z</time>
      </trkpt>
      <trkpt lat="45.42493" lon="5.69594">
        <ele>729.5</ele>
        <time>2013-06-23T09:43:57Z</time>
      </trkpt>
      <trkpt lat="45.42495" lon="5.69604">
        <ele>728.2</ele>
        <time>2013-06-23T09:43:59Z</time>
      </trkpt>
      <trkpt lat="45.42495" lon="5.6961">
        <ele>727.8</ele>
        <time>2013-06-23T09:44:00Z</time>
      </trkpt>
      <trkpt lat="45.42493" lon="5.69625">
        <ele>725.8</ele>
        <time>2013-06-23T09:44:03Z</time>
      </trkpt>
      <trkpt lat="45.42493" lon="5.69636">
        <ele>724.3</ele>
        <time>2013-06-23T09:44:05Z</time>
      </trkpt>
      <trkpt lat="45.42493" lon="5.69647">
        <ele>723.2</ele>
        <time>2013-06-23T09:44:07Z</time>
      </trkpt>
      <trkpt lat="45.42493" lon="5.69653">
        <ele>722.1</ele>
        <time>2013-06-23T09:44:08Z</time>
      </trkpt>
      <trkpt lat="45.42494" lon="5.69664">
        <ele>720.6</ele>
        <time>2013-06-23T09:44:10Z</time>
      </trkpt>
      <trkpt lat="45.42496" lon="5.69675">
        <ele>718.7</ele>
        <time>2013-06-23T09:44:13Z</time>
      </trkpt>
      <trkpt lat="45.42495" lon="5.69687">
        <ele>716.2</ele>
        <time>2013-06-23T09:44:16Z</time>
      </trkpt>
      <trkpt lat="45.42497" lon="5.69699">
        <ele>715.5</ele>
        <time>2013-06-23T09:44:19Z</time>
      </trkpt>
      <trkpt lat="45.42496" lon="5.69712">
        <ele>715.4</ele>
        <time>2013-06-23T09:44:21Z</time>
      </trkpt>
      <trkpt lat="45.42495" lon="5.69722">
        <ele>714.6</ele>
        <time>2013-06-23T09:44:24Z</time>
      </trkpt>
      <trkpt lat="45.42495" lon="5.69732">
        <ele>713.3</ele>
        <time>2013-06-23T09:44:29Z</time>
      </trkpt>
      <trkpt lat="45.42494" lon="5.69741">
        <ele>711.7</ele>
        <time>2013-06-23T09:44:31Z</time>
      </trkpt>
      <trkpt lat="45.42492" lon="5.69747">
        <ele>710.5</ele>
        <time>2013-06-23T09:44:33Z</time>
      </trkpt>
      <trkpt lat="45.42486" lon="5.69755">
        <ele>709.6</ele>
        <time>2013-06-23T09:44:35Z</time>
      </trkpt>
      <trkpt lat="45.4248" lon="5.6976">
        <ele>708.3</ele>
        <time>2013-06-23T09:44:37Z</time>
      </trkpt>
      <trkpt lat="45.42472" lon="5.69765">
        <ele>706.9</ele>
        <time>2013-06-23T09:44:39Z</time>
      </trkpt>
      <trkpt lat="45.42464" lon="5.69768">
        <ele>705.3</ele>
        <time>2013-06-23T09:44:43Z</time>
      </trkpt>
      <trkpt lat="45.42457" lon="5.6977">
        <ele>704.6</ele>
        <time>2013-06-23T09:44:47Z</time>
      </trkpt>
      <trkpt lat="45.4245" lon="5.69775">
        <ele>703.4</ele>
        <time>2013-06-23T09:44:50Z</time>
      </trkpt>
      <trkpt lat="45.42442" lon="5.69775">
        <ele>702.3</ele>
        <time>2013-06-23T09:44:53Z</time>
      </trkpt>
      <trkpt lat="45.42435" lon="5.69769">
        <ele>701.2</ele>
        <time>2013-06-23T09:44:56Z</time>
      </trkpt>
      <trkpt lat="45.4243" lon="5.69762">
        <ele>700.3</ele>
        <time>2013-06-23T09:45:00Z</time>
      </trkpt>
      <trkpt lat="45.42429" lon="5.6976">
        <ele>700.1</ele>
        <time>2013-06-23T09:45:01Z</time>
      </trkpt>
      <trkpt lat="45.42414" lon="5.6976">
        <ele>693.9</ele>
        <time>2013-06-23T09:45:09Z</time>
      </trkpt>
      <trkpt lat="45.42407" lon="5.69763">
        <ele>691.3</ele>
        <time>2013-06-23T09:45:12Z</time>
      </trkpt>
      <trkpt lat="45.42398" lon="5.69765">
        <ele>687.5</ele>
        <time>2013-06-23T09:45:15Z</time>
      </trkpt>
      <trkpt lat="45.42392" lon="5.69769">
        <ele>685.5</ele>
        <time>2013-06-23T09:45:17Z</time>
      </trkpt>
      <trkpt lat="45.42383" lon="5.69768">
        <ele>684.4</ele>
        <time>2013-06-23T09:45:20Z</time>
      </trkpt>
      <trkpt lat="45.42376" lon="5.69766">
        <ele>682.3</ele>
        <time>2013-06-23T09:45:22Z</time>
      </trkpt>
      <trkpt lat="45.42368" lon="5.69763">
        <ele>680.5</ele>
        <time>2013-06-23T09:45:25Z</time>
      </trkpt>
      <trkpt lat="45.4236" lon="5.6976">
        <ele>678.6</ele>
        <time>2013-06-23T09:45:29Z</time>
      </trkpt>
      <trkpt lat="45.42352" lon="5.69759">
        <ele>676.3</ele>
        <time>2013-06-23T09:45:34Z</time>
      </trkpt>
      <trkpt lat="45.42346" lon="5.69758">
        <ele>674.6</ele>
        <time>2013-06-23T09:45:37Z</time>
      </trkpt>
      <trkpt lat="45.4234" lon="5.69758">
        <ele>673.4</ele>
        <time>2013-06-23T09:45:39Z</time>
      </trkpt>
      <trkpt lat="45.42332" lon="5.69758">
        <ele>672.2</ele>
        <time>2013-06-23T09:45:41Z</time>
      </trkpt>
      <trkpt lat="45.42323" lon="5.69756">
        <ele>671.5</ele>
        <time>2013-06-23T09:45:43Z</time>
      </trkpt>
      <trkpt lat="45.42316" lon="5.69753">
        <ele>669.8</ele>
        <time>2013-06-23T09:45:46Z</time>
      </trkpt>
      <trkpt lat="45.4231" lon="5.69751">
        <ele>668.2</ele>
        <time>2013-06-23T09:45:49Z</time>
      </trkpt>
      <trkpt lat="45.42302" lon="5.69748">
        <ele>667.7</ele>
        <time>2013-06-23T09:45:52Z</time>
      </trkpt>
      <trkpt lat="45.42295" lon="5.69749">
        <ele>665.5</ele>
        <time>2013-06-23T09:45:55Z</time>
      </trkpt>
      <trkpt lat="45.42289" lon="5.69756">
        <ele>665.5</ele>
        <time>2013-06-23T09:45:59Z</time>
      </trkpt>
      <trkpt lat="45.42288" lon="5.69768">
        <ele>661.9</ele>
        <time>2013-06-23T09:46:03Z</time>
      </trkpt>
      <trkpt lat="45.4229" lon="5.69771">
        <ele>661.6</ele>
        <time>2013-06-23T09:46:04Z</time>
      </trkpt>
      <trkpt lat="45.42287" lon="5.69787">
        <ele>659.6</ele>
        <time>2013-06-23T09:46:09Z</time>
      </trkpt>
      <trkpt lat="45.42283" lon="5.69793">
        <ele>659.3</ele>
        <time>2013-06-23T09:46:11Z</time>
      </trkpt>
      <trkpt lat="45.42276" lon="5.69797">
        <ele>657.8</ele>
        <time>2013-06-23T09:46:14Z</time>
      </trkpt>
      <trkpt lat="45.42268" lon="5.698">
        <ele>655.4</ele>
        <time>2013-06-23T09:46:19Z</time>
      </trkpt>
      <trkpt lat="45.42263" lon="5.69804">
        <ele>653.7</ele>
        <time>2013-06-23T09:46:21Z</time>
      </trkpt>
      <trkpt lat="45.42257" lon="5.69812">
        <ele>652.4</ele>
        <time>2013-06-23T09:46:23Z</time>
      </trkpt>
      <trkpt lat="45.42251" lon="5.69819">
        <ele>651</ele>
        <time>2013-06-23T09:46:25Z</time>
      </trkpt>
      <trkpt lat="45.42246" lon="5.69825">
        <ele>649.7</ele>
        <time>2013-06-23T09:46:27Z</time>
      </trkpt>
      <trkpt lat="45.42241" lon="5.69832">
        <ele>646.8</ele>
        <time>2013-06-23T09:46:29Z</time>
      </trkpt>
      <trkpt lat="45.42234" lon="5.69839">
        <ele>644.5</ele>
        <time>2013-06-23T09:46:32Z</time>
      </trkpt>
      <trkpt lat="45.42229" lon="5.69847">
        <ele>643.1</ele>
        <time>2013-06-23T09:46:35Z</time>
      </trkpt>
      <trkpt lat="45.42224" lon="5.69855">
        <ele>641.5</ele>
        <time>2013-06-23T09:46:38Z</time>
      </trkpt>
      <trkpt lat="45.42221" lon="5.69862">
        <ele>640.3</ele>
        <time>2013-06-23T09:46:40Z</time>
      </trkpt>
      <trkpt lat="45.42218" lon="5.69873">
        <ele>640</ele>
        <time>2013-06-23T09:46:42Z</time>
      </trkpt>
      <trkpt lat="45.42217" lon="5.69884">
        <ele>639.2</ele>
        <time>2013-06-23T09:46:44Z</time>
      </trkpt>
      <trkpt lat="45.42219" lon="5.69896">
        <ele>638.4</ele>
        <time>2013-06-23T09:46:46Z</time>
      </trkpt>
      <trkpt lat="45.42222" lon="5.69906">
        <ele>638.2</ele>
        <time>2013-06-23T09:46:48Z</time>
      </trkpt>
      <trkpt lat="45.42226" lon="5.69915">
        <ele>637.9</ele>
        <time>2013-06-23T09:46:51Z</time>
      </trkpt>
      <trkpt lat="45.42228" lon="5.69925">
        <ele>637.8</ele>
        <time>2013-06-23T09:46:53Z</time>
      </trkpt>
      <trkpt lat="45.42231" lon="5.69937">
        <ele>637.1</ele>
        <time>2013-06-23T09:46:55Z</time>
      </trkpt>
      <trkpt lat="45.42232" lon="5.69949">
        <ele>636</ele>
        <time>2013-06-23T09:46:58Z</time>
      </trkpt>
      <trkpt lat="45.4223" lon="5.69958">
        <ele>635.2</ele>
        <time>2013-06-23T09:47:00Z</time>
      </trkpt>
      <trkpt lat="45.42226" lon="5.69965">
        <ele>634.4</ele>
        <time>2013-06-23T09:47:02Z</time>
      </trkpt>
      <trkpt lat="45.4222" lon="5.69972">
        <ele>632.5</ele>
        <time>2013-06-23T09:47:04Z</time>
      </trkpt>
      <trkpt lat="45.42217" lon="5.69977">
        <ele>631.9</ele>
        <time>2013-06-23T09:47:05Z</time>
      </trkpt>
      <trkpt lat="45.42209" lon="5.69989">
        <ele>629.4</ele>
        <time>2013-06-23T09:47:08Z</time>
      </trkpt>
      <trkpt lat="45.42204" lon="5.69997">
        <ele>626.7</ele>
        <time>2013-06-23T09:47:10Z</time>
      </trkpt>
      <trkpt lat="45.42199" lon="5.70004">
        <ele>624</ele>
        <time>2013-06-23T09:47:12Z</time>
      </trkpt>
      <trkpt lat="45.42196" lon="5.70007">
        <ele>622.6</ele>
        <time>2013-06-23T09:47:13Z</time>
      </trkpt>
      <trkpt lat="45.42193" lon="5.70014">
        <ele>621.6</ele>
        <time>2013-06-23T09:47:14Z</time>
      </trkpt>
      <trkpt lat="45.42191" lon="5.70021">
        <ele>620.8</ele>
        <time>2013-06-23T09:47:15Z</time>
      </trkpt>
      <trkpt lat="45.42188" lon="5.70028">
        <ele>618.9</ele>
        <time>2013-06-23T09:47:16Z</time>
      </trkpt>
      <trkpt lat="45.42185" lon="5.70034">
        <ele>617.5</ele>
        <time>2013-06-23T09:47:17Z</time>
      </trkpt>
      <trkpt lat="45.4218" lon="5.70045">
        <ele>615.4</ele>
        <time>2013-06-23T09:47:19Z</time>
      </trkpt>
      <trkpt lat="45.42176" lon="5.70053">
        <ele>613.9</ele>
        <time>2013-06-23T09:47:21Z</time>
      </trkpt>
      <trkpt lat="45.42171" lon="5.70061">
        <ele>611</ele>
        <time>2013-06-23T09:47:24Z</time>
      </trkpt>
      <trkpt lat="45.42163" lon="5.70066">
        <ele>608.5</ele>
        <time>2013-06-23T09:47:28Z</time>
      </trkpt>
      <trkpt lat="45.42156" lon="5.70062">
        <ele>607.3</ele>
        <time>2013-06-23T09:47:31Z</time>
      </trkpt>
      <trkpt lat="45.42151" lon="5.70056">
        <ele>606.7</ele>
        <time>2013-06-23T09:47:33Z</time>
      </trkpt>
      <trkpt lat="45.42146" lon="5.70047">
        <ele>606.6</ele>
        <time>2013-06-23T09:47:35Z</time>
      </trkpt>
      <trkpt lat="45.42141" lon="5.70037">
        <ele>606.7</ele>
        <time>2013-06-23T09:47:37Z</time>
      </trkpt>
      <trkpt lat="45.42138" lon="5.70031">
        <ele>606.8</ele>
        <time>2013-06-23T09:47:38Z</time>
      </trkpt>
      <trkpt lat="45.42135" lon="5.70025">
        <ele>606.8</ele>
        <time>2013-06-23T09:47:39Z</time>
      </trkpt>
      <trkpt lat="45.42132" lon="5.70019">
        <ele>606.8</ele>
        <time>2013-06-23T09:47:40Z</time>
      </trkpt>
      <trkpt lat="45.42129" lon="5.70012">
        <ele>606.9</ele>
        <time>2013-06-23T09:47:41Z</time>
      </trkpt>
      <trkpt lat="45.42126" lon="5.70005">
        <ele>606.8</ele>
        <time>2013-06-23T09:47:42Z</time>
      </trkpt>
      <trkpt lat="45.42122" lon="5.69997">
        <ele>606.7</ele>
        <time>2013-06-23T09:47:43Z</time>
      </trkpt>
      <trkpt lat="45.42117" lon="5.6999">
        <ele>606.7</ele>
        <time>2013-06-23T09:47:44Z</time>
      </trkpt>
      <trkpt lat="45.42112" lon="5.69983">
        <ele>605.8</ele>
        <time>2013-06-23T09:47:45Z</time>
      </trkpt>
      <trkpt lat="45.42106" lon="5.69975">
        <ele>605</ele>
        <time>2013-06-23T09:47:46Z</time>
      </trkpt>
      <trkpt lat="45.42099" lon="5.69969">
        <ele>604.5</ele>
        <time>2013-06-23T09:47:47Z</time>
      </trkpt>
      <trkpt lat="45.42091" lon="5.69964">
        <ele>603.2</ele>
        <time>2013-06-23T09:47:48Z</time>
      </trkpt>
      <trkpt lat="45.42082" lon="5.69961">
        <ele>602.1</ele>
        <time>2013-06-23T09:47:49Z</time>
      </trkpt>
      <trkpt lat="45.42073" lon="5.6996">
        <ele>601.4</ele>
        <time>2013-06-23T09:47:50Z</time>
      </trkpt>
      <trkpt lat="45.42064" lon="5.69958">
        <ele>600.7</ele>
        <time>2013-06-23T09:47:51Z</time>
      </trkpt>
      <trkpt lat="45.42055" lon="5.69957">
        <ele>600.1</ele>
        <time>2013-06-23T09:47:52Z</time>
      </trkpt>
      <trkpt lat="45.42046" lon="5.69956">
        <ele>599.7</ele>
        <time>2013-06-23T09:47:53Z</time>
      </trkpt>
      <trkpt lat="45.42036" lon="5.69955">
        <ele>599.4</ele>
        <time>2013-06-23T09:47:54Z</time>
      </trkpt>
      <trkpt lat="45.42026" lon="5.69953">
        <ele>598.7</ele>
        <time>2013-06-23T09:47:55Z</time>
      </trkpt>
      <trkpt lat="45.42017" lon="5.69951">
        <ele>598.1</ele>
        <time>2013-06-23T09:47:56Z</time>
      </trkpt>
      <trkpt lat="45.42008" lon="5.69948">
        <ele>597.6</ele>
        <time>2013-06-23T09:47:57Z</time>
      </trkpt>
      <trkpt lat="45.41998" lon="5.69946">
        <ele>596.9</ele>
        <time>2013-06-23T09:47:58Z</time>
      </trkpt>
      <trkpt lat="45.41989" lon="5.69943">
        <ele>596.4</ele>
        <time>2013-06-23T09:47:59Z</time>
      </trkpt>
      <trkpt lat="45.41979" lon="5.69941">
        <ele>596</ele>
        <time>2013-06-23T09:48:00Z</time>
      </trkpt>
      <trkpt lat="45.4197" lon="5.69938">
        <ele>595.4</ele>
        <time>2013-06-23T09:48:01Z</time>
      </trkpt>
      <trkpt lat="45.41961" lon="5.69936">
        <ele>594.9</ele>
        <time>2013-06-23T09:48:02Z</time>
      </trkpt>
      <trkpt lat="45.41952" lon="5.69934">
        <ele>594.6</ele>
        <time>2013-06-23T09:48:03Z</time>
      </trkpt>
      <trkpt lat="45.41942" lon="5.69931">
        <ele>594</ele>
        <time>2013-06-23T09:48:04Z</time>
      </trkpt>
      <trkpt lat="45.41933" lon="5.69929">
        <ele>593.6</ele>
        <time>2013-06-23T09:48:05Z</time>
      </trkpt>
      <trkpt lat="45.41923" lon="5.69927">
        <ele>593.3</ele>
        <time>2013-06-23T09:48:06Z</time>
      </trkpt>
      <trkpt lat="45.41914" lon="5.69925">
        <ele>592.3</ele>
        <time>2013-06-23T09:48:07Z</time>
      </trkpt>
      <trkpt lat="45.41904" lon="5.69923">
        <ele>591.6</ele>
        <time>2013-06-23T09:48:08Z</time>
      </trkpt>
      <trkpt lat="45.41894" lon="5.69921">
        <ele>591</ele>
        <time>2013-06-23T09:48:09Z</time>
      </trkpt>
      <trkpt lat="45.41885" lon="5.69918">
        <ele>590.7</ele>
        <time>2013-06-23T09:48:10Z</time>
      </trkpt>
      <trkpt lat="45.41875" lon="5.69916">
        <ele>590.4</ele>
        <time>2013-06-23T09:48:11Z</time>
      </trkpt>
      <trkpt lat="45.41864" lon="5.69913">
        <ele>590.2</ele>
        <time>2013-06-23T09:48:12Z</time>
      </trkpt>
      <trkpt lat="45.41853" lon="5.6991">
        <ele>590.1</ele>
        <time>2013-06-23T09:48:13Z</time>
      </trkpt>
      <trkpt lat="45.41842" lon="5.69908">
        <ele>589.4</ele>
        <time>2013-06-23T09:48:14Z</time>
      </trkpt>
      <trkpt lat="45.41831" lon="5.69905">
        <ele>588.9</ele>
        <time>2013-06-23T09:48:15Z</time>
      </trkpt>
      <trkpt lat="45.4182" lon="5.69902">
        <ele>588.5</ele>
        <time>2013-06-23T09:48:16Z</time>
      </trkpt>
      <trkpt lat="45.41809" lon="5.69898">
        <ele>587.4</ele>
        <time>2013-06-23T09:48:17Z</time>
      </trkpt>
      <trkpt lat="45.41798" lon="5.69895">
        <ele>586.5</ele>
        <time>2013-06-23T09:48:18Z</time>
      </trkpt>
      <trkpt lat="45.41786" lon="5.69895">
        <ele>585.9</ele>
        <time>2013-06-23T09:48:19Z</time>
      </trkpt>
      <trkpt lat="45.41775" lon="5.69898">
        <ele>585</ele>
        <time>2013-06-23T09:48:20Z</time>
      </trkpt>
      <trkpt lat="45.41765" lon="5.69902">
        <ele>584.3</ele>
        <time>2013-06-23T09:48:21Z</time>
      </trkpt>
      <trkpt lat="45.41756" lon="5.69905">
        <ele>583.8</ele>
        <time>2013-06-23T09:48:22Z</time>
      </trkpt>
      <trkpt lat="45.41747" lon="5.69907">
        <ele>583.7</ele>
        <time>2013-06-23T09:48:23Z</time>
      </trkpt>
      <trkpt lat="45.41739" lon="5.69908">
        <ele>583.7</ele>
        <time>2013-06-23T09:48:24Z</time>
      </trkpt>
      <trkpt lat="45.41732" lon="5.69909">
        <ele>583.6</ele>
        <time>2013-06-23T09:48:25Z</time>
      </trkpt>
      <trkpt lat="45.41725" lon="5.69909">
        <ele>583.5</ele>
        <time>2013-06-23T09:48:26Z</time>
      </trkpt>
      <trkpt lat="45.41719" lon="5.6991">
        <ele>584.3</ele>
        <time>2013-06-23T09:48:27Z</time>
      </trkpt>
      <trkpt lat="45.41713" lon="5.69911">
        <ele>584.8</ele>
        <time>2013-06-23T09:48:28Z</time>
      </trkpt>
      <trkpt lat="45.41707" lon="5.69912">
        <ele>585.2</ele>
        <time>2013-06-23T09:48:29Z</time>
      </trkpt>
      <trkpt lat="45.417" lon="5.69912">
        <ele>585.3</ele>
        <time>2013-06-23T09:48:30Z</time>
      </trkpt>
      <trkpt lat="45.41694" lon="5.69912">
        <ele>585.4</ele>
        <time>2013-06-23T09:48:31Z</time>
      </trkpt>
      <trkpt lat="45.41687" lon="5.69913">
        <ele>585.4</ele>
        <time>2013-06-23T09:48:32Z</time>
      </trkpt>
      <trkpt lat="45.41681" lon="5.69914">
        <ele>584.8</ele>
        <time>2013-06-23T09:48:33Z</time>
      </trkpt>
      <trkpt lat="45.41674" lon="5.69914">
        <ele>584.3</ele>
        <time>2013-06-23T09:48:34Z</time>
      </trkpt>
      <trkpt lat="45.41667" lon="5.69915">
        <ele>584</ele>
        <time>2013-06-23T09:48:35Z</time>
      </trkpt>
      <trkpt lat="45.41659" lon="5.69916">
        <ele>584.3</ele>
        <time>2013-06-23T09:48:36Z</time>
      </trkpt>
      <trkpt lat="45.41652" lon="5.69916">
        <ele>584.5</ele>
        <time>2013-06-23T09:48:37Z</time>
      </trkpt>
      <trkpt lat="45.41644" lon="5.69917">
        <ele>584.7</ele>
        <time>2013-06-23T09:48:38Z</time>
      </trkpt>
      <trkpt lat="45.41636" lon="5.69918">
        <ele>584.1</ele>
        <time>2013-06-23T09:48:39Z</time>
      </trkpt>
      <trkpt lat="45.4163" lon="5.6992">
        <ele>583.7</ele>
        <time>2013-06-23T09:48:40Z</time>
      </trkpt>
      <trkpt lat="45.41623" lon="5.69921">
        <ele>583.5</ele>
        <time>2013-06-23T09:48:41Z</time>
      </trkpt>
      <trkpt lat="45.41615" lon="5.69921">
        <ele>582.8</ele>
        <time>2013-06-23T09:48:42Z</time>
      </trkpt>
      <trkpt lat="45.41609" lon="5.69921">
        <ele>582.4</ele>
        <time>2013-06-23T09:48:43Z</time>
      </trkpt>
      <trkpt lat="45.41602" lon="5.6992">
        <ele>582</ele>
        <time>2013-06-23T09:48:44Z</time>
      </trkpt>
      <trkpt lat="45.41595" lon="5.69918">
        <ele>581.8</ele>
        <time>2013-06-23T09:48:45Z</time>
      </trkpt>
      <trkpt lat="45.41589" lon="5.69915">
        <ele>581.8</ele>
        <time>2013-06-23T09:48:46Z</time>
      </trkpt>
      <trkpt lat="45.41582" lon="5.69912">
        <ele>581.7</ele>
        <time>2013-06-23T09:48:47Z</time>
      </trkpt>
      <trkpt lat="45.41575" lon="5.69909">
        <ele>581.7</ele>
        <time>2013-06-23T09:48:48Z</time>
      </trkpt>
      <trkpt lat="45.41569" lon="5.69905">
        <ele>581.5</ele>
        <time>2013-06-23T09:48:49Z</time>
      </trkpt>
      <trkpt lat="45.41562" lon="5.69902">
        <ele>581.2</ele>
        <time>2013-06-23T09:48:50Z</time>
      </trkpt>
      <trkpt lat="45.41554" lon="5.699">
        <ele>581.1</ele>
        <time>2013-06-23T09:48:51Z</time>
      </trkpt>
      <trkpt lat="45.41546" lon="5.699">
        <ele>580.6</ele>
        <time>2013-06-23T09:48:52Z</time>
      </trkpt>
      <trkpt lat="45.41538" lon="5.69903">
        <ele>580.2</ele>
        <time>2013-06-23T09:48:53Z</time>
      </trkpt>
      <trkpt lat="45.41531" lon="5.69908">
        <ele>579.9</ele>
        <time>2013-06-23T09:48:54Z</time>
      </trkpt>
      <trkpt lat="45.41525" lon="5.69915">
        <ele>579.2</ele>
        <time>2013-06-23T09:48:55Z</time>
      </trkpt>
      <trkpt lat="45.41518" lon="5.69923">
        <ele>578.8</ele>
        <time>2013-06-23T09:48:56Z</time>
      </trkpt>
      <trkpt lat="45.41511" lon="5.69931">
        <ele>578.4</ele>
        <time>2013-06-23T09:48:57Z</time>
      </trkpt>
      <trkpt lat="45.41504" lon="5.69939">
        <ele>577.9</ele>
        <time>2013-06-23T09:48:58Z</time>
      </trkpt>
      <trkpt lat="45.41497" lon="5.69945">
        <ele>577.5</ele>
        <time>2013-06-23T09:48:59Z</time>
      </trkpt>
      <trkpt lat="45.41489" lon="5.69953">
        <ele>577.3</ele>
        <time>2013-06-23T09:49:00Z</time>
      </trkpt>
      <trkpt lat="45.41481" lon="5.69958">
        <ele>577.1</ele>
        <time>2013-06-23T09:49:01Z</time>
      </trkpt>
      <trkpt lat="45.41474" lon="5.69962">
        <ele>576.9</ele>
        <time>2013-06-23T09:49:02Z</time>
      </trkpt>
      <trkpt lat="45.41466" lon="5.69964">
        <ele>576.8</ele>
        <time>2013-06-23T09:49:03Z</time>
      </trkpt>
      <trkpt lat="45.41459" lon="5.69965">
        <ele>576.7</ele>
        <time>2013-06-23T09:49:04Z</time>
      </trkpt>
      <trkpt lat="45.41452" lon="5.69966">
        <ele>576.8</ele>
        <time>2013-06-23T09:49:05Z</time>
      </trkpt>
      <trkpt lat="45.41446" lon="5.69966">
        <ele>577</ele>
        <time>2013-06-23T09:49:06Z</time>
      </trkpt>
      <trkpt lat="45.4144" lon="5.69967">
        <ele>577</ele>
        <time>2013-06-23T09:49:07Z</time>
      </trkpt>
      <trkpt lat="45.41435" lon="5.69968">
        <ele>577</ele>
        <time>2013-06-23T09:49:08Z</time>
      </trkpt>
      <trkpt lat="45.4143" lon="5.69968">
        <ele>577</ele>
        <time>2013-06-23T09:49:09Z</time>
      </trkpt>
      <trkpt lat="45.41425" lon="5.69969">
        <ele>577</ele>
        <time>2013-06-23T09:49:10Z</time>
      </trkpt>
      <trkpt lat="45.4142" lon="5.69968">
        <ele>576.9</ele>
        <time>2013-06-23T09:49:11Z</time>
      </trkpt>
      <trkpt lat="45.41415" lon="5.69968">
        <ele>576.9</ele>
        <time>2013-06-23T09:49:12Z</time>
      </trkpt>
      <trkpt lat="45.4141" lon="5.69968">
        <ele>576.9</ele>
        <time>2013-06-23T09:49:13Z</time>
      </trkpt>
      <trkpt lat="45.41405" lon="5.69968">
        <ele>577.7</ele>
        <time>2013-06-23T09:49:14Z</time>
      </trkpt>
      <trkpt lat="45.414" lon="5.69968">
        <ele>578.4</ele>
        <time>2013-06-23T09:49:15Z</time>
      </trkpt>
      <trkpt lat="45.41395" lon="5.69968">
        <ele>578.9</ele>
        <time>2013-06-23T09:49:16Z</time>
      </trkpt>
      <trkpt lat="45.4139" lon="5.69967">
        <ele>579.3</ele>
        <time>2013-06-23T09:49:17Z</time>
      </trkpt>
      <trkpt lat="45.41384" lon="5.69967">
        <ele>579.5</ele>
        <time>2013-06-23T09:49:18Z</time>
      </trkpt>
      <trkpt lat="45.41379" lon="5.69966">
        <ele>579.6</ele>
        <time>2013-06-23T09:49:19Z</time>
      </trkpt>
      <trkpt lat="45.41374" lon="5.69966">
        <ele>579.8</ele>
        <time>2013-06-23T09:49:20Z</time>
      </trkpt>
      <trkpt lat="45.41368" lon="5.69966">
        <ele>580.1</ele>
        <time>2013-06-23T09:49:21Z</time>
      </trkpt>
      <trkpt lat="45.41363" lon="5.69965">
        <ele>580.3</ele>
        <time>2013-06-23T09:49:22Z</time>
      </trkpt>
      <trkpt lat="45.41357" lon="5.69964">
        <ele>580.5</ele>
        <time>2013-06-23T09:49:23Z</time>
      </trkpt>
      <trkpt lat="45.41351" lon="5.69963">
        <ele>580</ele>
        <time>2013-06-23T09:49:24Z</time>
      </trkpt>
      <trkpt lat="45.41345" lon="5.69962">
        <ele>579.7</ele>
        <time>2013-06-23T09:49:25Z</time>
      </trkpt>
      <trkpt lat="45.41339" lon="5.69961">
        <ele>579.4</ele>
        <time>2013-06-23T09:49:26Z</time>
      </trkpt>
      <trkpt lat="45.41333" lon="5.6996">
        <ele>579.3</ele>
        <time>2013-06-23T09:49:27Z</time>
      </trkpt>
      <trkpt lat="45.41327" lon="5.69959">
        <ele>579.2</ele>
        <time>2013-06-23T09:49:28Z</time>
      </trkpt>
      <trkpt lat="45.41322" lon="5.69956">
        <ele>579.1</ele>
        <time>2013-06-23T09:49:29Z</time>
      </trkpt>
      <trkpt lat="45.41316" lon="5.69954">
        <ele>579.2</ele>
        <time>2013-06-23T09:49:30Z</time>
      </trkpt>
      <trkpt lat="45.4131" lon="5.6995">
        <ele>579.3</ele>
        <time>2013-06-23T09:49:31Z</time>
      </trkpt>
      <trkpt lat="45.41304" lon="5.69947">
        <ele>579.4</ele>
        <time>2013-06-23T09:49:32Z</time>
      </trkpt>
      <trkpt lat="45.41298" lon="5.69943">
        <ele>579.5</ele>
        <time>2013-06-23T09:49:33Z</time>
      </trkpt>
      <trkpt lat="45.41293" lon="5.6994">
        <ele>579.7</ele>
        <time>2013-06-23T09:49:34Z</time>
      </trkpt>
      <trkpt lat="45.41287" lon="5.69936">
        <ele>579.8</ele>
        <time>2013-06-23T09:49:35Z</time>
      </trkpt>
      <trkpt lat="45.41281" lon="5.69932">
        <ele>579.9</ele>
        <time>2013-06-23T09:49:36Z</time>
      </trkpt>
      <trkpt lat="45.41275" lon="5.69929">
        <ele>579.9</ele>
        <time>2013-06-23T09:49:37Z</time>
      </trkpt>
      <trkpt lat="45.41269" lon="5.69925">
        <ele>579.8</ele>
        <time>2013-06-23T09:49:38Z</time>
      </trkpt>
      <trkpt lat="45.41263" lon="5.69922">
        <ele>579.8</ele>
        <time>2013-06-23T09:49:39Z</time>
      </trkpt>
      <trkpt lat="45.41257" lon="5.69919">
        <ele>579.4</ele>
        <time>2013-06-23T09:49:40Z</time>
      </trkpt>
      <trkpt lat="45.41251" lon="5.69916">
        <ele>579.1</ele>
        <time>2013-06-23T09:49:41Z</time>
      </trkpt>
      <trkpt lat="45.41245" lon="5.69913">
        <ele>578.9</ele>
        <time>2013-06-23T09:49:42Z</time>
      </trkpt>
      <trkpt lat="45.41239" lon="5.6991">
        <ele>579</ele>
        <time>2013-06-23T09:49:43Z</time>
      </trkpt>
      <trkpt lat="45.41232" lon="5.69907">
        <ele>579</ele>
        <time>2013-06-23T09:49:44Z</time>
      </trkpt>
      <trkpt lat="45.41226" lon="5.69904">
        <ele>579</ele>
        <time>2013-06-23T09:49:45Z</time>
      </trkpt>
      <trkpt lat="45.4122" lon="5.69901">
        <ele>578.5</ele>
        <time>2013-06-23T09:49:46Z</time>
      </trkpt>
      <trkpt lat="45.41214" lon="5.69898">
        <ele>578.1</ele>
        <time>2013-06-23T09:49:47Z</time>
      </trkpt>
      <trkpt lat="45.41208" lon="5.69895">
        <ele>577.8</ele>
        <time>2013-06-23T09:49:48Z</time>
      </trkpt>
      <trkpt lat="45.41202" lon="5.69892">
        <ele>577.5</ele>
        <time>2013-06-23T09:49:49Z</time>
      </trkpt>
      <trkpt lat="45.41196" lon="5.69889">
        <ele>577.6</ele>
        <time>2013-06-23T09:49:50Z</time>
      </trkpt>
      <trkpt lat="45.41189" lon="5.69886">
        <ele>577.6</ele>
        <time>2013-06-23T09:49:51Z</time>
      </trkpt>
      <trkpt lat="45.41183" lon="5.69883">
        <ele>577.6</ele>
        <time>2013-06-23T09:49:52Z</time>
      </trkpt>
      <trkpt lat="45.41177" lon="5.69879">
        <ele>577.7</ele>
        <time>2013-06-23T09:49:53Z</time>
      </trkpt>
      <trkpt lat="45.41172" lon="5.69874">
        <ele>577.8</ele>
        <time>2013-06-23T09:49:54Z</time>
      </trkpt>
      <trkpt lat="45.41166" lon="5.6987">
        <ele>577.9</ele>
        <time>2013-06-23T09:49:55Z</time>
      </trkpt>
      <trkpt lat="45.41161" lon="5.69864">
        <ele>577.5</ele>
        <time>2013-06-23T09:49:56Z</time>
      </trkpt>
      <trkpt lat="45.41156" lon="5.69858">
        <ele>577.1</ele>
        <time>2013-06-23T09:49:57Z</time>
      </trkpt>
      <trkpt lat="45.41151" lon="5.69853">
        <ele>576.9</ele>
        <time>2013-06-23T09:49:58Z</time>
      </trkpt>
      <trkpt lat="45.41146" lon="5.69847">
        <ele>577.5</ele>
        <time>2013-06-23T09:49:59Z</time>
      </trkpt>
      <trkpt lat="45.41141" lon="5.69842">
        <ele>578</ele>
        <time>2013-06-23T09:50:00Z</time>
      </trkpt>
      <trkpt lat="45.41135" lon="5.69836">
        <ele>578.4</ele>
        <time>2013-06-23T09:50:01Z</time>
      </trkpt>
      <trkpt lat="45.4113" lon="5.69831">
        <ele>578.4</ele>
        <time>2013-06-23T09:50:02Z</time>
      </trkpt>
      <trkpt lat="45.41125" lon="5.69826">
        <ele>578.3</ele>
        <time>2013-06-23T09:50:03Z</time>
      </trkpt>
      <trkpt lat="45.4112" lon="5.6982">
        <ele>578.3</ele>
        <time>2013-06-23T09:50:04Z</time>
      </trkpt>
      <trkpt lat="45.41115" lon="5.69815">
        <ele>578.6</ele>
        <time>2013-06-23T09:50:05Z</time>
      </trkpt>
      <trkpt lat="45.4111" lon="5.69811">
        <ele>578.8</ele>
        <time>2013-06-23T09:50:06Z</time>
      </trkpt>
      <trkpt lat="45.41104" lon="5.69807">
        <ele>578.9</ele>
        <time>2013-06-23T09:50:07Z</time>
      </trkpt>
      <trkpt lat="45.41098" lon="5.69806">
        <ele>579</ele>
        <time>2013-06-23T09:50:08Z</time>
      </trkpt>
      <trkpt lat="45.41092" lon="5.69806">
        <ele>578.8</ele>
        <time>2013-06-23T09:50:09Z</time>
      </trkpt>
      <trkpt lat="45.41085" lon="5.69808">
        <ele>578.6</ele>
        <time>2013-06-23T09:50:10Z</time>
      </trkpt>
      <trkpt lat="45.4108" lon="5.69811">
        <ele>578.5</ele>
        <time>2013-06-23T09:50:11Z</time>
      </trkpt>
      <trkpt lat="45.41074" lon="5.69815">
        <ele>578.3</ele>
        <time>2013-06-23T09:50:12Z</time>
      </trkpt>
      <trkpt lat="45.41069" lon="5.6982">
        <ele>578.2</ele>
        <time>2013-06-23T09:50:13Z</time>
      </trkpt>
      <trkpt lat="45.41065" lon="5.69825">
        <ele>578.1</ele>
        <time>2013-06-23T09:50:14Z</time>
      </trkpt>
      <trkpt lat="45.4106" lon="5.6983">
        <ele>577.9</ele>
        <time>2013-06-23T09:50:15Z</time>
      </trkpt>
      <trkpt lat="45.41056" lon="5.69835">
        <ele>577.8</ele>
        <time>2013-06-23T09:50:16Z</time>
      </trkpt>
      <trkpt lat="45.41051" lon="5.69841">
        <ele>577.7</ele>
        <time>2013-06-23T09:50:17Z</time>
      </trkpt>
      <trkpt lat="45.41047" lon="5.69845">
        <ele>578.2</ele>
        <time>2013-06-23T09:50:18Z</time>
      </trkpt>
      <trkpt lat="45.41043" lon="5.6985">
        <ele>578.6</ele>
        <time>2013-06-23T09:50:19Z</time>
      </trkpt>
      <trkpt lat="45.41039" lon="5.69855">
        <ele>578.8</ele>
        <time>2013-06-23T09:50:20Z</time>
      </trkpt>
      <trkpt lat="45.41034" lon="5.6986">
        <ele>579</ele>
        <time>2013-06-23T09:50:21Z</time>
      </trkpt>
      <trkpt lat="45.41029" lon="5.69864">
        <ele>579.1</ele>
        <time>2013-06-23T09:50:22Z</time>
      </trkpt>
      <trkpt lat="45.41024" lon="5.69867">
        <ele>579.2</ele>
        <time>2013-06-23T09:50:23Z</time>
      </trkpt>
      <trkpt lat="45.41019" lon="5.69869">
        <ele>579.3</ele>
        <time>2013-06-23T09:50:24Z</time>
      </trkpt>
      <trkpt lat="45.41013" lon="5.69871">
        <ele>579.7</ele>
        <time>2013-06-23T09:50:25Z</time>
      </trkpt>
      <trkpt lat="45.41008" lon="5.69872">
        <ele>580</ele>
        <time>2013-06-23T09:50:26Z</time>
      </trkpt>
      <trkpt lat="45.41002" lon="5.69873">
        <ele>580.2</ele>
        <time>2013-06-23T09:50:27Z</time>
      </trkpt>
      <trkpt lat="45.40996" lon="5.69873">
        <ele>580.3</ele>
        <time>2013-06-23T09:50:28Z</time>
      </trkpt>
      <trkpt lat="45.40991" lon="5.69874">
        <ele>580.4</ele>
        <time>2013-06-23T09:50:29Z</time>
      </trkpt>
      <trkpt lat="45.40985" lon="5.69873">
        <ele>580.5</ele>
        <time>2013-06-23T09:50:30Z</time>
      </trkpt>
      <trkpt lat="45.40978" lon="5.69872">
        <ele>580.4</ele>
        <time>2013-06-23T09:50:31Z</time>
      </trkpt>
      <trkpt lat="45.40972" lon="5.69871">
        <ele>580.4</ele>
        <time>2013-06-23T09:50:32Z</time>
      </trkpt>
      <trkpt lat="45.40966" lon="5.6987">
        <ele>580.3</ele>
        <time>2013-06-23T09:50:33Z</time>
      </trkpt>
      <trkpt lat="45.4096" lon="5.69868">
        <ele>580.6</ele>
        <time>2013-06-23T09:50:34Z</time>
      </trkpt>
      <trkpt lat="45.40955" lon="5.69866">
        <ele>580.8</ele>
        <time>2013-06-23T09:50:35Z</time>
      </trkpt>
      <trkpt lat="45.40949" lon="5.69864">
        <ele>581</ele>
        <time>2013-06-23T09:50:36Z</time>
      </trkpt>
      <trkpt lat="45.40944" lon="5.69861">
        <ele>581.5</ele>
        <time>2013-06-23T09:50:37Z</time>
      </trkpt>
      <trkpt lat="45.40939" lon="5.69858">
        <ele>581.9</ele>
        <time>2013-06-23T09:50:38Z</time>
      </trkpt>
      <trkpt lat="45.40934" lon="5.69856">
        <ele>582.2</ele>
        <time>2013-06-23T09:50:39Z</time>
      </trkpt>
      <trkpt lat="45.40929" lon="5.69853">
        <ele>582.4</ele>
        <time>2013-06-23T09:50:40Z</time>
      </trkpt>
      <trkpt lat="45.40924" lon="5.6985">
        <ele>582.3</ele>
        <time>2013-06-23T09:50:41Z</time>
      </trkpt>
      <trkpt lat="45.40919" lon="5.69847">
        <ele>582.3</ele>
        <time>2013-06-23T09:50:42Z</time>
      </trkpt>
      <trkpt lat="45.40915" lon="5.69845">
        <ele>582.2</ele>
        <time>2013-06-23T09:50:43Z</time>
      </trkpt>
      <trkpt lat="45.40906" lon="5.69841">
        <ele>582.2</ele>
        <time>2013-06-23T09:50:45Z</time>
      </trkpt>
      <trkpt lat="45.40899" lon="5.69838">
        <ele>582.4</ele>
        <time>2013-06-23T09:50:47Z</time>
      </trkpt>
      <trkpt lat="45.40895" lon="5.69826">
        <ele>582.6</ele>
        <time>2013-06-23T09:50:50Z</time>
      </trkpt>
      <trkpt lat="45.40901" lon="5.69818">
        <ele>582.7</ele>
        <time>2013-06-23T09:50:53Z</time>
      </trkpt>
      <trkpt lat="45.40907" lon="5.69809">
        <ele>584.3</ele>
        <time>2013-06-23T09:50:58Z</time>
      </trkpt>
      <trkpt lat="45.40911" lon="5.69799">
        <ele>586.5</ele>
        <time>2013-06-23T09:51:03Z</time>
      </trkpt>
      <trkpt lat="45.40915" lon="5.69788">
        <ele>587.1</ele>
        <time>2013-06-23T09:51:08Z</time>
      </trkpt>
      <trkpt lat="45.40915" lon="5.69786">
        <ele>587.7</ele>
        <time>2013-06-23T09:51:09Z</time>
      </trkpt>
      <trkpt lat="45.40919" lon="5.69766">
        <ele>589.3</ele>
        <time>2013-06-23T09:51:16Z</time>
      </trkpt>
      <trkpt lat="45.4092" lon="5.69754">
        <ele>590.3</ele>
        <time>2013-06-23T09:51:20Z</time>
      </trkpt>
      <trkpt lat="45.40921" lon="5.69743">
        <ele>591.2</ele>
        <time>2013-06-23T09:51:24Z</time>
      </trkpt>
      <trkpt lat="45.40922" lon="5.6973">
        <ele>592.5</ele>
        <time>2013-06-23T09:51:29Z</time>
      </trkpt>
      <trkpt lat="45.40924" lon="5.69718">
        <ele>593.1</ele>
        <time>2013-06-23T09:51:34Z</time>
      </trkpt>
      <trkpt lat="45.40925" lon="5.69708">
        <ele>594.6</ele>
        <time>2013-06-23T09:51:38Z</time>
      </trkpt>
      <trkpt lat="45.40927" lon="5.69696">
        <ele>595.8</ele>
        <time>2013-06-23T09:51:43Z</time>
      </trkpt>
      <trkpt lat="45.40929" lon="5.69684">
        <ele>597.6</ele>
        <time>2013-06-23T09:51:48Z</time>
      </trkpt>
      <trkpt lat="45.40931" lon="5.69674">
        <ele>598.1</ele>
        <time>2013-06-23T09:51:52Z</time>
      </trkpt>
      <trkpt lat="45.40933" lon="5.69664">
        <ele>599</ele>
        <time>2013-06-23T09:51:56Z</time>
      </trkpt>
      <trkpt lat="45.40936" lon="5.69653">
        <ele>598.8</ele>
        <time>2013-06-23T09:52:01Z</time>
      </trkpt>
      <trkpt lat="45.4094" lon="5.69642">
        <ele>599</ele>
        <time>2013-06-23T09:52:05Z</time>
      </trkpt>
      <trkpt lat="45.40942" lon="5.6963">
        <ele>599.9</ele>
        <time>2013-06-23T09:52:09Z</time>
      </trkpt>
      <trkpt lat="45.40943" lon="5.69628">
        <ele>600</ele>
        <time>2013-06-23T09:52:10Z</time>
      </trkpt>
      <trkpt lat="45.40949" lon="5.6961">
        <ele>600.2</ele>
        <time>2013-06-23T09:52:17Z</time>
      </trkpt>
      <trkpt lat="45.4095" lon="5.69599">
        <ele>599.3</ele>
        <time>2013-06-23T09:52:21Z</time>
      </trkpt>
      <trkpt lat="45.4095" lon="5.69588">
        <ele>601</ele>
        <time>2013-06-23T09:52:25Z</time>
      </trkpt>
      <trkpt lat="45.40947" lon="5.69576">
        <ele>601.4</ele>
        <time>2013-06-23T09:52:29Z</time>
      </trkpt>
      <trkpt lat="45.40944" lon="5.69565">
        <ele>601.6</ele>
        <time>2013-06-23T09:52:33Z</time>
      </trkpt>
      <trkpt lat="45.40941" lon="5.69553">
        <ele>601.7</ele>
        <time>2013-06-23T09:52:37Z</time>
      </trkpt>
      <trkpt lat="45.40937" lon="5.69543">
        <ele>601.4</ele>
        <time>2013-06-23T09:52:41Z</time>
      </trkpt>
      <trkpt lat="45.40933" lon="5.69533">
        <ele>602.1</ele>
        <time>2013-06-23T09:52:45Z</time>
      </trkpt>
      <trkpt lat="45.40928" lon="5.69523">
        <ele>602.3</ele>
        <time>2013-06-23T09:52:49Z</time>
      </trkpt>
      <trkpt lat="45.40925" lon="5.69512">
        <ele>602.3</ele>
        <time>2013-06-23T09:52:53Z</time>
      </trkpt>
      <trkpt lat="45.40922" lon="5.69501">
        <ele>603.6</ele>
        <time>2013-06-23T09:52:57Z</time>
      </trkpt>
      <trkpt lat="45.4092" lon="5.69491">
        <ele>603</ele>
        <time>2013-06-23T09:53:00Z</time>
      </trkpt>
      <trkpt lat="45.40919" lon="5.6948">
        <ele>603.1</ele>
        <time>2013-06-23T09:53:04Z</time>
      </trkpt>
      <trkpt lat="45.40917" lon="5.69468">
        <ele>605</ele>
        <time>2013-06-23T09:53:08Z</time>
      </trkpt>
      <trkpt lat="45.40916" lon="5.69458">
        <ele>605.6</ele>
        <time>2013-06-23T09:53:11Z</time>
      </trkpt>
      <trkpt lat="45.40916" lon="5.69455">
        <ele>605.3</ele>
        <time>2013-06-23T09:53:12Z</time>
      </trkpt>
      <trkpt lat="45.40912" lon="5.69433">
        <ele>605.7</ele>
        <time>2013-06-23T09:53:19Z</time>
      </trkpt>
      <trkpt lat="45.40908" lon="5.69422">
        <ele>605.9</ele>
        <time>2013-06-23T09:53:23Z</time>
      </trkpt>
      <trkpt lat="45.40905" lon="5.69411">
        <ele>606.3</ele>
        <time>2013-06-23T09:53:28Z</time>
      </trkpt>
      <trkpt lat="45.40902" lon="5.69401">
        <ele>606.9</ele>
        <time>2013-06-23T09:53:33Z</time>
      </trkpt>
      <trkpt lat="45.409" lon="5.6939">
        <ele>607.8</ele>
        <time>2013-06-23T09:53:38Z</time>
      </trkpt>
      <trkpt lat="45.40899" lon="5.69378">
        <ele>608.5</ele>
        <time>2013-06-23T09:53:42Z</time>
      </trkpt>
      <trkpt lat="45.40899" lon="5.69367">
        <ele>608.8</ele>
        <time>2013-06-23T09:53:46Z</time>
      </trkpt>
      <trkpt lat="45.40901" lon="5.69356">
        <ele>607.9</ele>
        <time>2013-06-23T09:53:50Z</time>
      </trkpt>
      <trkpt lat="45.40901" lon="5.69346">
        <ele>608.7</ele>
        <time>2013-06-23T09:53:53Z</time>
      </trkpt>
      <trkpt lat="45.40901" lon="5.69334">
        <ele>608.1</ele>
        <time>2013-06-23T09:53:57Z</time>
      </trkpt>
      <trkpt lat="45.40898" lon="5.69323">
        <ele>609</ele>
        <time>2013-06-23T09:54:01Z</time>
      </trkpt>
      <trkpt lat="45.40898" lon="5.69312">
        <ele>610.1</ele>
        <time>2013-06-23T09:54:05Z</time>
      </trkpt>
      <trkpt lat="45.40898" lon="5.69302">
        <ele>611.9</ele>
        <time>2013-06-23T09:54:09Z</time>
      </trkpt>
      <trkpt lat="45.40898" lon="5.69291">
        <ele>613.1</ele>
        <time>2013-06-23T09:54:13Z</time>
      </trkpt>
      <trkpt lat="45.40898" lon="5.69289">
        <ele>612.9</ele>
        <time>2013-06-23T09:54:14Z</time>
      </trkpt>
      <trkpt lat="45.40877" lon="5.69125">
        <ele>464.4</ele>
        <time>2013-06-23T02:40:11Z</time>
      </trkpt>
      <trkpt lat="45.4081" lon="5.69118">
        <ele>464.4</ele>
        <time>2013-06-23T02:57:27Z</time>
      </trkpt>
      <trkpt lat="45.40802" lon="5.68911">
        <ele>464.4</ele>
        <time>2013-06-23T03:34:40Z</time>
      </trkpt>
      <trkpt lat="45.4078" lon="5.687">
        <ele>464.4</ele>
        <time>2013-06-23T04:12:33Z</time>
      </trkpt>
      <trkpt lat="45.40751" lon="5.68554">
        <ele>464.4</ele>
        <time>2013-06-23T04:39:30Z</time>
      </trkpt>
      <trkpt lat="45.40868" lon="5.68395">
        <ele>464.4</ele>
        <time>2013-06-23T05:15:40Z</time>
      </trkpt>
      <trkpt lat="45.40998" lon="5.6817">
        <ele>464.4</ele>
        <time>2013-06-23T05:55:28Z</time>
      </trkpt>
      <trkpt lat="45.41006" lon="5.68069">
        <ele>464.4</ele>
        <time>2013-06-23T06:08:53Z</time>
      </trkpt>
      <trkpt lat="45.41028" lon="5.67983">
        <ele>464.4</ele>
        <time>2013-06-23T06:20:34Z</time>
      </trkpt>
      <trkpt lat="45.41081" lon="5.67956">
        <ele>464.4</ele>
        <time>2013-06-23T06:30:07Z</time>
      </trkpt>
      <trkpt lat="45.41099" lon="5.67903">
        <ele>464.4</ele>
        <time>2013-06-23T06:36:53Z</time>
      </trkpt>
      <trkpt lat="45.41136" lon="5.67865">
        <ele>464.4</ele>
        <time>2013-06-23T06:44:00Z</time>
      </trkpt>
      <trkpt lat="45.41094" lon="5.67751">
        <ele>464.4</ele>
        <time>2013-06-23T06:57:51Z</time>
      </trkpt>
      <trkpt lat="45.41121" lon="5.67732">
        <ele>464.4</ele>
        <time>2013-06-23T07:02:15Z</time>
      </trkpt>
      <trkpt lat="45.41177" lon="5.67769">
        <ele>464.4</ele>
        <time>2013-06-23T07:10:36Z</time>
      </trkpt>
      <trkpt lat="45.41141" lon="5.67689">
        <ele>464.4</ele>
        <time>2013-06-23T07:19:28Z</time>
      </trkpt>
      <trkpt lat="45.41032" lon="5.67585">
        <ele>464.4</ele>
        <time>2013-06-23T07:36:56Z</time>
      </trkpt>
      <trkpt lat="45.41177" lon="5.676">
        <ele>464.4</ele>
        <time>2013-06-23T07:52:31Z</time>
      </trkpt>
      <trkpt lat="45.41157" lon="5.67542">
        <ele>464.4</ele>
        <time>2013-06-23T07:57:21Z</time>
      </trkpt>
      <trkpt lat="45.4109" lon="5.67393">
        <ele>464.4</ele>
        <time>2013-06-23T08:10:11Z</time>
      </trkpt>
      <trkpt lat="45.40958" lon="5.6729">
        <ele>464.4</ele>
        <time>2013-06-20T19:21:41Z</time>
      </trkpt>
      <trkpt lat="45.40858" lon="5.67139">
        <ele>464.4</ele>
        <time>2013-06-21T03:31:16Z</time>
      </trkpt>
      <trkpt lat="45.40733" lon="5.67175">
        <ele>464.4</ele>
        <time>2013-06-21T10:36:54Z</time>
      </trkpt>
      <trkpt lat="45.405" lon="5.67175">
        <ele>464.4</ele>
        <time>2013-06-21T23:35:22Z</time>
      </trkpt>
      <trkpt lat="45.404" lon="5.67108">
        <ele>464.4</ele>
        <time>2013-06-22T05:40:12Z</time>
      </trkpt>
      <trkpt lat="45.40259" lon="5.67126">
        <ele>464.4</ele>
        <time>2013-06-22T13:25:37Z</time>
      </trkpt>
      <trkpt lat="45.40108" lon="5.67087">
        <ele>464.4</ele>
        <time>2013-06-22T21:47:35Z</time>
      </trkpt>
      <trkpt lat="45.40054" lon="5.67057">
        <ele>464.4</ele>
        <time>2013-06-23T00:51:14Z</time>
      </trkpt>
      <trkpt lat="45.39928" lon="5.67069">
        <ele>464.4</ele>
        <time>2013-06-23T07:27:38Z</time>
      </trkpt>
      <trkpt lat="45.39863" lon="5.67069">
        <ele>464.4</ele>
        <time>2013-06-23T09:25:03Z</time>
      </trkpt>
      <trkpt lat="45.39879" lon="5.67103">
        <ele>465.8</ele>
        <time>2013-06-23T10:17:01Z</time>
      </trkpt>
      <trkpt lat="45.39879" lon="5.67103">
        <ele>465</ele>
        <time>2013-06-23T10:18:29Z</time>
      </trkpt>
    </trkseg>
  </trk>
</gpx>